<?xml version="1.0" encoding="UTF-8" standalone="no" ?>
<gpx xmlns="http://www.topografix.com/GPX/1/1" xmlns:xsi="http://www.w3.org/2001/XMLSchema-instance" xsi:schemaLocation="http://www.topografix.com/GPX/1/1 http://www.topografix.com/GPX/1/1/gpx.xsd" version="1.1" creator="VisuGPX - https://www.visugpx.com">
  <metadata>
    <name>Les gorges de l'Artières</name>
  </metadata>
  <trk>
    <name><![CDATA[20180518195928-XDsNi]]></name>
    <trkseg>
      <trkpt lat="45.72487" lon="3.0629">
        <ele>601</ele>
        <time>2013-02-08T12:42:05Z</time>
      </trkpt>
      <trkpt lat="45.72487" lon="3.0629">
        <ele>601</ele>
        <time>2013-02-08T12:42:05Z</time>
      </trkpt>
      <trkpt lat="45.72487" lon="3.0629">
        <ele>602</ele>
        <time>2013-02-08T12:42:05Z</time>
      </trkpt>
      <trkpt lat="45.72487" lon="3.0629">
        <ele>602</ele>
        <time>2013-02-08T12:42:05Z</time>
      </trkpt>
      <trkpt lat="45.72487" lon="3.06288">
        <ele>602</ele>
        <time>2013-02-08T12:42:05Z</time>
      </trkpt>
      <trkpt lat="45.72487" lon="3.06285">
        <ele>602</ele>
        <time>2013-02-08T12:42:05Z</time>
      </trkpt>
      <trkpt lat="45.72487" lon="3.06282">
        <ele>602</ele>
        <time>2013-02-08T12:42:05Z</time>
      </trkpt>
      <trkpt lat="45.72487" lon="3.06279">
        <ele>602</ele>
        <time>2013-02-08T12:42:05Z</time>
      </trkpt>
      <trkpt lat="45.72486" lon="3.06276">
        <ele>601</ele>
        <time>2013-02-08T12:42:05Z</time>
      </trkpt>
      <trkpt lat="45.72487" lon="3.06273">
        <ele>601</ele>
        <time>2013-02-08T12:42:05Z</time>
      </trkpt>
      <trkpt lat="45.72486" lon="3.06269">
        <ele>601</ele>
        <time>2013-02-08T12:42:05Z</time>
      </trkpt>
      <trkpt lat="45.72486" lon="3.06267">
        <ele>601</ele>
        <time>2013-02-08T12:42:05Z</time>
      </trkpt>
      <trkpt lat="45.72486" lon="3.06264">
        <ele>600</ele>
        <time>2013-02-08T12:42:05Z</time>
      </trkpt>
      <trkpt lat="45.72487" lon="3.06262">
        <ele>600</ele>
        <time>2013-02-08T12:42:05Z</time>
      </trkpt>
      <trkpt lat="45.72487" lon="3.0626">
        <ele>599</ele>
        <time>2013-02-08T12:42:05Z</time>
      </trkpt>
      <trkpt lat="45.72487" lon="3.06257">
        <ele>599</ele>
        <time>2013-02-08T12:42:05Z</time>
      </trkpt>
      <trkpt lat="45.72487" lon="3.06255">
        <ele>599</ele>
        <time>2013-02-08T12:42:05Z</time>
      </trkpt>
      <trkpt lat="45.72487" lon="3.06254">
        <ele>599</ele>
        <time>2013-02-08T12:42:05Z</time>
      </trkpt>
      <trkpt lat="45.72487" lon="3.06253">
        <ele>599</ele>
        <time>2013-02-08T12:42:05Z</time>
      </trkpt>
      <trkpt lat="45.72483" lon="3.06251">
        <ele>600</ele>
        <time>2013-02-08T12:42:05Z</time>
      </trkpt>
      <trkpt lat="45.72482" lon="3.06251">
        <ele>600</ele>
        <time>2013-02-08T12:42:05Z</time>
      </trkpt>
      <trkpt lat="45.72481" lon="3.0625">
        <ele>602</ele>
        <time>2013-02-08T12:42:05Z</time>
      </trkpt>
      <trkpt lat="45.7248" lon="3.06249">
        <ele>603</ele>
        <time>2013-02-08T12:42:05Z</time>
      </trkpt>
      <trkpt lat="45.72481" lon="3.06247">
        <ele>602</ele>
        <time>2013-02-08T12:42:05Z</time>
      </trkpt>
      <trkpt lat="45.72481" lon="3.06245">
        <ele>602</ele>
        <time>2013-02-08T12:42:05Z</time>
      </trkpt>
      <trkpt lat="45.72481" lon="3.06244">
        <ele>603</ele>
        <time>2013-02-08T12:42:05Z</time>
      </trkpt>
      <trkpt lat="45.72483" lon="3.06245">
        <ele>602</ele>
        <time>2013-02-08T12:42:05Z</time>
      </trkpt>
      <trkpt lat="45.72483" lon="3.06245">
        <ele>602</ele>
        <time>2013-02-08T12:42:05Z</time>
      </trkpt>
      <trkpt lat="45.72483" lon="3.06242">
        <ele>602</ele>
        <time>2013-02-08T12:42:05Z</time>
      </trkpt>
      <trkpt lat="45.72483" lon="3.06239">
        <ele>603</ele>
        <time>2013-02-08T12:42:05Z</time>
      </trkpt>
      <trkpt lat="45.72482" lon="3.06236">
        <ele>603</ele>
        <time>2013-02-08T12:42:05Z</time>
      </trkpt>
      <trkpt lat="45.72479" lon="3.06234">
        <ele>604</ele>
        <time>2013-02-08T12:42:05Z</time>
      </trkpt>
      <trkpt lat="45.72478" lon="3.06231">
        <ele>605</ele>
        <time>2013-02-08T12:42:05Z</time>
      </trkpt>
      <trkpt lat="45.72476" lon="3.06229">
        <ele>606</ele>
        <time>2013-02-08T12:42:05Z</time>
      </trkpt>
      <trkpt lat="45.72474" lon="3.06225">
        <ele>606</ele>
        <time>2013-02-08T12:42:05Z</time>
      </trkpt>
      <trkpt lat="45.72472" lon="3.06223">
        <ele>607</ele>
        <time>2013-02-08T12:42:05Z</time>
      </trkpt>
      <trkpt lat="45.7247" lon="3.06221">
        <ele>607</ele>
        <time>2013-02-08T12:42:05Z</time>
      </trkpt>
      <trkpt lat="45.72469" lon="3.06218">
        <ele>608</ele>
        <time>2013-02-08T12:42:05Z</time>
      </trkpt>
      <trkpt lat="45.72467" lon="3.06215">
        <ele>608</ele>
        <time>2013-02-08T12:42:05Z</time>
      </trkpt>
      <trkpt lat="45.72465" lon="3.06213">
        <ele>608</ele>
        <time>2013-02-08T12:42:05Z</time>
      </trkpt>
      <trkpt lat="45.72461" lon="3.0621">
        <ele>609</ele>
        <time>2013-02-08T12:42:05Z</time>
      </trkpt>
      <trkpt lat="45.72459" lon="3.06207">
        <ele>609</ele>
        <time>2013-02-08T12:42:05Z</time>
      </trkpt>
      <trkpt lat="45.72457" lon="3.06204">
        <ele>609</ele>
        <time>2013-02-08T12:42:05Z</time>
      </trkpt>
      <trkpt lat="45.72454" lon="3.062">
        <ele>609</ele>
        <time>2013-02-08T12:42:05Z</time>
      </trkpt>
      <trkpt lat="45.72453" lon="3.06198">
        <ele>609</ele>
        <time>2013-02-08T12:42:05Z</time>
      </trkpt>
      <trkpt lat="45.72452" lon="3.06196">
        <ele>610</ele>
        <time>2013-02-08T12:42:05Z</time>
      </trkpt>
      <trkpt lat="45.72451" lon="3.06192">
        <ele>610</ele>
        <time>2013-02-08T12:42:05Z</time>
      </trkpt>
      <trkpt lat="45.7245" lon="3.06189">
        <ele>610</ele>
        <time>2013-02-08T12:42:05Z</time>
      </trkpt>
      <trkpt lat="45.72449" lon="3.06187">
        <ele>610</ele>
        <time>2013-02-08T12:42:05Z</time>
      </trkpt>
      <trkpt lat="45.72447" lon="3.06186">
        <ele>610</ele>
        <time>2013-02-08T12:42:05Z</time>
      </trkpt>
      <trkpt lat="45.72446" lon="3.06184">
        <ele>610</ele>
        <time>2013-02-08T12:42:05Z</time>
      </trkpt>
      <trkpt lat="45.72444" lon="3.06182">
        <ele>610</ele>
        <time>2013-02-08T12:42:05Z</time>
      </trkpt>
      <trkpt lat="45.72442" lon="3.06181">
        <ele>610</ele>
        <time>2013-02-08T12:42:05Z</time>
      </trkpt>
      <trkpt lat="45.72438" lon="3.06181">
        <ele>610</ele>
        <time>2013-02-08T12:42:05Z</time>
      </trkpt>
      <trkpt lat="45.72436" lon="3.0618">
        <ele>610</ele>
        <time>2013-02-08T12:42:05Z</time>
      </trkpt>
      <trkpt lat="45.72434" lon="3.06179">
        <ele>610</ele>
        <time>2013-02-08T12:42:05Z</time>
      </trkpt>
      <trkpt lat="45.72431" lon="3.06179">
        <ele>610</ele>
        <time>2013-02-08T12:42:05Z</time>
      </trkpt>
      <trkpt lat="45.72429" lon="3.06177">
        <ele>610</ele>
        <time>2013-02-08T12:42:05Z</time>
      </trkpt>
      <trkpt lat="45.72427" lon="3.06175">
        <ele>610</ele>
        <time>2013-02-08T12:42:05Z</time>
      </trkpt>
      <trkpt lat="45.72424" lon="3.06173">
        <ele>610</ele>
        <time>2013-02-08T12:42:05Z</time>
      </trkpt>
      <trkpt lat="45.72423" lon="3.06172">
        <ele>610</ele>
        <time>2013-02-08T12:42:05Z</time>
      </trkpt>
      <trkpt lat="45.72421" lon="3.0617">
        <ele>610</ele>
        <time>2013-02-08T12:42:05Z</time>
      </trkpt>
      <trkpt lat="45.7242" lon="3.06169">
        <ele>610</ele>
        <time>2013-02-08T12:42:05Z</time>
      </trkpt>
      <trkpt lat="45.72418" lon="3.06168">
        <ele>610</ele>
        <time>2013-02-08T12:42:05Z</time>
      </trkpt>
      <trkpt lat="45.72416" lon="3.06167">
        <ele>611</ele>
        <time>2013-02-08T12:42:05Z</time>
      </trkpt>
      <trkpt lat="45.72414" lon="3.06165">
        <ele>612</ele>
        <time>2013-02-08T12:42:05Z</time>
      </trkpt>
      <trkpt lat="45.72412" lon="3.06164">
        <ele>613</ele>
        <time>2013-02-08T12:42:05Z</time>
      </trkpt>
      <trkpt lat="45.72409" lon="3.06162">
        <ele>614</ele>
        <time>2013-02-08T12:42:05Z</time>
      </trkpt>
      <trkpt lat="45.72407" lon="3.06161">
        <ele>615</ele>
        <time>2013-02-08T12:42:05Z</time>
      </trkpt>
      <trkpt lat="45.72405" lon="3.06159">
        <ele>616</ele>
        <time>2013-02-08T12:42:05Z</time>
      </trkpt>
      <trkpt lat="45.72403" lon="3.06156">
        <ele>617</ele>
        <time>2013-02-08T12:42:05Z</time>
      </trkpt>
      <trkpt lat="45.72401" lon="3.06155">
        <ele>618</ele>
        <time>2013-02-08T12:42:05Z</time>
      </trkpt>
      <trkpt lat="45.72399" lon="3.06153">
        <ele>619</ele>
        <time>2013-02-08T12:42:05Z</time>
      </trkpt>
      <trkpt lat="45.72397" lon="3.06152">
        <ele>619</ele>
        <time>2013-02-08T12:42:05Z</time>
      </trkpt>
      <trkpt lat="45.72395" lon="3.0615">
        <ele>620</ele>
        <time>2013-02-08T12:42:05Z</time>
      </trkpt>
      <trkpt lat="45.72392" lon="3.06148">
        <ele>621</ele>
        <time>2013-02-08T12:42:05Z</time>
      </trkpt>
      <trkpt lat="45.7239" lon="3.06146">
        <ele>621</ele>
        <time>2013-02-08T12:42:05Z</time>
      </trkpt>
      <trkpt lat="45.72388" lon="3.06144">
        <ele>622</ele>
        <time>2013-02-08T12:42:05Z</time>
      </trkpt>
      <trkpt lat="45.72386" lon="3.06143">
        <ele>622</ele>
        <time>2013-02-08T12:42:05Z</time>
      </trkpt>
      <trkpt lat="45.72384" lon="3.06141">
        <ele>623</ele>
        <time>2013-02-08T12:42:05Z</time>
      </trkpt>
      <trkpt lat="45.72383" lon="3.06139">
        <ele>623</ele>
        <time>2013-02-08T12:42:05Z</time>
      </trkpt>
      <trkpt lat="45.7238" lon="3.06138">
        <ele>623</ele>
        <time>2013-02-08T12:42:05Z</time>
      </trkpt>
      <trkpt lat="45.72378" lon="3.06136">
        <ele>624</ele>
        <time>2013-02-08T12:42:05Z</time>
      </trkpt>
      <trkpt lat="45.72377" lon="3.06134">
        <ele>624</ele>
        <time>2013-02-08T12:42:05Z</time>
      </trkpt>
      <trkpt lat="45.72376" lon="3.06131">
        <ele>624</ele>
        <time>2013-02-08T12:42:05Z</time>
      </trkpt>
      <trkpt lat="45.72374" lon="3.06128">
        <ele>624</ele>
        <time>2013-02-08T12:42:05Z</time>
      </trkpt>
      <trkpt lat="45.72374" lon="3.06124">
        <ele>624</ele>
        <time>2013-02-08T12:42:05Z</time>
      </trkpt>
      <trkpt lat="45.72373" lon="3.06121">
        <ele>624</ele>
        <time>2013-02-08T12:42:05Z</time>
      </trkpt>
      <trkpt lat="45.72372" lon="3.06119">
        <ele>624</ele>
        <time>2013-02-08T12:42:05Z</time>
      </trkpt>
      <trkpt lat="45.72371" lon="3.06116">
        <ele>624</ele>
        <time>2013-02-08T12:42:05Z</time>
      </trkpt>
      <trkpt lat="45.7237" lon="3.06113">
        <ele>624</ele>
        <time>2013-02-08T12:42:05Z</time>
      </trkpt>
      <trkpt lat="45.72369" lon="3.0611">
        <ele>625</ele>
        <time>2013-02-08T12:42:05Z</time>
      </trkpt>
      <trkpt lat="45.72367" lon="3.06108">
        <ele>625</ele>
        <time>2013-02-08T12:42:05Z</time>
      </trkpt>
      <trkpt lat="45.72365" lon="3.06106">
        <ele>625</ele>
        <time>2013-02-08T12:42:05Z</time>
      </trkpt>
      <trkpt lat="45.72363" lon="3.06103">
        <ele>625</ele>
        <time>2013-02-08T12:42:05Z</time>
      </trkpt>
      <trkpt lat="45.72361" lon="3.061">
        <ele>625</ele>
        <time>2013-02-08T12:42:05Z</time>
      </trkpt>
      <trkpt lat="45.72359" lon="3.06098">
        <ele>626</ele>
        <time>2013-02-08T12:42:05Z</time>
      </trkpt>
      <trkpt lat="45.72359" lon="3.06094">
        <ele>626</ele>
        <time>2013-02-08T12:42:05Z</time>
      </trkpt>
      <trkpt lat="45.7236" lon="3.06091">
        <ele>626</ele>
        <time>2013-02-08T12:42:05Z</time>
      </trkpt>
      <trkpt lat="45.7236" lon="3.06089">
        <ele>626</ele>
        <time>2013-02-08T12:42:05Z</time>
      </trkpt>
      <trkpt lat="45.72359" lon="3.06085">
        <ele>626</ele>
        <time>2013-02-08T12:42:05Z</time>
      </trkpt>
      <trkpt lat="45.72359" lon="3.06083">
        <ele>627</ele>
        <time>2013-02-08T12:42:05Z</time>
      </trkpt>
      <trkpt lat="45.72358" lon="3.06081">
        <ele>628</ele>
        <time>2013-02-08T12:42:05Z</time>
      </trkpt>
      <trkpt lat="45.72356" lon="3.06078">
        <ele>628</ele>
        <time>2013-02-08T12:42:05Z</time>
      </trkpt>
      <trkpt lat="45.72354" lon="3.06075">
        <ele>628</ele>
        <time>2013-02-08T12:42:05Z</time>
      </trkpt>
      <trkpt lat="45.72353" lon="3.06073">
        <ele>628</ele>
        <time>2013-02-08T12:42:05Z</time>
      </trkpt>
      <trkpt lat="45.72352" lon="3.0607">
        <ele>628</ele>
        <time>2013-02-08T12:42:05Z</time>
      </trkpt>
      <trkpt lat="45.72352" lon="3.06069">
        <ele>628</ele>
        <time>2013-02-08T12:42:05Z</time>
      </trkpt>
      <trkpt lat="45.7235" lon="3.06067">
        <ele>628</ele>
        <time>2013-02-08T12:42:05Z</time>
      </trkpt>
      <trkpt lat="45.7235" lon="3.06063">
        <ele>628</ele>
        <time>2013-02-08T12:42:05Z</time>
      </trkpt>
      <trkpt lat="45.72349" lon="3.0606">
        <ele>628</ele>
        <time>2013-02-08T12:42:05Z</time>
      </trkpt>
      <trkpt lat="45.72348" lon="3.0606">
        <ele>628</ele>
        <time>2013-02-08T12:42:05Z</time>
      </trkpt>
      <trkpt lat="45.72348" lon="3.06058">
        <ele>628</ele>
        <time>2013-02-08T12:42:05Z</time>
      </trkpt>
      <trkpt lat="45.72348" lon="3.06058">
        <ele>628</ele>
        <time>2013-02-08T12:42:05Z</time>
      </trkpt>
      <trkpt lat="45.72347" lon="3.06056">
        <ele>628</ele>
        <time>2013-02-08T12:42:05Z</time>
      </trkpt>
      <trkpt lat="45.72347" lon="3.06053">
        <ele>628</ele>
        <time>2013-02-08T12:42:05Z</time>
      </trkpt>
      <trkpt lat="45.72347" lon="3.0605">
        <ele>628</ele>
        <time>2013-02-08T12:42:05Z</time>
      </trkpt>
      <trkpt lat="45.72347" lon="3.06047">
        <ele>628</ele>
        <time>2013-02-08T12:42:05Z</time>
      </trkpt>
      <trkpt lat="45.72347" lon="3.06043">
        <ele>628</ele>
        <time>2013-02-08T12:42:05Z</time>
      </trkpt>
      <trkpt lat="45.72347" lon="3.0604">
        <ele>628</ele>
        <time>2013-02-08T12:42:05Z</time>
      </trkpt>
      <trkpt lat="45.72346" lon="3.06035">
        <ele>628</ele>
        <time>2013-02-08T12:42:05Z</time>
      </trkpt>
      <trkpt lat="45.72345" lon="3.06032">
        <ele>628</ele>
        <time>2013-02-08T12:42:05Z</time>
      </trkpt>
      <trkpt lat="45.72345" lon="3.06029">
        <ele>628</ele>
        <time>2013-02-08T12:42:05Z</time>
      </trkpt>
      <trkpt lat="45.72345" lon="3.06028">
        <ele>628</ele>
        <time>2013-02-08T12:42:05Z</time>
      </trkpt>
      <trkpt lat="45.72343" lon="3.06027">
        <ele>628</ele>
        <time>2013-02-08T12:42:05Z</time>
      </trkpt>
      <trkpt lat="45.72343" lon="3.06024">
        <ele>628</ele>
        <time>2013-02-08T12:42:05Z</time>
      </trkpt>
      <trkpt lat="45.72343" lon="3.06022">
        <ele>628</ele>
        <time>2013-02-08T12:42:05Z</time>
      </trkpt>
      <trkpt lat="45.72342" lon="3.06019">
        <ele>628</ele>
        <time>2013-02-08T12:42:05Z</time>
      </trkpt>
      <trkpt lat="45.72341" lon="3.06016">
        <ele>628</ele>
        <time>2013-02-08T12:42:05Z</time>
      </trkpt>
      <trkpt lat="45.7234" lon="3.06013">
        <ele>628</ele>
        <time>2013-02-08T12:42:05Z</time>
      </trkpt>
      <trkpt lat="45.72339" lon="3.06009">
        <ele>628</ele>
        <time>2013-02-08T12:42:05Z</time>
      </trkpt>
      <trkpt lat="45.72338" lon="3.06006">
        <ele>627</ele>
        <time>2013-02-08T12:42:05Z</time>
      </trkpt>
      <trkpt lat="45.72336" lon="3.06002">
        <ele>627</ele>
        <time>2013-02-08T12:42:05Z</time>
      </trkpt>
      <trkpt lat="45.72335" lon="3.05998">
        <ele>628</ele>
        <time>2013-02-08T12:42:05Z</time>
      </trkpt>
      <trkpt lat="45.72332" lon="3.05995">
        <ele>631</ele>
        <time>2013-02-08T12:42:05Z</time>
      </trkpt>
      <trkpt lat="45.7233" lon="3.05992">
        <ele>632</ele>
        <time>2013-02-08T12:42:05Z</time>
      </trkpt>
      <trkpt lat="45.72328" lon="3.05988">
        <ele>634</ele>
        <time>2013-02-08T12:42:05Z</time>
      </trkpt>
      <trkpt lat="45.72327" lon="3.05985">
        <ele>635</ele>
        <time>2013-02-08T12:42:05Z</time>
      </trkpt>
      <trkpt lat="45.72326" lon="3.05984">
        <ele>636</ele>
        <time>2013-02-08T12:42:05Z</time>
      </trkpt>
      <trkpt lat="45.72326" lon="3.05983">
        <ele>636</ele>
        <time>2013-02-08T12:42:05Z</time>
      </trkpt>
      <trkpt lat="45.72324" lon="3.0598">
        <ele>637</ele>
        <time>2013-02-08T12:42:05Z</time>
      </trkpt>
      <trkpt lat="45.72325" lon="3.05977">
        <ele>638</ele>
        <time>2013-02-08T12:42:05Z</time>
      </trkpt>
      <trkpt lat="45.72324" lon="3.05974">
        <ele>638</ele>
        <time>2013-02-08T12:42:05Z</time>
      </trkpt>
      <trkpt lat="45.72323" lon="3.05973">
        <ele>639</ele>
        <time>2013-02-08T12:42:05Z</time>
      </trkpt>
      <trkpt lat="45.72322" lon="3.05973">
        <ele>639</ele>
        <time>2013-02-08T12:42:05Z</time>
      </trkpt>
      <trkpt lat="45.72321" lon="3.0597">
        <ele>639</ele>
        <time>2013-02-08T12:42:05Z</time>
      </trkpt>
      <trkpt lat="45.7232" lon="3.05968">
        <ele>640</ele>
        <time>2013-02-08T12:42:05Z</time>
      </trkpt>
      <trkpt lat="45.72319" lon="3.05965">
        <ele>640</ele>
        <time>2013-02-08T12:42:05Z</time>
      </trkpt>
      <trkpt lat="45.72319" lon="3.05961">
        <ele>641</ele>
        <time>2013-02-08T12:42:05Z</time>
      </trkpt>
      <trkpt lat="45.72319" lon="3.05958">
        <ele>641</ele>
        <time>2013-02-08T12:42:05Z</time>
      </trkpt>
      <trkpt lat="45.72319" lon="3.05955">
        <ele>641</ele>
        <time>2013-02-08T12:42:05Z</time>
      </trkpt>
      <trkpt lat="45.72318" lon="3.05953">
        <ele>641</ele>
        <time>2013-02-08T12:42:05Z</time>
      </trkpt>
      <trkpt lat="45.72318" lon="3.05952">
        <ele>642</ele>
        <time>2013-02-08T12:42:05Z</time>
      </trkpt>
      <trkpt lat="45.72316" lon="3.0595">
        <ele>642</ele>
        <time>2013-02-08T12:42:05Z</time>
      </trkpt>
      <trkpt lat="45.72312" lon="3.0595">
        <ele>642</ele>
        <time>2013-02-08T12:42:05Z</time>
      </trkpt>
      <trkpt lat="45.7231" lon="3.05949">
        <ele>642</ele>
        <time>2013-02-08T12:42:05Z</time>
      </trkpt>
      <trkpt lat="45.72307" lon="3.05948">
        <ele>643</ele>
        <time>2013-02-08T12:42:05Z</time>
      </trkpt>
      <trkpt lat="45.72305" lon="3.05947">
        <ele>643</ele>
        <time>2013-02-08T12:42:05Z</time>
      </trkpt>
      <trkpt lat="45.72303" lon="3.05946">
        <ele>643</ele>
        <time>2013-02-08T12:42:05Z</time>
      </trkpt>
      <trkpt lat="45.72302" lon="3.05944">
        <ele>643</ele>
        <time>2013-02-08T12:42:05Z</time>
      </trkpt>
      <trkpt lat="45.72302" lon="3.05941">
        <ele>643</ele>
        <time>2013-02-08T12:42:05Z</time>
      </trkpt>
      <trkpt lat="45.723" lon="3.0594">
        <ele>643</ele>
        <time>2013-02-08T12:42:05Z</time>
      </trkpt>
      <trkpt lat="45.72298" lon="3.05939">
        <ele>643</ele>
        <time>2013-02-08T12:42:05Z</time>
      </trkpt>
      <trkpt lat="45.72296" lon="3.05938">
        <ele>644</ele>
        <time>2013-02-08T12:42:05Z</time>
      </trkpt>
      <trkpt lat="45.72295" lon="3.05937">
        <ele>644</ele>
        <time>2013-02-08T12:42:05Z</time>
      </trkpt>
      <trkpt lat="45.72292" lon="3.05938">
        <ele>644</ele>
        <time>2013-02-08T12:42:05Z</time>
      </trkpt>
      <trkpt lat="45.7229" lon="3.05939">
        <ele>644</ele>
        <time>2013-02-08T12:42:05Z</time>
      </trkpt>
      <trkpt lat="45.72288" lon="3.05939">
        <ele>644</ele>
        <time>2013-02-08T12:42:05Z</time>
      </trkpt>
      <trkpt lat="45.72288" lon="3.05941">
        <ele>644</ele>
        <time>2013-02-08T12:42:05Z</time>
      </trkpt>
      <trkpt lat="45.72289" lon="3.05945">
        <ele>644</ele>
        <time>2013-02-08T12:42:05Z</time>
      </trkpt>
      <trkpt lat="45.7229" lon="3.05946">
        <ele>644</ele>
        <time>2013-02-08T12:42:05Z</time>
      </trkpt>
      <trkpt lat="45.72293" lon="3.05947">
        <ele>644</ele>
        <time>2013-02-08T12:42:05Z</time>
      </trkpt>
      <trkpt lat="45.72295" lon="3.05949">
        <ele>644</ele>
        <time>2013-02-08T12:42:05Z</time>
      </trkpt>
      <trkpt lat="45.72299" lon="3.05949">
        <ele>643</ele>
        <time>2013-02-08T12:42:05Z</time>
      </trkpt>
      <trkpt lat="45.72301" lon="3.0595">
        <ele>643</ele>
        <time>2013-02-08T12:42:05Z</time>
      </trkpt>
      <trkpt lat="45.72304" lon="3.05951">
        <ele>643</ele>
        <time>2013-02-08T12:42:05Z</time>
      </trkpt>
      <trkpt lat="45.72306" lon="3.05953">
        <ele>642</ele>
        <time>2013-02-08T12:42:05Z</time>
      </trkpt>
      <trkpt lat="45.72308" lon="3.05955">
        <ele>642</ele>
        <time>2013-02-08T12:42:05Z</time>
      </trkpt>
      <trkpt lat="45.72309" lon="3.05957">
        <ele>642</ele>
        <time>2013-02-08T12:42:05Z</time>
      </trkpt>
      <trkpt lat="45.7231" lon="3.05959">
        <ele>642</ele>
        <time>2013-02-08T12:42:05Z</time>
      </trkpt>
      <trkpt lat="45.72312" lon="3.05961">
        <ele>641</ele>
        <time>2013-02-08T12:42:05Z</time>
      </trkpt>
      <trkpt lat="45.72312" lon="3.05965">
        <ele>641</ele>
        <time>2013-02-08T12:42:05Z</time>
      </trkpt>
      <trkpt lat="45.72313" lon="3.05968">
        <ele>641</ele>
        <time>2013-02-08T12:42:05Z</time>
      </trkpt>
      <trkpt lat="45.72315" lon="3.0597">
        <ele>640</ele>
        <time>2013-02-08T12:42:05Z</time>
      </trkpt>
      <trkpt lat="45.72315" lon="3.05973">
        <ele>640</ele>
        <time>2013-02-08T12:42:05Z</time>
      </trkpt>
      <trkpt lat="45.72316" lon="3.05975">
        <ele>639</ele>
        <time>2013-02-08T12:42:05Z</time>
      </trkpt>
      <trkpt lat="45.72317" lon="3.05977">
        <ele>639</ele>
        <time>2013-02-08T12:42:05Z</time>
      </trkpt>
      <trkpt lat="45.72317" lon="3.0598">
        <ele>639</ele>
        <time>2013-02-08T12:42:05Z</time>
      </trkpt>
      <trkpt lat="45.72319" lon="3.05982">
        <ele>638</ele>
        <time>2013-02-08T12:42:05Z</time>
      </trkpt>
      <trkpt lat="45.7232" lon="3.05985">
        <ele>637</ele>
        <time>2013-02-08T12:42:05Z</time>
      </trkpt>
      <trkpt lat="45.72322" lon="3.05987">
        <ele>636</ele>
        <time>2013-02-08T12:42:05Z</time>
      </trkpt>
      <trkpt lat="45.72322" lon="3.0599">
        <ele>635</ele>
        <time>2013-02-08T12:42:05Z</time>
      </trkpt>
      <trkpt lat="45.72323" lon="3.05992">
        <ele>634</ele>
        <time>2013-02-08T12:42:05Z</time>
      </trkpt>
      <trkpt lat="45.72324" lon="3.05995">
        <ele>633</ele>
        <time>2013-02-08T12:42:05Z</time>
      </trkpt>
      <trkpt lat="45.72325" lon="3.05997">
        <ele>632</ele>
        <time>2013-02-08T12:42:05Z</time>
      </trkpt>
      <trkpt lat="45.72326" lon="3.06001">
        <ele>632</ele>
        <time>2013-02-08T12:42:05Z</time>
      </trkpt>
      <trkpt lat="45.72326" lon="3.06004">
        <ele>633</ele>
        <time>2013-02-08T12:42:05Z</time>
      </trkpt>
      <trkpt lat="45.72326" lon="3.06007">
        <ele>634</ele>
        <time>2013-02-08T12:42:05Z</time>
      </trkpt>
      <trkpt lat="45.72326" lon="3.06011">
        <ele>635</ele>
        <time>2013-02-08T12:42:05Z</time>
      </trkpt>
      <trkpt lat="45.72327" lon="3.06014">
        <ele>636</ele>
        <time>2013-02-08T12:42:05Z</time>
      </trkpt>
      <trkpt lat="45.72327" lon="3.06017">
        <ele>637</ele>
        <time>2013-02-08T12:42:05Z</time>
      </trkpt>
      <trkpt lat="45.72328" lon="3.06021">
        <ele>638</ele>
        <time>2013-02-08T12:42:05Z</time>
      </trkpt>
      <trkpt lat="45.72329" lon="3.06025">
        <ele>639</ele>
        <time>2013-02-08T12:42:05Z</time>
      </trkpt>
      <trkpt lat="45.72328" lon="3.06026">
        <ele>639</ele>
        <time>2013-02-08T12:42:05Z</time>
      </trkpt>
      <trkpt lat="45.72327" lon="3.06028">
        <ele>640</ele>
        <time>2013-02-08T12:42:05Z</time>
      </trkpt>
      <trkpt lat="45.72327" lon="3.06032">
        <ele>640</ele>
        <time>2013-02-08T12:42:05Z</time>
      </trkpt>
      <trkpt lat="45.72327" lon="3.06035">
        <ele>641</ele>
        <time>2013-02-08T12:42:05Z</time>
      </trkpt>
      <trkpt lat="45.72327" lon="3.06039">
        <ele>641</ele>
        <time>2013-02-08T12:42:05Z</time>
      </trkpt>
      <trkpt lat="45.72327" lon="3.06043">
        <ele>641</ele>
        <time>2013-02-08T12:42:05Z</time>
      </trkpt>
      <trkpt lat="45.72327" lon="3.06046">
        <ele>641</ele>
        <time>2013-02-08T12:42:05Z</time>
      </trkpt>
      <trkpt lat="45.72326" lon="3.06049">
        <ele>641</ele>
        <time>2013-02-08T12:42:05Z</time>
      </trkpt>
      <trkpt lat="45.72328" lon="3.06051">
        <ele>641</ele>
        <time>2013-02-08T12:42:05Z</time>
      </trkpt>
      <trkpt lat="45.72328" lon="3.06054">
        <ele>641</ele>
        <time>2013-02-08T12:42:05Z</time>
      </trkpt>
      <trkpt lat="45.72328" lon="3.06056">
        <ele>641</ele>
        <time>2013-02-08T12:42:05Z</time>
      </trkpt>
      <trkpt lat="45.72328" lon="3.06059">
        <ele>640</ele>
        <time>2013-02-08T12:42:05Z</time>
      </trkpt>
      <trkpt lat="45.72329" lon="3.06062">
        <ele>639</ele>
        <time>2013-02-08T12:42:05Z</time>
      </trkpt>
      <trkpt lat="45.72329" lon="3.06067">
        <ele>638</ele>
        <time>2013-02-08T12:42:05Z</time>
      </trkpt>
      <trkpt lat="45.72327" lon="3.06071">
        <ele>637</ele>
        <time>2013-02-08T12:42:05Z</time>
      </trkpt>
      <trkpt lat="45.72328" lon="3.06073">
        <ele>637</ele>
        <time>2013-02-08T12:42:05Z</time>
      </trkpt>
      <trkpt lat="45.72328" lon="3.06076">
        <ele>635</ele>
        <time>2013-02-08T12:42:05Z</time>
      </trkpt>
      <trkpt lat="45.72327" lon="3.0608">
        <ele>635</ele>
        <time>2013-02-08T12:42:05Z</time>
      </trkpt>
      <trkpt lat="45.72326" lon="3.06083">
        <ele>635</ele>
        <time>2013-02-08T12:42:05Z</time>
      </trkpt>
      <trkpt lat="45.72326" lon="3.06085">
        <ele>637</ele>
        <time>2013-02-08T12:42:05Z</time>
      </trkpt>
      <trkpt lat="45.72327" lon="3.06085">
        <ele>637</ele>
        <time>2013-02-08T12:42:05Z</time>
      </trkpt>
      <trkpt lat="45.72328" lon="3.06087">
        <ele>636</ele>
        <time>2013-02-08T12:42:05Z</time>
      </trkpt>
      <trkpt lat="45.72329" lon="3.06088">
        <ele>636</ele>
        <time>2013-02-08T12:42:05Z</time>
      </trkpt>
      <trkpt lat="45.7233" lon="3.0609">
        <ele>637</ele>
        <time>2013-02-08T12:42:05Z</time>
      </trkpt>
      <trkpt lat="45.72331" lon="3.06093">
        <ele>639</ele>
        <time>2013-02-08T12:42:05Z</time>
      </trkpt>
      <trkpt lat="45.7233" lon="3.06098">
        <ele>642</ele>
        <time>2013-02-08T12:42:05Z</time>
      </trkpt>
      <trkpt lat="45.72329" lon="3.06101">
        <ele>644</ele>
        <time>2013-02-08T12:42:05Z</time>
      </trkpt>
      <trkpt lat="45.72329" lon="3.06104">
        <ele>645</ele>
        <time>2013-02-08T12:42:05Z</time>
      </trkpt>
      <trkpt lat="45.72329" lon="3.06107">
        <ele>645</ele>
        <time>2013-02-08T12:42:05Z</time>
      </trkpt>
      <trkpt lat="45.7233" lon="3.0611">
        <ele>646</ele>
        <time>2013-02-08T12:42:05Z</time>
      </trkpt>
      <trkpt lat="45.72331" lon="3.06112">
        <ele>647</ele>
        <time>2013-02-08T12:42:05Z</time>
      </trkpt>
      <trkpt lat="45.7233" lon="3.06114">
        <ele>647</ele>
        <time>2013-02-08T12:42:05Z</time>
      </trkpt>
      <trkpt lat="45.72331" lon="3.06116">
        <ele>648</ele>
        <time>2013-02-08T12:42:05Z</time>
      </trkpt>
      <trkpt lat="45.72331" lon="3.06119">
        <ele>648</ele>
        <time>2013-02-08T12:42:05Z</time>
      </trkpt>
      <trkpt lat="45.72331" lon="3.06121">
        <ele>649</ele>
        <time>2013-02-08T12:42:05Z</time>
      </trkpt>
      <trkpt lat="45.72332" lon="3.06124">
        <ele>649</ele>
        <time>2013-02-08T12:42:05Z</time>
      </trkpt>
      <trkpt lat="45.72332" lon="3.06126">
        <ele>649</ele>
        <time>2013-02-08T12:42:05Z</time>
      </trkpt>
      <trkpt lat="45.72332" lon="3.06128">
        <ele>649</ele>
        <time>2013-02-08T12:42:05Z</time>
      </trkpt>
      <trkpt lat="45.72332" lon="3.0613">
        <ele>649</ele>
        <time>2013-02-08T12:42:05Z</time>
      </trkpt>
      <trkpt lat="45.72332" lon="3.06132">
        <ele>649</ele>
        <time>2013-02-08T12:42:05Z</time>
      </trkpt>
      <trkpt lat="45.72332" lon="3.06135">
        <ele>649</ele>
        <time>2013-02-08T12:42:05Z</time>
      </trkpt>
      <trkpt lat="45.72333" lon="3.06136">
        <ele>649</ele>
        <time>2013-02-08T12:42:05Z</time>
      </trkpt>
      <trkpt lat="45.72335" lon="3.06138">
        <ele>630</ele>
        <time>2013-02-08T12:42:05Z</time>
      </trkpt>
      <trkpt lat="45.72336" lon="3.0614">
        <ele>630</ele>
        <time>2013-02-08T12:42:05Z</time>
      </trkpt>
      <trkpt lat="45.72337" lon="3.06143">
        <ele>630</ele>
        <time>2013-02-08T12:42:05Z</time>
      </trkpt>
      <trkpt lat="45.72337" lon="3.06145">
        <ele>631</ele>
        <time>2013-02-08T12:42:05Z</time>
      </trkpt>
      <trkpt lat="45.72337" lon="3.06148">
        <ele>632</ele>
        <time>2013-02-08T12:42:05Z</time>
      </trkpt>
      <trkpt lat="45.72338" lon="3.0615">
        <ele>632</ele>
        <time>2013-02-08T12:42:05Z</time>
      </trkpt>
      <trkpt lat="45.72339" lon="3.06152">
        <ele>632</ele>
        <time>2013-02-08T12:42:05Z</time>
      </trkpt>
      <trkpt lat="45.7234" lon="3.06154">
        <ele>633</ele>
        <time>2013-02-08T12:42:05Z</time>
      </trkpt>
      <trkpt lat="45.7234" lon="3.06156">
        <ele>634</ele>
        <time>2013-02-08T12:42:05Z</time>
      </trkpt>
      <trkpt lat="45.72339" lon="3.06159">
        <ele>635</ele>
        <time>2013-02-08T12:42:05Z</time>
      </trkpt>
      <trkpt lat="45.72339" lon="3.06162">
        <ele>636</ele>
        <time>2013-02-08T12:42:05Z</time>
      </trkpt>
      <trkpt lat="45.72339" lon="3.06165">
        <ele>636</ele>
        <time>2013-02-08T12:42:05Z</time>
      </trkpt>
      <trkpt lat="45.72338" lon="3.06168">
        <ele>638</ele>
        <time>2013-02-08T12:42:05Z</time>
      </trkpt>
      <trkpt lat="45.72339" lon="3.06171">
        <ele>638</ele>
        <time>2013-02-08T12:42:05Z</time>
      </trkpt>
      <trkpt lat="45.7234" lon="3.06172">
        <ele>638</ele>
        <time>2013-02-08T12:42:05Z</time>
      </trkpt>
      <trkpt lat="45.72342" lon="3.06174">
        <ele>637</ele>
        <time>2013-02-08T12:42:05Z</time>
      </trkpt>
      <trkpt lat="45.72343" lon="3.06176">
        <ele>637</ele>
        <time>2013-02-08T12:42:05Z</time>
      </trkpt>
      <trkpt lat="45.72344" lon="3.06177">
        <ele>636</ele>
        <time>2013-02-08T12:42:05Z</time>
      </trkpt>
      <trkpt lat="45.72346" lon="3.06178">
        <ele>636</ele>
        <time>2013-02-08T12:42:05Z</time>
      </trkpt>
      <trkpt lat="45.72346" lon="3.06181">
        <ele>636</ele>
        <time>2013-02-08T12:42:05Z</time>
      </trkpt>
      <trkpt lat="45.72347" lon="3.06182">
        <ele>635</ele>
        <time>2013-02-08T12:42:05Z</time>
      </trkpt>
      <trkpt lat="45.72349" lon="3.06183">
        <ele>635</ele>
        <time>2013-02-08T12:42:05Z</time>
      </trkpt>
      <trkpt lat="45.72349" lon="3.06185">
        <ele>635</ele>
        <time>2013-02-08T12:42:05Z</time>
      </trkpt>
      <trkpt lat="45.7235" lon="3.06187">
        <ele>635</ele>
        <time>2013-02-08T12:42:05Z</time>
      </trkpt>
      <trkpt lat="45.72352" lon="3.06188">
        <ele>635</ele>
        <time>2013-02-08T12:42:05Z</time>
      </trkpt>
      <trkpt lat="45.72352" lon="3.06191">
        <ele>635</ele>
        <time>2013-02-08T12:42:05Z</time>
      </trkpt>
      <trkpt lat="45.72354" lon="3.06192">
        <ele>634</ele>
        <time>2013-02-08T12:42:05Z</time>
      </trkpt>
      <trkpt lat="45.72355" lon="3.06194">
        <ele>634</ele>
        <time>2013-02-08T12:42:05Z</time>
      </trkpt>
      <trkpt lat="45.72357" lon="3.06196">
        <ele>634</ele>
        <time>2013-02-08T12:42:05Z</time>
      </trkpt>
      <trkpt lat="45.7236" lon="3.06199">
        <ele>634</ele>
        <time>2013-02-08T12:42:05Z</time>
      </trkpt>
      <trkpt lat="45.72361" lon="3.06202">
        <ele>634</ele>
        <time>2013-02-08T12:42:05Z</time>
      </trkpt>
      <trkpt lat="45.72362" lon="3.06204">
        <ele>634</ele>
        <time>2013-02-08T12:42:05Z</time>
      </trkpt>
      <trkpt lat="45.72366" lon="3.06208">
        <ele>633</ele>
        <time>2013-02-08T12:42:05Z</time>
      </trkpt>
      <trkpt lat="45.72367" lon="3.06209">
        <ele>633</ele>
        <time>2013-02-08T12:42:05Z</time>
      </trkpt>
      <trkpt lat="45.72367" lon="3.06213">
        <ele>634</ele>
        <time>2013-02-08T12:42:05Z</time>
      </trkpt>
      <trkpt lat="45.72369" lon="3.06216">
        <ele>634</ele>
        <time>2013-02-08T12:42:05Z</time>
      </trkpt>
      <trkpt lat="45.7237" lon="3.06221">
        <ele>634</ele>
        <time>2013-02-08T12:42:05Z</time>
      </trkpt>
      <trkpt lat="45.72371" lon="3.06223">
        <ele>634</ele>
        <time>2013-02-08T12:42:05Z</time>
      </trkpt>
      <trkpt lat="45.72372" lon="3.06226">
        <ele>634</ele>
        <time>2013-02-08T12:42:05Z</time>
      </trkpt>
      <trkpt lat="45.72374" lon="3.06228">
        <ele>633</ele>
        <time>2013-02-08T12:42:05Z</time>
      </trkpt>
      <trkpt lat="45.72376" lon="3.0623">
        <ele>633</ele>
        <time>2013-02-08T12:42:05Z</time>
      </trkpt>
      <trkpt lat="45.72377" lon="3.06234">
        <ele>633</ele>
        <time>2013-02-08T12:42:05Z</time>
      </trkpt>
      <trkpt lat="45.72377" lon="3.06237">
        <ele>633</ele>
        <time>2013-02-08T12:42:05Z</time>
      </trkpt>
      <trkpt lat="45.72378" lon="3.0624">
        <ele>633</ele>
        <time>2013-02-08T12:42:05Z</time>
      </trkpt>
      <trkpt lat="45.72378" lon="3.06243">
        <ele>633</ele>
        <time>2013-02-08T12:42:05Z</time>
      </trkpt>
      <trkpt lat="45.72381" lon="3.06245">
        <ele>633</ele>
        <time>2013-02-08T12:42:05Z</time>
      </trkpt>
      <trkpt lat="45.72387" lon="3.06241">
        <ele>631</ele>
        <time>2013-02-08T12:42:05Z</time>
      </trkpt>
      <trkpt lat="45.72389" lon="3.06243">
        <ele>631</ele>
        <time>2013-02-08T12:42:05Z</time>
      </trkpt>
      <trkpt lat="45.72389" lon="3.06246">
        <ele>631</ele>
        <time>2013-02-08T12:42:05Z</time>
      </trkpt>
      <trkpt lat="45.72391" lon="3.06247">
        <ele>630</ele>
        <time>2013-02-08T12:42:05Z</time>
      </trkpt>
      <trkpt lat="45.72392" lon="3.06249">
        <ele>630</ele>
        <time>2013-02-08T12:42:05Z</time>
      </trkpt>
      <trkpt lat="45.72393" lon="3.06251">
        <ele>632</ele>
        <time>2013-02-08T12:42:05Z</time>
      </trkpt>
      <trkpt lat="45.72394" lon="3.06253">
        <ele>632</ele>
        <time>2013-02-08T12:42:05Z</time>
      </trkpt>
      <trkpt lat="45.72394" lon="3.06256">
        <ele>632</ele>
        <time>2013-02-08T12:42:05Z</time>
      </trkpt>
      <trkpt lat="45.72395" lon="3.06258">
        <ele>632</ele>
        <time>2013-02-08T12:42:05Z</time>
      </trkpt>
      <trkpt lat="45.72395" lon="3.06261">
        <ele>632</ele>
        <time>2013-02-08T12:42:05Z</time>
      </trkpt>
      <trkpt lat="45.72396" lon="3.06263">
        <ele>632</ele>
        <time>2013-02-08T12:42:05Z</time>
      </trkpt>
      <trkpt lat="45.72395" lon="3.06267">
        <ele>632</ele>
        <time>2013-02-08T12:42:05Z</time>
      </trkpt>
      <trkpt lat="45.72393" lon="3.06269">
        <ele>633</ele>
        <time>2013-02-08T12:42:05Z</time>
      </trkpt>
      <trkpt lat="45.7239" lon="3.06269">
        <ele>633</ele>
        <time>2013-02-08T12:42:05Z</time>
      </trkpt>
      <trkpt lat="45.72388" lon="3.06268">
        <ele>633</ele>
        <time>2013-02-08T12:42:05Z</time>
      </trkpt>
      <trkpt lat="45.72386" lon="3.06267">
        <ele>634</ele>
        <time>2013-02-08T12:42:05Z</time>
      </trkpt>
      <trkpt lat="45.72385" lon="3.06265">
        <ele>634</ele>
        <time>2013-02-08T12:42:05Z</time>
      </trkpt>
      <trkpt lat="45.72384" lon="3.06264">
        <ele>634</ele>
        <time>2013-02-08T12:42:05Z</time>
      </trkpt>
      <trkpt lat="45.72383" lon="3.06262">
        <ele>635</ele>
        <time>2013-02-08T12:42:05Z</time>
      </trkpt>
      <trkpt lat="45.72382" lon="3.0626">
        <ele>635</ele>
        <time>2013-02-08T12:42:05Z</time>
      </trkpt>
      <trkpt lat="45.72381" lon="3.06259">
        <ele>635</ele>
        <time>2013-02-08T12:42:05Z</time>
      </trkpt>
      <trkpt lat="45.72379" lon="3.06258">
        <ele>635</ele>
        <time>2013-02-08T12:42:05Z</time>
      </trkpt>
      <trkpt lat="45.72378" lon="3.06256">
        <ele>636</ele>
        <time>2013-02-08T12:42:05Z</time>
      </trkpt>
      <trkpt lat="45.72377" lon="3.06254">
        <ele>636</ele>
        <time>2013-02-08T12:42:05Z</time>
      </trkpt>
      <trkpt lat="45.72375" lon="3.06253">
        <ele>637</ele>
        <time>2013-02-08T12:42:05Z</time>
      </trkpt>
      <trkpt lat="45.72374" lon="3.06251">
        <ele>637</ele>
        <time>2013-02-08T12:42:05Z</time>
      </trkpt>
      <trkpt lat="45.72373" lon="3.06249">
        <ele>635</ele>
        <time>2013-02-08T12:42:05Z</time>
      </trkpt>
      <trkpt lat="45.72373" lon="3.06246">
        <ele>635</ele>
        <time>2013-02-08T12:42:05Z</time>
      </trkpt>
      <trkpt lat="45.72373" lon="3.06244">
        <ele>635</ele>
        <time>2013-02-08T12:42:05Z</time>
      </trkpt>
      <trkpt lat="45.72371" lon="3.06242">
        <ele>635</ele>
        <time>2013-02-08T12:42:05Z</time>
      </trkpt>
      <trkpt lat="45.7237" lon="3.0624">
        <ele>635</ele>
        <time>2013-02-08T12:42:05Z</time>
      </trkpt>
      <trkpt lat="45.72368" lon="3.06238">
        <ele>636</ele>
        <time>2013-02-08T12:42:05Z</time>
      </trkpt>
      <trkpt lat="45.72367" lon="3.06236">
        <ele>636</ele>
        <time>2013-02-08T12:42:05Z</time>
      </trkpt>
      <trkpt lat="45.72365" lon="3.06235">
        <ele>636</ele>
        <time>2013-02-08T12:42:05Z</time>
      </trkpt>
      <trkpt lat="45.72363" lon="3.06231">
        <ele>636</ele>
        <time>2013-02-08T12:42:05Z</time>
      </trkpt>
      <trkpt lat="45.72362" lon="3.0623">
        <ele>637</ele>
        <time>2013-02-08T12:42:05Z</time>
      </trkpt>
      <trkpt lat="45.7236" lon="3.06228">
        <ele>637</ele>
        <time>2013-02-08T12:42:05Z</time>
      </trkpt>
      <trkpt lat="45.72358" lon="3.06226">
        <ele>637</ele>
        <time>2013-02-08T12:42:05Z</time>
      </trkpt>
      <trkpt lat="45.72357" lon="3.06225">
        <ele>637</ele>
        <time>2013-02-08T12:42:05Z</time>
      </trkpt>
      <trkpt lat="45.72355" lon="3.06222">
        <ele>637</ele>
        <time>2013-02-08T12:42:05Z</time>
      </trkpt>
      <trkpt lat="45.72354" lon="3.0622">
        <ele>637</ele>
        <time>2013-02-08T12:42:05Z</time>
      </trkpt>
      <trkpt lat="45.72353" lon="3.06218">
        <ele>637</ele>
        <time>2013-02-08T12:42:05Z</time>
      </trkpt>
      <trkpt lat="45.72352" lon="3.06216">
        <ele>637</ele>
        <time>2013-02-08T12:42:05Z</time>
      </trkpt>
      <trkpt lat="45.72349" lon="3.06214">
        <ele>637</ele>
        <time>2013-02-08T12:42:05Z</time>
      </trkpt>
      <trkpt lat="45.72347" lon="3.06213">
        <ele>637</ele>
        <time>2013-02-08T12:42:05Z</time>
      </trkpt>
      <trkpt lat="45.72346" lon="3.06211">
        <ele>637</ele>
        <time>2013-02-08T12:42:05Z</time>
      </trkpt>
      <trkpt lat="45.72345" lon="3.06209">
        <ele>637</ele>
        <time>2013-02-08T12:42:05Z</time>
      </trkpt>
      <trkpt lat="45.72343" lon="3.06208">
        <ele>637</ele>
        <time>2013-02-08T12:42:05Z</time>
      </trkpt>
      <trkpt lat="45.72341" lon="3.06206">
        <ele>637</ele>
        <time>2013-02-08T12:42:05Z</time>
      </trkpt>
      <trkpt lat="45.72339" lon="3.06204">
        <ele>637</ele>
        <time>2013-02-08T12:42:05Z</time>
      </trkpt>
      <trkpt lat="45.72338" lon="3.06202">
        <ele>637</ele>
        <time>2013-02-08T12:42:05Z</time>
      </trkpt>
      <trkpt lat="45.72336" lon="3.062">
        <ele>637</ele>
        <time>2013-02-08T12:42:05Z</time>
      </trkpt>
      <trkpt lat="45.72335" lon="3.06199">
        <ele>637</ele>
        <time>2013-02-08T12:42:05Z</time>
      </trkpt>
      <trkpt lat="45.72333" lon="3.06197">
        <ele>655</ele>
        <time>2013-02-08T12:42:05Z</time>
      </trkpt>
      <trkpt lat="45.72332" lon="3.06196">
        <ele>655</ele>
        <time>2013-02-08T12:42:05Z</time>
      </trkpt>
      <trkpt lat="45.7233" lon="3.06194">
        <ele>655</ele>
        <time>2013-02-08T12:42:05Z</time>
      </trkpt>
      <trkpt lat="45.7233" lon="3.06192">
        <ele>654</ele>
        <time>2013-02-08T12:42:05Z</time>
      </trkpt>
      <trkpt lat="45.72328" lon="3.06191">
        <ele>654</ele>
        <time>2013-02-08T12:42:05Z</time>
      </trkpt>
      <trkpt lat="45.72327" lon="3.06189">
        <ele>654</ele>
        <time>2013-02-08T12:42:05Z</time>
      </trkpt>
      <trkpt lat="45.72326" lon="3.06188">
        <ele>654</ele>
        <time>2013-02-08T12:42:05Z</time>
      </trkpt>
      <trkpt lat="45.72324" lon="3.06186">
        <ele>654</ele>
        <time>2013-02-08T12:42:05Z</time>
      </trkpt>
      <trkpt lat="45.72324" lon="3.06185">
        <ele>653</ele>
        <time>2013-02-08T12:42:05Z</time>
      </trkpt>
      <trkpt lat="45.72323" lon="3.06182">
        <ele>653</ele>
        <time>2013-02-08T12:42:05Z</time>
      </trkpt>
      <trkpt lat="45.72322" lon="3.06181">
        <ele>653</ele>
        <time>2013-02-08T12:42:05Z</time>
      </trkpt>
      <trkpt lat="45.7232" lon="3.06179">
        <ele>653</ele>
        <time>2013-02-08T12:42:05Z</time>
      </trkpt>
      <trkpt lat="45.72319" lon="3.06178">
        <ele>653</ele>
        <time>2013-02-08T12:42:05Z</time>
      </trkpt>
      <trkpt lat="45.72318" lon="3.06176">
        <ele>653</ele>
        <time>2013-02-08T12:42:05Z</time>
      </trkpt>
      <trkpt lat="45.72317" lon="3.06175">
        <ele>653</ele>
        <time>2013-02-08T12:42:05Z</time>
      </trkpt>
      <trkpt lat="45.72316" lon="3.06174">
        <ele>653</ele>
        <time>2013-02-08T12:42:05Z</time>
      </trkpt>
      <trkpt lat="45.72315" lon="3.06172">
        <ele>653</ele>
        <time>2013-02-08T12:42:05Z</time>
      </trkpt>
      <trkpt lat="45.72314" lon="3.06171">
        <ele>654</ele>
        <time>2013-02-08T12:42:05Z</time>
      </trkpt>
      <trkpt lat="45.72313" lon="3.0617">
        <ele>654</ele>
        <time>2013-02-08T12:42:05Z</time>
      </trkpt>
      <trkpt lat="45.72311" lon="3.06168">
        <ele>655</ele>
        <time>2013-02-08T12:42:05Z</time>
      </trkpt>
      <trkpt lat="45.7231" lon="3.06167">
        <ele>656</ele>
        <time>2013-02-08T12:42:05Z</time>
      </trkpt>
      <trkpt lat="45.72309" lon="3.06165">
        <ele>652</ele>
        <time>2013-02-08T12:42:05Z</time>
      </trkpt>
      <trkpt lat="45.72308" lon="3.06163">
        <ele>653</ele>
        <time>2013-02-08T12:42:05Z</time>
      </trkpt>
      <trkpt lat="45.72307" lon="3.06162">
        <ele>653</ele>
        <time>2013-02-08T12:42:05Z</time>
      </trkpt>
      <trkpt lat="45.72305" lon="3.06161">
        <ele>654</ele>
        <time>2013-02-08T12:42:05Z</time>
      </trkpt>
      <trkpt lat="45.72304" lon="3.06159">
        <ele>654</ele>
        <time>2013-02-08T12:42:05Z</time>
      </trkpt>
      <trkpt lat="45.72303" lon="3.06156">
        <ele>655</ele>
        <time>2013-02-08T12:42:05Z</time>
      </trkpt>
      <trkpt lat="45.72303" lon="3.06155">
        <ele>655</ele>
        <time>2013-02-08T12:42:05Z</time>
      </trkpt>
      <trkpt lat="45.72302" lon="3.06154">
        <ele>655</ele>
        <time>2013-02-08T12:42:05Z</time>
      </trkpt>
      <trkpt lat="45.72301" lon="3.06151">
        <ele>655</ele>
        <time>2013-02-08T12:42:05Z</time>
      </trkpt>
      <trkpt lat="45.72301" lon="3.0615">
        <ele>656</ele>
        <time>2013-02-08T12:42:05Z</time>
      </trkpt>
      <trkpt lat="45.72299" lon="3.06148">
        <ele>656</ele>
        <time>2013-02-08T12:42:05Z</time>
      </trkpt>
      <trkpt lat="45.72298" lon="3.06146">
        <ele>656</ele>
        <time>2013-02-08T12:42:05Z</time>
      </trkpt>
      <trkpt lat="45.72297" lon="3.06145">
        <ele>657</ele>
        <time>2013-02-08T12:42:05Z</time>
      </trkpt>
      <trkpt lat="45.72296" lon="3.06143">
        <ele>657</ele>
        <time>2013-02-08T12:42:05Z</time>
      </trkpt>
      <trkpt lat="45.72295" lon="3.06141">
        <ele>657</ele>
        <time>2013-02-08T12:42:05Z</time>
      </trkpt>
      <trkpt lat="45.72294" lon="3.06139">
        <ele>657</ele>
        <time>2013-02-08T12:42:05Z</time>
      </trkpt>
      <trkpt lat="45.72293" lon="3.06138">
        <ele>658</ele>
        <time>2013-02-08T12:42:05Z</time>
      </trkpt>
      <trkpt lat="45.72292" lon="3.06136">
        <ele>658</ele>
        <time>2013-02-08T12:42:05Z</time>
      </trkpt>
      <trkpt lat="45.72291" lon="3.06134">
        <ele>658</ele>
        <time>2013-02-08T12:42:05Z</time>
      </trkpt>
      <trkpt lat="45.7229" lon="3.06132">
        <ele>658</ele>
        <time>2013-02-08T12:42:05Z</time>
      </trkpt>
      <trkpt lat="45.72289" lon="3.06131">
        <ele>658</ele>
        <time>2013-02-08T12:42:05Z</time>
      </trkpt>
      <trkpt lat="45.72288" lon="3.06129">
        <ele>659</ele>
        <time>2013-02-08T12:42:05Z</time>
      </trkpt>
      <trkpt lat="45.72286" lon="3.06128">
        <ele>659</ele>
        <time>2013-02-08T12:42:05Z</time>
      </trkpt>
      <trkpt lat="45.72284" lon="3.06127">
        <ele>659</ele>
        <time>2013-02-08T12:42:05Z</time>
      </trkpt>
      <trkpt lat="45.72283" lon="3.06125">
        <ele>660</ele>
        <time>2013-02-08T12:42:05Z</time>
      </trkpt>
      <trkpt lat="45.72281" lon="3.06123">
        <ele>660</ele>
        <time>2013-02-08T12:42:05Z</time>
      </trkpt>
      <trkpt lat="45.7228" lon="3.06122">
        <ele>660</ele>
        <time>2013-02-08T12:42:05Z</time>
      </trkpt>
      <trkpt lat="45.7228" lon="3.06122">
        <ele>660</ele>
        <time>2013-02-08T12:42:05Z</time>
      </trkpt>
      <trkpt lat="45.72279" lon="3.06122">
        <ele>660</ele>
        <time>2013-02-08T12:42:05Z</time>
      </trkpt>
      <trkpt lat="45.72279" lon="3.06122">
        <ele>660</ele>
        <time>2013-02-08T12:42:05Z</time>
      </trkpt>
      <trkpt lat="45.72277" lon="3.06121">
        <ele>661</ele>
        <time>2013-02-08T12:42:05Z</time>
      </trkpt>
      <trkpt lat="45.72276" lon="3.06119">
        <ele>661</ele>
        <time>2013-02-08T12:42:05Z</time>
      </trkpt>
      <trkpt lat="45.72275" lon="3.06117">
        <ele>661</ele>
        <time>2013-02-08T12:42:05Z</time>
      </trkpt>
      <trkpt lat="45.72273" lon="3.06115">
        <ele>662</ele>
        <time>2013-02-08T12:42:05Z</time>
      </trkpt>
      <trkpt lat="45.72272" lon="3.06114">
        <ele>662</ele>
        <time>2013-02-08T12:42:05Z</time>
      </trkpt>
      <trkpt lat="45.7227" lon="3.06112">
        <ele>662</ele>
        <time>2013-02-08T12:42:05Z</time>
      </trkpt>
      <trkpt lat="45.72267" lon="3.06108">
        <ele>663</ele>
        <time>2013-02-08T12:42:05Z</time>
      </trkpt>
      <trkpt lat="45.72263" lon="3.06104">
        <ele>665</ele>
        <time>2013-02-08T12:42:05Z</time>
      </trkpt>
      <trkpt lat="45.72254" lon="3.061">
        <ele>667</ele>
        <time>2013-02-08T12:42:05Z</time>
      </trkpt>
      <trkpt lat="45.72254" lon="3.06098">
        <ele>667</ele>
        <time>2013-02-08T12:42:05Z</time>
      </trkpt>
      <trkpt lat="45.72253" lon="3.06097">
        <ele>668</ele>
        <time>2013-02-08T12:42:05Z</time>
      </trkpt>
      <trkpt lat="45.72252" lon="3.06097">
        <ele>668</ele>
        <time>2013-02-08T12:42:05Z</time>
      </trkpt>
      <trkpt lat="45.72247" lon="3.06097">
        <ele>683</ele>
        <time>2013-02-08T12:42:05Z</time>
      </trkpt>
      <trkpt lat="45.72243" lon="3.06095">
        <ele>683</ele>
        <time>2013-02-08T12:42:05Z</time>
      </trkpt>
      <trkpt lat="45.72242" lon="3.06095">
        <ele>683</ele>
        <time>2013-02-08T12:42:05Z</time>
      </trkpt>
      <trkpt lat="45.72244" lon="3.0609">
        <ele>681</ele>
        <time>2013-02-08T12:42:05Z</time>
      </trkpt>
      <trkpt lat="45.72246" lon="3.06086">
        <ele>678</ele>
        <time>2013-02-08T12:42:05Z</time>
      </trkpt>
      <trkpt lat="45.72245" lon="3.06067">
        <ele>679</ele>
        <time>2013-02-08T12:42:05Z</time>
      </trkpt>
      <trkpt lat="45.7225" lon="3.06064">
        <ele>679</ele>
        <time>2013-02-08T12:42:05Z</time>
      </trkpt>
      <trkpt lat="45.72252" lon="3.06064">
        <ele>661</ele>
        <time>2013-02-08T12:42:05Z</time>
      </trkpt>
      <trkpt lat="45.72251" lon="3.06061">
        <ele>660</ele>
        <time>2013-02-08T12:42:05Z</time>
      </trkpt>
      <trkpt lat="45.72253" lon="3.06061">
        <ele>660</ele>
        <time>2013-02-08T12:42:05Z</time>
      </trkpt>
      <trkpt lat="45.72255" lon="3.06059">
        <ele>659</ele>
        <time>2013-02-08T12:42:05Z</time>
      </trkpt>
      <trkpt lat="45.72256" lon="3.06057">
        <ele>658</ele>
        <time>2013-02-08T12:42:05Z</time>
      </trkpt>
      <trkpt lat="45.72257" lon="3.06056">
        <ele>657</ele>
        <time>2013-02-08T12:42:05Z</time>
      </trkpt>
      <trkpt lat="45.72258" lon="3.06053">
        <ele>657</ele>
        <time>2013-02-08T12:42:05Z</time>
      </trkpt>
      <trkpt lat="45.72259" lon="3.06051">
        <ele>656</ele>
        <time>2013-02-08T12:42:05Z</time>
      </trkpt>
      <trkpt lat="45.7226" lon="3.06049">
        <ele>656</ele>
        <time>2013-02-08T12:42:05Z</time>
      </trkpt>
      <trkpt lat="45.72262" lon="3.06049">
        <ele>655</ele>
        <time>2013-02-08T12:42:05Z</time>
      </trkpt>
      <trkpt lat="45.72262" lon="3.06047">
        <ele>655</ele>
        <time>2013-02-08T12:42:05Z</time>
      </trkpt>
      <trkpt lat="45.72263" lon="3.06044">
        <ele>654</ele>
        <time>2013-02-08T12:42:05Z</time>
      </trkpt>
      <trkpt lat="45.72263" lon="3.06042">
        <ele>654</ele>
        <time>2013-02-08T12:42:05Z</time>
      </trkpt>
      <trkpt lat="45.72263" lon="3.06039">
        <ele>654</ele>
        <time>2013-02-08T12:42:05Z</time>
      </trkpt>
      <trkpt lat="45.72263" lon="3.06036">
        <ele>653</ele>
        <time>2013-02-08T12:42:05Z</time>
      </trkpt>
      <trkpt lat="45.72263" lon="3.06033">
        <ele>653</ele>
        <time>2013-02-08T12:42:05Z</time>
      </trkpt>
      <trkpt lat="45.72262" lon="3.0603">
        <ele>653</ele>
        <time>2013-02-08T12:42:05Z</time>
      </trkpt>
      <trkpt lat="45.72262" lon="3.06029">
        <ele>653</ele>
        <time>2013-02-08T12:42:05Z</time>
      </trkpt>
      <trkpt lat="45.72261" lon="3.06028">
        <ele>653</ele>
        <time>2013-02-08T12:42:05Z</time>
      </trkpt>
      <trkpt lat="45.72261" lon="3.06026">
        <ele>654</ele>
        <time>2013-02-08T12:42:05Z</time>
      </trkpt>
      <trkpt lat="45.7226" lon="3.06024">
        <ele>654</ele>
        <time>2013-02-08T12:42:05Z</time>
      </trkpt>
      <trkpt lat="45.72259" lon="3.06022">
        <ele>654</ele>
        <time>2013-02-08T12:42:05Z</time>
      </trkpt>
      <trkpt lat="45.72258" lon="3.0602">
        <ele>654</ele>
        <time>2013-02-08T12:42:05Z</time>
      </trkpt>
      <trkpt lat="45.72257" lon="3.06019">
        <ele>654</ele>
        <time>2013-02-08T12:42:05Z</time>
      </trkpt>
      <trkpt lat="45.72256" lon="3.06017">
        <ele>655</ele>
        <time>2013-02-08T12:42:05Z</time>
      </trkpt>
      <trkpt lat="45.72255" lon="3.06016">
        <ele>655</ele>
        <time>2013-02-08T12:42:05Z</time>
      </trkpt>
      <trkpt lat="45.72254" lon="3.06015">
        <ele>655</ele>
        <time>2013-02-08T12:42:05Z</time>
      </trkpt>
      <trkpt lat="45.72253" lon="3.06014">
        <ele>656</ele>
        <time>2013-02-08T12:42:05Z</time>
      </trkpt>
      <trkpt lat="45.72252" lon="3.06013">
        <ele>656</ele>
        <time>2013-02-08T12:42:05Z</time>
      </trkpt>
      <trkpt lat="45.7225" lon="3.06012">
        <ele>656</ele>
        <time>2013-02-08T12:42:05Z</time>
      </trkpt>
      <trkpt lat="45.72248" lon="3.06012">
        <ele>669</ele>
        <time>2013-02-08T12:42:05Z</time>
      </trkpt>
      <trkpt lat="45.72247" lon="3.06012">
        <ele>670</ele>
        <time>2013-02-08T12:42:05Z</time>
      </trkpt>
      <trkpt lat="45.72245" lon="3.06011">
        <ele>669</ele>
        <time>2013-02-08T12:42:05Z</time>
      </trkpt>
      <trkpt lat="45.72244" lon="3.06011">
        <ele>670</ele>
        <time>2013-02-08T12:42:05Z</time>
      </trkpt>
      <trkpt lat="45.72242" lon="3.0601">
        <ele>670</ele>
        <time>2013-02-08T12:42:05Z</time>
      </trkpt>
      <trkpt lat="45.7224" lon="3.06009">
        <ele>670</ele>
        <time>2013-02-08T12:42:05Z</time>
      </trkpt>
      <trkpt lat="45.72238" lon="3.06008">
        <ele>671</ele>
        <time>2013-02-08T12:42:05Z</time>
      </trkpt>
      <trkpt lat="45.72235" lon="3.06004">
        <ele>672</ele>
        <time>2013-02-08T12:42:05Z</time>
      </trkpt>
      <trkpt lat="45.72234" lon="3.06005">
        <ele>672</ele>
        <time>2013-02-08T12:42:05Z</time>
      </trkpt>
      <trkpt lat="45.72232" lon="3.06005">
        <ele>673</ele>
        <time>2013-02-08T12:42:05Z</time>
      </trkpt>
      <trkpt lat="45.72231" lon="3.06005">
        <ele>674</ele>
        <time>2013-02-08T12:42:05Z</time>
      </trkpt>
      <trkpt lat="45.72229" lon="3.06004">
        <ele>675</ele>
        <time>2013-02-08T12:42:05Z</time>
      </trkpt>
      <trkpt lat="45.72224" lon="3.05997">
        <ele>669</ele>
        <time>2013-02-08T12:42:05Z</time>
      </trkpt>
      <trkpt lat="45.72223" lon="3.05997">
        <ele>669</ele>
        <time>2013-02-08T12:42:05Z</time>
      </trkpt>
      <trkpt lat="45.72219" lon="3.06001">
        <ele>679</ele>
        <time>2013-02-08T12:42:05Z</time>
      </trkpt>
      <trkpt lat="45.72217" lon="3.06003">
        <ele>680</ele>
        <time>2013-02-08T12:42:05Z</time>
      </trkpt>
      <trkpt lat="45.72216" lon="3.06002">
        <ele>680</ele>
        <time>2013-02-08T12:42:05Z</time>
      </trkpt>
      <trkpt lat="45.72213" lon="3.06001">
        <ele>681</ele>
        <time>2013-02-08T12:42:05Z</time>
      </trkpt>
      <trkpt lat="45.72212" lon="3.06">
        <ele>681</ele>
        <time>2013-02-08T12:42:05Z</time>
      </trkpt>
      <trkpt lat="45.72211" lon="3.06001">
        <ele>682</ele>
        <time>2013-02-08T12:42:05Z</time>
      </trkpt>
      <trkpt lat="45.72209" lon="3.06001">
        <ele>682</ele>
        <time>2013-02-08T12:42:05Z</time>
      </trkpt>
      <trkpt lat="45.72208" lon="3.06001">
        <ele>683</ele>
        <time>2013-02-08T12:42:05Z</time>
      </trkpt>
      <trkpt lat="45.72205" lon="3.06001">
        <ele>684</ele>
        <time>2013-02-08T12:42:05Z</time>
      </trkpt>
      <trkpt lat="45.72204" lon="3.06001">
        <ele>684</ele>
        <time>2013-02-08T12:42:05Z</time>
      </trkpt>
      <trkpt lat="45.72203" lon="3.06001">
        <ele>684</ele>
        <time>2013-02-08T12:42:05Z</time>
      </trkpt>
      <trkpt lat="45.72202" lon="3.06001">
        <ele>685</ele>
        <time>2013-02-08T12:42:05Z</time>
      </trkpt>
      <trkpt lat="45.722" lon="3.06">
        <ele>685</ele>
        <time>2013-02-08T12:42:05Z</time>
      </trkpt>
      <trkpt lat="45.72199" lon="3.06001">
        <ele>686</ele>
        <time>2013-02-08T12:42:05Z</time>
      </trkpt>
      <trkpt lat="45.72196" lon="3.06001">
        <ele>686</ele>
        <time>2013-02-08T12:42:05Z</time>
      </trkpt>
      <trkpt lat="45.72195" lon="3.06001">
        <ele>687</ele>
        <time>2013-02-08T12:42:05Z</time>
      </trkpt>
      <trkpt lat="45.72192" lon="3.06">
        <ele>680</ele>
        <time>2013-02-08T12:42:05Z</time>
      </trkpt>
      <trkpt lat="45.72191" lon="3.05998">
        <ele>681</ele>
        <time>2013-02-08T12:42:05Z</time>
      </trkpt>
      <trkpt lat="45.7219" lon="3.05998">
        <ele>681</ele>
        <time>2013-02-08T12:42:05Z</time>
      </trkpt>
      <trkpt lat="45.72188" lon="3.05998">
        <ele>682</ele>
        <time>2013-02-08T12:42:05Z</time>
      </trkpt>
      <trkpt lat="45.72186" lon="3.05999">
        <ele>683</ele>
        <time>2013-02-08T12:42:05Z</time>
      </trkpt>
      <trkpt lat="45.72184" lon="3.05999">
        <ele>684</ele>
        <time>2013-02-08T12:42:05Z</time>
      </trkpt>
      <trkpt lat="45.72182" lon="3.05999">
        <ele>685</ele>
        <time>2013-02-08T12:42:05Z</time>
      </trkpt>
      <trkpt lat="45.7218" lon="3.05999">
        <ele>687</ele>
        <time>2013-02-08T12:42:05Z</time>
      </trkpt>
      <trkpt lat="45.72178" lon="3.05999">
        <ele>687</ele>
        <time>2013-02-08T12:42:05Z</time>
      </trkpt>
      <trkpt lat="45.72176" lon="3.06002">
        <ele>693</ele>
        <time>2013-02-08T12:42:05Z</time>
      </trkpt>
      <trkpt lat="45.72174" lon="3.06">
        <ele>691</ele>
        <time>2013-02-08T12:42:05Z</time>
      </trkpt>
      <trkpt lat="45.72172" lon="3.05998">
        <ele>691</ele>
        <time>2013-02-08T12:42:05Z</time>
      </trkpt>
      <trkpt lat="45.7217" lon="3.05996">
        <ele>692</ele>
        <time>2013-02-08T12:42:05Z</time>
      </trkpt>
      <trkpt lat="45.72168" lon="3.05991">
        <ele>689</ele>
        <time>2013-02-08T12:42:05Z</time>
      </trkpt>
      <trkpt lat="45.72166" lon="3.05983">
        <ele>701</ele>
        <time>2013-02-08T12:42:05Z</time>
      </trkpt>
      <trkpt lat="45.72163" lon="3.05987">
        <ele>701</ele>
        <time>2013-02-08T12:42:05Z</time>
      </trkpt>
      <trkpt lat="45.72159" lon="3.05985">
        <ele>702</ele>
        <time>2013-02-08T12:42:05Z</time>
      </trkpt>
      <trkpt lat="45.72158" lon="3.05984">
        <ele>702</ele>
        <time>2013-02-08T12:42:05Z</time>
      </trkpt>
      <trkpt lat="45.72156" lon="3.05982">
        <ele>702</ele>
        <time>2013-02-08T12:42:05Z</time>
      </trkpt>
      <trkpt lat="45.72155" lon="3.0598">
        <ele>703</ele>
        <time>2013-02-08T12:42:05Z</time>
      </trkpt>
      <trkpt lat="45.72154" lon="3.05979">
        <ele>703</ele>
        <time>2013-02-08T12:42:05Z</time>
      </trkpt>
      <trkpt lat="45.72152" lon="3.05978">
        <ele>703</ele>
        <time>2013-02-08T12:42:05Z</time>
      </trkpt>
      <trkpt lat="45.72151" lon="3.05977">
        <ele>703</ele>
        <time>2013-02-08T12:42:05Z</time>
      </trkpt>
      <trkpt lat="45.7215" lon="3.05978">
        <ele>704</ele>
        <time>2013-02-08T12:42:05Z</time>
      </trkpt>
      <trkpt lat="45.72149" lon="3.05978">
        <ele>704</ele>
        <time>2013-02-08T12:42:05Z</time>
      </trkpt>
      <trkpt lat="45.72148" lon="3.0598">
        <ele>704</ele>
        <time>2013-02-08T12:42:05Z</time>
      </trkpt>
      <trkpt lat="45.72148" lon="3.05982">
        <ele>704</ele>
        <time>2013-02-08T12:42:05Z</time>
      </trkpt>
      <trkpt lat="45.72149" lon="3.05985">
        <ele>704</ele>
        <time>2013-02-08T12:42:05Z</time>
      </trkpt>
      <trkpt lat="45.7215" lon="3.05988">
        <ele>703</ele>
        <time>2013-02-08T12:42:05Z</time>
      </trkpt>
      <trkpt lat="45.72152" lon="3.0599">
        <ele>703</ele>
        <time>2013-02-08T12:42:05Z</time>
      </trkpt>
      <trkpt lat="45.72153" lon="3.05992">
        <ele>702</ele>
        <time>2013-02-08T12:42:05Z</time>
      </trkpt>
      <trkpt lat="45.72153" lon="3.05995">
        <ele>702</ele>
        <time>2013-02-08T12:42:05Z</time>
      </trkpt>
      <trkpt lat="45.72155" lon="3.05997">
        <ele>701</ele>
        <time>2013-02-08T12:42:05Z</time>
      </trkpt>
      <trkpt lat="45.72157" lon="3.05999">
        <ele>701</ele>
        <time>2013-02-08T12:42:05Z</time>
      </trkpt>
      <trkpt lat="45.72159" lon="3.06">
        <ele>702</ele>
        <time>2013-02-08T12:42:05Z</time>
      </trkpt>
      <trkpt lat="45.7216" lon="3.06002">
        <ele>702</ele>
        <time>2013-02-08T12:42:05Z</time>
      </trkpt>
      <trkpt lat="45.72165" lon="3.06005">
        <ele>701</ele>
        <time>2013-02-08T12:42:05Z</time>
      </trkpt>
      <trkpt lat="45.72165" lon="3.06007">
        <ele>702</ele>
        <time>2013-02-08T12:42:05Z</time>
      </trkpt>
      <trkpt lat="45.72166" lon="3.06008">
        <ele>702</ele>
        <time>2013-02-08T12:42:05Z</time>
      </trkpt>
      <trkpt lat="45.72167" lon="3.0601">
        <ele>693</ele>
        <time>2013-02-08T12:42:05Z</time>
      </trkpt>
      <trkpt lat="45.72169" lon="3.06012">
        <ele>693</ele>
        <time>2013-02-08T12:42:05Z</time>
      </trkpt>
      <trkpt lat="45.72171" lon="3.06013">
        <ele>692</ele>
        <time>2013-02-08T12:42:05Z</time>
      </trkpt>
      <trkpt lat="45.72174" lon="3.06015">
        <ele>692</ele>
        <time>2013-02-08T12:42:05Z</time>
      </trkpt>
      <trkpt lat="45.72176" lon="3.06018">
        <ele>691</ele>
        <time>2013-02-08T12:42:05Z</time>
      </trkpt>
      <trkpt lat="45.72178" lon="3.06021">
        <ele>690</ele>
        <time>2013-02-08T12:42:05Z</time>
      </trkpt>
      <trkpt lat="45.72179" lon="3.06023">
        <ele>690</ele>
        <time>2013-02-08T12:42:05Z</time>
      </trkpt>
      <trkpt lat="45.7218" lon="3.06026">
        <ele>690</ele>
        <time>2013-02-08T12:42:05Z</time>
      </trkpt>
      <trkpt lat="45.72182" lon="3.06027">
        <ele>689</ele>
        <time>2013-02-08T12:42:05Z</time>
      </trkpt>
      <trkpt lat="45.72184" lon="3.06027">
        <ele>689</ele>
        <time>2013-02-08T12:42:05Z</time>
      </trkpt>
      <trkpt lat="45.72184" lon="3.06028">
        <ele>689</ele>
        <time>2013-02-08T12:42:05Z</time>
      </trkpt>
      <trkpt lat="45.72186" lon="3.06029">
        <ele>689</ele>
        <time>2013-02-08T12:42:05Z</time>
      </trkpt>
      <trkpt lat="45.72187" lon="3.06031">
        <ele>689</ele>
        <time>2013-02-08T12:42:05Z</time>
      </trkpt>
      <trkpt lat="45.72189" lon="3.06033">
        <ele>688</ele>
        <time>2013-02-08T12:42:05Z</time>
      </trkpt>
      <trkpt lat="45.72191" lon="3.06035">
        <ele>688</ele>
        <time>2013-02-08T12:42:05Z</time>
      </trkpt>
      <trkpt lat="45.72192" lon="3.06038">
        <ele>688</ele>
        <time>2013-02-08T12:42:05Z</time>
      </trkpt>
      <trkpt lat="45.72194" lon="3.0604">
        <ele>688</ele>
        <time>2013-02-08T12:42:05Z</time>
      </trkpt>
      <trkpt lat="45.72195" lon="3.06043">
        <ele>688</ele>
        <time>2013-02-08T12:42:05Z</time>
      </trkpt>
      <trkpt lat="45.72198" lon="3.0605">
        <ele>688</ele>
        <time>2013-02-08T12:42:05Z</time>
      </trkpt>
      <trkpt lat="45.72201" lon="3.06052">
        <ele>688</ele>
        <time>2013-02-08T12:42:05Z</time>
      </trkpt>
      <trkpt lat="45.722" lon="3.06055">
        <ele>688</ele>
        <time>2013-02-08T12:42:05Z</time>
      </trkpt>
      <trkpt lat="45.72201" lon="3.06058">
        <ele>688</ele>
        <time>2013-02-08T12:42:05Z</time>
      </trkpt>
      <trkpt lat="45.72202" lon="3.0606">
        <ele>688</ele>
        <time>2013-02-08T12:42:05Z</time>
      </trkpt>
      <trkpt lat="45.72203" lon="3.06064">
        <ele>688</ele>
        <time>2013-02-08T12:42:05Z</time>
      </trkpt>
      <trkpt lat="45.72203" lon="3.06068">
        <ele>688</ele>
        <time>2013-02-08T12:42:05Z</time>
      </trkpt>
      <trkpt lat="45.72209" lon="3.06085">
        <ele>693</ele>
        <time>2013-02-08T12:42:05Z</time>
      </trkpt>
      <trkpt lat="45.7221" lon="3.06086">
        <ele>692</ele>
        <time>2013-02-08T12:42:05Z</time>
      </trkpt>
      <trkpt lat="45.7221" lon="3.06089">
        <ele>692</ele>
        <time>2013-02-08T12:42:05Z</time>
      </trkpt>
      <trkpt lat="45.72211" lon="3.06098">
        <ele>692</ele>
        <time>2013-02-08T12:42:05Z</time>
      </trkpt>
      <trkpt lat="45.72211" lon="3.061">
        <ele>692</ele>
        <time>2013-02-08T12:42:05Z</time>
      </trkpt>
      <trkpt lat="45.72212" lon="3.06103">
        <ele>692</ele>
        <time>2013-02-08T12:42:05Z</time>
      </trkpt>
      <trkpt lat="45.72214" lon="3.06108">
        <ele>692</ele>
        <time>2013-02-08T12:42:05Z</time>
      </trkpt>
      <trkpt lat="45.72215" lon="3.06111">
        <ele>692</ele>
        <time>2013-02-08T12:42:05Z</time>
      </trkpt>
      <trkpt lat="45.72216" lon="3.06114">
        <ele>692</ele>
        <time>2013-02-08T12:42:05Z</time>
      </trkpt>
      <trkpt lat="45.72216" lon="3.06116">
        <ele>692</ele>
        <time>2013-02-08T12:42:05Z</time>
      </trkpt>
      <trkpt lat="45.72216" lon="3.0612">
        <ele>692</ele>
        <time>2013-02-08T12:42:05Z</time>
      </trkpt>
      <trkpt lat="45.72218" lon="3.06123">
        <ele>692</ele>
        <time>2013-02-08T12:42:05Z</time>
      </trkpt>
      <trkpt lat="45.72218" lon="3.06125">
        <ele>692</ele>
        <time>2013-02-08T12:42:05Z</time>
      </trkpt>
      <trkpt lat="45.72219" lon="3.06127">
        <ele>692</ele>
        <time>2013-02-08T12:42:05Z</time>
      </trkpt>
      <trkpt lat="45.72219" lon="3.0613">
        <ele>692</ele>
        <time>2013-02-08T12:42:05Z</time>
      </trkpt>
      <trkpt lat="45.7222" lon="3.06133">
        <ele>692</ele>
        <time>2013-02-08T12:42:05Z</time>
      </trkpt>
      <trkpt lat="45.72221" lon="3.06135">
        <ele>692</ele>
        <time>2013-02-08T12:42:05Z</time>
      </trkpt>
      <trkpt lat="45.72221" lon="3.06138">
        <ele>692</ele>
        <time>2013-02-08T12:42:05Z</time>
      </trkpt>
      <trkpt lat="45.72222" lon="3.0614">
        <ele>692</ele>
        <time>2013-02-08T12:42:05Z</time>
      </trkpt>
      <trkpt lat="45.72224" lon="3.06143">
        <ele>691</ele>
        <time>2013-02-08T12:42:05Z</time>
      </trkpt>
      <trkpt lat="45.72225" lon="3.06146">
        <ele>691</ele>
        <time>2013-02-08T12:42:05Z</time>
      </trkpt>
      <trkpt lat="45.72226" lon="3.06149">
        <ele>691</ele>
        <time>2013-02-08T12:42:05Z</time>
      </trkpt>
      <trkpt lat="45.72228" lon="3.06152">
        <ele>690</ele>
        <time>2013-02-08T12:42:05Z</time>
      </trkpt>
      <trkpt lat="45.72229" lon="3.06154">
        <ele>690</ele>
        <time>2013-02-08T12:42:05Z</time>
      </trkpt>
      <trkpt lat="45.72231" lon="3.06156">
        <ele>690</ele>
        <time>2013-02-08T12:42:05Z</time>
      </trkpt>
      <trkpt lat="45.72232" lon="3.06158">
        <ele>689</ele>
        <time>2013-02-08T12:42:05Z</time>
      </trkpt>
      <trkpt lat="45.72233" lon="3.06161">
        <ele>689</ele>
        <time>2013-02-08T12:42:05Z</time>
      </trkpt>
      <trkpt lat="45.72235" lon="3.06164">
        <ele>689</ele>
        <time>2013-02-08T12:42:05Z</time>
      </trkpt>
      <trkpt lat="45.72236" lon="3.06166">
        <ele>688</ele>
        <time>2013-02-08T12:42:05Z</time>
      </trkpt>
      <trkpt lat="45.72238" lon="3.06168">
        <ele>687</ele>
        <time>2013-02-08T12:42:05Z</time>
      </trkpt>
      <trkpt lat="45.72239" lon="3.0617">
        <ele>686</ele>
        <time>2013-02-08T12:42:05Z</time>
      </trkpt>
      <trkpt lat="45.72239" lon="3.06172">
        <ele>686</ele>
        <time>2013-02-08T12:42:05Z</time>
      </trkpt>
      <trkpt lat="45.7224" lon="3.06174">
        <ele>686</ele>
        <time>2013-02-08T12:42:05Z</time>
      </trkpt>
      <trkpt lat="45.72242" lon="3.06176">
        <ele>686</ele>
        <time>2013-02-08T12:42:05Z</time>
      </trkpt>
      <trkpt lat="45.72243" lon="3.06179">
        <ele>686</ele>
        <time>2013-02-08T12:42:05Z</time>
      </trkpt>
      <trkpt lat="45.72244" lon="3.06181">
        <ele>686</ele>
        <time>2013-02-08T12:42:05Z</time>
      </trkpt>
      <trkpt lat="45.72244" lon="3.06184">
        <ele>687</ele>
        <time>2013-02-08T12:42:05Z</time>
      </trkpt>
      <trkpt lat="45.72246" lon="3.06186">
        <ele>687</ele>
        <time>2013-02-08T12:42:05Z</time>
      </trkpt>
      <trkpt lat="45.72247" lon="3.06188">
        <ele>687</ele>
        <time>2013-02-08T12:42:05Z</time>
      </trkpt>
      <trkpt lat="45.72248" lon="3.0619">
        <ele>687</ele>
        <time>2013-02-08T12:42:05Z</time>
      </trkpt>
      <trkpt lat="45.72249" lon="3.06193">
        <ele>687</ele>
        <time>2013-02-08T12:42:05Z</time>
      </trkpt>
      <trkpt lat="45.7225" lon="3.06195">
        <ele>686</ele>
        <time>2013-02-08T12:42:05Z</time>
      </trkpt>
      <trkpt lat="45.7225" lon="3.06198">
        <ele>671</ele>
        <time>2013-02-08T12:42:05Z</time>
      </trkpt>
      <trkpt lat="45.7225" lon="3.06201">
        <ele>670</ele>
        <time>2013-02-08T12:42:05Z</time>
      </trkpt>
      <trkpt lat="45.7225" lon="3.06204">
        <ele>686</ele>
        <time>2013-02-08T12:42:05Z</time>
      </trkpt>
      <trkpt lat="45.72248" lon="3.06207">
        <ele>686</ele>
        <time>2013-02-08T12:42:05Z</time>
      </trkpt>
      <trkpt lat="45.72246" lon="3.06208">
        <ele>686</ele>
        <time>2013-02-08T12:42:05Z</time>
      </trkpt>
      <trkpt lat="45.72244" lon="3.0621">
        <ele>686</ele>
        <time>2013-02-08T12:42:05Z</time>
      </trkpt>
      <trkpt lat="45.72244" lon="3.06211">
        <ele>686</ele>
        <time>2013-02-08T12:42:05Z</time>
      </trkpt>
      <trkpt lat="45.72243" lon="3.06212">
        <ele>686</ele>
        <time>2013-02-08T12:42:05Z</time>
      </trkpt>
      <trkpt lat="45.72241" lon="3.06213">
        <ele>686</ele>
        <time>2013-02-08T12:42:05Z</time>
      </trkpt>
      <trkpt lat="45.72239" lon="3.06215">
        <ele>686</ele>
        <time>2013-02-08T12:42:05Z</time>
      </trkpt>
      <trkpt lat="45.72237" lon="3.06216">
        <ele>686</ele>
        <time>2013-02-08T12:42:05Z</time>
      </trkpt>
      <trkpt lat="45.72236" lon="3.06217">
        <ele>686</ele>
        <time>2013-02-08T12:42:05Z</time>
      </trkpt>
      <trkpt lat="45.72234" lon="3.06219">
        <ele>686</ele>
        <time>2013-02-08T12:42:05Z</time>
      </trkpt>
      <trkpt lat="45.72232" lon="3.06219">
        <ele>686</ele>
        <time>2013-02-08T12:42:05Z</time>
      </trkpt>
      <trkpt lat="45.7223" lon="3.0622">
        <ele>686</ele>
        <time>2013-02-08T12:42:05Z</time>
      </trkpt>
      <trkpt lat="45.72227" lon="3.06221">
        <ele>686</ele>
        <time>2013-02-08T12:42:05Z</time>
      </trkpt>
      <trkpt lat="45.72225" lon="3.0622">
        <ele>687</ele>
        <time>2013-02-08T12:42:05Z</time>
      </trkpt>
      <trkpt lat="45.72222" lon="3.0622">
        <ele>687</ele>
        <time>2013-02-08T12:42:05Z</time>
      </trkpt>
      <trkpt lat="45.7222" lon="3.06219">
        <ele>687</ele>
        <time>2013-02-08T12:42:05Z</time>
      </trkpt>
      <trkpt lat="45.72218" lon="3.06219">
        <ele>688</ele>
        <time>2013-02-08T12:42:05Z</time>
      </trkpt>
      <trkpt lat="45.72216" lon="3.06219">
        <ele>688</ele>
        <time>2013-02-08T12:42:05Z</time>
      </trkpt>
      <trkpt lat="45.72213" lon="3.06219">
        <ele>688</ele>
        <time>2013-02-08T12:42:05Z</time>
      </trkpt>
      <trkpt lat="45.72211" lon="3.0622">
        <ele>688</ele>
        <time>2013-02-08T12:42:05Z</time>
      </trkpt>
      <trkpt lat="45.7221" lon="3.0622">
        <ele>688</ele>
        <time>2013-02-08T12:42:05Z</time>
      </trkpt>
      <trkpt lat="45.72208" lon="3.0622">
        <ele>689</ele>
        <time>2013-02-08T12:42:05Z</time>
      </trkpt>
      <trkpt lat="45.72207" lon="3.06221">
        <ele>689</ele>
        <time>2013-02-08T12:42:05Z</time>
      </trkpt>
      <trkpt lat="45.72206" lon="3.06221">
        <ele>689</ele>
        <time>2013-02-08T12:42:05Z</time>
      </trkpt>
      <trkpt lat="45.72204" lon="3.06221">
        <ele>689</ele>
        <time>2013-02-08T12:42:05Z</time>
      </trkpt>
      <trkpt lat="45.72203" lon="3.06222">
        <ele>689</ele>
        <time>2013-02-08T12:42:05Z</time>
      </trkpt>
      <trkpt lat="45.72201" lon="3.06222">
        <ele>689</ele>
        <time>2013-02-08T12:42:05Z</time>
      </trkpt>
      <trkpt lat="45.72199" lon="3.06223">
        <ele>689</ele>
        <time>2013-02-08T12:42:05Z</time>
      </trkpt>
      <trkpt lat="45.72198" lon="3.06223">
        <ele>690</ele>
        <time>2013-02-08T12:42:05Z</time>
      </trkpt>
      <trkpt lat="45.72197" lon="3.06224">
        <ele>690</ele>
        <time>2013-02-08T12:42:05Z</time>
      </trkpt>
      <trkpt lat="45.72195" lon="3.06225">
        <ele>690</ele>
        <time>2013-02-08T12:42:05Z</time>
      </trkpt>
      <trkpt lat="45.72193" lon="3.06225">
        <ele>690</ele>
        <time>2013-02-08T12:42:05Z</time>
      </trkpt>
      <trkpt lat="45.72192" lon="3.06225">
        <ele>690</ele>
        <time>2013-02-08T12:42:05Z</time>
      </trkpt>
      <trkpt lat="45.7219" lon="3.06224">
        <ele>690</ele>
        <time>2013-02-08T12:42:05Z</time>
      </trkpt>
      <trkpt lat="45.72189" lon="3.06225">
        <ele>690</ele>
        <time>2013-02-08T12:42:05Z</time>
      </trkpt>
      <trkpt lat="45.72187" lon="3.06226">
        <ele>690</ele>
        <time>2013-02-08T12:42:05Z</time>
      </trkpt>
      <trkpt lat="45.72185" lon="3.06227">
        <ele>690</ele>
        <time>2013-02-08T12:42:05Z</time>
      </trkpt>
      <trkpt lat="45.72183" lon="3.06228">
        <ele>691</ele>
        <time>2013-02-08T12:42:05Z</time>
      </trkpt>
      <trkpt lat="45.72181" lon="3.06227">
        <ele>691</ele>
        <time>2013-02-08T12:42:05Z</time>
      </trkpt>
      <trkpt lat="45.72178" lon="3.0623">
        <ele>691</ele>
        <time>2013-02-08T12:42:05Z</time>
      </trkpt>
      <trkpt lat="45.72175" lon="3.06232">
        <ele>691</ele>
        <time>2013-02-08T12:42:05Z</time>
      </trkpt>
      <trkpt lat="45.72174" lon="3.06232">
        <ele>691</ele>
        <time>2013-02-08T12:42:05Z</time>
      </trkpt>
      <trkpt lat="45.72173" lon="3.06231">
        <ele>691</ele>
        <time>2013-02-08T12:42:05Z</time>
      </trkpt>
      <trkpt lat="45.72171" lon="3.06233">
        <ele>691</ele>
        <time>2013-02-08T12:42:05Z</time>
      </trkpt>
      <trkpt lat="45.7217" lon="3.06234">
        <ele>691</ele>
        <time>2013-02-08T12:42:05Z</time>
      </trkpt>
      <trkpt lat="45.72169" lon="3.06234">
        <ele>691</ele>
        <time>2013-02-08T12:42:05Z</time>
      </trkpt>
      <trkpt lat="45.72167" lon="3.06234">
        <ele>691</ele>
        <time>2013-02-08T12:42:05Z</time>
      </trkpt>
      <trkpt lat="45.72167" lon="3.06233">
        <ele>691</ele>
        <time>2013-02-08T12:42:05Z</time>
      </trkpt>
      <trkpt lat="45.72165" lon="3.06232">
        <ele>696</ele>
        <time>2013-02-08T12:42:05Z</time>
      </trkpt>
      <trkpt lat="45.72163" lon="3.06231">
        <ele>697</ele>
        <time>2013-02-08T12:42:05Z</time>
      </trkpt>
      <trkpt lat="45.7216" lon="3.06231">
        <ele>697</ele>
        <time>2013-02-08T12:42:05Z</time>
      </trkpt>
      <trkpt lat="45.72155" lon="3.06234">
        <ele>697</ele>
        <time>2013-02-08T12:42:05Z</time>
      </trkpt>
      <trkpt lat="45.72155" lon="3.06233">
        <ele>697</ele>
        <time>2013-02-08T12:42:05Z</time>
      </trkpt>
      <trkpt lat="45.72152" lon="3.06234">
        <ele>697</ele>
        <time>2013-02-08T12:42:05Z</time>
      </trkpt>
      <trkpt lat="45.7215" lon="3.06233">
        <ele>697</ele>
        <time>2013-02-08T12:42:05Z</time>
      </trkpt>
      <trkpt lat="45.72149" lon="3.06233">
        <ele>697</ele>
        <time>2013-02-08T12:42:05Z</time>
      </trkpt>
      <trkpt lat="45.72147" lon="3.06233">
        <ele>698</ele>
        <time>2013-02-08T12:42:05Z</time>
      </trkpt>
      <trkpt lat="45.72145" lon="3.06232">
        <ele>698</ele>
        <time>2013-02-08T12:42:05Z</time>
      </trkpt>
      <trkpt lat="45.72144" lon="3.06231">
        <ele>698</ele>
        <time>2013-02-08T12:42:05Z</time>
      </trkpt>
      <trkpt lat="45.72143" lon="3.06231">
        <ele>698</ele>
        <time>2013-02-08T12:42:05Z</time>
      </trkpt>
      <trkpt lat="45.72142" lon="3.0623">
        <ele>698</ele>
        <time>2013-02-08T12:42:05Z</time>
      </trkpt>
      <trkpt lat="45.7214" lon="3.06231">
        <ele>698</ele>
        <time>2013-02-08T12:42:05Z</time>
      </trkpt>
      <trkpt lat="45.72138" lon="3.06231">
        <ele>699</ele>
        <time>2013-02-08T12:42:05Z</time>
      </trkpt>
      <trkpt lat="45.72136" lon="3.06231">
        <ele>699</ele>
        <time>2013-02-08T12:42:05Z</time>
      </trkpt>
      <trkpt lat="45.72134" lon="3.06231">
        <ele>699</ele>
        <time>2013-02-08T12:42:05Z</time>
      </trkpt>
      <trkpt lat="45.72132" lon="3.0623">
        <ele>699</ele>
        <time>2013-02-08T12:42:05Z</time>
      </trkpt>
      <trkpt lat="45.7213" lon="3.06229">
        <ele>699</ele>
        <time>2013-02-08T12:42:05Z</time>
      </trkpt>
      <trkpt lat="45.72128" lon="3.06229">
        <ele>699</ele>
        <time>2013-02-08T12:42:05Z</time>
      </trkpt>
      <trkpt lat="45.72127" lon="3.06229">
        <ele>699</ele>
        <time>2013-02-08T12:42:05Z</time>
      </trkpt>
      <trkpt lat="45.72125" lon="3.06228">
        <ele>699</ele>
        <time>2013-02-08T12:42:05Z</time>
      </trkpt>
      <trkpt lat="45.72124" lon="3.06228">
        <ele>699</ele>
        <time>2013-02-08T12:42:05Z</time>
      </trkpt>
      <trkpt lat="45.72123" lon="3.06227">
        <ele>700</ele>
        <time>2013-02-08T12:42:05Z</time>
      </trkpt>
      <trkpt lat="45.72121" lon="3.06226">
        <ele>700</ele>
        <time>2013-02-08T12:42:05Z</time>
      </trkpt>
      <trkpt lat="45.7212" lon="3.06225">
        <ele>700</ele>
        <time>2013-02-08T12:42:05Z</time>
      </trkpt>
      <trkpt lat="45.72118" lon="3.06224">
        <ele>700</ele>
        <time>2013-02-08T12:42:05Z</time>
      </trkpt>
      <trkpt lat="45.72116" lon="3.06224">
        <ele>700</ele>
        <time>2013-02-08T12:42:05Z</time>
      </trkpt>
      <trkpt lat="45.72115" lon="3.06223">
        <ele>700</ele>
        <time>2013-02-08T12:42:05Z</time>
      </trkpt>
      <trkpt lat="45.72114" lon="3.06222">
        <ele>700</ele>
        <time>2013-02-08T12:42:05Z</time>
      </trkpt>
      <trkpt lat="45.72113" lon="3.06222">
        <ele>700</ele>
        <time>2013-02-08T12:42:05Z</time>
      </trkpt>
      <trkpt lat="45.72111" lon="3.06222">
        <ele>700</ele>
        <time>2013-02-08T12:42:05Z</time>
      </trkpt>
      <trkpt lat="45.72109" lon="3.0622">
        <ele>700</ele>
        <time>2013-02-08T12:42:05Z</time>
      </trkpt>
      <trkpt lat="45.72107" lon="3.06221">
        <ele>700</ele>
        <time>2013-02-08T12:42:05Z</time>
      </trkpt>
      <trkpt lat="45.72106" lon="3.06219">
        <ele>701</ele>
        <time>2013-02-08T12:42:05Z</time>
      </trkpt>
      <trkpt lat="45.72103" lon="3.06218">
        <ele>701</ele>
        <time>2013-02-08T12:42:05Z</time>
      </trkpt>
      <trkpt lat="45.72101" lon="3.06218">
        <ele>701</ele>
        <time>2013-02-08T12:42:05Z</time>
      </trkpt>
      <trkpt lat="45.721" lon="3.06216">
        <ele>701</ele>
        <time>2013-02-08T12:42:05Z</time>
      </trkpt>
      <trkpt lat="45.72099" lon="3.06215">
        <ele>701</ele>
        <time>2013-02-08T12:42:05Z</time>
      </trkpt>
      <trkpt lat="45.72098" lon="3.06214">
        <ele>701</ele>
        <time>2013-02-08T12:42:05Z</time>
      </trkpt>
      <trkpt lat="45.72095" lon="3.06214">
        <ele>701</ele>
        <time>2013-02-08T12:42:05Z</time>
      </trkpt>
      <trkpt lat="45.72094" lon="3.06214">
        <ele>701</ele>
        <time>2013-02-08T12:42:05Z</time>
      </trkpt>
      <trkpt lat="45.72093" lon="3.06214">
        <ele>701</ele>
        <time>2013-02-08T12:42:05Z</time>
      </trkpt>
      <trkpt lat="45.72091" lon="3.06215">
        <ele>701</ele>
        <time>2013-02-08T12:42:05Z</time>
      </trkpt>
      <trkpt lat="45.72089" lon="3.06214">
        <ele>701</ele>
        <time>2013-02-08T12:42:05Z</time>
      </trkpt>
      <trkpt lat="45.72087" lon="3.06213">
        <ele>701</ele>
        <time>2013-02-08T12:42:05Z</time>
      </trkpt>
      <trkpt lat="45.72085" lon="3.06213">
        <ele>702</ele>
        <time>2013-02-08T12:42:05Z</time>
      </trkpt>
      <trkpt lat="45.72082" lon="3.06213">
        <ele>700</ele>
        <time>2013-02-08T12:42:05Z</time>
      </trkpt>
      <trkpt lat="45.7208" lon="3.06213">
        <ele>700</ele>
        <time>2013-02-08T12:42:05Z</time>
      </trkpt>
      <trkpt lat="45.72078" lon="3.06212">
        <ele>701</ele>
        <time>2013-02-08T12:42:05Z</time>
      </trkpt>
      <trkpt lat="45.72075" lon="3.06212">
        <ele>700</ele>
        <time>2013-02-08T12:42:05Z</time>
      </trkpt>
      <trkpt lat="45.72073" lon="3.06212">
        <ele>700</ele>
        <time>2013-02-08T12:42:05Z</time>
      </trkpt>
      <trkpt lat="45.72072" lon="3.0621">
        <ele>701</ele>
        <time>2013-02-08T12:42:05Z</time>
      </trkpt>
      <trkpt lat="45.72071" lon="3.06208">
        <ele>701</ele>
        <time>2013-02-08T12:42:05Z</time>
      </trkpt>
      <trkpt lat="45.72069" lon="3.06207">
        <ele>701</ele>
        <time>2013-02-08T12:42:05Z</time>
      </trkpt>
      <trkpt lat="45.72068" lon="3.06205">
        <ele>702</ele>
        <time>2013-02-08T12:42:05Z</time>
      </trkpt>
      <trkpt lat="45.72066" lon="3.06204">
        <ele>702</ele>
        <time>2013-02-08T12:42:05Z</time>
      </trkpt>
      <trkpt lat="45.72066" lon="3.06202">
        <ele>702</ele>
        <time>2013-02-08T12:42:05Z</time>
      </trkpt>
      <trkpt lat="45.72065" lon="3.062">
        <ele>702</ele>
        <time>2013-02-08T12:42:05Z</time>
      </trkpt>
      <trkpt lat="45.72064" lon="3.06198">
        <ele>702</ele>
        <time>2013-02-08T12:42:05Z</time>
      </trkpt>
      <trkpt lat="45.72063" lon="3.06196">
        <ele>703</ele>
        <time>2013-02-08T12:42:05Z</time>
      </trkpt>
      <trkpt lat="45.72062" lon="3.06194">
        <ele>703</ele>
        <time>2013-02-08T12:42:05Z</time>
      </trkpt>
      <trkpt lat="45.72061" lon="3.06192">
        <ele>703</ele>
        <time>2013-02-08T12:42:05Z</time>
      </trkpt>
      <trkpt lat="45.7206" lon="3.0619">
        <ele>704</ele>
        <time>2013-02-08T12:42:05Z</time>
      </trkpt>
      <trkpt lat="45.7206" lon="3.06188">
        <ele>704</ele>
        <time>2013-02-08T12:42:05Z</time>
      </trkpt>
      <trkpt lat="45.72059" lon="3.06186">
        <ele>704</ele>
        <time>2013-02-08T12:42:05Z</time>
      </trkpt>
      <trkpt lat="45.72059" lon="3.06183">
        <ele>704</ele>
        <time>2013-02-08T12:42:05Z</time>
      </trkpt>
      <trkpt lat="45.72058" lon="3.0618">
        <ele>705</ele>
        <time>2013-02-08T12:42:05Z</time>
      </trkpt>
      <trkpt lat="45.72058" lon="3.06178">
        <ele>705</ele>
        <time>2013-02-08T12:42:05Z</time>
      </trkpt>
      <trkpt lat="45.72058" lon="3.06174">
        <ele>705</ele>
        <time>2013-02-08T12:42:05Z</time>
      </trkpt>
      <trkpt lat="45.72058" lon="3.06171">
        <ele>706</ele>
        <time>2013-02-08T12:42:05Z</time>
      </trkpt>
      <trkpt lat="45.72057" lon="3.06168">
        <ele>706</ele>
        <time>2013-02-08T12:42:05Z</time>
      </trkpt>
      <trkpt lat="45.72056" lon="3.06164">
        <ele>715</ele>
        <time>2013-02-08T12:42:05Z</time>
      </trkpt>
      <trkpt lat="45.72056" lon="3.06162">
        <ele>715</ele>
        <time>2013-02-08T12:42:05Z</time>
      </trkpt>
      <trkpt lat="45.72056" lon="3.0616">
        <ele>716</ele>
        <time>2013-02-08T12:42:05Z</time>
      </trkpt>
      <trkpt lat="45.72056" lon="3.06158">
        <ele>716</ele>
        <time>2013-02-08T12:42:05Z</time>
      </trkpt>
      <trkpt lat="45.72055" lon="3.06156">
        <ele>716</ele>
        <time>2013-02-08T12:42:05Z</time>
      </trkpt>
      <trkpt lat="45.72055" lon="3.06153">
        <ele>716</ele>
        <time>2013-02-08T12:42:05Z</time>
      </trkpt>
      <trkpt lat="45.72054" lon="3.06151">
        <ele>716</ele>
        <time>2013-02-08T12:42:05Z</time>
      </trkpt>
      <trkpt lat="45.72053" lon="3.06148">
        <ele>716</ele>
        <time>2013-02-08T12:42:05Z</time>
      </trkpt>
      <trkpt lat="45.72051" lon="3.06147">
        <ele>716</ele>
        <time>2013-02-08T12:42:05Z</time>
      </trkpt>
      <trkpt lat="45.72049" lon="3.06144">
        <ele>716</ele>
        <time>2013-02-08T12:42:05Z</time>
      </trkpt>
      <trkpt lat="45.72048" lon="3.06142">
        <ele>716</ele>
        <time>2013-02-08T12:42:05Z</time>
      </trkpt>
      <trkpt lat="45.72047" lon="3.0614">
        <ele>716</ele>
        <time>2013-02-08T12:42:05Z</time>
      </trkpt>
      <trkpt lat="45.72046" lon="3.06138">
        <ele>716</ele>
        <time>2013-02-08T12:42:05Z</time>
      </trkpt>
      <trkpt lat="45.72045" lon="3.06137">
        <ele>716</ele>
        <time>2013-02-08T12:42:05Z</time>
      </trkpt>
      <trkpt lat="45.72044" lon="3.06136">
        <ele>716</ele>
        <time>2013-02-08T12:42:05Z</time>
      </trkpt>
      <trkpt lat="45.72042" lon="3.06135">
        <ele>716</ele>
        <time>2013-02-08T12:42:05Z</time>
      </trkpt>
      <trkpt lat="45.72041" lon="3.06132">
        <ele>717</ele>
        <time>2013-02-08T12:42:05Z</time>
      </trkpt>
      <trkpt lat="45.7204" lon="3.06129">
        <ele>717</ele>
        <time>2013-02-08T12:42:05Z</time>
      </trkpt>
      <trkpt lat="45.7204" lon="3.06125">
        <ele>717</ele>
        <time>2013-02-08T12:42:05Z</time>
      </trkpt>
      <trkpt lat="45.72039" lon="3.06123">
        <ele>717</ele>
        <time>2013-02-08T12:42:05Z</time>
      </trkpt>
      <trkpt lat="45.72038" lon="3.06122">
        <ele>717</ele>
        <time>2013-02-08T12:42:05Z</time>
      </trkpt>
      <trkpt lat="45.72036" lon="3.0612">
        <ele>718</ele>
        <time>2013-02-08T12:42:05Z</time>
      </trkpt>
      <trkpt lat="45.72035" lon="3.06117">
        <ele>718</ele>
        <time>2013-02-08T12:42:05Z</time>
      </trkpt>
      <trkpt lat="45.72033" lon="3.06116">
        <ele>718</ele>
        <time>2013-02-08T12:42:05Z</time>
      </trkpt>
      <trkpt lat="45.72032" lon="3.06114">
        <ele>718</ele>
        <time>2013-02-08T12:42:05Z</time>
      </trkpt>
      <trkpt lat="45.72029" lon="3.06105">
        <ele>719</ele>
        <time>2013-02-08T12:42:05Z</time>
      </trkpt>
      <trkpt lat="45.72028" lon="3.06107">
        <ele>719</ele>
        <time>2013-02-08T12:42:05Z</time>
      </trkpt>
      <trkpt lat="45.72027" lon="3.06104">
        <ele>719</ele>
        <time>2013-02-08T12:42:05Z</time>
      </trkpt>
      <trkpt lat="45.72028" lon="3.061">
        <ele>719</ele>
        <time>2013-02-08T12:42:05Z</time>
      </trkpt>
      <trkpt lat="45.72026" lon="3.06098">
        <ele>719</ele>
        <time>2013-02-08T12:42:05Z</time>
      </trkpt>
      <trkpt lat="45.72024" lon="3.06095">
        <ele>720</ele>
        <time>2013-02-08T12:42:05Z</time>
      </trkpt>
      <trkpt lat="45.72024" lon="3.06092">
        <ele>720</ele>
        <time>2013-02-08T12:42:05Z</time>
      </trkpt>
      <trkpt lat="45.72022" lon="3.06091">
        <ele>720</ele>
        <time>2013-02-08T12:42:05Z</time>
      </trkpt>
      <trkpt lat="45.72021" lon="3.0609">
        <ele>720</ele>
        <time>2013-02-08T12:42:05Z</time>
      </trkpt>
      <trkpt lat="45.72019" lon="3.06088">
        <ele>720</ele>
        <time>2013-02-08T12:42:05Z</time>
      </trkpt>
      <trkpt lat="45.72017" lon="3.06087">
        <ele>720</ele>
        <time>2013-02-08T12:42:05Z</time>
      </trkpt>
      <trkpt lat="45.72016" lon="3.06085">
        <ele>721</ele>
        <time>2013-02-08T12:42:05Z</time>
      </trkpt>
      <trkpt lat="45.72014" lon="3.06084">
        <ele>721</ele>
        <time>2013-02-08T12:42:05Z</time>
      </trkpt>
      <trkpt lat="45.72013" lon="3.06082">
        <ele>725</ele>
        <time>2013-02-08T12:42:05Z</time>
      </trkpt>
      <trkpt lat="45.72012" lon="3.0608">
        <ele>725</ele>
        <time>2013-02-08T12:42:05Z</time>
      </trkpt>
      <trkpt lat="45.72012" lon="3.06079">
        <ele>725</ele>
        <time>2013-02-08T12:42:05Z</time>
      </trkpt>
      <trkpt lat="45.7201" lon="3.06076">
        <ele>725</ele>
        <time>2013-02-08T12:42:05Z</time>
      </trkpt>
      <trkpt lat="45.72009" lon="3.06075">
        <ele>725</ele>
        <time>2013-02-08T12:42:05Z</time>
      </trkpt>
      <trkpt lat="45.72007" lon="3.06074">
        <ele>725</ele>
        <time>2013-02-08T12:42:05Z</time>
      </trkpt>
      <trkpt lat="45.72006" lon="3.06072">
        <ele>725</ele>
        <time>2013-02-08T12:42:05Z</time>
      </trkpt>
      <trkpt lat="45.72004" lon="3.0607">
        <ele>725</ele>
        <time>2013-02-08T12:42:05Z</time>
      </trkpt>
      <trkpt lat="45.72003" lon="3.06068">
        <ele>725</ele>
        <time>2013-02-08T12:42:05Z</time>
      </trkpt>
      <trkpt lat="45.72001" lon="3.06065">
        <ele>726</ele>
        <time>2013-02-08T12:42:05Z</time>
      </trkpt>
      <trkpt lat="45.71999" lon="3.06063">
        <ele>726</ele>
        <time>2013-02-08T12:42:05Z</time>
      </trkpt>
      <trkpt lat="45.71997" lon="3.06061">
        <ele>726</ele>
        <time>2013-02-08T12:42:05Z</time>
      </trkpt>
      <trkpt lat="45.71996" lon="3.06059">
        <ele>726</ele>
        <time>2013-02-08T12:42:05Z</time>
      </trkpt>
      <trkpt lat="45.71995" lon="3.06059">
        <ele>726</ele>
        <time>2013-02-08T12:42:05Z</time>
      </trkpt>
      <trkpt lat="45.71993" lon="3.06058">
        <ele>726</ele>
        <time>2013-02-08T12:42:05Z</time>
      </trkpt>
      <trkpt lat="45.71993" lon="3.06057">
        <ele>726</ele>
        <time>2013-02-08T12:42:05Z</time>
      </trkpt>
      <trkpt lat="45.71991" lon="3.06056">
        <ele>726</ele>
        <time>2013-02-08T12:42:05Z</time>
      </trkpt>
      <trkpt lat="45.7199" lon="3.06055">
        <ele>726</ele>
        <time>2013-02-08T12:42:05Z</time>
      </trkpt>
      <trkpt lat="45.71987" lon="3.06055">
        <ele>726</ele>
        <time>2013-02-08T12:42:05Z</time>
      </trkpt>
      <trkpt lat="45.71985" lon="3.06054">
        <ele>726</ele>
        <time>2013-02-08T12:42:05Z</time>
      </trkpt>
      <trkpt lat="45.71983" lon="3.06053">
        <ele>727</ele>
        <time>2013-02-08T12:42:05Z</time>
      </trkpt>
      <trkpt lat="45.71981" lon="3.06052">
        <ele>727</ele>
        <time>2013-02-08T12:42:05Z</time>
      </trkpt>
      <trkpt lat="45.7198" lon="3.0605">
        <ele>727</ele>
        <time>2013-02-08T12:42:05Z</time>
      </trkpt>
      <trkpt lat="45.71978" lon="3.06049">
        <ele>727</ele>
        <time>2013-02-08T12:42:05Z</time>
      </trkpt>
      <trkpt lat="45.71977" lon="3.06047">
        <ele>727</ele>
        <time>2013-02-08T12:42:05Z</time>
      </trkpt>
      <trkpt lat="45.71975" lon="3.06045">
        <ele>727</ele>
        <time>2013-02-08T12:42:05Z</time>
      </trkpt>
      <trkpt lat="45.71974" lon="3.06044">
        <ele>727</ele>
        <time>2013-02-08T12:42:05Z</time>
      </trkpt>
      <trkpt lat="45.71972" lon="3.06042">
        <ele>727</ele>
        <time>2013-02-08T12:42:05Z</time>
      </trkpt>
      <trkpt lat="45.7197" lon="3.0604">
        <ele>727</ele>
        <time>2013-02-08T12:42:05Z</time>
      </trkpt>
      <trkpt lat="45.71968" lon="3.06038">
        <ele>728</ele>
        <time>2013-02-08T12:42:05Z</time>
      </trkpt>
      <trkpt lat="45.71967" lon="3.06036">
        <ele>728</ele>
        <time>2013-02-08T12:42:05Z</time>
      </trkpt>
      <trkpt lat="45.71966" lon="3.06035">
        <ele>728</ele>
        <time>2013-02-08T12:42:05Z</time>
      </trkpt>
      <trkpt lat="45.71966" lon="3.06033">
        <ele>728</ele>
        <time>2013-02-08T12:42:05Z</time>
      </trkpt>
      <trkpt lat="45.71966" lon="3.06031">
        <ele>728</ele>
        <time>2013-02-08T12:42:05Z</time>
      </trkpt>
      <trkpt lat="45.71965" lon="3.06029">
        <ele>728</ele>
        <time>2013-02-08T12:42:05Z</time>
      </trkpt>
      <trkpt lat="45.71964" lon="3.06026">
        <ele>728</ele>
        <time>2013-02-08T12:42:05Z</time>
      </trkpt>
      <trkpt lat="45.71964" lon="3.06025">
        <ele>728</ele>
        <time>2013-02-08T12:42:05Z</time>
      </trkpt>
      <trkpt lat="45.71964" lon="3.06022">
        <ele>728</ele>
        <time>2013-02-08T12:42:05Z</time>
      </trkpt>
      <trkpt lat="45.71964" lon="3.0602">
        <ele>729</ele>
        <time>2013-02-08T12:42:05Z</time>
      </trkpt>
      <trkpt lat="45.71963" lon="3.06018">
        <ele>729</ele>
        <time>2013-02-08T12:42:05Z</time>
      </trkpt>
      <trkpt lat="45.71963" lon="3.06016">
        <ele>729</ele>
        <time>2013-02-08T12:42:05Z</time>
      </trkpt>
      <trkpt lat="45.71963" lon="3.06013">
        <ele>729</ele>
        <time>2013-02-08T12:42:05Z</time>
      </trkpt>
      <trkpt lat="45.71963" lon="3.06011">
        <ele>729</ele>
        <time>2013-02-08T12:42:05Z</time>
      </trkpt>
      <trkpt lat="45.71963" lon="3.06009">
        <ele>729</ele>
        <time>2013-02-08T12:42:05Z</time>
      </trkpt>
      <trkpt lat="45.71963" lon="3.06006">
        <ele>729</ele>
        <time>2013-02-08T12:42:05Z</time>
      </trkpt>
      <trkpt lat="45.71963" lon="3.06004">
        <ele>729</ele>
        <time>2013-02-08T12:42:05Z</time>
      </trkpt>
      <trkpt lat="45.71963" lon="3.06002">
        <ele>729</ele>
        <time>2013-02-08T12:42:05Z</time>
      </trkpt>
      <trkpt lat="45.71963" lon="3.06">
        <ele>734</ele>
        <time>2013-02-08T12:42:05Z</time>
      </trkpt>
      <trkpt lat="45.71962" lon="3.05998">
        <ele>734</ele>
        <time>2013-02-08T12:42:05Z</time>
      </trkpt>
      <trkpt lat="45.71962" lon="3.05996">
        <ele>734</ele>
        <time>2013-02-08T12:42:05Z</time>
      </trkpt>
      <trkpt lat="45.71962" lon="3.05993">
        <ele>734</ele>
        <time>2013-02-08T12:42:05Z</time>
      </trkpt>
      <trkpt lat="45.71962" lon="3.05991">
        <ele>734</ele>
        <time>2013-02-08T12:42:05Z</time>
      </trkpt>
      <trkpt lat="45.71962" lon="3.05988">
        <ele>734</ele>
        <time>2013-02-08T12:42:05Z</time>
      </trkpt>
      <trkpt lat="45.71962" lon="3.05986">
        <ele>734</ele>
        <time>2013-02-08T12:42:05Z</time>
      </trkpt>
      <trkpt lat="45.71963" lon="3.05984">
        <ele>734</ele>
        <time>2013-02-08T12:42:05Z</time>
      </trkpt>
      <trkpt lat="45.71962" lon="3.05982">
        <ele>734</ele>
        <time>2013-02-08T12:42:05Z</time>
      </trkpt>
      <trkpt lat="45.71963" lon="3.05979">
        <ele>734</ele>
        <time>2013-02-08T12:42:05Z</time>
      </trkpt>
      <trkpt lat="45.71962" lon="3.05977">
        <ele>734</ele>
        <time>2013-02-08T12:42:05Z</time>
      </trkpt>
      <trkpt lat="45.71962" lon="3.05975">
        <ele>735</ele>
        <time>2013-02-08T12:42:05Z</time>
      </trkpt>
      <trkpt lat="45.71963" lon="3.05972">
        <ele>735</ele>
        <time>2013-02-08T12:42:05Z</time>
      </trkpt>
      <trkpt lat="45.71963" lon="3.0597">
        <ele>735</ele>
        <time>2013-02-08T12:42:05Z</time>
      </trkpt>
      <trkpt lat="45.71963" lon="3.05967">
        <ele>735</ele>
        <time>2013-02-08T12:42:05Z</time>
      </trkpt>
      <trkpt lat="45.71963" lon="3.05965">
        <ele>735</ele>
        <time>2013-02-08T12:42:05Z</time>
      </trkpt>
      <trkpt lat="45.71963" lon="3.05961">
        <ele>735</ele>
        <time>2013-02-08T12:42:05Z</time>
      </trkpt>
      <trkpt lat="45.71963" lon="3.05959">
        <ele>735</ele>
        <time>2013-02-08T12:42:05Z</time>
      </trkpt>
      <trkpt lat="45.71963" lon="3.05956">
        <ele>735</ele>
        <time>2013-02-08T12:42:05Z</time>
      </trkpt>
      <trkpt lat="45.71963" lon="3.05954">
        <ele>735</ele>
        <time>2013-02-08T12:42:05Z</time>
      </trkpt>
      <trkpt lat="45.71964" lon="3.05953">
        <ele>735</ele>
        <time>2013-02-08T12:42:05Z</time>
      </trkpt>
      <trkpt lat="45.71964" lon="3.0595">
        <ele>735</ele>
        <time>2013-02-08T12:42:05Z</time>
      </trkpt>
      <trkpt lat="45.71964" lon="3.05948">
        <ele>735</ele>
        <time>2013-02-08T12:42:05Z</time>
      </trkpt>
      <trkpt lat="45.71964" lon="3.05946">
        <ele>735</ele>
        <time>2013-02-08T12:42:05Z</time>
      </trkpt>
      <trkpt lat="45.71964" lon="3.05943">
        <ele>735</ele>
        <time>2013-02-08T12:42:05Z</time>
      </trkpt>
      <trkpt lat="45.71964" lon="3.0594">
        <ele>735</ele>
        <time>2013-02-08T12:42:05Z</time>
      </trkpt>
      <trkpt lat="45.71964" lon="3.05937">
        <ele>735</ele>
        <time>2013-02-08T12:42:05Z</time>
      </trkpt>
      <trkpt lat="45.71965" lon="3.05935">
        <ele>735</ele>
        <time>2013-02-08T12:42:05Z</time>
      </trkpt>
      <trkpt lat="45.71966" lon="3.05933">
        <ele>735</ele>
        <time>2013-02-08T12:42:05Z</time>
      </trkpt>
      <trkpt lat="45.71966" lon="3.05931">
        <ele>735</ele>
        <time>2013-02-08T12:42:05Z</time>
      </trkpt>
      <trkpt lat="45.71966" lon="3.05928">
        <ele>735</ele>
        <time>2013-02-08T12:42:05Z</time>
      </trkpt>
      <trkpt lat="45.71967" lon="3.05926">
        <ele>735</ele>
        <time>2013-02-08T12:42:05Z</time>
      </trkpt>
      <trkpt lat="45.71966" lon="3.05923">
        <ele>735</ele>
        <time>2013-02-08T12:42:05Z</time>
      </trkpt>
      <trkpt lat="45.71967" lon="3.0592">
        <ele>735</ele>
        <time>2013-02-08T12:42:05Z</time>
      </trkpt>
      <trkpt lat="45.71967" lon="3.05917">
        <ele>736</ele>
        <time>2013-02-08T12:42:05Z</time>
      </trkpt>
      <trkpt lat="45.71967" lon="3.05915">
        <ele>738</ele>
        <time>2013-02-08T12:42:05Z</time>
      </trkpt>
      <trkpt lat="45.71967" lon="3.05912">
        <ele>738</ele>
        <time>2013-02-08T12:42:05Z</time>
      </trkpt>
      <trkpt lat="45.71967" lon="3.05909">
        <ele>738</ele>
        <time>2013-02-08T12:42:05Z</time>
      </trkpt>
      <trkpt lat="45.71967" lon="3.05907">
        <ele>738</ele>
        <time>2013-02-08T12:42:05Z</time>
      </trkpt>
      <trkpt lat="45.71967" lon="3.05905">
        <ele>738</ele>
        <time>2013-02-08T12:42:05Z</time>
      </trkpt>
      <trkpt lat="45.71967" lon="3.05903">
        <ele>738</ele>
        <time>2013-02-08T12:42:05Z</time>
      </trkpt>
      <trkpt lat="45.71968" lon="3.05901">
        <ele>738</ele>
        <time>2013-02-08T12:42:05Z</time>
      </trkpt>
      <trkpt lat="45.71968" lon="3.05899">
        <ele>738</ele>
        <time>2013-02-08T12:42:05Z</time>
      </trkpt>
      <trkpt lat="45.71968" lon="3.05896">
        <ele>738</ele>
        <time>2013-02-08T12:42:05Z</time>
      </trkpt>
      <trkpt lat="45.71968" lon="3.05894">
        <ele>738</ele>
        <time>2013-02-08T12:42:05Z</time>
      </trkpt>
      <trkpt lat="45.71968" lon="3.05891">
        <ele>739</ele>
        <time>2013-02-08T12:42:05Z</time>
      </trkpt>
      <trkpt lat="45.71968" lon="3.05888">
        <ele>739</ele>
        <time>2013-02-08T12:42:05Z</time>
      </trkpt>
      <trkpt lat="45.71968" lon="3.05886">
        <ele>739</ele>
        <time>2013-02-08T12:42:05Z</time>
      </trkpt>
      <trkpt lat="45.71967" lon="3.05883">
        <ele>739</ele>
        <time>2013-02-08T12:42:05Z</time>
      </trkpt>
      <trkpt lat="45.71967" lon="3.05881">
        <ele>739</ele>
        <time>2013-02-08T12:42:05Z</time>
      </trkpt>
      <trkpt lat="45.71967" lon="3.05878">
        <ele>739</ele>
        <time>2013-02-08T12:42:05Z</time>
      </trkpt>
      <trkpt lat="45.71966" lon="3.05876">
        <ele>739</ele>
        <time>2013-02-08T12:42:05Z</time>
      </trkpt>
      <trkpt lat="45.71966" lon="3.05873">
        <ele>739</ele>
        <time>2013-02-08T12:42:05Z</time>
      </trkpt>
      <trkpt lat="45.71966" lon="3.05872">
        <ele>739</ele>
        <time>2013-02-08T12:42:05Z</time>
      </trkpt>
      <trkpt lat="45.71966" lon="3.05871">
        <ele>739</ele>
        <time>2013-02-08T12:42:05Z</time>
      </trkpt>
      <trkpt lat="45.71967" lon="3.05869">
        <ele>739</ele>
        <time>2013-02-08T12:42:05Z</time>
      </trkpt>
      <trkpt lat="45.71968" lon="3.05866">
        <ele>739</ele>
        <time>2013-02-08T12:42:05Z</time>
      </trkpt>
      <trkpt lat="45.71967" lon="3.05863">
        <ele>739</ele>
        <time>2013-02-08T12:42:05Z</time>
      </trkpt>
      <trkpt lat="45.71967" lon="3.0586">
        <ele>739</ele>
        <time>2013-02-08T12:42:05Z</time>
      </trkpt>
      <trkpt lat="45.71967" lon="3.05857">
        <ele>739</ele>
        <time>2013-02-08T12:42:05Z</time>
      </trkpt>
      <trkpt lat="45.71966" lon="3.05854">
        <ele>739</ele>
        <time>2013-02-08T12:42:05Z</time>
      </trkpt>
      <trkpt lat="45.71966" lon="3.05851">
        <ele>739</ele>
        <time>2013-02-08T12:42:05Z</time>
      </trkpt>
      <trkpt lat="45.71966" lon="3.05849">
        <ele>739</ele>
        <time>2013-02-08T12:42:05Z</time>
      </trkpt>
      <trkpt lat="45.71965" lon="3.05846">
        <ele>739</ele>
        <time>2013-02-08T12:42:05Z</time>
      </trkpt>
      <trkpt lat="45.71964" lon="3.05842">
        <ele>739</ele>
        <time>2013-02-08T12:42:05Z</time>
      </trkpt>
      <trkpt lat="45.71963" lon="3.05838">
        <ele>740</ele>
        <time>2013-02-08T12:42:05Z</time>
      </trkpt>
      <trkpt lat="45.71964" lon="3.05837">
        <ele>739</ele>
        <time>2013-02-08T12:42:05Z</time>
      </trkpt>
      <trkpt lat="45.71963" lon="3.05835">
        <ele>740</ele>
        <time>2013-02-08T12:42:05Z</time>
      </trkpt>
      <trkpt lat="45.71963" lon="3.05833">
        <ele>741</ele>
        <time>2013-02-08T12:42:05Z</time>
      </trkpt>
      <trkpt lat="45.71963" lon="3.0583">
        <ele>741</ele>
        <time>2013-02-08T12:42:05Z</time>
      </trkpt>
      <trkpt lat="45.71962" lon="3.05828">
        <ele>741</ele>
        <time>2013-02-08T12:42:05Z</time>
      </trkpt>
      <trkpt lat="45.71961" lon="3.05827">
        <ele>741</ele>
        <time>2013-02-08T12:42:05Z</time>
      </trkpt>
      <trkpt lat="45.71959" lon="3.05825">
        <ele>741</ele>
        <time>2013-02-08T12:42:05Z</time>
      </trkpt>
      <trkpt lat="45.71958" lon="3.05821">
        <ele>742</ele>
        <time>2013-02-08T12:42:05Z</time>
      </trkpt>
      <trkpt lat="45.71957" lon="3.05819">
        <ele>742</ele>
        <time>2013-02-08T12:42:05Z</time>
      </trkpt>
      <trkpt lat="45.71956" lon="3.05816">
        <ele>742</ele>
        <time>2013-02-08T12:42:05Z</time>
      </trkpt>
      <trkpt lat="45.71955" lon="3.05814">
        <ele>742</ele>
        <time>2013-02-08T12:42:05Z</time>
      </trkpt>
      <trkpt lat="45.71955" lon="3.05812">
        <ele>742</ele>
        <time>2013-02-08T12:42:05Z</time>
      </trkpt>
      <trkpt lat="45.71954" lon="3.05811">
        <ele>742</ele>
        <time>2013-02-08T12:42:05Z</time>
      </trkpt>
      <trkpt lat="45.71954" lon="3.05809">
        <ele>742</ele>
        <time>2013-02-08T12:42:05Z</time>
      </trkpt>
      <trkpt lat="45.71953" lon="3.05806">
        <ele>742</ele>
        <time>2013-02-08T12:42:05Z</time>
      </trkpt>
      <trkpt lat="45.71953" lon="3.05804">
        <ele>742</ele>
        <time>2013-02-08T12:42:05Z</time>
      </trkpt>
      <trkpt lat="45.71951" lon="3.05801">
        <ele>742</ele>
        <time>2013-02-08T12:42:05Z</time>
      </trkpt>
      <trkpt lat="45.71952" lon="3.05803">
        <ele>742</ele>
        <time>2013-02-08T12:42:05Z</time>
      </trkpt>
      <trkpt lat="45.71952" lon="3.05801">
        <ele>742</ele>
        <time>2013-02-08T12:42:05Z</time>
      </trkpt>
      <trkpt lat="45.71949" lon="3.05792">
        <ele>743</ele>
        <time>2013-02-08T12:42:05Z</time>
      </trkpt>
      <trkpt lat="45.71949" lon="3.0579">
        <ele>743</ele>
        <time>2013-02-08T12:42:05Z</time>
      </trkpt>
      <trkpt lat="45.71948" lon="3.05787">
        <ele>743</ele>
        <time>2013-02-08T12:42:05Z</time>
      </trkpt>
      <trkpt lat="45.71947" lon="3.05784">
        <ele>743</ele>
        <time>2013-02-08T12:42:05Z</time>
      </trkpt>
      <trkpt lat="45.71946" lon="3.05779">
        <ele>743</ele>
        <time>2013-02-08T12:42:05Z</time>
      </trkpt>
      <trkpt lat="45.71946" lon="3.05778">
        <ele>743</ele>
        <time>2013-02-08T12:42:05Z</time>
      </trkpt>
      <trkpt lat="45.71946" lon="3.05777">
        <ele>743</ele>
        <time>2013-02-08T12:42:05Z</time>
      </trkpt>
      <trkpt lat="45.71945" lon="3.05775">
        <ele>743</ele>
        <time>2013-02-08T12:42:05Z</time>
      </trkpt>
      <trkpt lat="45.71945" lon="3.05775">
        <ele>743</ele>
        <time>2013-02-08T12:42:05Z</time>
      </trkpt>
      <trkpt lat="45.71945" lon="3.05773">
        <ele>744</ele>
        <time>2013-02-08T12:42:05Z</time>
      </trkpt>
      <trkpt lat="45.71943" lon="3.0577">
        <ele>744</ele>
        <time>2013-02-08T12:42:05Z</time>
      </trkpt>
      <trkpt lat="45.71942" lon="3.05766">
        <ele>744</ele>
        <time>2013-02-08T12:42:05Z</time>
      </trkpt>
      <trkpt lat="45.71942" lon="3.05764">
        <ele>745</ele>
        <time>2013-02-08T12:42:05Z</time>
      </trkpt>
      <trkpt lat="45.71941" lon="3.05762">
        <ele>745</ele>
        <time>2013-02-08T12:42:05Z</time>
      </trkpt>
      <trkpt lat="45.71939" lon="3.05759">
        <ele>745</ele>
        <time>2013-02-08T12:42:05Z</time>
      </trkpt>
      <trkpt lat="45.71938" lon="3.05756">
        <ele>746</ele>
        <time>2013-02-08T12:42:05Z</time>
      </trkpt>
      <trkpt lat="45.71937" lon="3.05753">
        <ele>746</ele>
        <time>2013-02-08T12:42:05Z</time>
      </trkpt>
      <trkpt lat="45.71935" lon="3.05749">
        <ele>746</ele>
        <time>2013-02-08T12:42:05Z</time>
      </trkpt>
      <trkpt lat="45.71933" lon="3.05745">
        <ele>746</ele>
        <time>2013-02-08T12:42:05Z</time>
      </trkpt>
      <trkpt lat="45.71932" lon="3.05742">
        <ele>746</ele>
        <time>2013-02-08T12:42:05Z</time>
      </trkpt>
      <trkpt lat="45.71931" lon="3.05741">
        <ele>746</ele>
        <time>2013-02-08T12:42:05Z</time>
      </trkpt>
      <trkpt lat="45.7193" lon="3.0574">
        <ele>746</ele>
        <time>2013-02-08T12:42:05Z</time>
      </trkpt>
      <trkpt lat="45.71929" lon="3.05738">
        <ele>746</ele>
        <time>2013-02-08T12:42:05Z</time>
      </trkpt>
      <trkpt lat="45.71928" lon="3.05738">
        <ele>746</ele>
        <time>2013-02-08T12:42:05Z</time>
      </trkpt>
      <trkpt lat="45.71928" lon="3.05737">
        <ele>746</ele>
        <time>2013-02-08T12:42:05Z</time>
      </trkpt>
      <trkpt lat="45.71926" lon="3.05735">
        <ele>746</ele>
        <time>2013-02-08T12:42:05Z</time>
      </trkpt>
      <trkpt lat="45.71925" lon="3.05732">
        <ele>746</ele>
        <time>2013-02-08T12:42:05Z</time>
      </trkpt>
      <trkpt lat="45.71924" lon="3.05731">
        <ele>746</ele>
        <time>2013-02-08T12:42:05Z</time>
      </trkpt>
      <trkpt lat="45.71923" lon="3.05729">
        <ele>745</ele>
        <time>2013-02-08T12:42:05Z</time>
      </trkpt>
      <trkpt lat="45.71922" lon="3.05727">
        <ele>745</ele>
        <time>2013-02-08T12:42:05Z</time>
      </trkpt>
      <trkpt lat="45.71921" lon="3.05727">
        <ele>745</ele>
        <time>2013-02-08T12:42:05Z</time>
      </trkpt>
      <trkpt lat="45.7192" lon="3.05725">
        <ele>745</ele>
        <time>2013-02-08T12:42:05Z</time>
      </trkpt>
      <trkpt lat="45.71919" lon="3.05723">
        <ele>745</ele>
        <time>2013-02-08T12:42:05Z</time>
      </trkpt>
      <trkpt lat="45.71918" lon="3.0572">
        <ele>744</ele>
        <time>2013-02-08T12:42:05Z</time>
      </trkpt>
      <trkpt lat="45.71918" lon="3.05718">
        <ele>744</ele>
        <time>2013-02-08T12:42:05Z</time>
      </trkpt>
      <trkpt lat="45.71916" lon="3.05716">
        <ele>755</ele>
        <time>2013-02-08T12:42:05Z</time>
      </trkpt>
      <trkpt lat="45.71915" lon="3.05713">
        <ele>755</ele>
        <time>2013-02-08T12:42:05Z</time>
      </trkpt>
      <trkpt lat="45.71914" lon="3.0571">
        <ele>755</ele>
        <time>2013-02-08T12:42:05Z</time>
      </trkpt>
      <trkpt lat="45.71913" lon="3.05707">
        <ele>755</ele>
        <time>2013-02-08T12:42:05Z</time>
      </trkpt>
      <trkpt lat="45.71912" lon="3.05703">
        <ele>755</ele>
        <time>2013-02-08T12:42:05Z</time>
      </trkpt>
      <trkpt lat="45.71911" lon="3.05701">
        <ele>755</ele>
        <time>2013-02-08T12:42:05Z</time>
      </trkpt>
      <trkpt lat="45.71909" lon="3.057">
        <ele>755</ele>
        <time>2013-02-08T12:42:05Z</time>
      </trkpt>
      <trkpt lat="45.71908" lon="3.05698">
        <ele>755</ele>
        <time>2013-02-08T12:42:05Z</time>
      </trkpt>
      <trkpt lat="45.71908" lon="3.05695">
        <ele>754</ele>
        <time>2013-02-08T12:42:05Z</time>
      </trkpt>
      <trkpt lat="45.71906" lon="3.05692">
        <ele>754</ele>
        <time>2013-02-08T12:42:05Z</time>
      </trkpt>
      <trkpt lat="45.71905" lon="3.05687">
        <ele>754</ele>
        <time>2013-02-08T12:42:05Z</time>
      </trkpt>
      <trkpt lat="45.71903" lon="3.05685">
        <ele>754</ele>
        <time>2013-02-08T12:42:05Z</time>
      </trkpt>
      <trkpt lat="45.71902" lon="3.05682">
        <ele>754</ele>
        <time>2013-02-08T12:42:05Z</time>
      </trkpt>
      <trkpt lat="45.71901" lon="3.0568">
        <ele>754</ele>
        <time>2013-02-08T12:42:05Z</time>
      </trkpt>
      <trkpt lat="45.719" lon="3.05678">
        <ele>754</ele>
        <time>2013-02-08T12:42:05Z</time>
      </trkpt>
      <trkpt lat="45.71899" lon="3.05676">
        <ele>754</ele>
        <time>2013-02-08T12:42:05Z</time>
      </trkpt>
      <trkpt lat="45.71898" lon="3.05673">
        <ele>754</ele>
        <time>2013-02-08T12:42:05Z</time>
      </trkpt>
      <trkpt lat="45.71897" lon="3.0567">
        <ele>754</ele>
        <time>2013-02-08T12:42:05Z</time>
      </trkpt>
      <trkpt lat="45.71896" lon="3.05668">
        <ele>754</ele>
        <time>2013-02-08T12:42:05Z</time>
      </trkpt>
      <trkpt lat="45.71895" lon="3.05665">
        <ele>753</ele>
        <time>2013-02-08T12:42:05Z</time>
      </trkpt>
      <trkpt lat="45.71893" lon="3.05663">
        <ele>754</ele>
        <time>2013-02-08T12:42:05Z</time>
      </trkpt>
      <trkpt lat="45.71891" lon="3.05661">
        <ele>754</ele>
        <time>2013-02-08T12:42:05Z</time>
      </trkpt>
      <trkpt lat="45.7189" lon="3.05658">
        <ele>754</ele>
        <time>2013-02-08T12:42:05Z</time>
      </trkpt>
      <trkpt lat="45.71888" lon="3.05655">
        <ele>754</ele>
        <time>2013-02-08T12:42:05Z</time>
      </trkpt>
      <trkpt lat="45.71886" lon="3.05652">
        <ele>755</ele>
        <time>2013-02-08T12:42:05Z</time>
      </trkpt>
      <trkpt lat="45.71884" lon="3.05649">
        <ele>755</ele>
        <time>2013-02-08T12:42:05Z</time>
      </trkpt>
      <trkpt lat="45.71883" lon="3.05645">
        <ele>755</ele>
        <time>2013-02-08T12:42:05Z</time>
      </trkpt>
      <trkpt lat="45.71882" lon="3.05642">
        <ele>755</ele>
        <time>2013-02-08T12:42:05Z</time>
      </trkpt>
      <trkpt lat="45.7188" lon="3.0564">
        <ele>755</ele>
        <time>2013-02-08T12:42:05Z</time>
      </trkpt>
      <trkpt lat="45.7188" lon="3.05634">
        <ele>755</ele>
        <time>2013-02-08T12:42:05Z</time>
      </trkpt>
      <trkpt lat="45.71879" lon="3.0563">
        <ele>755</ele>
        <time>2013-02-08T12:42:05Z</time>
      </trkpt>
      <trkpt lat="45.71877" lon="3.05624">
        <ele>755</ele>
        <time>2013-02-08T12:42:05Z</time>
      </trkpt>
      <trkpt lat="45.71875" lon="3.05618">
        <ele>755</ele>
        <time>2013-02-08T12:42:05Z</time>
      </trkpt>
      <trkpt lat="45.71874" lon="3.05615">
        <ele>755</ele>
        <time>2013-02-08T12:42:05Z</time>
      </trkpt>
      <trkpt lat="45.71874" lon="3.05613">
        <ele>755</ele>
        <time>2013-02-08T12:42:05Z</time>
      </trkpt>
      <trkpt lat="45.71874" lon="3.05611">
        <ele>755</ele>
        <time>2013-02-08T12:42:05Z</time>
      </trkpt>
      <trkpt lat="45.71874" lon="3.05609">
        <ele>755</ele>
        <time>2013-02-08T12:42:05Z</time>
      </trkpt>
      <trkpt lat="45.71873" lon="3.05607">
        <ele>755</ele>
        <time>2013-02-08T12:42:05Z</time>
      </trkpt>
      <trkpt lat="45.71873" lon="3.05606">
        <ele>755</ele>
        <time>2013-02-08T12:42:05Z</time>
      </trkpt>
      <trkpt lat="45.71874" lon="3.05604">
        <ele>755</ele>
        <time>2013-02-08T12:42:05Z</time>
      </trkpt>
      <trkpt lat="45.71872" lon="3.05601">
        <ele>755</ele>
        <time>2013-02-08T12:42:05Z</time>
      </trkpt>
      <trkpt lat="45.7187" lon="3.056">
        <ele>755</ele>
        <time>2013-02-08T12:42:05Z</time>
      </trkpt>
      <trkpt lat="45.71868" lon="3.05597">
        <ele>756</ele>
        <time>2013-02-08T12:42:05Z</time>
      </trkpt>
      <trkpt lat="45.71867" lon="3.05595">
        <ele>756</ele>
        <time>2013-02-08T12:42:05Z</time>
      </trkpt>
      <trkpt lat="45.71865" lon="3.0559">
        <ele>756</ele>
        <time>2013-02-08T12:42:05Z</time>
      </trkpt>
      <trkpt lat="45.71863" lon="3.05585">
        <ele>757</ele>
        <time>2013-02-08T12:42:05Z</time>
      </trkpt>
      <trkpt lat="45.71862" lon="3.0558">
        <ele>753</ele>
        <time>2013-02-08T12:42:05Z</time>
      </trkpt>
      <trkpt lat="45.71862" lon="3.05577">
        <ele>753</ele>
        <time>2013-02-08T12:42:05Z</time>
      </trkpt>
      <trkpt lat="45.71861" lon="3.05575">
        <ele>753</ele>
        <time>2013-02-08T12:42:05Z</time>
      </trkpt>
      <trkpt lat="45.7186" lon="3.05573">
        <ele>753</ele>
        <time>2013-02-08T12:42:05Z</time>
      </trkpt>
      <trkpt lat="45.71858" lon="3.05571">
        <ele>753</ele>
        <time>2013-02-08T12:42:05Z</time>
      </trkpt>
      <trkpt lat="45.71857" lon="3.0557">
        <ele>754</ele>
        <time>2013-02-08T12:42:05Z</time>
      </trkpt>
      <trkpt lat="45.71856" lon="3.05568">
        <ele>754</ele>
        <time>2013-02-08T12:42:05Z</time>
      </trkpt>
      <trkpt lat="45.71854" lon="3.05564">
        <ele>754</ele>
        <time>2013-02-08T12:42:05Z</time>
      </trkpt>
      <trkpt lat="45.71854" lon="3.0556">
        <ele>753</ele>
        <time>2013-02-08T12:42:05Z</time>
      </trkpt>
      <trkpt lat="45.71853" lon="3.05557">
        <ele>753</ele>
        <time>2013-02-08T12:42:05Z</time>
      </trkpt>
      <trkpt lat="45.71852" lon="3.05554">
        <ele>753</ele>
        <time>2013-02-08T12:42:05Z</time>
      </trkpt>
      <trkpt lat="45.71852" lon="3.05551">
        <ele>753</ele>
        <time>2013-02-08T12:42:05Z</time>
      </trkpt>
      <trkpt lat="45.71853" lon="3.05549">
        <ele>752</ele>
        <time>2013-02-08T12:42:05Z</time>
      </trkpt>
      <trkpt lat="45.71853" lon="3.05546">
        <ele>752</ele>
        <time>2013-02-08T12:42:05Z</time>
      </trkpt>
      <trkpt lat="45.71851" lon="3.05541">
        <ele>752</ele>
        <time>2013-02-08T12:42:05Z</time>
      </trkpt>
      <trkpt lat="45.7185" lon="3.05538">
        <ele>752</ele>
        <time>2013-02-08T12:42:05Z</time>
      </trkpt>
      <trkpt lat="45.71849" lon="3.05535">
        <ele>752</ele>
        <time>2013-02-08T12:42:05Z</time>
      </trkpt>
      <trkpt lat="45.71848" lon="3.05534">
        <ele>752</ele>
        <time>2013-02-08T12:42:05Z</time>
      </trkpt>
      <trkpt lat="45.71847" lon="3.05531">
        <ele>752</ele>
        <time>2013-02-08T12:42:05Z</time>
      </trkpt>
      <trkpt lat="45.71847" lon="3.05528">
        <ele>752</ele>
        <time>2013-02-08T12:42:05Z</time>
      </trkpt>
      <trkpt lat="45.71846" lon="3.05528">
        <ele>752</ele>
        <time>2013-02-08T12:42:05Z</time>
      </trkpt>
      <trkpt lat="45.71843" lon="3.05521">
        <ele>753</ele>
        <time>2013-02-08T12:42:05Z</time>
      </trkpt>
      <trkpt lat="45.71841" lon="3.05516">
        <ele>753</ele>
        <time>2013-02-08T12:42:05Z</time>
      </trkpt>
      <trkpt lat="45.7184" lon="3.05511">
        <ele>754</ele>
        <time>2013-02-08T12:42:05Z</time>
      </trkpt>
      <trkpt lat="45.71838" lon="3.05508">
        <ele>755</ele>
        <time>2013-02-08T12:42:05Z</time>
      </trkpt>
      <trkpt lat="45.71837" lon="3.05505">
        <ele>755</ele>
        <time>2013-02-08T12:42:05Z</time>
      </trkpt>
      <trkpt lat="45.71836" lon="3.05499">
        <ele>755</ele>
        <time>2013-02-08T12:42:05Z</time>
      </trkpt>
      <trkpt lat="45.71834" lon="3.05495">
        <ele>754</ele>
        <time>2013-02-08T12:42:05Z</time>
      </trkpt>
      <trkpt lat="45.71832" lon="3.05488">
        <ele>759</ele>
        <time>2013-02-08T12:42:05Z</time>
      </trkpt>
      <trkpt lat="45.7183" lon="3.05486">
        <ele>759</ele>
        <time>2013-02-08T12:42:05Z</time>
      </trkpt>
      <trkpt lat="45.71827" lon="3.05485">
        <ele>759</ele>
        <time>2013-02-08T12:42:05Z</time>
      </trkpt>
      <trkpt lat="45.71826" lon="3.05483">
        <ele>759</ele>
        <time>2013-02-08T12:42:05Z</time>
      </trkpt>
      <trkpt lat="45.71826" lon="3.0548">
        <ele>760</ele>
        <time>2013-02-08T12:42:05Z</time>
      </trkpt>
      <trkpt lat="45.71823" lon="3.05471">
        <ele>760</ele>
        <time>2013-02-08T12:42:05Z</time>
      </trkpt>
      <trkpt lat="45.71822" lon="3.05467">
        <ele>760</ele>
        <time>2013-02-08T12:42:05Z</time>
      </trkpt>
      <trkpt lat="45.71822" lon="3.05463">
        <ele>760</ele>
        <time>2013-02-08T12:42:05Z</time>
      </trkpt>
      <trkpt lat="45.7182" lon="3.05458">
        <ele>760</ele>
        <time>2013-02-08T12:42:05Z</time>
      </trkpt>
      <trkpt lat="45.71819" lon="3.05455">
        <ele>760</ele>
        <time>2013-02-08T12:42:05Z</time>
      </trkpt>
      <trkpt lat="45.71817" lon="3.05453">
        <ele>760</ele>
        <time>2013-02-08T12:42:05Z</time>
      </trkpt>
      <trkpt lat="45.71816" lon="3.0545">
        <ele>760</ele>
        <time>2013-02-08T12:42:05Z</time>
      </trkpt>
      <trkpt lat="45.71815" lon="3.05447">
        <ele>759</ele>
        <time>2013-02-08T12:42:05Z</time>
      </trkpt>
      <trkpt lat="45.71813" lon="3.05444">
        <ele>759</ele>
        <time>2013-02-08T12:42:05Z</time>
      </trkpt>
      <trkpt lat="45.71812" lon="3.05441">
        <ele>759</ele>
        <time>2013-02-08T12:42:05Z</time>
      </trkpt>
      <trkpt lat="45.71811" lon="3.05438">
        <ele>759</ele>
        <time>2013-02-08T12:42:05Z</time>
      </trkpt>
      <trkpt lat="45.7181" lon="3.05438">
        <ele>759</ele>
        <time>2013-02-08T12:42:05Z</time>
      </trkpt>
      <trkpt lat="45.71811" lon="3.05441">
        <ele>759</ele>
        <time>2013-02-08T12:42:05Z</time>
      </trkpt>
      <trkpt lat="45.7181" lon="3.05441">
        <ele>760</ele>
        <time>2013-02-08T12:42:05Z</time>
      </trkpt>
      <trkpt lat="45.71808" lon="3.05438">
        <ele>759</ele>
        <time>2013-02-08T12:42:05Z</time>
      </trkpt>
      <trkpt lat="45.71806" lon="3.05435">
        <ele>760</ele>
        <time>2013-02-08T12:42:05Z</time>
      </trkpt>
      <trkpt lat="45.71805" lon="3.05433">
        <ele>760</ele>
        <time>2013-02-08T12:42:05Z</time>
      </trkpt>
      <trkpt lat="45.71804" lon="3.05432">
        <ele>760</ele>
        <time>2013-02-08T12:42:05Z</time>
      </trkpt>
      <trkpt lat="45.71803" lon="3.05434">
        <ele>760</ele>
        <time>2013-02-08T12:42:05Z</time>
      </trkpt>
      <trkpt lat="45.718" lon="3.05434">
        <ele>760</ele>
        <time>2013-02-08T12:42:05Z</time>
      </trkpt>
      <trkpt lat="45.71799" lon="3.05431">
        <ele>761</ele>
        <time>2013-02-08T12:42:05Z</time>
      </trkpt>
      <trkpt lat="45.71797" lon="3.05426">
        <ele>761</ele>
        <time>2013-02-08T12:42:05Z</time>
      </trkpt>
      <trkpt lat="45.71796" lon="3.05423">
        <ele>761</ele>
        <time>2013-02-08T12:42:05Z</time>
      </trkpt>
      <trkpt lat="45.71795" lon="3.05418">
        <ele>761</ele>
        <time>2013-02-08T12:42:05Z</time>
      </trkpt>
      <trkpt lat="45.71793" lon="3.05413">
        <ele>759</ele>
        <time>2013-02-08T12:42:05Z</time>
      </trkpt>
      <trkpt lat="45.7179" lon="3.05397">
        <ele>760</ele>
        <time>2013-02-08T12:42:05Z</time>
      </trkpt>
      <trkpt lat="45.71788" lon="3.05393">
        <ele>760</ele>
        <time>2013-02-08T12:42:05Z</time>
      </trkpt>
      <trkpt lat="45.71788" lon="3.05395">
        <ele>760</ele>
        <time>2013-02-08T12:42:05Z</time>
      </trkpt>
      <trkpt lat="45.71783" lon="3.05397">
        <ele>761</ele>
        <time>2013-02-08T12:42:05Z</time>
      </trkpt>
      <trkpt lat="45.7178" lon="3.05394">
        <ele>761</ele>
        <time>2013-02-08T12:42:05Z</time>
      </trkpt>
      <trkpt lat="45.7178" lon="3.05392">
        <ele>761</ele>
        <time>2013-02-08T12:42:05Z</time>
      </trkpt>
      <trkpt lat="45.71782" lon="3.05389">
        <ele>761</ele>
        <time>2013-02-08T12:42:05Z</time>
      </trkpt>
      <trkpt lat="45.71779" lon="3.05384">
        <ele>761</ele>
        <time>2013-02-08T12:42:05Z</time>
      </trkpt>
      <trkpt lat="45.71777" lon="3.05384">
        <ele>761</ele>
        <time>2013-02-08T12:42:05Z</time>
      </trkpt>
      <trkpt lat="45.71775" lon="3.05382">
        <ele>761</ele>
        <time>2013-02-08T12:42:05Z</time>
      </trkpt>
      <trkpt lat="45.71775" lon="3.05382">
        <ele>761</ele>
        <time>2013-02-08T12:42:05Z</time>
      </trkpt>
      <trkpt lat="45.71774" lon="3.0538">
        <ele>761</ele>
        <time>2013-02-08T12:42:05Z</time>
      </trkpt>
      <trkpt lat="45.71774" lon="3.05378">
        <ele>761</ele>
        <time>2013-02-08T12:42:05Z</time>
      </trkpt>
      <trkpt lat="45.71773" lon="3.05376">
        <ele>761</ele>
        <time>2013-02-08T12:42:05Z</time>
      </trkpt>
      <trkpt lat="45.71772" lon="3.05374">
        <ele>762</ele>
        <time>2013-02-08T12:42:05Z</time>
      </trkpt>
      <trkpt lat="45.71772" lon="3.05371">
        <ele>762</ele>
        <time>2013-02-08T12:42:05Z</time>
      </trkpt>
      <trkpt lat="45.7177" lon="3.05367">
        <ele>762</ele>
        <time>2013-02-08T12:42:05Z</time>
      </trkpt>
      <trkpt lat="45.71768" lon="3.05363">
        <ele>762</ele>
        <time>2013-02-08T12:42:05Z</time>
      </trkpt>
      <trkpt lat="45.71767" lon="3.05362">
        <ele>762</ele>
        <time>2013-02-08T12:42:05Z</time>
      </trkpt>
      <trkpt lat="45.71767" lon="3.0536">
        <ele>763</ele>
        <time>2013-02-08T12:42:05Z</time>
      </trkpt>
      <trkpt lat="45.71766" lon="3.05359">
        <ele>763</ele>
        <time>2013-02-08T12:42:05Z</time>
      </trkpt>
      <trkpt lat="45.71765" lon="3.05358">
        <ele>763</ele>
        <time>2013-02-08T12:42:05Z</time>
      </trkpt>
      <trkpt lat="45.71766" lon="3.05357">
        <ele>763</ele>
        <time>2013-02-08T12:42:05Z</time>
      </trkpt>
      <trkpt lat="45.71763" lon="3.05354">
        <ele>764</ele>
        <time>2013-02-08T12:42:05Z</time>
      </trkpt>
      <trkpt lat="45.71762" lon="3.05352">
        <ele>764</ele>
        <time>2013-02-08T12:42:05Z</time>
      </trkpt>
      <trkpt lat="45.71762" lon="3.05351">
        <ele>764</ele>
        <time>2013-02-08T12:42:05Z</time>
      </trkpt>
      <trkpt lat="45.71761" lon="3.0535">
        <ele>764</ele>
        <time>2013-02-08T12:42:05Z</time>
      </trkpt>
      <trkpt lat="45.71759" lon="3.05348">
        <ele>765</ele>
        <time>2013-02-08T12:42:05Z</time>
      </trkpt>
      <trkpt lat="45.71756" lon="3.05347">
        <ele>765</ele>
        <time>2013-02-08T12:42:05Z</time>
      </trkpt>
      <trkpt lat="45.71755" lon="3.05344">
        <ele>766</ele>
        <time>2013-02-08T12:42:05Z</time>
      </trkpt>
      <trkpt lat="45.71752" lon="3.05339">
        <ele>768</ele>
        <time>2013-02-08T12:42:05Z</time>
      </trkpt>
      <trkpt lat="45.7175" lon="3.05336">
        <ele>769</ele>
        <time>2013-02-08T12:42:05Z</time>
      </trkpt>
      <trkpt lat="45.71748" lon="3.05334">
        <ele>770</ele>
        <time>2013-02-08T12:42:05Z</time>
      </trkpt>
      <trkpt lat="45.71747" lon="3.05335">
        <ele>769</ele>
        <time>2013-02-08T12:42:05Z</time>
      </trkpt>
      <trkpt lat="45.71746" lon="3.05334">
        <ele>769</ele>
        <time>2013-02-08T12:42:05Z</time>
      </trkpt>
      <trkpt lat="45.71744" lon="3.05333">
        <ele>770</ele>
        <time>2013-02-08T12:42:05Z</time>
      </trkpt>
      <trkpt lat="45.71743" lon="3.05333">
        <ele>769</ele>
        <time>2013-02-08T12:42:05Z</time>
      </trkpt>
      <trkpt lat="45.71742" lon="3.05331">
        <ele>769</ele>
        <time>2013-02-08T12:42:05Z</time>
      </trkpt>
      <trkpt lat="45.71741" lon="3.05329">
        <ele>769</ele>
        <time>2013-02-08T12:42:05Z</time>
      </trkpt>
      <trkpt lat="45.71739" lon="3.05327">
        <ele>769</ele>
        <time>2013-02-08T12:42:05Z</time>
      </trkpt>
      <trkpt lat="45.71738" lon="3.05324">
        <ele>769</ele>
        <time>2013-02-08T12:42:05Z</time>
      </trkpt>
      <trkpt lat="45.71736" lon="3.05322">
        <ele>769</ele>
        <time>2013-02-08T12:42:05Z</time>
      </trkpt>
      <trkpt lat="45.71734" lon="3.05319">
        <ele>769</ele>
        <time>2013-02-08T12:42:05Z</time>
      </trkpt>
      <trkpt lat="45.71732" lon="3.05317">
        <ele>769</ele>
        <time>2013-02-08T12:42:05Z</time>
      </trkpt>
      <trkpt lat="45.7173" lon="3.05314">
        <ele>768</ele>
        <time>2013-02-08T12:42:05Z</time>
      </trkpt>
      <trkpt lat="45.71728" lon="3.0531">
        <ele>768</ele>
        <time>2013-02-08T12:42:05Z</time>
      </trkpt>
      <trkpt lat="45.71727" lon="3.05307">
        <ele>768</ele>
        <time>2013-02-08T12:42:05Z</time>
      </trkpt>
      <trkpt lat="45.71726" lon="3.05307">
        <ele>768</ele>
        <time>2013-02-08T12:42:05Z</time>
      </trkpt>
      <trkpt lat="45.71725" lon="3.05308">
        <ele>768</ele>
        <time>2013-02-08T12:42:05Z</time>
      </trkpt>
      <trkpt lat="45.71724" lon="3.05308">
        <ele>768</ele>
        <time>2013-02-08T12:42:05Z</time>
      </trkpt>
      <trkpt lat="45.71723" lon="3.05307">
        <ele>768</ele>
        <time>2013-02-08T12:42:05Z</time>
      </trkpt>
      <trkpt lat="45.71722" lon="3.05306">
        <ele>768</ele>
        <time>2013-02-08T12:42:05Z</time>
      </trkpt>
      <trkpt lat="45.7172" lon="3.05305">
        <ele>768</ele>
        <time>2013-02-08T12:42:05Z</time>
      </trkpt>
      <trkpt lat="45.7172" lon="3.05305">
        <ele>768</ele>
        <time>2013-02-08T12:42:05Z</time>
      </trkpt>
      <trkpt lat="45.71719" lon="3.05305">
        <ele>768</ele>
        <time>2013-02-08T12:42:05Z</time>
      </trkpt>
      <trkpt lat="45.71718" lon="3.05304">
        <ele>768</ele>
        <time>2013-02-08T12:42:05Z</time>
      </trkpt>
      <trkpt lat="45.71718" lon="3.05303">
        <ele>768</ele>
        <time>2013-02-08T12:42:05Z</time>
      </trkpt>
      <trkpt lat="45.71717" lon="3.05301">
        <ele>768</ele>
        <time>2013-02-08T12:42:05Z</time>
      </trkpt>
      <trkpt lat="45.71715" lon="3.05298">
        <ele>768</ele>
        <time>2013-02-08T12:42:05Z</time>
      </trkpt>
      <trkpt lat="45.71713" lon="3.05294">
        <ele>768</ele>
        <time>2013-02-08T12:42:05Z</time>
      </trkpt>
      <trkpt lat="45.7171" lon="3.05291">
        <ele>768</ele>
        <time>2013-02-08T12:42:05Z</time>
      </trkpt>
      <trkpt lat="45.71707" lon="3.05285">
        <ele>768</ele>
        <time>2013-02-08T12:42:05Z</time>
      </trkpt>
      <trkpt lat="45.71705" lon="3.05282">
        <ele>768</ele>
        <time>2013-02-08T12:42:05Z</time>
      </trkpt>
      <trkpt lat="45.71703" lon="3.05278">
        <ele>768</ele>
        <time>2013-02-08T12:42:05Z</time>
      </trkpt>
      <trkpt lat="45.71701" lon="3.05274">
        <ele>768</ele>
        <time>2013-02-08T12:42:05Z</time>
      </trkpt>
      <trkpt lat="45.71699" lon="3.05272">
        <ele>768</ele>
        <time>2013-02-08T12:42:05Z</time>
      </trkpt>
      <trkpt lat="45.71699" lon="3.05272">
        <ele>768</ele>
        <time>2013-02-08T12:42:05Z</time>
      </trkpt>
      <trkpt lat="45.71697" lon="3.0527">
        <ele>768</ele>
        <time>2013-02-08T12:42:05Z</time>
      </trkpt>
      <trkpt lat="45.71695" lon="3.05268">
        <ele>768</ele>
        <time>2013-02-08T12:42:05Z</time>
      </trkpt>
      <trkpt lat="45.71693" lon="3.05265">
        <ele>768</ele>
        <time>2013-02-08T12:42:05Z</time>
      </trkpt>
      <trkpt lat="45.71692" lon="3.05262">
        <ele>768</ele>
        <time>2013-02-08T12:42:05Z</time>
      </trkpt>
      <trkpt lat="45.7169" lon="3.05257">
        <ele>769</ele>
        <time>2013-02-08T12:42:05Z</time>
      </trkpt>
      <trkpt lat="45.71689" lon="3.05255">
        <ele>769</ele>
        <time>2013-02-08T12:42:05Z</time>
      </trkpt>
      <trkpt lat="45.71689" lon="3.05253">
        <ele>769</ele>
        <time>2013-02-08T12:42:05Z</time>
      </trkpt>
      <trkpt lat="45.71688" lon="3.05251">
        <ele>769</ele>
        <time>2013-02-08T12:42:05Z</time>
      </trkpt>
      <trkpt lat="45.71687" lon="3.05248">
        <ele>771</ele>
        <time>2013-02-08T12:42:05Z</time>
      </trkpt>
      <trkpt lat="45.71685" lon="3.05245">
        <ele>771</ele>
        <time>2013-02-08T12:42:05Z</time>
      </trkpt>
      <trkpt lat="45.71683" lon="3.05241">
        <ele>771</ele>
        <time>2013-02-08T12:42:05Z</time>
      </trkpt>
      <trkpt lat="45.71682" lon="3.05237">
        <ele>771</ele>
        <time>2013-02-08T12:42:05Z</time>
      </trkpt>
      <trkpt lat="45.71682" lon="3.05236">
        <ele>771</ele>
        <time>2013-02-08T12:42:05Z</time>
      </trkpt>
      <trkpt lat="45.71681" lon="3.05235">
        <ele>771</ele>
        <time>2013-02-08T12:42:05Z</time>
      </trkpt>
      <trkpt lat="45.7168" lon="3.05234">
        <ele>771</ele>
        <time>2013-02-08T12:42:05Z</time>
      </trkpt>
      <trkpt lat="45.7168" lon="3.05235">
        <ele>771</ele>
        <time>2013-02-08T12:42:05Z</time>
      </trkpt>
      <trkpt lat="45.7168" lon="3.05234">
        <ele>771</ele>
        <time>2013-02-08T12:42:05Z</time>
      </trkpt>
      <trkpt lat="45.71679" lon="3.05233">
        <ele>771</ele>
        <time>2013-02-08T12:42:05Z</time>
      </trkpt>
      <trkpt lat="45.71678" lon="3.0523">
        <ele>771</ele>
        <time>2013-02-08T12:42:05Z</time>
      </trkpt>
      <trkpt lat="45.71677" lon="3.05228">
        <ele>771</ele>
        <time>2013-02-08T12:42:05Z</time>
      </trkpt>
      <trkpt lat="45.71676" lon="3.05226">
        <ele>771</ele>
        <time>2013-02-08T12:42:05Z</time>
      </trkpt>
      <trkpt lat="45.71676" lon="3.05224">
        <ele>771</ele>
        <time>2013-02-08T12:42:05Z</time>
      </trkpt>
      <trkpt lat="45.71675" lon="3.05221">
        <ele>772</ele>
        <time>2013-02-08T12:42:05Z</time>
      </trkpt>
      <trkpt lat="45.71674" lon="3.05218">
        <ele>772</ele>
        <time>2013-02-08T12:42:05Z</time>
      </trkpt>
      <trkpt lat="45.71674" lon="3.05216">
        <ele>772</ele>
        <time>2013-02-08T12:42:05Z</time>
      </trkpt>
      <trkpt lat="45.71672" lon="3.05214">
        <ele>772</ele>
        <time>2013-02-08T12:42:05Z</time>
      </trkpt>
      <trkpt lat="45.71671" lon="3.05209">
        <ele>772</ele>
        <time>2013-02-08T12:42:05Z</time>
      </trkpt>
      <trkpt lat="45.7167" lon="3.05209">
        <ele>772</ele>
        <time>2013-02-08T12:42:05Z</time>
      </trkpt>
      <trkpt lat="45.7167" lon="3.05209">
        <ele>772</ele>
        <time>2013-02-08T12:42:05Z</time>
      </trkpt>
      <trkpt lat="45.71668" lon="3.05207">
        <ele>772</ele>
        <time>2013-02-08T12:42:05Z</time>
      </trkpt>
      <trkpt lat="45.71667" lon="3.05204">
        <ele>773</ele>
        <time>2013-02-08T12:42:05Z</time>
      </trkpt>
      <trkpt lat="45.71666" lon="3.05201">
        <ele>771</ele>
        <time>2013-02-08T12:42:05Z</time>
      </trkpt>
      <trkpt lat="45.71665" lon="3.05199">
        <ele>771</ele>
        <time>2013-02-08T12:42:05Z</time>
      </trkpt>
      <trkpt lat="45.71664" lon="3.05195">
        <ele>771</ele>
        <time>2013-02-08T12:42:05Z</time>
      </trkpt>
      <trkpt lat="45.71662" lon="3.05193">
        <ele>771</ele>
        <time>2013-02-08T12:42:05Z</time>
      </trkpt>
      <trkpt lat="45.71661" lon="3.05191">
        <ele>772</ele>
        <time>2013-02-08T12:42:05Z</time>
      </trkpt>
      <trkpt lat="45.7166" lon="3.05189">
        <ele>772</ele>
        <time>2013-02-08T12:42:05Z</time>
      </trkpt>
      <trkpt lat="45.71659" lon="3.05186">
        <ele>772</ele>
        <time>2013-02-08T12:42:05Z</time>
      </trkpt>
      <trkpt lat="45.71658" lon="3.05184">
        <ele>772</ele>
        <time>2013-02-08T12:42:05Z</time>
      </trkpt>
      <trkpt lat="45.71658" lon="3.05187">
        <ele>772</ele>
        <time>2013-02-08T12:42:05Z</time>
      </trkpt>
      <trkpt lat="45.71657" lon="3.05186">
        <ele>772</ele>
        <time>2013-02-08T12:42:05Z</time>
      </trkpt>
      <trkpt lat="45.71656" lon="3.05183">
        <ele>772</ele>
        <time>2013-02-08T12:42:05Z</time>
      </trkpt>
      <trkpt lat="45.71655" lon="3.0518">
        <ele>773</ele>
        <time>2013-02-08T12:42:05Z</time>
      </trkpt>
      <trkpt lat="45.71654" lon="3.05178">
        <ele>773</ele>
        <time>2013-02-08T12:42:05Z</time>
      </trkpt>
      <trkpt lat="45.71654" lon="3.05176">
        <ele>773</ele>
        <time>2013-02-08T12:42:05Z</time>
      </trkpt>
      <trkpt lat="45.71653" lon="3.05174">
        <ele>773</ele>
        <time>2013-02-08T12:42:05Z</time>
      </trkpt>
      <trkpt lat="45.71652" lon="3.05172">
        <ele>773</ele>
        <time>2013-02-08T12:42:05Z</time>
      </trkpt>
      <trkpt lat="45.71651" lon="3.0517">
        <ele>773</ele>
        <time>2013-02-08T12:42:05Z</time>
      </trkpt>
      <trkpt lat="45.7165" lon="3.05169">
        <ele>773</ele>
        <time>2013-02-08T12:42:05Z</time>
      </trkpt>
      <trkpt lat="45.71648" lon="3.05167">
        <ele>773</ele>
        <time>2013-02-08T12:42:05Z</time>
      </trkpt>
      <trkpt lat="45.71647" lon="3.05164">
        <ele>776</ele>
        <time>2013-02-08T12:42:05Z</time>
      </trkpt>
      <trkpt lat="45.71646" lon="3.05162">
        <ele>776</ele>
        <time>2013-02-08T12:42:05Z</time>
      </trkpt>
      <trkpt lat="45.71644" lon="3.0516">
        <ele>776</ele>
        <time>2013-02-08T12:42:05Z</time>
      </trkpt>
      <trkpt lat="45.71643" lon="3.05159">
        <ele>776</ele>
        <time>2013-02-08T12:42:05Z</time>
      </trkpt>
      <trkpt lat="45.71641" lon="3.05157">
        <ele>776</ele>
        <time>2013-02-08T12:42:05Z</time>
      </trkpt>
      <trkpt lat="45.7164" lon="3.05155">
        <ele>776</ele>
        <time>2013-02-08T12:42:05Z</time>
      </trkpt>
      <trkpt lat="45.71638" lon="3.05152">
        <ele>776</ele>
        <time>2013-02-08T12:42:05Z</time>
      </trkpt>
      <trkpt lat="45.71636" lon="3.0515">
        <ele>776</ele>
        <time>2013-02-08T12:42:05Z</time>
      </trkpt>
      <trkpt lat="45.71635" lon="3.05148">
        <ele>776</ele>
        <time>2013-02-08T12:42:05Z</time>
      </trkpt>
      <trkpt lat="45.71634" lon="3.05146">
        <ele>776</ele>
        <time>2013-02-08T12:42:05Z</time>
      </trkpt>
      <trkpt lat="45.71633" lon="3.05144">
        <ele>776</ele>
        <time>2013-02-08T12:42:05Z</time>
      </trkpt>
      <trkpt lat="45.71631" lon="3.05143">
        <ele>776</ele>
        <time>2013-02-08T12:42:05Z</time>
      </trkpt>
      <trkpt lat="45.7163" lon="3.05141">
        <ele>776</ele>
        <time>2013-02-08T12:42:05Z</time>
      </trkpt>
      <trkpt lat="45.71628" lon="3.05139">
        <ele>776</ele>
        <time>2013-02-08T12:42:05Z</time>
      </trkpt>
      <trkpt lat="45.71627" lon="3.05137">
        <ele>776</ele>
        <time>2013-02-08T12:42:05Z</time>
      </trkpt>
      <trkpt lat="45.71626" lon="3.05136">
        <ele>776</ele>
        <time>2013-02-08T12:42:05Z</time>
      </trkpt>
      <trkpt lat="45.71625" lon="3.05135">
        <ele>776</ele>
        <time>2013-02-08T12:42:05Z</time>
      </trkpt>
      <trkpt lat="45.71623" lon="3.05133">
        <ele>776</ele>
        <time>2013-02-08T12:42:05Z</time>
      </trkpt>
      <trkpt lat="45.71622" lon="3.05133">
        <ele>776</ele>
        <time>2013-02-08T12:42:05Z</time>
      </trkpt>
      <trkpt lat="45.71621" lon="3.05131">
        <ele>776</ele>
        <time>2013-02-08T12:42:05Z</time>
      </trkpt>
      <trkpt lat="45.7162" lon="3.0513">
        <ele>776</ele>
        <time>2013-02-08T12:42:05Z</time>
      </trkpt>
      <trkpt lat="45.71618" lon="3.05128">
        <ele>776</ele>
        <time>2013-02-08T12:42:05Z</time>
      </trkpt>
      <trkpt lat="45.71616" lon="3.05126">
        <ele>777</ele>
        <time>2013-02-08T12:42:05Z</time>
      </trkpt>
      <trkpt lat="45.71615" lon="3.05123">
        <ele>777</ele>
        <time>2013-02-08T12:42:05Z</time>
      </trkpt>
      <trkpt lat="45.71614" lon="3.05122">
        <ele>777</ele>
        <time>2013-02-08T12:42:05Z</time>
      </trkpt>
      <trkpt lat="45.71613" lon="3.0512">
        <ele>777</ele>
        <time>2013-02-08T12:42:05Z</time>
      </trkpt>
      <trkpt lat="45.71611" lon="3.05118">
        <ele>777</ele>
        <time>2013-02-08T12:42:05Z</time>
      </trkpt>
      <trkpt lat="45.71609" lon="3.05115">
        <ele>777</ele>
        <time>2013-02-08T12:42:05Z</time>
      </trkpt>
      <trkpt lat="45.71608" lon="3.05113">
        <ele>777</ele>
        <time>2013-02-08T12:42:05Z</time>
      </trkpt>
      <trkpt lat="45.71606" lon="3.0511">
        <ele>777</ele>
        <time>2013-02-08T12:42:05Z</time>
      </trkpt>
      <trkpt lat="45.71605" lon="3.05108">
        <ele>777</ele>
        <time>2013-02-08T12:42:05Z</time>
      </trkpt>
      <trkpt lat="45.71605" lon="3.05105">
        <ele>777</ele>
        <time>2013-02-08T12:42:05Z</time>
      </trkpt>
      <trkpt lat="45.71604" lon="3.05103">
        <ele>778</ele>
        <time>2013-02-08T12:42:05Z</time>
      </trkpt>
      <trkpt lat="45.71604" lon="3.051">
        <ele>778</ele>
        <time>2013-02-08T12:42:05Z</time>
      </trkpt>
      <trkpt lat="45.71604" lon="3.05098">
        <ele>778</ele>
        <time>2013-02-08T12:42:05Z</time>
      </trkpt>
      <trkpt lat="45.71603" lon="3.05097">
        <ele>778</ele>
        <time>2013-02-08T12:42:05Z</time>
      </trkpt>
      <trkpt lat="45.71602" lon="3.05093">
        <ele>778</ele>
        <time>2013-02-08T12:42:05Z</time>
      </trkpt>
      <trkpt lat="45.716" lon="3.05092">
        <ele>778</ele>
        <time>2013-02-08T12:42:05Z</time>
      </trkpt>
      <trkpt lat="45.71599" lon="3.0509">
        <ele>778</ele>
        <time>2013-02-08T12:42:05Z</time>
      </trkpt>
      <trkpt lat="45.71598" lon="3.05087">
        <ele>779</ele>
        <time>2013-02-08T12:42:05Z</time>
      </trkpt>
      <trkpt lat="45.71596" lon="3.05084">
        <ele>779</ele>
        <time>2013-02-08T12:42:05Z</time>
      </trkpt>
      <trkpt lat="45.71595" lon="3.05081">
        <ele>779</ele>
        <time>2013-02-08T12:42:05Z</time>
      </trkpt>
      <trkpt lat="45.71593" lon="3.05079">
        <ele>779</ele>
        <time>2013-02-08T12:42:05Z</time>
      </trkpt>
      <trkpt lat="45.71592" lon="3.05078">
        <ele>779</ele>
        <time>2013-02-08T12:42:05Z</time>
      </trkpt>
      <trkpt lat="45.71591" lon="3.05076">
        <ele>779</ele>
        <time>2013-02-08T12:42:05Z</time>
      </trkpt>
      <trkpt lat="45.71589" lon="3.05073">
        <ele>779</ele>
        <time>2013-02-08T12:42:05Z</time>
      </trkpt>
      <trkpt lat="45.71588" lon="3.05072">
        <ele>779</ele>
        <time>2013-02-08T12:42:05Z</time>
      </trkpt>
      <trkpt lat="45.71586" lon="3.05071">
        <ele>779</ele>
        <time>2013-02-08T12:42:05Z</time>
      </trkpt>
      <trkpt lat="45.71584" lon="3.05069">
        <ele>779</ele>
        <time>2013-02-08T12:42:05Z</time>
      </trkpt>
      <trkpt lat="45.71582" lon="3.05067">
        <ele>778</ele>
        <time>2013-02-08T12:42:05Z</time>
      </trkpt>
      <trkpt lat="45.7158" lon="3.05065">
        <ele>778</ele>
        <time>2013-02-08T12:42:05Z</time>
      </trkpt>
      <trkpt lat="45.71579" lon="3.05063">
        <ele>778</ele>
        <time>2013-02-08T12:42:05Z</time>
      </trkpt>
      <trkpt lat="45.71577" lon="3.05061">
        <ele>778</ele>
        <time>2013-02-08T12:42:05Z</time>
      </trkpt>
      <trkpt lat="45.71576" lon="3.05059">
        <ele>778</ele>
        <time>2013-02-08T12:42:05Z</time>
      </trkpt>
      <trkpt lat="45.71574" lon="3.05056">
        <ele>778</ele>
        <time>2013-02-08T12:42:05Z</time>
      </trkpt>
      <trkpt lat="45.71573" lon="3.05053">
        <ele>778</ele>
        <time>2013-02-08T12:42:05Z</time>
      </trkpt>
      <trkpt lat="45.71572" lon="3.05049">
        <ele>778</ele>
        <time>2013-02-08T12:42:05Z</time>
      </trkpt>
      <trkpt lat="45.71571" lon="3.05047">
        <ele>778</ele>
        <time>2013-02-08T12:42:05Z</time>
      </trkpt>
      <trkpt lat="45.7157" lon="3.05045">
        <ele>778</ele>
        <time>2013-02-08T12:42:05Z</time>
      </trkpt>
      <trkpt lat="45.71569" lon="3.05042">
        <ele>778</ele>
        <time>2013-02-08T12:42:05Z</time>
      </trkpt>
      <trkpt lat="45.71567" lon="3.0504">
        <ele>778</ele>
        <time>2013-02-08T12:42:05Z</time>
      </trkpt>
      <trkpt lat="45.71566" lon="3.05037">
        <ele>778</ele>
        <time>2013-02-08T12:42:05Z</time>
      </trkpt>
      <trkpt lat="45.71565" lon="3.05034">
        <ele>778</ele>
        <time>2013-02-08T12:42:05Z</time>
      </trkpt>
      <trkpt lat="45.71563" lon="3.05032">
        <ele>778</ele>
        <time>2013-02-08T12:42:05Z</time>
      </trkpt>
      <trkpt lat="45.71562" lon="3.05029">
        <ele>778</ele>
        <time>2013-02-08T12:42:05Z</time>
      </trkpt>
      <trkpt lat="45.71561" lon="3.05026">
        <ele>778</ele>
        <time>2013-02-08T12:42:05Z</time>
      </trkpt>
      <trkpt lat="45.71559" lon="3.05024">
        <ele>778</ele>
        <time>2013-02-08T12:42:05Z</time>
      </trkpt>
      <trkpt lat="45.71558" lon="3.05022">
        <ele>778</ele>
        <time>2013-02-08T12:42:05Z</time>
      </trkpt>
      <trkpt lat="45.71556" lon="3.0502">
        <ele>778</ele>
        <time>2013-02-08T12:42:05Z</time>
      </trkpt>
      <trkpt lat="45.71556" lon="3.05017">
        <ele>778</ele>
        <time>2013-02-08T12:42:05Z</time>
      </trkpt>
      <trkpt lat="45.71555" lon="3.05014">
        <ele>778</ele>
        <time>2013-02-08T12:42:05Z</time>
      </trkpt>
      <trkpt lat="45.71553" lon="3.05012">
        <ele>778</ele>
        <time>2013-02-08T12:42:05Z</time>
      </trkpt>
      <trkpt lat="45.71552" lon="3.05009">
        <ele>778</ele>
        <time>2013-02-08T12:42:05Z</time>
      </trkpt>
      <trkpt lat="45.71551" lon="3.05007">
        <ele>778</ele>
        <time>2013-02-08T12:42:05Z</time>
      </trkpt>
      <trkpt lat="45.7155" lon="3.05004">
        <ele>778</ele>
        <time>2013-02-08T12:42:05Z</time>
      </trkpt>
      <trkpt lat="45.71548" lon="3.05002">
        <ele>778</ele>
        <time>2013-02-08T12:42:05Z</time>
      </trkpt>
      <trkpt lat="45.71547" lon="3.05">
        <ele>778</ele>
        <time>2013-02-08T12:42:05Z</time>
      </trkpt>
      <trkpt lat="45.71546" lon="3.04998">
        <ele>778</ele>
        <time>2013-02-08T12:42:05Z</time>
      </trkpt>
      <trkpt lat="45.71546" lon="3.04996">
        <ele>778</ele>
        <time>2013-02-08T12:42:05Z</time>
      </trkpt>
      <trkpt lat="45.71546" lon="3.04997">
        <ele>778</ele>
        <time>2013-02-08T12:42:05Z</time>
      </trkpt>
      <trkpt lat="45.71546" lon="3.04997">
        <ele>778</ele>
        <time>2013-02-08T12:42:05Z</time>
      </trkpt>
      <trkpt lat="45.71545" lon="3.04996">
        <ele>778</ele>
        <time>2013-02-08T12:42:05Z</time>
      </trkpt>
      <trkpt lat="45.71543" lon="3.04994">
        <ele>778</ele>
        <time>2013-02-08T12:42:05Z</time>
      </trkpt>
      <trkpt lat="45.7155" lon="3.04992">
        <ele>778</ele>
        <time>2013-02-08T12:42:05Z</time>
      </trkpt>
      <trkpt lat="45.71548" lon="3.04993">
        <ele>778</ele>
        <time>2013-02-08T12:42:05Z</time>
      </trkpt>
      <trkpt lat="45.71546" lon="3.04994">
        <ele>778</ele>
        <time>2013-02-08T12:42:05Z</time>
      </trkpt>
      <trkpt lat="45.71541" lon="3.04989">
        <ele>778</ele>
        <time>2013-02-08T12:42:05Z</time>
      </trkpt>
      <trkpt lat="45.71538" lon="3.04988">
        <ele>778</ele>
        <time>2013-02-08T12:42:05Z</time>
      </trkpt>
      <trkpt lat="45.71536" lon="3.04984">
        <ele>778</ele>
        <time>2013-02-08T12:42:05Z</time>
      </trkpt>
      <trkpt lat="45.71534" lon="3.0498">
        <ele>778</ele>
        <time>2013-02-08T12:42:05Z</time>
      </trkpt>
      <trkpt lat="45.71534" lon="3.04977">
        <ele>778</ele>
        <time>2013-02-08T12:42:05Z</time>
      </trkpt>
      <trkpt lat="45.71532" lon="3.04973">
        <ele>778</ele>
        <time>2013-02-08T12:42:05Z</time>
      </trkpt>
      <trkpt lat="45.71531" lon="3.04971">
        <ele>778</ele>
        <time>2013-02-08T12:42:05Z</time>
      </trkpt>
      <trkpt lat="45.7153" lon="3.04968">
        <ele>778</ele>
        <time>2013-02-08T12:42:05Z</time>
      </trkpt>
      <trkpt lat="45.71528" lon="3.04965">
        <ele>778</ele>
        <time>2013-02-08T12:42:05Z</time>
      </trkpt>
      <trkpt lat="45.71527" lon="3.04962">
        <ele>778</ele>
        <time>2013-02-08T12:42:05Z</time>
      </trkpt>
      <trkpt lat="45.71525" lon="3.04959">
        <ele>778</ele>
        <time>2013-02-08T12:42:05Z</time>
      </trkpt>
      <trkpt lat="45.71524" lon="3.04955">
        <ele>778</ele>
        <time>2013-02-08T12:42:05Z</time>
      </trkpt>
      <trkpt lat="45.71522" lon="3.04952">
        <ele>778</ele>
        <time>2013-02-08T12:42:05Z</time>
      </trkpt>
      <trkpt lat="45.71521" lon="3.0495">
        <ele>778</ele>
        <time>2013-02-08T12:42:05Z</time>
      </trkpt>
      <trkpt lat="45.7152" lon="3.04947">
        <ele>778</ele>
        <time>2013-02-08T12:42:05Z</time>
      </trkpt>
      <trkpt lat="45.71518" lon="3.04945">
        <ele>778</ele>
        <time>2013-02-08T12:42:05Z</time>
      </trkpt>
      <trkpt lat="45.71517" lon="3.04942">
        <ele>778</ele>
        <time>2013-02-08T12:42:05Z</time>
      </trkpt>
      <trkpt lat="45.71515" lon="3.04939">
        <ele>779</ele>
        <time>2013-02-08T12:42:05Z</time>
      </trkpt>
      <trkpt lat="45.71513" lon="3.04936">
        <ele>779</ele>
        <time>2013-02-08T12:42:05Z</time>
      </trkpt>
      <trkpt lat="45.71512" lon="3.04934">
        <ele>779</ele>
        <time>2013-02-08T12:42:05Z</time>
      </trkpt>
      <trkpt lat="45.7151" lon="3.04931">
        <ele>779</ele>
        <time>2013-02-08T12:42:05Z</time>
      </trkpt>
      <trkpt lat="45.71508" lon="3.04928">
        <ele>779</ele>
        <time>2013-02-08T12:42:05Z</time>
      </trkpt>
      <trkpt lat="45.71507" lon="3.04925">
        <ele>780</ele>
        <time>2013-02-08T12:42:05Z</time>
      </trkpt>
      <trkpt lat="45.71505" lon="3.04923">
        <ele>780</ele>
        <time>2013-02-08T12:42:05Z</time>
      </trkpt>
      <trkpt lat="45.71503" lon="3.04919">
        <ele>780</ele>
        <time>2013-02-08T12:42:05Z</time>
      </trkpt>
      <trkpt lat="45.71501" lon="3.04915">
        <ele>781</ele>
        <time>2013-02-08T12:42:05Z</time>
      </trkpt>
      <trkpt lat="45.715" lon="3.04912">
        <ele>781</ele>
        <time>2013-02-08T12:42:05Z</time>
      </trkpt>
      <trkpt lat="45.71498" lon="3.0491">
        <ele>781</ele>
        <time>2013-02-08T12:42:05Z</time>
      </trkpt>
      <trkpt lat="45.71497" lon="3.04908">
        <ele>780</ele>
        <time>2013-02-08T12:42:05Z</time>
      </trkpt>
      <trkpt lat="45.71495" lon="3.04906">
        <ele>780</ele>
        <time>2013-02-08T12:42:05Z</time>
      </trkpt>
      <trkpt lat="45.71494" lon="3.04903">
        <ele>780</ele>
        <time>2013-02-08T12:42:05Z</time>
      </trkpt>
      <trkpt lat="45.71493" lon="3.049">
        <ele>780</ele>
        <time>2013-02-08T12:42:05Z</time>
      </trkpt>
      <trkpt lat="45.71491" lon="3.04898">
        <ele>780</ele>
        <time>2013-02-08T12:42:05Z</time>
      </trkpt>
      <trkpt lat="45.7149" lon="3.04896">
        <ele>780</ele>
        <time>2013-02-08T12:42:05Z</time>
      </trkpt>
      <trkpt lat="45.71488" lon="3.04893">
        <ele>780</ele>
        <time>2013-02-08T12:42:05Z</time>
      </trkpt>
      <trkpt lat="45.71487" lon="3.0489">
        <ele>780</ele>
        <time>2013-02-08T12:42:05Z</time>
      </trkpt>
      <trkpt lat="45.71485" lon="3.04886">
        <ele>780</ele>
        <time>2013-02-08T12:42:05Z</time>
      </trkpt>
      <trkpt lat="45.71484" lon="3.04883">
        <ele>780</ele>
        <time>2013-02-08T12:42:05Z</time>
      </trkpt>
      <trkpt lat="45.71483" lon="3.0488">
        <ele>780</ele>
        <time>2013-02-08T12:42:05Z</time>
      </trkpt>
      <trkpt lat="45.71482" lon="3.04878">
        <ele>779</ele>
        <time>2013-02-08T12:42:05Z</time>
      </trkpt>
      <trkpt lat="45.7148" lon="3.04875">
        <ele>779</ele>
        <time>2013-02-08T12:42:05Z</time>
      </trkpt>
      <trkpt lat="45.71479" lon="3.04873">
        <ele>779</ele>
        <time>2013-02-08T12:42:05Z</time>
      </trkpt>
      <trkpt lat="45.71477" lon="3.04871">
        <ele>779</ele>
        <time>2013-02-08T12:42:05Z</time>
      </trkpt>
      <trkpt lat="45.71476" lon="3.04869">
        <ele>779</ele>
        <time>2013-02-08T12:42:05Z</time>
      </trkpt>
      <trkpt lat="45.71474" lon="3.04866">
        <ele>779</ele>
        <time>2013-02-08T12:42:05Z</time>
      </trkpt>
      <trkpt lat="45.71472" lon="3.04862">
        <ele>779</ele>
        <time>2013-02-08T12:42:05Z</time>
      </trkpt>
      <trkpt lat="45.71471" lon="3.04859">
        <ele>779</ele>
        <time>2013-02-08T12:42:05Z</time>
      </trkpt>
      <trkpt lat="45.7147" lon="3.04858">
        <ele>779</ele>
        <time>2013-02-08T12:42:05Z</time>
      </trkpt>
      <trkpt lat="45.71471" lon="3.0486">
        <ele>779</ele>
        <time>2013-02-08T12:42:05Z</time>
      </trkpt>
      <trkpt lat="45.71471" lon="3.0486">
        <ele>779</ele>
        <time>2013-02-08T12:42:05Z</time>
      </trkpt>
      <trkpt lat="45.71471" lon="3.0486">
        <ele>779</ele>
        <time>2013-02-08T12:42:05Z</time>
      </trkpt>
      <trkpt lat="45.71471" lon="3.0486">
        <ele>779</ele>
        <time>2013-02-08T12:42:05Z</time>
      </trkpt>
      <trkpt lat="45.7147" lon="3.04859">
        <ele>779</ele>
        <time>2013-02-08T12:42:05Z</time>
      </trkpt>
      <trkpt lat="45.71471" lon="3.04859">
        <ele>779</ele>
        <time>2013-02-08T12:42:05Z</time>
      </trkpt>
      <trkpt lat="45.71471" lon="3.04858">
        <ele>779</ele>
        <time>2013-02-08T12:42:05Z</time>
      </trkpt>
      <trkpt lat="45.7147" lon="3.04857">
        <ele>779</ele>
        <time>2013-02-08T12:42:05Z</time>
      </trkpt>
      <trkpt lat="45.71469" lon="3.04855">
        <ele>779</ele>
        <time>2013-02-08T12:42:05Z</time>
      </trkpt>
      <trkpt lat="45.71468" lon="3.04853">
        <ele>779</ele>
        <time>2013-02-08T12:42:05Z</time>
      </trkpt>
      <trkpt lat="45.71467" lon="3.04852">
        <ele>779</ele>
        <time>2013-02-08T12:42:05Z</time>
      </trkpt>
      <trkpt lat="45.71466" lon="3.0485">
        <ele>779</ele>
        <time>2013-02-08T12:42:05Z</time>
      </trkpt>
      <trkpt lat="45.71465" lon="3.04848">
        <ele>779</ele>
        <time>2013-02-08T12:42:05Z</time>
      </trkpt>
      <trkpt lat="45.71464" lon="3.04846">
        <ele>779</ele>
        <time>2013-02-08T12:42:05Z</time>
      </trkpt>
      <trkpt lat="45.71463" lon="3.04844">
        <ele>779</ele>
        <time>2013-02-08T12:42:05Z</time>
      </trkpt>
      <trkpt lat="45.71461" lon="3.04842">
        <ele>779</ele>
        <time>2013-02-08T12:42:05Z</time>
      </trkpt>
      <trkpt lat="45.7146" lon="3.04839">
        <ele>779</ele>
        <time>2013-02-08T12:42:05Z</time>
      </trkpt>
      <trkpt lat="45.71458" lon="3.04836">
        <ele>779</ele>
        <time>2013-02-08T12:42:05Z</time>
      </trkpt>
      <trkpt lat="45.71456" lon="3.04834">
        <ele>779</ele>
        <time>2013-02-08T12:42:05Z</time>
      </trkpt>
      <trkpt lat="45.71455" lon="3.04832">
        <ele>779</ele>
        <time>2013-02-08T12:42:05Z</time>
      </trkpt>
      <trkpt lat="45.71453" lon="3.04829">
        <ele>779</ele>
        <time>2013-02-08T12:42:05Z</time>
      </trkpt>
      <trkpt lat="45.71452" lon="3.04826">
        <ele>779</ele>
        <time>2013-02-08T12:42:05Z</time>
      </trkpt>
      <trkpt lat="45.7145" lon="3.04823">
        <ele>779</ele>
        <time>2013-02-08T12:42:05Z</time>
      </trkpt>
      <trkpt lat="45.71448" lon="3.0482">
        <ele>779</ele>
        <time>2013-02-08T12:42:05Z</time>
      </trkpt>
      <trkpt lat="45.71447" lon="3.04817">
        <ele>779</ele>
        <time>2013-02-08T12:42:05Z</time>
      </trkpt>
      <trkpt lat="45.71446" lon="3.04814">
        <ele>779</ele>
        <time>2013-02-08T12:42:05Z</time>
      </trkpt>
      <trkpt lat="45.71444" lon="3.04811">
        <ele>779</ele>
        <time>2013-02-08T12:42:05Z</time>
      </trkpt>
      <trkpt lat="45.71443" lon="3.04808">
        <ele>779</ele>
        <time>2013-02-08T12:42:05Z</time>
      </trkpt>
      <trkpt lat="45.71442" lon="3.04804">
        <ele>780</ele>
        <time>2013-02-08T12:42:05Z</time>
      </trkpt>
      <trkpt lat="45.7144" lon="3.04801">
        <ele>780</ele>
        <time>2013-02-08T12:42:05Z</time>
      </trkpt>
      <trkpt lat="45.71439" lon="3.04799">
        <ele>780</ele>
        <time>2013-02-08T12:42:05Z</time>
      </trkpt>
      <trkpt lat="45.71438" lon="3.04795">
        <ele>780</ele>
        <time>2013-02-08T12:42:05Z</time>
      </trkpt>
      <trkpt lat="45.71436" lon="3.04792">
        <ele>780</ele>
        <time>2013-02-08T12:42:05Z</time>
      </trkpt>
      <trkpt lat="45.71435" lon="3.0479">
        <ele>780</ele>
        <time>2013-02-08T12:42:05Z</time>
      </trkpt>
      <trkpt lat="45.71434" lon="3.04787">
        <ele>780</ele>
        <time>2013-02-08T12:42:05Z</time>
      </trkpt>
      <trkpt lat="45.71432" lon="3.04784">
        <ele>780</ele>
        <time>2013-02-08T12:42:05Z</time>
      </trkpt>
      <trkpt lat="45.71431" lon="3.04781">
        <ele>780</ele>
        <time>2013-02-08T12:42:05Z</time>
      </trkpt>
      <trkpt lat="45.71429" lon="3.04779">
        <ele>780</ele>
        <time>2013-02-08T12:42:05Z</time>
      </trkpt>
      <trkpt lat="45.71427" lon="3.04776">
        <ele>780</ele>
        <time>2013-02-08T12:42:05Z</time>
      </trkpt>
      <trkpt lat="45.71426" lon="3.04773">
        <ele>780</ele>
        <time>2013-02-08T12:42:05Z</time>
      </trkpt>
      <trkpt lat="45.71424" lon="3.0477">
        <ele>780</ele>
        <time>2013-02-08T12:42:05Z</time>
      </trkpt>
      <trkpt lat="45.71423" lon="3.04767">
        <ele>781</ele>
        <time>2013-02-08T12:42:05Z</time>
      </trkpt>
      <trkpt lat="45.71421" lon="3.04764">
        <ele>781</ele>
        <time>2013-02-08T12:42:05Z</time>
      </trkpt>
      <trkpt lat="45.7142" lon="3.04762">
        <ele>781</ele>
        <time>2013-02-08T12:42:05Z</time>
      </trkpt>
      <trkpt lat="45.71418" lon="3.04759">
        <ele>781</ele>
        <time>2013-02-08T12:42:05Z</time>
      </trkpt>
      <trkpt lat="45.71416" lon="3.04757">
        <ele>781</ele>
        <time>2013-02-08T12:42:05Z</time>
      </trkpt>
      <trkpt lat="45.71414" lon="3.04754">
        <ele>781</ele>
        <time>2013-02-08T12:42:05Z</time>
      </trkpt>
      <trkpt lat="45.71412" lon="3.04752">
        <ele>781</ele>
        <time>2013-02-08T12:42:05Z</time>
      </trkpt>
      <trkpt lat="45.7141" lon="3.0475">
        <ele>781</ele>
        <time>2013-02-08T12:42:05Z</time>
      </trkpt>
      <trkpt lat="45.71408" lon="3.04749">
        <ele>782</ele>
        <time>2013-02-08T12:42:05Z</time>
      </trkpt>
      <trkpt lat="45.71406" lon="3.04747">
        <ele>782</ele>
        <time>2013-02-08T12:42:05Z</time>
      </trkpt>
      <trkpt lat="45.71404" lon="3.04746">
        <ele>782</ele>
        <time>2013-02-08T12:42:05Z</time>
      </trkpt>
      <trkpt lat="45.71402" lon="3.04744">
        <ele>782</ele>
        <time>2013-02-08T12:42:05Z</time>
      </trkpt>
      <trkpt lat="45.71399" lon="3.04743">
        <ele>781</ele>
        <time>2013-02-08T12:42:05Z</time>
      </trkpt>
      <trkpt lat="45.71397" lon="3.04741">
        <ele>781</ele>
        <time>2013-02-08T12:42:05Z</time>
      </trkpt>
      <trkpt lat="45.71395" lon="3.04739">
        <ele>781</ele>
        <time>2013-02-08T12:42:05Z</time>
      </trkpt>
      <trkpt lat="45.71393" lon="3.04737">
        <ele>781</ele>
        <time>2013-02-08T12:42:05Z</time>
      </trkpt>
      <trkpt lat="45.71391" lon="3.04735">
        <ele>781</ele>
        <time>2013-02-08T12:42:05Z</time>
      </trkpt>
      <trkpt lat="45.71389" lon="3.04734">
        <ele>781</ele>
        <time>2013-02-08T12:42:05Z</time>
      </trkpt>
      <trkpt lat="45.71387" lon="3.04731">
        <ele>781</ele>
        <time>2013-02-08T12:42:05Z</time>
      </trkpt>
      <trkpt lat="45.71385" lon="3.04729">
        <ele>781</ele>
        <time>2013-02-08T12:42:05Z</time>
      </trkpt>
      <trkpt lat="45.71382" lon="3.04727">
        <ele>781</ele>
        <time>2013-02-08T12:42:05Z</time>
      </trkpt>
      <trkpt lat="45.71381" lon="3.04725">
        <ele>781</ele>
        <time>2013-02-08T12:42:05Z</time>
      </trkpt>
      <trkpt lat="45.71379" lon="3.04722">
        <ele>781</ele>
        <time>2013-02-08T12:42:05Z</time>
      </trkpt>
      <trkpt lat="45.71377" lon="3.04719">
        <ele>781</ele>
        <time>2013-02-08T12:42:05Z</time>
      </trkpt>
      <trkpt lat="45.71375" lon="3.04717">
        <ele>781</ele>
        <time>2013-02-08T12:42:05Z</time>
      </trkpt>
      <trkpt lat="45.71373" lon="3.04715">
        <ele>781</ele>
        <time>2013-02-08T12:42:05Z</time>
      </trkpt>
      <trkpt lat="45.71371" lon="3.04712">
        <ele>781</ele>
        <time>2013-02-08T12:42:05Z</time>
      </trkpt>
      <trkpt lat="45.71369" lon="3.04707">
        <ele>781</ele>
        <time>2013-02-08T12:42:05Z</time>
      </trkpt>
      <trkpt lat="45.71366" lon="3.04702">
        <ele>781</ele>
        <time>2013-02-08T12:42:05Z</time>
      </trkpt>
      <trkpt lat="45.71364" lon="3.04697">
        <ele>781</ele>
        <time>2013-02-08T12:42:05Z</time>
      </trkpt>
      <trkpt lat="45.71362" lon="3.04692">
        <ele>781</ele>
        <time>2013-02-08T12:42:05Z</time>
      </trkpt>
      <trkpt lat="45.7136" lon="3.04689">
        <ele>781</ele>
        <time>2013-02-08T12:42:05Z</time>
      </trkpt>
      <trkpt lat="45.71358" lon="3.04686">
        <ele>781</ele>
        <time>2013-02-08T12:42:05Z</time>
      </trkpt>
      <trkpt lat="45.71358" lon="3.04686">
        <ele>781</ele>
        <time>2013-02-08T12:42:05Z</time>
      </trkpt>
      <trkpt lat="45.71356" lon="3.04684">
        <ele>781</ele>
        <time>2013-02-08T12:42:05Z</time>
      </trkpt>
      <trkpt lat="45.71355" lon="3.04682">
        <ele>781</ele>
        <time>2013-02-08T12:42:05Z</time>
      </trkpt>
      <trkpt lat="45.71354" lon="3.0468">
        <ele>781</ele>
        <time>2013-02-08T12:42:05Z</time>
      </trkpt>
      <trkpt lat="45.71353" lon="3.04678">
        <ele>781</ele>
        <time>2013-02-08T12:42:05Z</time>
      </trkpt>
      <trkpt lat="45.71352" lon="3.04676">
        <ele>781</ele>
        <time>2013-02-08T12:42:05Z</time>
      </trkpt>
      <trkpt lat="45.71351" lon="3.04674">
        <ele>781</ele>
        <time>2013-02-08T12:42:05Z</time>
      </trkpt>
      <trkpt lat="45.71349" lon="3.04672">
        <ele>781</ele>
        <time>2013-02-08T12:42:05Z</time>
      </trkpt>
      <trkpt lat="45.71348" lon="3.04669">
        <ele>781</ele>
        <time>2013-02-08T12:42:05Z</time>
      </trkpt>
      <trkpt lat="45.71346" lon="3.04667">
        <ele>781</ele>
        <time>2013-02-08T12:42:05Z</time>
      </trkpt>
      <trkpt lat="45.71344" lon="3.04665">
        <ele>783</ele>
        <time>2013-02-08T12:42:05Z</time>
      </trkpt>
      <trkpt lat="45.71343" lon="3.04662">
        <ele>783</ele>
        <time>2013-02-08T12:42:05Z</time>
      </trkpt>
      <trkpt lat="45.71341" lon="3.04659">
        <ele>783</ele>
        <time>2013-02-08T12:42:05Z</time>
      </trkpt>
      <trkpt lat="45.71339" lon="3.04656">
        <ele>783</ele>
        <time>2013-02-08T12:42:05Z</time>
      </trkpt>
      <trkpt lat="45.71339" lon="3.04654">
        <ele>783</ele>
        <time>2013-02-08T12:42:05Z</time>
      </trkpt>
      <trkpt lat="45.71337" lon="3.0465">
        <ele>783</ele>
        <time>2013-02-08T12:42:05Z</time>
      </trkpt>
      <trkpt lat="45.71335" lon="3.04647">
        <ele>784</ele>
        <time>2013-02-08T12:42:05Z</time>
      </trkpt>
      <trkpt lat="45.71334" lon="3.04643">
        <ele>784</ele>
        <time>2013-02-08T12:42:05Z</time>
      </trkpt>
      <trkpt lat="45.71332" lon="3.0464">
        <ele>780</ele>
        <time>2013-02-08T12:42:05Z</time>
      </trkpt>
      <trkpt lat="45.7133" lon="3.04637">
        <ele>780</ele>
        <time>2013-02-08T12:42:05Z</time>
      </trkpt>
      <trkpt lat="45.71327" lon="3.04634">
        <ele>780</ele>
        <time>2013-02-08T12:42:05Z</time>
      </trkpt>
      <trkpt lat="45.71326" lon="3.04632">
        <ele>780</ele>
        <time>2013-02-08T12:42:05Z</time>
      </trkpt>
      <trkpt lat="45.71324" lon="3.04628">
        <ele>780</ele>
        <time>2013-02-08T12:42:05Z</time>
      </trkpt>
      <trkpt lat="45.71322" lon="3.04625">
        <ele>780</ele>
        <time>2013-02-08T12:42:05Z</time>
      </trkpt>
      <trkpt lat="45.7132" lon="3.04623">
        <ele>780</ele>
        <time>2013-02-08T12:42:05Z</time>
      </trkpt>
      <trkpt lat="45.71319" lon="3.04619">
        <ele>780</ele>
        <time>2013-02-08T12:42:05Z</time>
      </trkpt>
      <trkpt lat="45.71318" lon="3.04617">
        <ele>780</ele>
        <time>2013-02-08T12:42:05Z</time>
      </trkpt>
      <trkpt lat="45.71317" lon="3.04614">
        <ele>780</ele>
        <time>2013-02-08T12:42:05Z</time>
      </trkpt>
      <trkpt lat="45.71316" lon="3.04612">
        <ele>780</ele>
        <time>2013-02-08T12:42:05Z</time>
      </trkpt>
      <trkpt lat="45.71315" lon="3.04609">
        <ele>780</ele>
        <time>2013-02-08T12:42:05Z</time>
      </trkpt>
      <trkpt lat="45.71313" lon="3.04607">
        <ele>780</ele>
        <time>2013-02-08T12:42:05Z</time>
      </trkpt>
      <trkpt lat="45.71312" lon="3.04604">
        <ele>780</ele>
        <time>2013-02-08T12:42:05Z</time>
      </trkpt>
      <trkpt lat="45.71311" lon="3.04602">
        <ele>780</ele>
        <time>2013-02-08T12:42:05Z</time>
      </trkpt>
      <trkpt lat="45.71309" lon="3.046">
        <ele>780</ele>
        <time>2013-02-08T12:42:05Z</time>
      </trkpt>
      <trkpt lat="45.71308" lon="3.04598">
        <ele>780</ele>
        <time>2013-02-08T12:42:05Z</time>
      </trkpt>
      <trkpt lat="45.71306" lon="3.04595">
        <ele>780</ele>
        <time>2013-02-08T12:42:05Z</time>
      </trkpt>
      <trkpt lat="45.71305" lon="3.04592">
        <ele>780</ele>
        <time>2013-02-08T12:42:05Z</time>
      </trkpt>
      <trkpt lat="45.71304" lon="3.04589">
        <ele>780</ele>
        <time>2013-02-08T12:42:05Z</time>
      </trkpt>
      <trkpt lat="45.71302" lon="3.04586">
        <ele>780</ele>
        <time>2013-02-08T12:42:05Z</time>
      </trkpt>
      <trkpt lat="45.713" lon="3.04584">
        <ele>780</ele>
        <time>2013-02-08T12:42:05Z</time>
      </trkpt>
      <trkpt lat="45.71299" lon="3.04582">
        <ele>783</ele>
        <time>2013-02-08T12:42:05Z</time>
      </trkpt>
      <trkpt lat="45.71297" lon="3.0458">
        <ele>783</ele>
        <time>2013-02-08T12:42:05Z</time>
      </trkpt>
      <trkpt lat="45.71296" lon="3.04578">
        <ele>783</ele>
        <time>2013-02-08T12:42:05Z</time>
      </trkpt>
      <trkpt lat="45.71295" lon="3.04574">
        <ele>783</ele>
        <time>2013-02-08T12:42:05Z</time>
      </trkpt>
      <trkpt lat="45.71293" lon="3.04572">
        <ele>783</ele>
        <time>2013-02-08T12:42:05Z</time>
      </trkpt>
      <trkpt lat="45.71292" lon="3.04569">
        <ele>783</ele>
        <time>2013-02-08T12:42:05Z</time>
      </trkpt>
      <trkpt lat="45.7129" lon="3.04566">
        <ele>783</ele>
        <time>2013-02-08T12:42:05Z</time>
      </trkpt>
      <trkpt lat="45.71289" lon="3.04564">
        <ele>783</ele>
        <time>2013-02-08T12:42:05Z</time>
      </trkpt>
      <trkpt lat="45.71287" lon="3.04561">
        <ele>783</ele>
        <time>2013-02-08T12:42:05Z</time>
      </trkpt>
      <trkpt lat="45.71286" lon="3.04559">
        <ele>783</ele>
        <time>2013-02-08T12:42:05Z</time>
      </trkpt>
      <trkpt lat="45.71284" lon="3.04556">
        <ele>783</ele>
        <time>2013-02-08T12:42:05Z</time>
      </trkpt>
      <trkpt lat="45.71283" lon="3.04553">
        <ele>783</ele>
        <time>2013-02-08T12:42:05Z</time>
      </trkpt>
      <trkpt lat="45.71281" lon="3.0455">
        <ele>783</ele>
        <time>2013-02-08T12:42:05Z</time>
      </trkpt>
      <trkpt lat="45.7128" lon="3.04548">
        <ele>783</ele>
        <time>2013-02-08T12:42:05Z</time>
      </trkpt>
      <trkpt lat="45.71281" lon="3.04546">
        <ele>783</ele>
        <time>2013-02-08T12:42:05Z</time>
      </trkpt>
      <trkpt lat="45.71281" lon="3.04545">
        <ele>783</ele>
        <time>2013-02-08T12:42:05Z</time>
      </trkpt>
      <trkpt lat="45.7128" lon="3.04543">
        <ele>784</ele>
        <time>2013-02-08T12:42:05Z</time>
      </trkpt>
      <trkpt lat="45.71278" lon="3.04541">
        <ele>784</ele>
        <time>2013-02-08T12:42:05Z</time>
      </trkpt>
      <trkpt lat="45.71276" lon="3.04539">
        <ele>784</ele>
        <time>2013-02-08T12:42:05Z</time>
      </trkpt>
      <trkpt lat="45.71274" lon="3.04536">
        <ele>784</ele>
        <time>2013-02-08T12:42:05Z</time>
      </trkpt>
      <trkpt lat="45.71272" lon="3.04534">
        <ele>784</ele>
        <time>2013-02-08T12:42:05Z</time>
      </trkpt>
      <trkpt lat="45.7127" lon="3.04531">
        <ele>784</ele>
        <time>2013-02-08T12:42:05Z</time>
      </trkpt>
      <trkpt lat="45.71268" lon="3.04528">
        <ele>784</ele>
        <time>2013-02-08T12:42:05Z</time>
      </trkpt>
      <trkpt lat="45.71266" lon="3.04524">
        <ele>784</ele>
        <time>2013-02-08T12:42:05Z</time>
      </trkpt>
      <trkpt lat="45.71265" lon="3.04521">
        <ele>784</ele>
        <time>2013-02-08T12:42:05Z</time>
      </trkpt>
      <trkpt lat="45.71263" lon="3.04518">
        <ele>784</ele>
        <time>2013-02-08T12:42:05Z</time>
      </trkpt>
      <trkpt lat="45.71261" lon="3.04516">
        <ele>784</ele>
        <time>2013-02-08T12:42:05Z</time>
      </trkpt>
      <trkpt lat="45.7126" lon="3.04514">
        <ele>784</ele>
        <time>2013-02-08T12:42:05Z</time>
      </trkpt>
      <trkpt lat="45.71259" lon="3.04512">
        <ele>784</ele>
        <time>2013-02-08T12:42:05Z</time>
      </trkpt>
      <trkpt lat="45.71258" lon="3.0451">
        <ele>785</ele>
        <time>2013-02-08T12:42:05Z</time>
      </trkpt>
      <trkpt lat="45.71257" lon="3.04508">
        <ele>785</ele>
        <time>2013-02-08T12:42:05Z</time>
      </trkpt>
      <trkpt lat="45.71256" lon="3.04506">
        <ele>785</ele>
        <time>2013-02-08T12:42:05Z</time>
      </trkpt>
      <trkpt lat="45.71254" lon="3.04504">
        <ele>785</ele>
        <time>2013-02-08T12:42:05Z</time>
      </trkpt>
      <trkpt lat="45.71253" lon="3.04503">
        <ele>785</ele>
        <time>2013-02-08T12:42:05Z</time>
      </trkpt>
      <trkpt lat="45.71251" lon="3.045">
        <ele>785</ele>
        <time>2013-02-08T12:42:05Z</time>
      </trkpt>
      <trkpt lat="45.7125" lon="3.04498">
        <ele>785</ele>
        <time>2013-02-08T12:42:05Z</time>
      </trkpt>
      <trkpt lat="45.7125" lon="3.04495">
        <ele>786</ele>
        <time>2013-02-08T12:42:05Z</time>
      </trkpt>
      <trkpt lat="45.71248" lon="3.04493">
        <ele>786</ele>
        <time>2013-02-08T12:42:05Z</time>
      </trkpt>
      <trkpt lat="45.71247" lon="3.04491">
        <ele>786</ele>
        <time>2013-02-08T12:42:05Z</time>
      </trkpt>
      <trkpt lat="45.71246" lon="3.04489">
        <ele>786</ele>
        <time>2013-02-08T12:42:05Z</time>
      </trkpt>
      <trkpt lat="45.71246" lon="3.04486">
        <ele>787</ele>
        <time>2013-02-08T12:42:05Z</time>
      </trkpt>
      <trkpt lat="45.71244" lon="3.04484">
        <ele>787</ele>
        <time>2013-02-08T12:42:05Z</time>
      </trkpt>
      <trkpt lat="45.71243" lon="3.04481">
        <ele>787</ele>
        <time>2013-02-08T12:42:05Z</time>
      </trkpt>
      <trkpt lat="45.71242" lon="3.04476">
        <ele>787</ele>
        <time>2013-02-08T12:42:05Z</time>
      </trkpt>
      <trkpt lat="45.71241" lon="3.04474">
        <ele>788</ele>
        <time>2013-02-08T12:42:05Z</time>
      </trkpt>
      <trkpt lat="45.7124" lon="3.04473">
        <ele>788</ele>
        <time>2013-02-08T12:42:05Z</time>
      </trkpt>
      <trkpt lat="45.71239" lon="3.04471">
        <ele>788</ele>
        <time>2013-02-08T12:42:05Z</time>
      </trkpt>
      <trkpt lat="45.71239" lon="3.04468">
        <ele>788</ele>
        <time>2013-02-08T12:42:05Z</time>
      </trkpt>
      <trkpt lat="45.71238" lon="3.04464">
        <ele>788</ele>
        <time>2013-02-08T12:42:05Z</time>
      </trkpt>
      <trkpt lat="45.71237" lon="3.0446">
        <ele>788</ele>
        <time>2013-02-08T12:42:05Z</time>
      </trkpt>
      <trkpt lat="45.71236" lon="3.04457">
        <ele>789</ele>
        <time>2013-02-08T12:42:05Z</time>
      </trkpt>
      <trkpt lat="45.71236" lon="3.04456">
        <ele>789</ele>
        <time>2013-02-08T12:42:05Z</time>
      </trkpt>
      <trkpt lat="45.71236" lon="3.04454">
        <ele>789</ele>
        <time>2013-02-08T12:42:05Z</time>
      </trkpt>
      <trkpt lat="45.71235" lon="3.04452">
        <ele>789</ele>
        <time>2013-02-08T12:42:05Z</time>
      </trkpt>
      <trkpt lat="45.71234" lon="3.0445">
        <ele>789</ele>
        <time>2013-02-08T12:42:05Z</time>
      </trkpt>
      <trkpt lat="45.71233" lon="3.04448">
        <ele>789</ele>
        <time>2013-02-08T12:42:05Z</time>
      </trkpt>
      <trkpt lat="45.71233" lon="3.04446">
        <ele>789</ele>
        <time>2013-02-08T12:42:05Z</time>
      </trkpt>
      <trkpt lat="45.71232" lon="3.04442">
        <ele>789</ele>
        <time>2013-02-08T12:42:05Z</time>
      </trkpt>
      <trkpt lat="45.71231" lon="3.04439">
        <ele>789</ele>
        <time>2013-02-08T12:42:05Z</time>
      </trkpt>
      <trkpt lat="45.71231" lon="3.04436">
        <ele>790</ele>
        <time>2013-02-08T12:42:05Z</time>
      </trkpt>
      <trkpt lat="45.7123" lon="3.04433">
        <ele>790</ele>
        <time>2013-02-08T12:42:05Z</time>
      </trkpt>
      <trkpt lat="45.7123" lon="3.0443">
        <ele>790</ele>
        <time>2013-02-08T12:42:05Z</time>
      </trkpt>
      <trkpt lat="45.71229" lon="3.04427">
        <ele>790</ele>
        <time>2013-02-08T12:42:05Z</time>
      </trkpt>
      <trkpt lat="45.71229" lon="3.04425">
        <ele>790</ele>
        <time>2013-02-08T12:42:05Z</time>
      </trkpt>
      <trkpt lat="45.71228" lon="3.04423">
        <ele>790</ele>
        <time>2013-02-08T12:42:05Z</time>
      </trkpt>
      <trkpt lat="45.71228" lon="3.04419">
        <ele>790</ele>
        <time>2013-02-08T12:42:05Z</time>
      </trkpt>
      <trkpt lat="45.71228" lon="3.04416">
        <ele>792</ele>
        <time>2013-02-08T12:42:05Z</time>
      </trkpt>
      <trkpt lat="45.71228" lon="3.04414">
        <ele>793</ele>
        <time>2013-02-08T12:42:05Z</time>
      </trkpt>
      <trkpt lat="45.71228" lon="3.04411">
        <ele>793</ele>
        <time>2013-02-08T12:42:05Z</time>
      </trkpt>
      <trkpt lat="45.71227" lon="3.04409">
        <ele>793</ele>
        <time>2013-02-08T12:42:05Z</time>
      </trkpt>
      <trkpt lat="45.71226" lon="3.04406">
        <ele>793</ele>
        <time>2013-02-08T12:42:05Z</time>
      </trkpt>
      <trkpt lat="45.71225" lon="3.04406">
        <ele>793</ele>
        <time>2013-02-08T12:42:05Z</time>
      </trkpt>
      <trkpt lat="45.71225" lon="3.04404">
        <ele>793</ele>
        <time>2013-02-08T12:42:05Z</time>
      </trkpt>
      <trkpt lat="45.71225" lon="3.04401">
        <ele>793</ele>
        <time>2013-02-08T12:42:05Z</time>
      </trkpt>
      <trkpt lat="45.71225" lon="3.04397">
        <ele>793</ele>
        <time>2013-02-08T12:42:05Z</time>
      </trkpt>
      <trkpt lat="45.71225" lon="3.04393">
        <ele>793</ele>
        <time>2013-02-08T12:42:05Z</time>
      </trkpt>
      <trkpt lat="45.71225" lon="3.0439">
        <ele>793</ele>
        <time>2013-02-08T12:42:05Z</time>
      </trkpt>
      <trkpt lat="45.71225" lon="3.04388">
        <ele>793</ele>
        <time>2013-02-08T12:42:05Z</time>
      </trkpt>
      <trkpt lat="45.71225" lon="3.04386">
        <ele>793</ele>
        <time>2013-02-08T12:42:05Z</time>
      </trkpt>
      <trkpt lat="45.71225" lon="3.04382">
        <ele>793</ele>
        <time>2013-02-08T12:42:05Z</time>
      </trkpt>
      <trkpt lat="45.71225" lon="3.04377">
        <ele>793</ele>
        <time>2013-02-08T12:42:05Z</time>
      </trkpt>
      <trkpt lat="45.71224" lon="3.04373">
        <ele>793</ele>
        <time>2013-02-08T12:42:05Z</time>
      </trkpt>
      <trkpt lat="45.71224" lon="3.04372">
        <ele>793</ele>
        <time>2013-02-08T12:42:05Z</time>
      </trkpt>
      <trkpt lat="45.71225" lon="3.04371">
        <ele>793</ele>
        <time>2013-02-08T12:42:05Z</time>
      </trkpt>
      <trkpt lat="45.71224" lon="3.04365">
        <ele>793</ele>
        <time>2013-02-08T12:42:05Z</time>
      </trkpt>
      <trkpt lat="45.71224" lon="3.04361">
        <ele>793</ele>
        <time>2013-02-08T12:42:05Z</time>
      </trkpt>
      <trkpt lat="45.71224" lon="3.04358">
        <ele>793</ele>
        <time>2013-02-08T12:42:05Z</time>
      </trkpt>
      <trkpt lat="45.71223" lon="3.04356">
        <ele>793</ele>
        <time>2013-02-08T12:42:05Z</time>
      </trkpt>
      <trkpt lat="45.71223" lon="3.04353">
        <ele>793</ele>
        <time>2013-02-08T12:42:05Z</time>
      </trkpt>
      <trkpt lat="45.71222" lon="3.0435">
        <ele>793</ele>
        <time>2013-02-08T12:42:05Z</time>
      </trkpt>
      <trkpt lat="45.71222" lon="3.04346">
        <ele>793</ele>
        <time>2013-02-08T12:42:05Z</time>
      </trkpt>
      <trkpt lat="45.71227" lon="3.04347">
        <ele>793</ele>
        <time>2013-02-08T12:42:05Z</time>
      </trkpt>
      <trkpt lat="45.71226" lon="3.04346">
        <ele>793</ele>
        <time>2013-02-08T12:42:05Z</time>
      </trkpt>
      <trkpt lat="45.71225" lon="3.04343">
        <ele>793</ele>
        <time>2013-02-08T12:42:05Z</time>
      </trkpt>
      <trkpt lat="45.71223" lon="3.04338">
        <ele>793</ele>
        <time>2013-02-08T12:42:05Z</time>
      </trkpt>
      <trkpt lat="45.7122" lon="3.04331">
        <ele>792</ele>
        <time>2013-02-08T12:42:05Z</time>
      </trkpt>
      <trkpt lat="45.7122" lon="3.0433">
        <ele>792</ele>
        <time>2013-02-08T12:42:05Z</time>
      </trkpt>
      <trkpt lat="45.71219" lon="3.04327">
        <ele>792</ele>
        <time>2013-02-08T12:42:05Z</time>
      </trkpt>
      <trkpt lat="45.71218" lon="3.04324">
        <ele>792</ele>
        <time>2013-02-08T12:42:05Z</time>
      </trkpt>
      <trkpt lat="45.71216" lon="3.04322">
        <ele>792</ele>
        <time>2013-02-08T12:42:05Z</time>
      </trkpt>
      <trkpt lat="45.71214" lon="3.0432">
        <ele>792</ele>
        <time>2013-02-08T12:42:05Z</time>
      </trkpt>
      <trkpt lat="45.71212" lon="3.04317">
        <ele>792</ele>
        <time>2013-02-08T12:42:05Z</time>
      </trkpt>
      <trkpt lat="45.7121" lon="3.04314">
        <ele>792</ele>
        <time>2013-02-08T12:42:05Z</time>
      </trkpt>
      <trkpt lat="45.71209" lon="3.04313">
        <ele>792</ele>
        <time>2013-02-08T12:42:05Z</time>
      </trkpt>
      <trkpt lat="45.71207" lon="3.0431">
        <ele>792</ele>
        <time>2013-02-08T12:42:05Z</time>
      </trkpt>
      <trkpt lat="45.71206" lon="3.04307">
        <ele>792</ele>
        <time>2013-02-08T12:42:05Z</time>
      </trkpt>
      <trkpt lat="45.71204" lon="3.04307">
        <ele>792</ele>
        <time>2013-02-08T12:42:05Z</time>
      </trkpt>
      <trkpt lat="45.71202" lon="3.04304">
        <ele>792</ele>
        <time>2013-02-08T12:42:05Z</time>
      </trkpt>
      <trkpt lat="45.712" lon="3.04302">
        <ele>792</ele>
        <time>2013-02-08T12:42:05Z</time>
      </trkpt>
      <trkpt lat="45.71199" lon="3.04299">
        <ele>792</ele>
        <time>2013-02-08T12:42:05Z</time>
      </trkpt>
      <trkpt lat="45.71197" lon="3.04296">
        <ele>792</ele>
        <time>2013-02-08T12:42:05Z</time>
      </trkpt>
      <trkpt lat="45.71195" lon="3.04293">
        <ele>792</ele>
        <time>2013-02-08T12:42:05Z</time>
      </trkpt>
      <trkpt lat="45.71193" lon="3.0429">
        <ele>792</ele>
        <time>2013-02-08T12:42:05Z</time>
      </trkpt>
      <trkpt lat="45.71192" lon="3.04286">
        <ele>792</ele>
        <time>2013-02-08T12:42:05Z</time>
      </trkpt>
      <trkpt lat="45.7119" lon="3.04283">
        <ele>792</ele>
        <time>2013-02-08T12:42:05Z</time>
      </trkpt>
      <trkpt lat="45.71189" lon="3.04283">
        <ele>792</ele>
        <time>2013-02-08T12:42:05Z</time>
      </trkpt>
      <trkpt lat="45.71187" lon="3.04282">
        <ele>792</ele>
        <time>2013-02-08T12:42:05Z</time>
      </trkpt>
      <trkpt lat="45.71185" lon="3.04278">
        <ele>792</ele>
        <time>2013-02-08T12:42:05Z</time>
      </trkpt>
      <trkpt lat="45.71183" lon="3.04274">
        <ele>792</ele>
        <time>2013-02-08T12:42:05Z</time>
      </trkpt>
      <trkpt lat="45.71181" lon="3.04272">
        <ele>792</ele>
        <time>2013-02-08T12:42:05Z</time>
      </trkpt>
      <trkpt lat="45.71179" lon="3.04269">
        <ele>792</ele>
        <time>2013-02-08T12:42:05Z</time>
      </trkpt>
      <trkpt lat="45.71177" lon="3.04267">
        <ele>792</ele>
        <time>2013-02-08T12:42:05Z</time>
      </trkpt>
      <trkpt lat="45.71175" lon="3.04264">
        <ele>792</ele>
        <time>2013-02-08T12:42:05Z</time>
      </trkpt>
      <trkpt lat="45.71173" lon="3.0426">
        <ele>792</ele>
        <time>2013-02-08T12:42:05Z</time>
      </trkpt>
      <trkpt lat="45.71171" lon="3.04257">
        <ele>792</ele>
        <time>2013-02-08T12:42:05Z</time>
      </trkpt>
      <trkpt lat="45.71169" lon="3.04257">
        <ele>792</ele>
        <time>2013-02-08T12:42:05Z</time>
      </trkpt>
      <trkpt lat="45.71168" lon="3.04254">
        <ele>792</ele>
        <time>2013-02-08T12:42:05Z</time>
      </trkpt>
      <trkpt lat="45.71166" lon="3.04252">
        <ele>792</ele>
        <time>2013-02-08T12:42:05Z</time>
      </trkpt>
      <trkpt lat="45.71165" lon="3.04249">
        <ele>792</ele>
        <time>2013-02-08T12:42:05Z</time>
      </trkpt>
      <trkpt lat="45.71164" lon="3.04246">
        <ele>792</ele>
        <time>2013-02-08T12:42:05Z</time>
      </trkpt>
      <trkpt lat="45.71162" lon="3.04244">
        <ele>793</ele>
        <time>2013-02-08T12:42:05Z</time>
      </trkpt>
      <trkpt lat="45.7116" lon="3.04241">
        <ele>793</ele>
        <time>2013-02-08T12:42:05Z</time>
      </trkpt>
      <trkpt lat="45.71159" lon="3.04238">
        <ele>793</ele>
        <time>2013-02-08T12:42:05Z</time>
      </trkpt>
      <trkpt lat="45.71157" lon="3.04236">
        <ele>793</ele>
        <time>2013-02-08T12:42:05Z</time>
      </trkpt>
      <trkpt lat="45.71155" lon="3.04234">
        <ele>793</ele>
        <time>2013-02-08T12:42:05Z</time>
      </trkpt>
      <trkpt lat="45.71153" lon="3.04231">
        <ele>793</ele>
        <time>2013-02-08T12:42:05Z</time>
      </trkpt>
      <trkpt lat="45.71152" lon="3.04229">
        <ele>793</ele>
        <time>2013-02-08T12:42:05Z</time>
      </trkpt>
      <trkpt lat="45.7115" lon="3.04226">
        <ele>793</ele>
        <time>2013-02-08T12:42:05Z</time>
      </trkpt>
      <trkpt lat="45.71148" lon="3.04224">
        <ele>793</ele>
        <time>2013-02-08T12:42:05Z</time>
      </trkpt>
      <trkpt lat="45.71146" lon="3.04222">
        <ele>793</ele>
        <time>2013-02-08T12:42:05Z</time>
      </trkpt>
      <trkpt lat="45.71144" lon="3.04219">
        <ele>793</ele>
        <time>2013-02-08T12:42:05Z</time>
      </trkpt>
      <trkpt lat="45.71143" lon="3.04217">
        <ele>793</ele>
        <time>2013-02-08T12:42:05Z</time>
      </trkpt>
      <trkpt lat="45.71141" lon="3.04216">
        <ele>794</ele>
        <time>2013-02-08T12:42:05Z</time>
      </trkpt>
      <trkpt lat="45.7114" lon="3.04212">
        <ele>794</ele>
        <time>2013-02-08T12:42:05Z</time>
      </trkpt>
      <trkpt lat="45.71138" lon="3.04211">
        <ele>794</ele>
        <time>2013-02-08T12:42:05Z</time>
      </trkpt>
      <trkpt lat="45.71137" lon="3.04208">
        <ele>794</ele>
        <time>2013-02-08T12:42:05Z</time>
      </trkpt>
      <trkpt lat="45.71135" lon="3.04206">
        <ele>794</ele>
        <time>2013-02-08T12:42:05Z</time>
      </trkpt>
      <trkpt lat="45.71134" lon="3.04204">
        <ele>794</ele>
        <time>2013-02-08T12:42:05Z</time>
      </trkpt>
      <trkpt lat="45.71132" lon="3.04202">
        <ele>794</ele>
        <time>2013-02-08T12:42:05Z</time>
      </trkpt>
      <trkpt lat="45.7113" lon="3.042">
        <ele>794</ele>
        <time>2013-02-08T12:42:05Z</time>
      </trkpt>
      <trkpt lat="45.71129" lon="3.04198">
        <ele>794</ele>
        <time>2013-02-08T12:42:05Z</time>
      </trkpt>
      <trkpt lat="45.71127" lon="3.04196">
        <ele>794</ele>
        <time>2013-02-08T12:42:05Z</time>
      </trkpt>
      <trkpt lat="45.71126" lon="3.04195">
        <ele>794</ele>
        <time>2013-02-08T12:42:05Z</time>
      </trkpt>
      <trkpt lat="45.71125" lon="3.04192">
        <ele>794</ele>
        <time>2013-02-08T12:42:05Z</time>
      </trkpt>
      <trkpt lat="45.71123" lon="3.0419">
        <ele>794</ele>
        <time>2013-02-08T12:42:05Z</time>
      </trkpt>
      <trkpt lat="45.71122" lon="3.04188">
        <ele>794</ele>
        <time>2013-02-08T12:42:05Z</time>
      </trkpt>
      <trkpt lat="45.7112" lon="3.04186">
        <ele>794</ele>
        <time>2013-02-08T12:42:05Z</time>
      </trkpt>
      <trkpt lat="45.71119" lon="3.04184">
        <ele>794</ele>
        <time>2013-02-08T12:42:05Z</time>
      </trkpt>
      <trkpt lat="45.71117" lon="3.04181">
        <ele>794</ele>
        <time>2013-02-08T12:42:05Z</time>
      </trkpt>
      <trkpt lat="45.71116" lon="3.04178">
        <ele>794</ele>
        <time>2013-02-08T12:42:05Z</time>
      </trkpt>
      <trkpt lat="45.71114" lon="3.04176">
        <ele>795</ele>
        <time>2013-02-08T12:42:05Z</time>
      </trkpt>
      <trkpt lat="45.71113" lon="3.04173">
        <ele>795</ele>
        <time>2013-02-08T12:42:05Z</time>
      </trkpt>
      <trkpt lat="45.71111" lon="3.04171">
        <ele>795</ele>
        <time>2013-02-08T12:42:05Z</time>
      </trkpt>
      <trkpt lat="45.7111" lon="3.04167">
        <ele>795</ele>
        <time>2013-02-08T12:42:05Z</time>
      </trkpt>
      <trkpt lat="45.71108" lon="3.04166">
        <ele>795</ele>
        <time>2013-02-08T12:42:05Z</time>
      </trkpt>
      <trkpt lat="45.71108" lon="3.04164">
        <ele>795</ele>
        <time>2013-02-08T12:42:05Z</time>
      </trkpt>
      <trkpt lat="45.71107" lon="3.04162">
        <ele>795</ele>
        <time>2013-02-08T12:42:05Z</time>
      </trkpt>
      <trkpt lat="45.71105" lon="3.04159">
        <ele>795</ele>
        <time>2013-02-08T12:42:05Z</time>
      </trkpt>
      <trkpt lat="45.71104" lon="3.04156">
        <ele>795</ele>
        <time>2013-02-08T12:42:05Z</time>
      </trkpt>
      <trkpt lat="45.71103" lon="3.04153">
        <ele>795</ele>
        <time>2013-02-08T12:42:05Z</time>
      </trkpt>
      <trkpt lat="45.71102" lon="3.04151">
        <ele>795</ele>
        <time>2013-02-08T12:42:05Z</time>
      </trkpt>
      <trkpt lat="45.711" lon="3.0415">
        <ele>795</ele>
        <time>2013-02-08T12:42:05Z</time>
      </trkpt>
      <trkpt lat="45.71098" lon="3.04147">
        <ele>795</ele>
        <time>2013-02-08T12:42:05Z</time>
      </trkpt>
      <trkpt lat="45.71097" lon="3.04146">
        <ele>795</ele>
        <time>2013-02-08T12:42:05Z</time>
      </trkpt>
      <trkpt lat="45.71096" lon="3.04144">
        <ele>795</ele>
        <time>2013-02-08T12:42:05Z</time>
      </trkpt>
      <trkpt lat="45.71095" lon="3.04141">
        <ele>795</ele>
        <time>2013-02-08T12:42:05Z</time>
      </trkpt>
      <trkpt lat="45.71093" lon="3.04139">
        <ele>795</ele>
        <time>2013-02-08T12:42:05Z</time>
      </trkpt>
      <trkpt lat="45.71092" lon="3.04138">
        <ele>795</ele>
        <time>2013-02-08T12:42:05Z</time>
      </trkpt>
      <trkpt lat="45.71091" lon="3.04136">
        <ele>795</ele>
        <time>2013-02-08T12:42:05Z</time>
      </trkpt>
      <trkpt lat="45.71089" lon="3.04134">
        <ele>795</ele>
        <time>2013-02-08T12:42:05Z</time>
      </trkpt>
      <trkpt lat="45.71087" lon="3.0413">
        <ele>795</ele>
        <time>2013-02-08T12:42:05Z</time>
      </trkpt>
      <trkpt lat="45.71086" lon="3.04128">
        <ele>795</ele>
        <time>2013-02-08T12:42:05Z</time>
      </trkpt>
      <trkpt lat="45.71084" lon="3.04126">
        <ele>795</ele>
        <time>2013-02-08T12:42:05Z</time>
      </trkpt>
      <trkpt lat="45.71083" lon="3.04125">
        <ele>799</ele>
        <time>2013-02-08T12:42:05Z</time>
      </trkpt>
      <trkpt lat="45.71082" lon="3.04123">
        <ele>799</ele>
        <time>2013-02-08T12:42:05Z</time>
      </trkpt>
      <trkpt lat="45.71081" lon="3.0412">
        <ele>798</ele>
        <time>2013-02-08T12:42:05Z</time>
      </trkpt>
      <trkpt lat="45.71079" lon="3.04118">
        <ele>798</ele>
        <time>2013-02-08T12:42:05Z</time>
      </trkpt>
      <trkpt lat="45.71078" lon="3.04114">
        <ele>798</ele>
        <time>2013-02-08T12:42:05Z</time>
      </trkpt>
      <trkpt lat="45.71077" lon="3.04112">
        <ele>798</ele>
        <time>2013-02-08T12:42:05Z</time>
      </trkpt>
      <trkpt lat="45.71076" lon="3.0411">
        <ele>798</ele>
        <time>2013-02-08T12:42:05Z</time>
      </trkpt>
      <trkpt lat="45.71074" lon="3.04106">
        <ele>798</ele>
        <time>2013-02-08T12:42:05Z</time>
      </trkpt>
      <trkpt lat="45.71072" lon="3.04103">
        <ele>798</ele>
        <time>2013-02-08T12:42:05Z</time>
      </trkpt>
      <trkpt lat="45.71071" lon="3.04101">
        <ele>798</ele>
        <time>2013-02-08T12:42:05Z</time>
      </trkpt>
      <trkpt lat="45.71069" lon="3.04098">
        <ele>798</ele>
        <time>2013-02-08T12:42:05Z</time>
      </trkpt>
      <trkpt lat="45.71068" lon="3.04096">
        <ele>798</ele>
        <time>2013-02-08T12:42:05Z</time>
      </trkpt>
      <trkpt lat="45.71066" lon="3.04094">
        <ele>798</ele>
        <time>2013-02-08T12:42:05Z</time>
      </trkpt>
      <trkpt lat="45.71064" lon="3.04091">
        <ele>798</ele>
        <time>2013-02-08T12:42:05Z</time>
      </trkpt>
      <trkpt lat="45.71063" lon="3.04088">
        <ele>798</ele>
        <time>2013-02-08T12:42:05Z</time>
      </trkpt>
      <trkpt lat="45.71061" lon="3.04086">
        <ele>798</ele>
        <time>2013-02-08T12:42:05Z</time>
      </trkpt>
      <trkpt lat="45.71059" lon="3.04083">
        <ele>797</ele>
        <time>2013-02-08T12:42:05Z</time>
      </trkpt>
      <trkpt lat="45.71058" lon="3.04081">
        <ele>797</ele>
        <time>2013-02-08T12:42:05Z</time>
      </trkpt>
      <trkpt lat="45.71057" lon="3.0408">
        <ele>797</ele>
        <time>2013-02-08T12:42:05Z</time>
      </trkpt>
      <trkpt lat="45.71056" lon="3.04077">
        <ele>797</ele>
        <time>2013-02-08T12:42:05Z</time>
      </trkpt>
      <trkpt lat="45.71054" lon="3.04075">
        <ele>797</ele>
        <time>2013-02-08T12:42:05Z</time>
      </trkpt>
      <trkpt lat="45.71053" lon="3.04073">
        <ele>798</ele>
        <time>2013-02-08T12:42:05Z</time>
      </trkpt>
      <trkpt lat="45.71051" lon="3.04071">
        <ele>798</ele>
        <time>2013-02-08T12:42:05Z</time>
      </trkpt>
      <trkpt lat="45.71051" lon="3.04071">
        <ele>798</ele>
        <time>2013-02-08T12:42:05Z</time>
      </trkpt>
      <trkpt lat="45.71051" lon="3.04071">
        <ele>798</ele>
        <time>2013-02-08T12:42:05Z</time>
      </trkpt>
      <trkpt lat="45.71052" lon="3.04071">
        <ele>798</ele>
        <time>2013-02-08T12:42:05Z</time>
      </trkpt>
      <trkpt lat="45.71052" lon="3.04072">
        <ele>798</ele>
        <time>2013-02-08T12:42:05Z</time>
      </trkpt>
      <trkpt lat="45.71054" lon="3.04068">
        <ele>797</ele>
        <time>2013-02-08T12:42:05Z</time>
      </trkpt>
      <trkpt lat="45.71054" lon="3.04068">
        <ele>797</ele>
        <time>2013-02-08T12:42:05Z</time>
      </trkpt>
      <trkpt lat="45.71055" lon="3.04068">
        <ele>797</ele>
        <time>2013-02-08T12:42:05Z</time>
      </trkpt>
      <trkpt lat="45.71055" lon="3.04068">
        <ele>797</ele>
        <time>2013-02-08T12:42:05Z</time>
      </trkpt>
      <trkpt lat="45.71054" lon="3.04068">
        <ele>797</ele>
        <time>2013-02-08T12:42:05Z</time>
      </trkpt>
      <trkpt lat="45.71053" lon="3.04068">
        <ele>797</ele>
        <time>2013-02-08T12:42:05Z</time>
      </trkpt>
      <trkpt lat="45.71051" lon="3.04065">
        <ele>797</ele>
        <time>2013-02-08T12:42:05Z</time>
      </trkpt>
      <trkpt lat="45.71049" lon="3.04062">
        <ele>798</ele>
        <time>2013-02-08T12:42:05Z</time>
      </trkpt>
      <trkpt lat="45.71047" lon="3.0406">
        <ele>798</ele>
        <time>2013-02-08T12:42:05Z</time>
      </trkpt>
      <trkpt lat="45.71045" lon="3.04057">
        <ele>798</ele>
        <time>2013-02-08T12:42:05Z</time>
      </trkpt>
      <trkpt lat="45.71043" lon="3.04055">
        <ele>798</ele>
        <time>2013-02-08T12:42:05Z</time>
      </trkpt>
      <trkpt lat="45.71041" lon="3.04053">
        <ele>798</ele>
        <time>2013-02-08T12:42:05Z</time>
      </trkpt>
      <trkpt lat="45.71038" lon="3.0405">
        <ele>798</ele>
        <time>2013-02-08T12:42:05Z</time>
      </trkpt>
      <trkpt lat="45.71036" lon="3.04048">
        <ele>798</ele>
        <time>2013-02-08T12:42:05Z</time>
      </trkpt>
      <trkpt lat="45.71033" lon="3.04045">
        <ele>798</ele>
        <time>2013-02-08T12:42:05Z</time>
      </trkpt>
      <trkpt lat="45.71031" lon="3.04043">
        <ele>798</ele>
        <time>2013-02-08T12:42:05Z</time>
      </trkpt>
      <trkpt lat="45.7103" lon="3.0404">
        <ele>798</ele>
        <time>2013-02-08T12:42:05Z</time>
      </trkpt>
      <trkpt lat="45.71028" lon="3.04038">
        <ele>798</ele>
        <time>2013-02-08T12:42:05Z</time>
      </trkpt>
      <trkpt lat="45.71026" lon="3.04035">
        <ele>798</ele>
        <time>2013-02-08T12:42:05Z</time>
      </trkpt>
      <trkpt lat="45.71025" lon="3.04032">
        <ele>798</ele>
        <time>2013-02-08T12:42:05Z</time>
      </trkpt>
      <trkpt lat="45.71023" lon="3.04029">
        <ele>798</ele>
        <time>2013-02-08T12:42:05Z</time>
      </trkpt>
      <trkpt lat="45.71021" lon="3.04027">
        <ele>798</ele>
        <time>2013-02-08T12:42:05Z</time>
      </trkpt>
      <trkpt lat="45.71019" lon="3.04025">
        <ele>799</ele>
        <time>2013-02-08T12:42:05Z</time>
      </trkpt>
      <trkpt lat="45.71017" lon="3.04022">
        <ele>799</ele>
        <time>2013-02-08T12:42:05Z</time>
      </trkpt>
      <trkpt lat="45.71015" lon="3.0402">
        <ele>799</ele>
        <time>2013-02-08T12:42:05Z</time>
      </trkpt>
      <trkpt lat="45.71014" lon="3.04019">
        <ele>799</ele>
        <time>2013-02-08T12:42:05Z</time>
      </trkpt>
      <trkpt lat="45.71013" lon="3.04018">
        <ele>799</ele>
        <time>2013-02-08T12:42:05Z</time>
      </trkpt>
      <trkpt lat="45.71012" lon="3.04016">
        <ele>799</ele>
        <time>2013-02-08T12:42:05Z</time>
      </trkpt>
      <trkpt lat="45.71011" lon="3.04012">
        <ele>799</ele>
        <time>2013-02-08T12:42:05Z</time>
      </trkpt>
      <trkpt lat="45.71009" lon="3.04009">
        <ele>800</ele>
        <time>2013-02-08T12:42:05Z</time>
      </trkpt>
      <trkpt lat="45.71008" lon="3.04006">
        <ele>800</ele>
        <time>2013-02-08T12:42:05Z</time>
      </trkpt>
      <trkpt lat="45.71007" lon="3.04003">
        <ele>800</ele>
        <time>2013-02-08T12:42:05Z</time>
      </trkpt>
      <trkpt lat="45.71005" lon="3.04">
        <ele>800</ele>
        <time>2013-02-08T12:42:05Z</time>
      </trkpt>
      <trkpt lat="45.71003" lon="3.03998">
        <ele>800</ele>
        <time>2013-02-08T12:42:05Z</time>
      </trkpt>
      <trkpt lat="45.71002" lon="3.03995">
        <ele>800</ele>
        <time>2013-02-08T12:42:05Z</time>
      </trkpt>
      <trkpt lat="45.71001" lon="3.03992">
        <ele>799</ele>
        <time>2013-02-08T12:42:05Z</time>
      </trkpt>
      <trkpt lat="45.70999" lon="3.0399">
        <ele>801</ele>
        <time>2013-02-08T12:42:05Z</time>
      </trkpt>
      <trkpt lat="45.70998" lon="3.03987">
        <ele>801</ele>
        <time>2013-02-08T12:42:05Z</time>
      </trkpt>
      <trkpt lat="45.70996" lon="3.03985">
        <ele>801</ele>
        <time>2013-02-08T12:42:05Z</time>
      </trkpt>
      <trkpt lat="45.70994" lon="3.03982">
        <ele>802</ele>
        <time>2013-02-08T12:42:05Z</time>
      </trkpt>
      <trkpt lat="45.70993" lon="3.0398">
        <ele>802</ele>
        <time>2013-02-08T12:42:05Z</time>
      </trkpt>
      <trkpt lat="45.70991" lon="3.03977">
        <ele>802</ele>
        <time>2013-02-08T12:42:05Z</time>
      </trkpt>
      <trkpt lat="45.70989" lon="3.03974">
        <ele>802</ele>
        <time>2013-02-08T12:42:05Z</time>
      </trkpt>
      <trkpt lat="45.70988" lon="3.03971">
        <ele>802</ele>
        <time>2013-02-08T12:42:05Z</time>
      </trkpt>
      <trkpt lat="45.70987" lon="3.03968">
        <ele>802</ele>
        <time>2013-02-08T12:42:05Z</time>
      </trkpt>
      <trkpt lat="45.70985" lon="3.03966">
        <ele>802</ele>
        <time>2013-02-08T12:42:05Z</time>
      </trkpt>
      <trkpt lat="45.70985" lon="3.03965">
        <ele>802</ele>
        <time>2013-02-08T12:42:05Z</time>
      </trkpt>
      <trkpt lat="45.70984" lon="3.03964">
        <ele>802</ele>
        <time>2013-02-08T12:42:05Z</time>
      </trkpt>
      <trkpt lat="45.70984" lon="3.03963">
        <ele>802</ele>
        <time>2013-02-08T12:42:05Z</time>
      </trkpt>
      <trkpt lat="45.70984" lon="3.03963">
        <ele>802</ele>
        <time>2013-02-08T12:42:05Z</time>
      </trkpt>
      <trkpt lat="45.70983" lon="3.03962">
        <ele>802</ele>
        <time>2013-02-08T12:42:05Z</time>
      </trkpt>
      <trkpt lat="45.70982" lon="3.03961">
        <ele>802</ele>
        <time>2013-02-08T12:42:05Z</time>
      </trkpt>
      <trkpt lat="45.7098" lon="3.03959">
        <ele>802</ele>
        <time>2013-02-08T12:42:05Z</time>
      </trkpt>
      <trkpt lat="45.70978" lon="3.03957">
        <ele>802</ele>
        <time>2013-02-08T12:42:05Z</time>
      </trkpt>
      <trkpt lat="45.70977" lon="3.03955">
        <ele>802</ele>
        <time>2013-02-08T12:42:05Z</time>
      </trkpt>
      <trkpt lat="45.70975" lon="3.03953">
        <ele>802</ele>
        <time>2013-02-08T12:42:05Z</time>
      </trkpt>
      <trkpt lat="45.70974" lon="3.0395">
        <ele>802</ele>
        <time>2013-02-08T12:42:05Z</time>
      </trkpt>
      <trkpt lat="45.70972" lon="3.03948">
        <ele>802</ele>
        <time>2013-02-08T12:42:05Z</time>
      </trkpt>
      <trkpt lat="45.7097" lon="3.03945">
        <ele>802</ele>
        <time>2013-02-08T12:42:05Z</time>
      </trkpt>
      <trkpt lat="45.70969" lon="3.03943">
        <ele>802</ele>
        <time>2013-02-08T12:42:05Z</time>
      </trkpt>
      <trkpt lat="45.70967" lon="3.03941">
        <ele>802</ele>
        <time>2013-02-08T12:42:05Z</time>
      </trkpt>
      <trkpt lat="45.70966" lon="3.03939">
        <ele>802</ele>
        <time>2013-02-08T12:42:05Z</time>
      </trkpt>
      <trkpt lat="45.70965" lon="3.03936">
        <ele>802</ele>
        <time>2013-02-08T12:42:05Z</time>
      </trkpt>
      <trkpt lat="45.70963" lon="3.03934">
        <ele>802</ele>
        <time>2013-02-08T12:42:05Z</time>
      </trkpt>
      <trkpt lat="45.70962" lon="3.03932">
        <ele>802</ele>
        <time>2013-02-08T12:42:05Z</time>
      </trkpt>
      <trkpt lat="45.7096" lon="3.0393">
        <ele>802</ele>
        <time>2013-02-08T12:42:05Z</time>
      </trkpt>
      <trkpt lat="45.70959" lon="3.03928">
        <ele>802</ele>
        <time>2013-02-08T12:42:05Z</time>
      </trkpt>
      <trkpt lat="45.70957" lon="3.03926">
        <ele>802</ele>
        <time>2013-02-08T12:42:05Z</time>
      </trkpt>
      <trkpt lat="45.70956" lon="3.03925">
        <ele>802</ele>
        <time>2013-02-08T12:42:05Z</time>
      </trkpt>
      <trkpt lat="45.70956" lon="3.03924">
        <ele>802</ele>
        <time>2013-02-08T12:42:05Z</time>
      </trkpt>
      <trkpt lat="45.70954" lon="3.03923">
        <ele>802</ele>
        <time>2013-02-08T12:42:05Z</time>
      </trkpt>
      <trkpt lat="45.70952" lon="3.03921">
        <ele>802</ele>
        <time>2013-02-08T12:42:05Z</time>
      </trkpt>
      <trkpt lat="45.70951" lon="3.03918">
        <ele>802</ele>
        <time>2013-02-08T12:42:05Z</time>
      </trkpt>
      <trkpt lat="45.70949" lon="3.03914">
        <ele>801</ele>
        <time>2013-02-08T12:42:05Z</time>
      </trkpt>
      <trkpt lat="45.70947" lon="3.03911">
        <ele>801</ele>
        <time>2013-02-08T12:42:05Z</time>
      </trkpt>
      <trkpt lat="45.70945" lon="3.03908">
        <ele>801</ele>
        <time>2013-02-08T12:42:05Z</time>
      </trkpt>
      <trkpt lat="45.70943" lon="3.03906">
        <ele>802</ele>
        <time>2013-02-08T12:42:05Z</time>
      </trkpt>
      <trkpt lat="45.70942" lon="3.03903">
        <ele>802</ele>
        <time>2013-02-08T12:42:05Z</time>
      </trkpt>
      <trkpt lat="45.7094" lon="3.039">
        <ele>802</ele>
        <time>2013-02-08T12:42:05Z</time>
      </trkpt>
      <trkpt lat="45.70939" lon="3.03898">
        <ele>802</ele>
        <time>2013-02-08T12:42:05Z</time>
      </trkpt>
      <trkpt lat="45.70937" lon="3.03895">
        <ele>802</ele>
        <time>2013-02-08T12:42:05Z</time>
      </trkpt>
      <trkpt lat="45.70936" lon="3.03893">
        <ele>802</ele>
        <time>2013-02-08T12:42:05Z</time>
      </trkpt>
      <trkpt lat="45.70934" lon="3.0389">
        <ele>802</ele>
        <time>2013-02-08T12:42:05Z</time>
      </trkpt>
      <trkpt lat="45.70932" lon="3.03888">
        <ele>802</ele>
        <time>2013-02-08T12:42:05Z</time>
      </trkpt>
      <trkpt lat="45.70931" lon="3.03885">
        <ele>802</ele>
        <time>2013-02-08T12:42:05Z</time>
      </trkpt>
      <trkpt lat="45.70929" lon="3.03883">
        <ele>802</ele>
        <time>2013-02-08T12:42:05Z</time>
      </trkpt>
      <trkpt lat="45.70928" lon="3.0388">
        <ele>802</ele>
        <time>2013-02-08T12:42:05Z</time>
      </trkpt>
      <trkpt lat="45.70927" lon="3.03877">
        <ele>802</ele>
        <time>2013-02-08T12:42:05Z</time>
      </trkpt>
      <trkpt lat="45.70925" lon="3.03875">
        <ele>802</ele>
        <time>2013-02-08T12:42:05Z</time>
      </trkpt>
      <trkpt lat="45.70924" lon="3.03872">
        <ele>802</ele>
        <time>2013-02-08T12:42:05Z</time>
      </trkpt>
      <trkpt lat="45.70923" lon="3.03871">
        <ele>802</ele>
        <time>2013-02-08T12:42:05Z</time>
      </trkpt>
      <trkpt lat="45.70921" lon="3.03868">
        <ele>802</ele>
        <time>2013-02-08T12:42:05Z</time>
      </trkpt>
      <trkpt lat="45.70919" lon="3.03866">
        <ele>802</ele>
        <time>2013-02-08T12:42:05Z</time>
      </trkpt>
      <trkpt lat="45.70918" lon="3.03864">
        <ele>802</ele>
        <time>2013-02-08T12:42:05Z</time>
      </trkpt>
      <trkpt lat="45.70916" lon="3.03861">
        <ele>805</ele>
        <time>2013-02-08T12:42:05Z</time>
      </trkpt>
      <trkpt lat="45.70915" lon="3.03858">
        <ele>804</ele>
        <time>2013-02-08T12:42:05Z</time>
      </trkpt>
      <trkpt lat="45.70913" lon="3.03856">
        <ele>804</ele>
        <time>2013-02-08T12:42:05Z</time>
      </trkpt>
      <trkpt lat="45.70912" lon="3.03854">
        <ele>804</ele>
        <time>2013-02-08T12:42:05Z</time>
      </trkpt>
      <trkpt lat="45.70911" lon="3.03852">
        <ele>804</ele>
        <time>2013-02-08T12:42:05Z</time>
      </trkpt>
      <trkpt lat="45.7091" lon="3.0385">
        <ele>804</ele>
        <time>2013-02-08T12:42:05Z</time>
      </trkpt>
      <trkpt lat="45.70908" lon="3.03848">
        <ele>804</ele>
        <time>2013-02-08T12:42:05Z</time>
      </trkpt>
      <trkpt lat="45.70907" lon="3.03847">
        <ele>804</ele>
        <time>2013-02-08T12:42:05Z</time>
      </trkpt>
      <trkpt lat="45.70907" lon="3.03845">
        <ele>804</ele>
        <time>2013-02-08T12:42:05Z</time>
      </trkpt>
      <trkpt lat="45.70905" lon="3.03842">
        <ele>804</ele>
        <time>2013-02-08T12:42:05Z</time>
      </trkpt>
      <trkpt lat="45.70903" lon="3.03842">
        <ele>804</ele>
        <time>2013-02-08T12:42:05Z</time>
      </trkpt>
      <trkpt lat="45.70902" lon="3.03844">
        <ele>804</ele>
        <time>2013-02-08T12:42:05Z</time>
      </trkpt>
      <trkpt lat="45.70902" lon="3.03848">
        <ele>804</ele>
        <time>2013-02-08T12:42:05Z</time>
      </trkpt>
      <trkpt lat="45.70902" lon="3.03851">
        <ele>804</ele>
        <time>2013-02-08T12:42:05Z</time>
      </trkpt>
      <trkpt lat="45.70901" lon="3.03854">
        <ele>805</ele>
        <time>2013-02-08T12:42:05Z</time>
      </trkpt>
      <trkpt lat="45.70901" lon="3.03857">
        <ele>805</ele>
        <time>2013-02-08T12:42:05Z</time>
      </trkpt>
      <trkpt lat="45.70901" lon="3.03861">
        <ele>805</ele>
        <time>2013-02-08T12:42:05Z</time>
      </trkpt>
      <trkpt lat="45.709" lon="3.03864">
        <ele>805</ele>
        <time>2013-02-08T12:42:05Z</time>
      </trkpt>
      <trkpt lat="45.709" lon="3.03867">
        <ele>805</ele>
        <time>2013-02-08T12:42:05Z</time>
      </trkpt>
      <trkpt lat="45.709" lon="3.0387">
        <ele>805</ele>
        <time>2013-02-08T12:42:05Z</time>
      </trkpt>
      <trkpt lat="45.70899" lon="3.03874">
        <ele>805</ele>
        <time>2013-02-08T12:42:05Z</time>
      </trkpt>
      <trkpt lat="45.70899" lon="3.03877">
        <ele>805</ele>
        <time>2013-02-08T12:42:05Z</time>
      </trkpt>
      <trkpt lat="45.70899" lon="3.0388">
        <ele>805</ele>
        <time>2013-02-08T12:42:05Z</time>
      </trkpt>
      <trkpt lat="45.70898" lon="3.03883">
        <ele>805</ele>
        <time>2013-02-08T12:42:05Z</time>
      </trkpt>
      <trkpt lat="45.70898" lon="3.03885">
        <ele>805</ele>
        <time>2013-02-08T12:42:05Z</time>
      </trkpt>
      <trkpt lat="45.70898" lon="3.03888">
        <ele>805</ele>
        <time>2013-02-08T12:42:05Z</time>
      </trkpt>
      <trkpt lat="45.70898" lon="3.03891">
        <ele>805</ele>
        <time>2013-02-08T12:42:05Z</time>
      </trkpt>
      <trkpt lat="45.70897" lon="3.03894">
        <ele>805</ele>
        <time>2013-02-08T12:42:05Z</time>
      </trkpt>
      <trkpt lat="45.70896" lon="3.03897">
        <ele>805</ele>
        <time>2013-02-08T12:42:05Z</time>
      </trkpt>
      <trkpt lat="45.70896" lon="3.03901">
        <ele>805</ele>
        <time>2013-02-08T12:42:05Z</time>
      </trkpt>
      <trkpt lat="45.70895" lon="3.03905">
        <ele>805</ele>
        <time>2013-02-08T12:42:05Z</time>
      </trkpt>
      <trkpt lat="45.70893" lon="3.03908">
        <ele>805</ele>
        <time>2013-02-08T12:42:05Z</time>
      </trkpt>
      <trkpt lat="45.70892" lon="3.03912">
        <ele>805</ele>
        <time>2013-02-08T12:42:05Z</time>
      </trkpt>
      <trkpt lat="45.70891" lon="3.03916">
        <ele>805</ele>
        <time>2013-02-08T12:42:05Z</time>
      </trkpt>
      <trkpt lat="45.7089" lon="3.03919">
        <ele>805</ele>
        <time>2013-02-08T12:42:05Z</time>
      </trkpt>
      <trkpt lat="45.70889" lon="3.03923">
        <ele>805</ele>
        <time>2013-02-08T12:42:05Z</time>
      </trkpt>
      <trkpt lat="45.70888" lon="3.03926">
        <ele>805</ele>
        <time>2013-02-08T12:42:05Z</time>
      </trkpt>
      <trkpt lat="45.70887" lon="3.0393">
        <ele>805</ele>
        <time>2013-02-08T12:42:05Z</time>
      </trkpt>
      <trkpt lat="45.70886" lon="3.03933">
        <ele>806</ele>
        <time>2013-02-08T12:42:05Z</time>
      </trkpt>
      <trkpt lat="45.70885" lon="3.03936">
        <ele>806</ele>
        <time>2013-02-08T12:42:05Z</time>
      </trkpt>
      <trkpt lat="45.70884" lon="3.0394">
        <ele>806</ele>
        <time>2013-02-08T12:42:05Z</time>
      </trkpt>
      <trkpt lat="45.70883" lon="3.03943">
        <ele>806</ele>
        <time>2013-02-08T12:42:05Z</time>
      </trkpt>
      <trkpt lat="45.70882" lon="3.03946">
        <ele>806</ele>
        <time>2013-02-08T12:42:05Z</time>
      </trkpt>
      <trkpt lat="45.70881" lon="3.03949">
        <ele>806</ele>
        <time>2013-02-08T12:42:05Z</time>
      </trkpt>
      <trkpt lat="45.70881" lon="3.03952">
        <ele>806</ele>
        <time>2013-02-08T12:42:05Z</time>
      </trkpt>
      <trkpt lat="45.70879" lon="3.03956">
        <ele>806</ele>
        <time>2013-02-08T12:42:05Z</time>
      </trkpt>
      <trkpt lat="45.70878" lon="3.03959">
        <ele>806</ele>
        <time>2013-02-08T12:42:05Z</time>
      </trkpt>
      <trkpt lat="45.70877" lon="3.03962">
        <ele>806</ele>
        <time>2013-02-08T12:42:05Z</time>
      </trkpt>
      <trkpt lat="45.70875" lon="3.03966">
        <ele>806</ele>
        <time>2013-02-08T12:42:05Z</time>
      </trkpt>
      <trkpt lat="45.70875" lon="3.03969">
        <ele>806</ele>
        <time>2013-02-08T12:42:05Z</time>
      </trkpt>
      <trkpt lat="45.70873" lon="3.03972">
        <ele>806</ele>
        <time>2013-02-08T12:42:05Z</time>
      </trkpt>
      <trkpt lat="45.70872" lon="3.03975">
        <ele>806</ele>
        <time>2013-02-08T12:42:05Z</time>
      </trkpt>
      <trkpt lat="45.70871" lon="3.03978">
        <ele>806</ele>
        <time>2013-02-08T12:42:05Z</time>
      </trkpt>
      <trkpt lat="45.70869" lon="3.03982">
        <ele>806</ele>
        <time>2013-02-08T12:42:05Z</time>
      </trkpt>
      <trkpt lat="45.70868" lon="3.03985">
        <ele>806</ele>
        <time>2013-02-08T12:42:05Z</time>
      </trkpt>
      <trkpt lat="45.70867" lon="3.03988">
        <ele>806</ele>
        <time>2013-02-08T12:42:05Z</time>
      </trkpt>
      <trkpt lat="45.70865" lon="3.03991">
        <ele>806</ele>
        <time>2013-02-08T12:42:05Z</time>
      </trkpt>
      <trkpt lat="45.70864" lon="3.03994">
        <ele>806</ele>
        <time>2013-02-08T12:42:05Z</time>
      </trkpt>
      <trkpt lat="45.70864" lon="3.03997">
        <ele>806</ele>
        <time>2013-02-08T12:42:05Z</time>
      </trkpt>
      <trkpt lat="45.70862" lon="3.04001">
        <ele>805</ele>
        <time>2013-02-08T12:42:05Z</time>
      </trkpt>
      <trkpt lat="45.70862" lon="3.04004">
        <ele>805</ele>
        <time>2013-02-08T12:42:05Z</time>
      </trkpt>
      <trkpt lat="45.70861" lon="3.04007">
        <ele>805</ele>
        <time>2013-02-08T12:42:05Z</time>
      </trkpt>
      <trkpt lat="45.70861" lon="3.04009">
        <ele>805</ele>
        <time>2013-02-08T12:42:05Z</time>
      </trkpt>
      <trkpt lat="45.7086" lon="3.04012">
        <ele>805</ele>
        <time>2013-02-08T12:42:05Z</time>
      </trkpt>
      <trkpt lat="45.7086" lon="3.04015">
        <ele>805</ele>
        <time>2013-02-08T12:42:05Z</time>
      </trkpt>
      <trkpt lat="45.70859" lon="3.04018">
        <ele>805</ele>
        <time>2013-02-08T12:42:05Z</time>
      </trkpt>
      <trkpt lat="45.70859" lon="3.04022">
        <ele>805</ele>
        <time>2013-02-08T12:42:05Z</time>
      </trkpt>
      <trkpt lat="45.70859" lon="3.04025">
        <ele>805</ele>
        <time>2013-02-08T12:42:05Z</time>
      </trkpt>
      <trkpt lat="45.70858" lon="3.04029">
        <ele>804</ele>
        <time>2013-02-08T12:42:05Z</time>
      </trkpt>
      <trkpt lat="45.70857" lon="3.04032">
        <ele>804</ele>
        <time>2013-02-08T12:42:05Z</time>
      </trkpt>
      <trkpt lat="45.70857" lon="3.04035">
        <ele>804</ele>
        <time>2013-02-08T12:42:05Z</time>
      </trkpt>
      <trkpt lat="45.70857" lon="3.04039">
        <ele>804</ele>
        <time>2013-02-08T12:42:05Z</time>
      </trkpt>
      <trkpt lat="45.70857" lon="3.04042">
        <ele>804</ele>
        <time>2013-02-08T12:42:05Z</time>
      </trkpt>
      <trkpt lat="45.70857" lon="3.04045">
        <ele>804</ele>
        <time>2013-02-08T12:42:05Z</time>
      </trkpt>
      <trkpt lat="45.70857" lon="3.04049">
        <ele>804</ele>
        <time>2013-02-08T12:42:05Z</time>
      </trkpt>
      <trkpt lat="45.70857" lon="3.04052">
        <ele>804</ele>
        <time>2013-02-08T12:42:05Z</time>
      </trkpt>
      <trkpt lat="45.70858" lon="3.04055">
        <ele>804</ele>
        <time>2013-02-08T12:42:05Z</time>
      </trkpt>
      <trkpt lat="45.70858" lon="3.04058">
        <ele>804</ele>
        <time>2013-02-08T12:42:05Z</time>
      </trkpt>
      <trkpt lat="45.70858" lon="3.04062">
        <ele>804</ele>
        <time>2013-02-08T12:42:05Z</time>
      </trkpt>
      <trkpt lat="45.70858" lon="3.04065">
        <ele>804</ele>
        <time>2013-02-08T12:42:05Z</time>
      </trkpt>
      <trkpt lat="45.70859" lon="3.04069">
        <ele>804</ele>
        <time>2013-02-08T12:42:05Z</time>
      </trkpt>
      <trkpt lat="45.70859" lon="3.04072">
        <ele>804</ele>
        <time>2013-02-08T12:42:05Z</time>
      </trkpt>
      <trkpt lat="45.70859" lon="3.04075">
        <ele>804</ele>
        <time>2013-02-08T12:42:05Z</time>
      </trkpt>
      <trkpt lat="45.7086" lon="3.04079">
        <ele>803</ele>
        <time>2013-02-08T12:42:05Z</time>
      </trkpt>
      <trkpt lat="45.7086" lon="3.04083">
        <ele>803</ele>
        <time>2013-02-08T12:42:05Z</time>
      </trkpt>
      <trkpt lat="45.7086" lon="3.04087">
        <ele>801</ele>
        <time>2013-02-08T12:42:05Z</time>
      </trkpt>
      <trkpt lat="45.7086" lon="3.0409">
        <ele>801</ele>
        <time>2013-02-08T12:42:05Z</time>
      </trkpt>
      <trkpt lat="45.70861" lon="3.04094">
        <ele>801</ele>
        <time>2013-02-08T12:42:05Z</time>
      </trkpt>
      <trkpt lat="45.70861" lon="3.04097">
        <ele>801</ele>
        <time>2013-02-08T12:42:05Z</time>
      </trkpt>
      <trkpt lat="45.70862" lon="3.04101">
        <ele>801</ele>
        <time>2013-02-08T12:42:05Z</time>
      </trkpt>
      <trkpt lat="45.70862" lon="3.04105">
        <ele>801</ele>
        <time>2013-02-08T12:42:05Z</time>
      </trkpt>
      <trkpt lat="45.70863" lon="3.04108">
        <ele>801</ele>
        <time>2013-02-08T12:42:05Z</time>
      </trkpt>
      <trkpt lat="45.70864" lon="3.04112">
        <ele>801</ele>
        <time>2013-02-08T12:42:05Z</time>
      </trkpt>
      <trkpt lat="45.70864" lon="3.04115">
        <ele>801</ele>
        <time>2013-02-08T12:42:05Z</time>
      </trkpt>
      <trkpt lat="45.70864" lon="3.04119">
        <ele>801</ele>
        <time>2013-02-08T12:42:05Z</time>
      </trkpt>
      <trkpt lat="45.70865" lon="3.04123">
        <ele>801</ele>
        <time>2013-02-08T12:42:05Z</time>
      </trkpt>
      <trkpt lat="45.70865" lon="3.04126">
        <ele>801</ele>
        <time>2013-02-08T12:42:05Z</time>
      </trkpt>
      <trkpt lat="45.70866" lon="3.0413">
        <ele>801</ele>
        <time>2013-02-08T12:42:05Z</time>
      </trkpt>
      <trkpt lat="45.70867" lon="3.04133">
        <ele>800</ele>
        <time>2013-02-08T12:42:05Z</time>
      </trkpt>
      <trkpt lat="45.70868" lon="3.04137">
        <ele>800</ele>
        <time>2013-02-08T12:42:05Z</time>
      </trkpt>
      <trkpt lat="45.70868" lon="3.0414">
        <ele>800</ele>
        <time>2013-02-08T12:42:05Z</time>
      </trkpt>
      <trkpt lat="45.70868" lon="3.04143">
        <ele>800</ele>
        <time>2013-02-08T12:42:05Z</time>
      </trkpt>
      <trkpt lat="45.70869" lon="3.04147">
        <ele>800</ele>
        <time>2013-02-08T12:42:05Z</time>
      </trkpt>
      <trkpt lat="45.70869" lon="3.0415">
        <ele>800</ele>
        <time>2013-02-08T12:42:05Z</time>
      </trkpt>
      <trkpt lat="45.7087" lon="3.04153">
        <ele>800</ele>
        <time>2013-02-08T12:42:05Z</time>
      </trkpt>
      <trkpt lat="45.70871" lon="3.04156">
        <ele>800</ele>
        <time>2013-02-08T12:42:05Z</time>
      </trkpt>
      <trkpt lat="45.70872" lon="3.0416">
        <ele>800</ele>
        <time>2013-02-08T12:42:05Z</time>
      </trkpt>
      <trkpt lat="45.70873" lon="3.04164">
        <ele>800</ele>
        <time>2013-02-08T12:42:05Z</time>
      </trkpt>
      <trkpt lat="45.70875" lon="3.04167">
        <ele>797</ele>
        <time>2013-02-08T12:42:05Z</time>
      </trkpt>
      <trkpt lat="45.70875" lon="3.04171">
        <ele>797</ele>
        <time>2013-02-08T12:42:05Z</time>
      </trkpt>
      <trkpt lat="45.70876" lon="3.04174">
        <ele>797</ele>
        <time>2013-02-08T12:42:05Z</time>
      </trkpt>
      <trkpt lat="45.70875" lon="3.04178">
        <ele>797</ele>
        <time>2013-02-08T12:42:05Z</time>
      </trkpt>
      <trkpt lat="45.70875" lon="3.04182">
        <ele>797</ele>
        <time>2013-02-08T12:42:05Z</time>
      </trkpt>
      <trkpt lat="45.70876" lon="3.04185">
        <ele>797</ele>
        <time>2013-02-08T12:42:05Z</time>
      </trkpt>
      <trkpt lat="45.70876" lon="3.04188">
        <ele>797</ele>
        <time>2013-02-08T12:42:05Z</time>
      </trkpt>
      <trkpt lat="45.70877" lon="3.04192">
        <ele>797</ele>
        <time>2013-02-08T12:42:05Z</time>
      </trkpt>
      <trkpt lat="45.70879" lon="3.04195">
        <ele>797</ele>
        <time>2013-02-08T12:42:05Z</time>
      </trkpt>
      <trkpt lat="45.7088" lon="3.04198">
        <ele>797</ele>
        <time>2013-02-08T12:42:05Z</time>
      </trkpt>
      <trkpt lat="45.70882" lon="3.04201">
        <ele>797</ele>
        <time>2013-02-08T12:42:05Z</time>
      </trkpt>
      <trkpt lat="45.70883" lon="3.04204">
        <ele>797</ele>
        <time>2013-02-08T12:42:05Z</time>
      </trkpt>
      <trkpt lat="45.70883" lon="3.04207">
        <ele>797</ele>
        <time>2013-02-08T12:42:05Z</time>
      </trkpt>
      <trkpt lat="45.70884" lon="3.0421">
        <ele>797</ele>
        <time>2013-02-08T12:42:05Z</time>
      </trkpt>
      <trkpt lat="45.70885" lon="3.04213">
        <ele>797</ele>
        <time>2013-02-08T12:42:05Z</time>
      </trkpt>
      <trkpt lat="45.70885" lon="3.04217">
        <ele>797</ele>
        <time>2013-02-08T12:42:05Z</time>
      </trkpt>
      <trkpt lat="45.70886" lon="3.04221">
        <ele>797</ele>
        <time>2013-02-08T12:42:05Z</time>
      </trkpt>
      <trkpt lat="45.70886" lon="3.04225">
        <ele>797</ele>
        <time>2013-02-08T12:42:05Z</time>
      </trkpt>
      <trkpt lat="45.70887" lon="3.04229">
        <ele>796</ele>
        <time>2013-02-08T12:42:05Z</time>
      </trkpt>
      <trkpt lat="45.70887" lon="3.04232">
        <ele>796</ele>
        <time>2013-02-08T12:42:05Z</time>
      </trkpt>
      <trkpt lat="45.70888" lon="3.04235">
        <ele>796</ele>
        <time>2013-02-08T12:42:05Z</time>
      </trkpt>
      <trkpt lat="45.70889" lon="3.04239">
        <ele>796</ele>
        <time>2013-02-08T12:42:05Z</time>
      </trkpt>
      <trkpt lat="45.70889" lon="3.04242">
        <ele>796</ele>
        <time>2013-02-08T12:42:05Z</time>
      </trkpt>
      <trkpt lat="45.70889" lon="3.04246">
        <ele>796</ele>
        <time>2013-02-08T12:42:05Z</time>
      </trkpt>
      <trkpt lat="45.7089" lon="3.0425">
        <ele>796</ele>
        <time>2013-02-08T12:42:05Z</time>
      </trkpt>
      <trkpt lat="45.70891" lon="3.04253">
        <ele>794</ele>
        <time>2013-02-08T12:42:05Z</time>
      </trkpt>
      <trkpt lat="45.70892" lon="3.04257">
        <ele>794</ele>
        <time>2013-02-08T12:42:05Z</time>
      </trkpt>
      <trkpt lat="45.70893" lon="3.0426">
        <ele>794</ele>
        <time>2013-02-08T12:42:05Z</time>
      </trkpt>
      <trkpt lat="45.70893" lon="3.04264">
        <ele>794</ele>
        <time>2013-02-08T12:42:05Z</time>
      </trkpt>
      <trkpt lat="45.70895" lon="3.04266">
        <ele>794</ele>
        <time>2013-02-08T12:42:05Z</time>
      </trkpt>
      <trkpt lat="45.70895" lon="3.04269">
        <ele>794</ele>
        <time>2013-02-08T12:42:05Z</time>
      </trkpt>
      <trkpt lat="45.70897" lon="3.04273">
        <ele>794</ele>
        <time>2013-02-08T12:42:05Z</time>
      </trkpt>
      <trkpt lat="45.70898" lon="3.04276">
        <ele>794</ele>
        <time>2013-02-08T12:42:05Z</time>
      </trkpt>
      <trkpt lat="45.70899" lon="3.04279">
        <ele>794</ele>
        <time>2013-02-08T12:42:05Z</time>
      </trkpt>
      <trkpt lat="45.709" lon="3.04283">
        <ele>794</ele>
        <time>2013-02-08T12:42:05Z</time>
      </trkpt>
      <trkpt lat="45.70901" lon="3.04286">
        <ele>794</ele>
        <time>2013-02-08T12:42:05Z</time>
      </trkpt>
      <trkpt lat="45.70902" lon="3.0429">
        <ele>793</ele>
        <time>2013-02-08T12:42:05Z</time>
      </trkpt>
      <trkpt lat="45.70902" lon="3.04294">
        <ele>793</ele>
        <time>2013-02-08T12:42:05Z</time>
      </trkpt>
      <trkpt lat="45.70903" lon="3.04297">
        <ele>793</ele>
        <time>2013-02-08T12:42:05Z</time>
      </trkpt>
      <trkpt lat="45.70904" lon="3.04301">
        <ele>793</ele>
        <time>2013-02-08T12:42:05Z</time>
      </trkpt>
      <trkpt lat="45.70905" lon="3.04304">
        <ele>793</ele>
        <time>2013-02-08T12:42:05Z</time>
      </trkpt>
      <trkpt lat="45.70906" lon="3.04307">
        <ele>793</ele>
        <time>2013-02-08T12:42:05Z</time>
      </trkpt>
      <trkpt lat="45.70907" lon="3.0431">
        <ele>793</ele>
        <time>2013-02-08T12:42:05Z</time>
      </trkpt>
      <trkpt lat="45.70908" lon="3.04313">
        <ele>793</ele>
        <time>2013-02-08T12:42:05Z</time>
      </trkpt>
      <trkpt lat="45.70909" lon="3.04317">
        <ele>793</ele>
        <time>2013-02-08T12:42:05Z</time>
      </trkpt>
      <trkpt lat="45.7091" lon="3.0432">
        <ele>793</ele>
        <time>2013-02-08T12:42:05Z</time>
      </trkpt>
      <trkpt lat="45.70911" lon="3.04323">
        <ele>793</ele>
        <time>2013-02-08T12:42:05Z</time>
      </trkpt>
      <trkpt lat="45.70911" lon="3.04327">
        <ele>793</ele>
        <time>2013-02-08T12:42:05Z</time>
      </trkpt>
      <trkpt lat="45.70912" lon="3.0433">
        <ele>793</ele>
        <time>2013-02-08T12:42:05Z</time>
      </trkpt>
      <trkpt lat="45.70912" lon="3.04333">
        <ele>793</ele>
        <time>2013-02-08T12:42:05Z</time>
      </trkpt>
      <trkpt lat="45.70913" lon="3.04337">
        <ele>793</ele>
        <time>2013-02-08T12:42:05Z</time>
      </trkpt>
      <trkpt lat="45.70915" lon="3.0434">
        <ele>792</ele>
        <time>2013-02-08T12:42:05Z</time>
      </trkpt>
      <trkpt lat="45.70915" lon="3.04344">
        <ele>792</ele>
        <time>2013-02-08T12:42:05Z</time>
      </trkpt>
      <trkpt lat="45.70916" lon="3.04348">
        <ele>792</ele>
        <time>2013-02-08T12:42:05Z</time>
      </trkpt>
      <trkpt lat="45.70917" lon="3.04351">
        <ele>794</ele>
        <time>2013-02-08T12:42:05Z</time>
      </trkpt>
      <trkpt lat="45.70918" lon="3.04355">
        <ele>794</ele>
        <time>2013-02-08T12:42:05Z</time>
      </trkpt>
      <trkpt lat="45.7092" lon="3.04358">
        <ele>794</ele>
        <time>2013-02-08T12:42:05Z</time>
      </trkpt>
      <trkpt lat="45.70921" lon="3.04362">
        <ele>794</ele>
        <time>2013-02-08T12:42:05Z</time>
      </trkpt>
      <trkpt lat="45.70922" lon="3.04365">
        <ele>794</ele>
        <time>2013-02-08T12:42:05Z</time>
      </trkpt>
      <trkpt lat="45.70923" lon="3.04369">
        <ele>794</ele>
        <time>2013-02-08T12:42:05Z</time>
      </trkpt>
      <trkpt lat="45.70924" lon="3.04372">
        <ele>794</ele>
        <time>2013-02-08T12:42:05Z</time>
      </trkpt>
      <trkpt lat="45.70925" lon="3.04376">
        <ele>794</ele>
        <time>2013-02-08T12:42:05Z</time>
      </trkpt>
      <trkpt lat="45.70926" lon="3.04379">
        <ele>794</ele>
        <time>2013-02-08T12:42:05Z</time>
      </trkpt>
      <trkpt lat="45.70927" lon="3.04383">
        <ele>794</ele>
        <time>2013-02-08T12:42:05Z</time>
      </trkpt>
      <trkpt lat="45.70928" lon="3.04386">
        <ele>793</ele>
        <time>2013-02-08T12:42:05Z</time>
      </trkpt>
      <trkpt lat="45.70929" lon="3.04389">
        <ele>793</ele>
        <time>2013-02-08T12:42:05Z</time>
      </trkpt>
      <trkpt lat="45.7093" lon="3.04393">
        <ele>793</ele>
        <time>2013-02-08T12:42:05Z</time>
      </trkpt>
      <trkpt lat="45.70932" lon="3.04396">
        <ele>793</ele>
        <time>2013-02-08T12:42:05Z</time>
      </trkpt>
      <trkpt lat="45.70933" lon="3.04399">
        <ele>793</ele>
        <time>2013-02-08T12:42:05Z</time>
      </trkpt>
      <trkpt lat="45.70934" lon="3.04402">
        <ele>793</ele>
        <time>2013-02-08T12:42:05Z</time>
      </trkpt>
      <trkpt lat="45.70935" lon="3.04405">
        <ele>793</ele>
        <time>2013-02-08T12:42:05Z</time>
      </trkpt>
      <trkpt lat="45.70936" lon="3.04408">
        <ele>793</ele>
        <time>2013-02-08T12:42:05Z</time>
      </trkpt>
      <trkpt lat="45.70937" lon="3.04412">
        <ele>793</ele>
        <time>2013-02-08T12:42:05Z</time>
      </trkpt>
      <trkpt lat="45.70938" lon="3.04415">
        <ele>793</ele>
        <time>2013-02-08T12:42:05Z</time>
      </trkpt>
      <trkpt lat="45.7094" lon="3.04418">
        <ele>792</ele>
        <time>2013-02-08T12:42:05Z</time>
      </trkpt>
      <trkpt lat="45.70941" lon="3.04421">
        <ele>792</ele>
        <time>2013-02-08T12:42:05Z</time>
      </trkpt>
      <trkpt lat="45.70942" lon="3.04425">
        <ele>792</ele>
        <time>2013-02-08T12:42:05Z</time>
      </trkpt>
      <trkpt lat="45.70943" lon="3.04428">
        <ele>792</ele>
        <time>2013-02-08T12:42:05Z</time>
      </trkpt>
      <trkpt lat="45.70944" lon="3.04431">
        <ele>792</ele>
        <time>2013-02-08T12:42:05Z</time>
      </trkpt>
      <trkpt lat="45.70945" lon="3.04435">
        <ele>792</ele>
        <time>2013-02-08T12:42:05Z</time>
      </trkpt>
      <trkpt lat="45.70946" lon="3.04438">
        <ele>792</ele>
        <time>2013-02-08T12:42:05Z</time>
      </trkpt>
      <trkpt lat="45.70947" lon="3.04441">
        <ele>792</ele>
        <time>2013-02-08T12:42:05Z</time>
      </trkpt>
      <trkpt lat="45.70948" lon="3.04445">
        <ele>792</ele>
        <time>2013-02-08T12:42:05Z</time>
      </trkpt>
      <trkpt lat="45.70949" lon="3.04448">
        <ele>792</ele>
        <time>2013-02-08T12:42:05Z</time>
      </trkpt>
      <trkpt lat="45.7095" lon="3.04451">
        <ele>792</ele>
        <time>2013-02-08T12:42:05Z</time>
      </trkpt>
      <trkpt lat="45.70951" lon="3.04454">
        <ele>792</ele>
        <time>2013-02-08T12:42:05Z</time>
      </trkpt>
      <trkpt lat="45.70952" lon="3.04457">
        <ele>792</ele>
        <time>2013-02-08T12:42:05Z</time>
      </trkpt>
      <trkpt lat="45.70954" lon="3.04461">
        <ele>792</ele>
        <time>2013-02-08T12:42:05Z</time>
      </trkpt>
      <trkpt lat="45.70955" lon="3.04464">
        <ele>792</ele>
        <time>2013-02-08T12:42:05Z</time>
      </trkpt>
      <trkpt lat="45.70956" lon="3.04467">
        <ele>792</ele>
        <time>2013-02-08T12:42:05Z</time>
      </trkpt>
      <trkpt lat="45.70957" lon="3.0447">
        <ele>792</ele>
        <time>2013-02-08T12:42:05Z</time>
      </trkpt>
      <trkpt lat="45.70958" lon="3.04473">
        <ele>792</ele>
        <time>2013-02-08T12:42:05Z</time>
      </trkpt>
      <trkpt lat="45.70959" lon="3.04476">
        <ele>792</ele>
        <time>2013-02-08T12:42:05Z</time>
      </trkpt>
      <trkpt lat="45.7096" lon="3.0448">
        <ele>792</ele>
        <time>2013-02-08T12:42:05Z</time>
      </trkpt>
      <trkpt lat="45.70961" lon="3.04483">
        <ele>792</ele>
        <time>2013-02-08T12:42:05Z</time>
      </trkpt>
      <trkpt lat="45.70962" lon="3.04486">
        <ele>792</ele>
        <time>2013-02-08T12:42:05Z</time>
      </trkpt>
      <trkpt lat="45.70964" lon="3.0449">
        <ele>792</ele>
        <time>2013-02-08T12:42:05Z</time>
      </trkpt>
      <trkpt lat="45.70965" lon="3.04493">
        <ele>792</ele>
        <time>2013-02-08T12:42:05Z</time>
      </trkpt>
      <trkpt lat="45.70966" lon="3.04496">
        <ele>792</ele>
        <time>2013-02-08T12:42:05Z</time>
      </trkpt>
      <trkpt lat="45.70967" lon="3.04498">
        <ele>792</ele>
        <time>2013-02-08T12:42:05Z</time>
      </trkpt>
      <trkpt lat="45.70968" lon="3.04501">
        <ele>791</ele>
        <time>2013-02-08T12:42:05Z</time>
      </trkpt>
      <trkpt lat="45.70969" lon="3.04504">
        <ele>791</ele>
        <time>2013-02-08T12:42:05Z</time>
      </trkpt>
      <trkpt lat="45.7097" lon="3.04508">
        <ele>791</ele>
        <time>2013-02-08T12:42:05Z</time>
      </trkpt>
      <trkpt lat="45.70972" lon="3.04511">
        <ele>791</ele>
        <time>2013-02-08T12:42:05Z</time>
      </trkpt>
      <trkpt lat="45.70972" lon="3.04513">
        <ele>791</ele>
        <time>2013-02-08T12:42:05Z</time>
      </trkpt>
      <trkpt lat="45.70973" lon="3.04517">
        <ele>791</ele>
        <time>2013-02-08T12:42:05Z</time>
      </trkpt>
      <trkpt lat="45.70974" lon="3.0452">
        <ele>791</ele>
        <time>2013-02-08T12:42:05Z</time>
      </trkpt>
      <trkpt lat="45.70975" lon="3.04524">
        <ele>791</ele>
        <time>2013-02-08T12:42:05Z</time>
      </trkpt>
      <trkpt lat="45.70976" lon="3.04527">
        <ele>791</ele>
        <time>2013-02-08T12:42:05Z</time>
      </trkpt>
      <trkpt lat="45.70978" lon="3.0453">
        <ele>790</ele>
        <time>2013-02-08T12:42:05Z</time>
      </trkpt>
      <trkpt lat="45.70978" lon="3.04534">
        <ele>790</ele>
        <time>2013-02-08T12:42:05Z</time>
      </trkpt>
      <trkpt lat="45.7098" lon="3.04537">
        <ele>790</ele>
        <time>2013-02-08T12:42:05Z</time>
      </trkpt>
      <trkpt lat="45.70981" lon="3.0454">
        <ele>790</ele>
        <time>2013-02-08T12:42:05Z</time>
      </trkpt>
      <trkpt lat="45.70982" lon="3.04544">
        <ele>790</ele>
        <time>2013-02-08T12:42:05Z</time>
      </trkpt>
      <trkpt lat="45.70983" lon="3.04547">
        <ele>790</ele>
        <time>2013-02-08T12:42:05Z</time>
      </trkpt>
      <trkpt lat="45.70984" lon="3.0455">
        <ele>790</ele>
        <time>2013-02-08T12:42:05Z</time>
      </trkpt>
      <trkpt lat="45.70985" lon="3.04554">
        <ele>790</ele>
        <time>2013-02-08T12:42:05Z</time>
      </trkpt>
      <trkpt lat="45.70986" lon="3.04557">
        <ele>790</ele>
        <time>2013-02-08T12:42:05Z</time>
      </trkpt>
      <trkpt lat="45.70987" lon="3.04561">
        <ele>790</ele>
        <time>2013-02-08T12:42:05Z</time>
      </trkpt>
      <trkpt lat="45.70988" lon="3.04564">
        <ele>790</ele>
        <time>2013-02-08T12:42:05Z</time>
      </trkpt>
      <trkpt lat="45.70989" lon="3.04568">
        <ele>790</ele>
        <time>2013-02-08T12:42:05Z</time>
      </trkpt>
      <trkpt lat="45.7099" lon="3.04571">
        <ele>790</ele>
        <time>2013-02-08T12:42:05Z</time>
      </trkpt>
      <trkpt lat="45.70991" lon="3.04574">
        <ele>790</ele>
        <time>2013-02-08T12:42:05Z</time>
      </trkpt>
      <trkpt lat="45.70992" lon="3.04578">
        <ele>790</ele>
        <time>2013-02-08T12:42:05Z</time>
      </trkpt>
      <trkpt lat="45.70993" lon="3.04581">
        <ele>789</ele>
        <time>2013-02-08T12:42:05Z</time>
      </trkpt>
      <trkpt lat="45.70994" lon="3.04584">
        <ele>790</ele>
        <time>2013-02-08T12:42:05Z</time>
      </trkpt>
      <trkpt lat="45.70996" lon="3.04587">
        <ele>790</ele>
        <time>2013-02-08T12:42:05Z</time>
      </trkpt>
      <trkpt lat="45.70997" lon="3.04591">
        <ele>790</ele>
        <time>2013-02-08T12:42:05Z</time>
      </trkpt>
      <trkpt lat="45.70998" lon="3.04594">
        <ele>790</ele>
        <time>2013-02-08T12:42:05Z</time>
      </trkpt>
      <trkpt lat="45.70999" lon="3.04597">
        <ele>790</ele>
        <time>2013-02-08T12:42:05Z</time>
      </trkpt>
      <trkpt lat="45.71" lon="3.046">
        <ele>789</ele>
        <time>2013-02-08T12:42:05Z</time>
      </trkpt>
      <trkpt lat="45.71001" lon="3.04604">
        <ele>789</ele>
        <time>2013-02-08T12:42:05Z</time>
      </trkpt>
      <trkpt lat="45.71002" lon="3.04607">
        <ele>789</ele>
        <time>2013-02-08T12:42:05Z</time>
      </trkpt>
      <trkpt lat="45.71003" lon="3.04611">
        <ele>789</ele>
        <time>2013-02-08T12:42:05Z</time>
      </trkpt>
      <trkpt lat="45.71004" lon="3.04614">
        <ele>789</ele>
        <time>2013-02-08T12:42:05Z</time>
      </trkpt>
      <trkpt lat="45.71005" lon="3.04617">
        <ele>789</ele>
        <time>2013-02-08T12:42:05Z</time>
      </trkpt>
      <trkpt lat="45.71006" lon="3.0462">
        <ele>789</ele>
        <time>2013-02-08T12:42:05Z</time>
      </trkpt>
      <trkpt lat="45.71007" lon="3.04624">
        <ele>789</ele>
        <time>2013-02-08T12:42:05Z</time>
      </trkpt>
      <trkpt lat="45.71007" lon="3.04628">
        <ele>789</ele>
        <time>2013-02-08T12:42:05Z</time>
      </trkpt>
      <trkpt lat="45.71008" lon="3.04632">
        <ele>789</ele>
        <time>2013-02-08T12:42:05Z</time>
      </trkpt>
      <trkpt lat="45.71008" lon="3.04636">
        <ele>789</ele>
        <time>2013-02-08T12:42:05Z</time>
      </trkpt>
      <trkpt lat="45.71009" lon="3.0464">
        <ele>789</ele>
        <time>2013-02-08T12:42:05Z</time>
      </trkpt>
      <trkpt lat="45.7101" lon="3.04643">
        <ele>789</ele>
        <time>2013-02-08T12:42:05Z</time>
      </trkpt>
      <trkpt lat="45.71011" lon="3.04647">
        <ele>789</ele>
        <time>2013-02-08T12:42:05Z</time>
      </trkpt>
      <trkpt lat="45.71012" lon="3.0465">
        <ele>789</ele>
        <time>2013-02-08T12:42:05Z</time>
      </trkpt>
      <trkpt lat="45.71013" lon="3.04654">
        <ele>789</ele>
        <time>2013-02-08T12:42:05Z</time>
      </trkpt>
      <trkpt lat="45.71014" lon="3.04657">
        <ele>789</ele>
        <time>2013-02-08T12:42:05Z</time>
      </trkpt>
      <trkpt lat="45.71015" lon="3.04661">
        <ele>790</ele>
        <time>2013-02-08T12:42:05Z</time>
      </trkpt>
      <trkpt lat="45.71016" lon="3.04664">
        <ele>790</ele>
        <time>2013-02-08T12:42:05Z</time>
      </trkpt>
      <trkpt lat="45.71017" lon="3.04667">
        <ele>790</ele>
        <time>2013-02-08T12:42:05Z</time>
      </trkpt>
      <trkpt lat="45.71017" lon="3.0467">
        <ele>790</ele>
        <time>2013-02-08T12:42:05Z</time>
      </trkpt>
      <trkpt lat="45.71018" lon="3.04673">
        <ele>790</ele>
        <time>2013-02-08T12:42:05Z</time>
      </trkpt>
      <trkpt lat="45.71018" lon="3.04676">
        <ele>790</ele>
        <time>2013-02-08T12:42:05Z</time>
      </trkpt>
      <trkpt lat="45.71019" lon="3.0468">
        <ele>790</ele>
        <time>2013-02-08T12:42:05Z</time>
      </trkpt>
      <trkpt lat="45.7102" lon="3.04684">
        <ele>790</ele>
        <time>2013-02-08T12:42:05Z</time>
      </trkpt>
      <trkpt lat="45.71021" lon="3.04687">
        <ele>790</ele>
        <time>2013-02-08T12:42:05Z</time>
      </trkpt>
      <trkpt lat="45.71021" lon="3.0469">
        <ele>790</ele>
        <time>2013-02-08T12:42:05Z</time>
      </trkpt>
      <trkpt lat="45.71022" lon="3.04693">
        <ele>790</ele>
        <time>2013-02-08T12:42:05Z</time>
      </trkpt>
      <trkpt lat="45.71023" lon="3.04696">
        <ele>790</ele>
        <time>2013-02-08T12:42:05Z</time>
      </trkpt>
      <trkpt lat="45.71025" lon="3.047">
        <ele>790</ele>
        <time>2013-02-08T12:42:05Z</time>
      </trkpt>
      <trkpt lat="45.71025" lon="3.04703">
        <ele>790</ele>
        <time>2013-02-08T12:42:05Z</time>
      </trkpt>
      <trkpt lat="45.71026" lon="3.04706">
        <ele>790</ele>
        <time>2013-02-08T12:42:05Z</time>
      </trkpt>
      <trkpt lat="45.71026" lon="3.0471">
        <ele>790</ele>
        <time>2013-02-08T12:42:05Z</time>
      </trkpt>
      <trkpt lat="45.71026" lon="3.04713">
        <ele>790</ele>
        <time>2013-02-08T12:42:05Z</time>
      </trkpt>
      <trkpt lat="45.71028" lon="3.04716">
        <ele>790</ele>
        <time>2013-02-08T12:42:05Z</time>
      </trkpt>
      <trkpt lat="45.71029" lon="3.0472">
        <ele>790</ele>
        <time>2013-02-08T12:42:05Z</time>
      </trkpt>
      <trkpt lat="45.71029" lon="3.04723">
        <ele>790</ele>
        <time>2013-02-08T12:42:05Z</time>
      </trkpt>
      <trkpt lat="45.7103" lon="3.04726">
        <ele>790</ele>
        <time>2013-02-08T12:42:05Z</time>
      </trkpt>
      <trkpt lat="45.71031" lon="3.0473">
        <ele>790</ele>
        <time>2013-02-08T12:42:05Z</time>
      </trkpt>
      <trkpt lat="45.71032" lon="3.04732">
        <ele>790</ele>
        <time>2013-02-08T12:42:05Z</time>
      </trkpt>
      <trkpt lat="45.71032" lon="3.04736">
        <ele>790</ele>
        <time>2013-02-08T12:42:05Z</time>
      </trkpt>
      <trkpt lat="45.71033" lon="3.04739">
        <ele>790</ele>
        <time>2013-02-08T12:42:05Z</time>
      </trkpt>
      <trkpt lat="45.71033" lon="3.04743">
        <ele>790</ele>
        <time>2013-02-08T12:42:05Z</time>
      </trkpt>
      <trkpt lat="45.71033" lon="3.04746">
        <ele>790</ele>
        <time>2013-02-08T12:42:05Z</time>
      </trkpt>
      <trkpt lat="45.71033" lon="3.04751">
        <ele>790</ele>
        <time>2013-02-08T12:42:05Z</time>
      </trkpt>
      <trkpt lat="45.71033" lon="3.04754">
        <ele>790</ele>
        <time>2013-02-08T12:42:05Z</time>
      </trkpt>
      <trkpt lat="45.71034" lon="3.04757">
        <ele>790</ele>
        <time>2013-02-08T12:42:05Z</time>
      </trkpt>
      <trkpt lat="45.71034" lon="3.0476">
        <ele>790</ele>
        <time>2013-02-08T12:42:05Z</time>
      </trkpt>
      <trkpt lat="45.71035" lon="3.04764">
        <ele>790</ele>
        <time>2013-02-08T12:42:05Z</time>
      </trkpt>
      <trkpt lat="45.71035" lon="3.04768">
        <ele>790</ele>
        <time>2013-02-08T12:42:05Z</time>
      </trkpt>
      <trkpt lat="45.71036" lon="3.04771">
        <ele>790</ele>
        <time>2013-02-08T12:42:05Z</time>
      </trkpt>
      <trkpt lat="45.71038" lon="3.04775">
        <ele>790</ele>
        <time>2013-02-08T12:42:05Z</time>
      </trkpt>
      <trkpt lat="45.7104" lon="3.04778">
        <ele>790</ele>
        <time>2013-02-08T12:42:05Z</time>
      </trkpt>
      <trkpt lat="45.71042" lon="3.0478">
        <ele>789</ele>
        <time>2013-02-08T12:42:05Z</time>
      </trkpt>
      <trkpt lat="45.71043" lon="3.04784">
        <ele>789</ele>
        <time>2013-02-08T12:42:05Z</time>
      </trkpt>
      <trkpt lat="45.71045" lon="3.04787">
        <ele>789</ele>
        <time>2013-02-08T12:42:05Z</time>
      </trkpt>
      <trkpt lat="45.71045" lon="3.04792">
        <ele>789</ele>
        <time>2013-02-08T12:42:05Z</time>
      </trkpt>
      <trkpt lat="45.71046" lon="3.04795">
        <ele>789</ele>
        <time>2013-02-08T12:42:05Z</time>
      </trkpt>
      <trkpt lat="45.71047" lon="3.04798">
        <ele>789</ele>
        <time>2013-02-08T12:42:05Z</time>
      </trkpt>
      <trkpt lat="45.71048" lon="3.04801">
        <ele>789</ele>
        <time>2013-02-08T12:42:05Z</time>
      </trkpt>
      <trkpt lat="45.71048" lon="3.04804">
        <ele>789</ele>
        <time>2013-02-08T12:42:05Z</time>
      </trkpt>
      <trkpt lat="45.71047" lon="3.04808">
        <ele>789</ele>
        <time>2013-02-08T12:42:05Z</time>
      </trkpt>
      <trkpt lat="45.71047" lon="3.04812">
        <ele>789</ele>
        <time>2013-02-08T12:42:05Z</time>
      </trkpt>
      <trkpt lat="45.71046" lon="3.04815">
        <ele>789</ele>
        <time>2013-02-08T12:42:05Z</time>
      </trkpt>
      <trkpt lat="45.71046" lon="3.04818">
        <ele>789</ele>
        <time>2013-02-08T12:42:05Z</time>
      </trkpt>
      <trkpt lat="45.71046" lon="3.04821">
        <ele>789</ele>
        <time>2013-02-08T12:42:05Z</time>
      </trkpt>
      <trkpt lat="45.71046" lon="3.04824">
        <ele>789</ele>
        <time>2013-02-08T12:42:05Z</time>
      </trkpt>
      <trkpt lat="45.71046" lon="3.04829">
        <ele>789</ele>
        <time>2013-02-08T12:42:05Z</time>
      </trkpt>
      <trkpt lat="45.71046" lon="3.04832">
        <ele>789</ele>
        <time>2013-02-08T12:42:05Z</time>
      </trkpt>
      <trkpt lat="45.71046" lon="3.04836">
        <ele>786</ele>
        <time>2013-02-08T12:42:05Z</time>
      </trkpt>
      <trkpt lat="45.71046" lon="3.04839">
        <ele>786</ele>
        <time>2013-02-08T12:42:05Z</time>
      </trkpt>
      <trkpt lat="45.71046" lon="3.04842">
        <ele>786</ele>
        <time>2013-02-08T12:42:05Z</time>
      </trkpt>
      <trkpt lat="45.71045" lon="3.04845">
        <ele>786</ele>
        <time>2013-02-08T12:42:05Z</time>
      </trkpt>
      <trkpt lat="45.71045" lon="3.04849">
        <ele>786</ele>
        <time>2013-02-08T12:42:05Z</time>
      </trkpt>
      <trkpt lat="45.71044" lon="3.04852">
        <ele>785</ele>
        <time>2013-02-08T12:42:05Z</time>
      </trkpt>
      <trkpt lat="45.71043" lon="3.04856">
        <ele>785</ele>
        <time>2013-02-08T12:42:05Z</time>
      </trkpt>
      <trkpt lat="45.71042" lon="3.0486">
        <ele>785</ele>
        <time>2013-02-08T12:42:05Z</time>
      </trkpt>
      <trkpt lat="45.71042" lon="3.04863">
        <ele>785</ele>
        <time>2013-02-08T12:42:05Z</time>
      </trkpt>
      <trkpt lat="45.71042" lon="3.04867">
        <ele>785</ele>
        <time>2013-02-08T12:42:05Z</time>
      </trkpt>
      <trkpt lat="45.71041" lon="3.04872">
        <ele>785</ele>
        <time>2013-02-08T12:42:05Z</time>
      </trkpt>
      <trkpt lat="45.71041" lon="3.04875">
        <ele>785</ele>
        <time>2013-02-08T12:42:05Z</time>
      </trkpt>
      <trkpt lat="45.71041" lon="3.04878">
        <ele>785</ele>
        <time>2013-02-08T12:42:05Z</time>
      </trkpt>
      <trkpt lat="45.7104" lon="3.04882">
        <ele>785</ele>
        <time>2013-02-08T12:42:05Z</time>
      </trkpt>
      <trkpt lat="45.7104" lon="3.04886">
        <ele>784</ele>
        <time>2013-02-08T12:42:05Z</time>
      </trkpt>
      <trkpt lat="45.71039" lon="3.04889">
        <ele>784</ele>
        <time>2013-02-08T12:42:05Z</time>
      </trkpt>
      <trkpt lat="45.71039" lon="3.04891">
        <ele>784</ele>
        <time>2013-02-08T12:42:05Z</time>
      </trkpt>
      <trkpt lat="45.71038" lon="3.04895">
        <ele>784</ele>
        <time>2013-02-08T12:42:05Z</time>
      </trkpt>
      <trkpt lat="45.71037" lon="3.04899">
        <ele>784</ele>
        <time>2013-02-08T12:42:05Z</time>
      </trkpt>
      <trkpt lat="45.71036" lon="3.04903">
        <ele>784</ele>
        <time>2013-02-08T12:42:05Z</time>
      </trkpt>
      <trkpt lat="45.71036" lon="3.04906">
        <ele>784</ele>
        <time>2013-02-08T12:42:05Z</time>
      </trkpt>
      <trkpt lat="45.71037" lon="3.04909">
        <ele>784</ele>
        <time>2013-02-08T12:42:05Z</time>
      </trkpt>
      <trkpt lat="45.71038" lon="3.04912">
        <ele>784</ele>
        <time>2013-02-08T12:42:05Z</time>
      </trkpt>
      <trkpt lat="45.71039" lon="3.04916">
        <ele>784</ele>
        <time>2013-02-08T12:42:05Z</time>
      </trkpt>
      <trkpt lat="45.71038" lon="3.0492">
        <ele>780</ele>
        <time>2013-02-08T12:42:05Z</time>
      </trkpt>
      <trkpt lat="45.71036" lon="3.04924">
        <ele>780</ele>
        <time>2013-02-08T12:42:05Z</time>
      </trkpt>
      <trkpt lat="45.71035" lon="3.04927">
        <ele>780</ele>
        <time>2013-02-08T12:42:05Z</time>
      </trkpt>
      <trkpt lat="45.71035" lon="3.04929">
        <ele>780</ele>
        <time>2013-02-08T12:42:05Z</time>
      </trkpt>
      <trkpt lat="45.71035" lon="3.04932">
        <ele>780</ele>
        <time>2013-02-08T12:42:05Z</time>
      </trkpt>
      <trkpt lat="45.71034" lon="3.04937">
        <ele>780</ele>
        <time>2013-02-08T12:42:05Z</time>
      </trkpt>
      <trkpt lat="45.71033" lon="3.04941">
        <ele>780</ele>
        <time>2013-02-08T12:42:05Z</time>
      </trkpt>
      <trkpt lat="45.71033" lon="3.04944">
        <ele>779</ele>
        <time>2013-02-08T12:42:05Z</time>
      </trkpt>
      <trkpt lat="45.71033" lon="3.04947">
        <ele>779</ele>
        <time>2013-02-08T12:42:05Z</time>
      </trkpt>
      <trkpt lat="45.71032" lon="3.0495">
        <ele>779</ele>
        <time>2013-02-08T12:42:05Z</time>
      </trkpt>
      <trkpt lat="45.71031" lon="3.04954">
        <ele>779</ele>
        <time>2013-02-08T12:42:05Z</time>
      </trkpt>
      <trkpt lat="45.7103" lon="3.04958">
        <ele>779</ele>
        <time>2013-02-08T12:42:05Z</time>
      </trkpt>
      <trkpt lat="45.71029" lon="3.04961">
        <ele>779</ele>
        <time>2013-02-08T12:42:05Z</time>
      </trkpt>
      <trkpt lat="45.71029" lon="3.04965">
        <ele>779</ele>
        <time>2013-02-08T12:42:05Z</time>
      </trkpt>
      <trkpt lat="45.71029" lon="3.04968">
        <ele>779</ele>
        <time>2013-02-08T12:42:05Z</time>
      </trkpt>
      <trkpt lat="45.71028" lon="3.04971">
        <ele>779</ele>
        <time>2013-02-08T12:42:05Z</time>
      </trkpt>
      <trkpt lat="45.71027" lon="3.04975">
        <ele>779</ele>
        <time>2013-02-08T12:42:05Z</time>
      </trkpt>
      <trkpt lat="45.71027" lon="3.04978">
        <ele>779</ele>
        <time>2013-02-08T12:42:05Z</time>
      </trkpt>
      <trkpt lat="45.71026" lon="3.04982">
        <ele>779</ele>
        <time>2013-02-08T12:42:05Z</time>
      </trkpt>
      <trkpt lat="45.71026" lon="3.04986">
        <ele>779</ele>
        <time>2013-02-08T12:42:05Z</time>
      </trkpt>
      <trkpt lat="45.71025" lon="3.04989">
        <ele>779</ele>
        <time>2013-02-08T12:42:05Z</time>
      </trkpt>
      <trkpt lat="45.71024" lon="3.04993">
        <ele>779</ele>
        <time>2013-02-08T12:42:05Z</time>
      </trkpt>
      <trkpt lat="45.71023" lon="3.04998">
        <ele>779</ele>
        <time>2013-02-08T12:42:05Z</time>
      </trkpt>
      <trkpt lat="45.71021" lon="3.05002">
        <ele>776</ele>
        <time>2013-02-08T12:42:05Z</time>
      </trkpt>
      <trkpt lat="45.7102" lon="3.05006">
        <ele>776</ele>
        <time>2013-02-08T12:42:05Z</time>
      </trkpt>
      <trkpt lat="45.71019" lon="3.05009">
        <ele>776</ele>
        <time>2013-02-08T12:42:05Z</time>
      </trkpt>
      <trkpt lat="45.71018" lon="3.05012">
        <ele>776</ele>
        <time>2013-02-08T12:42:05Z</time>
      </trkpt>
      <trkpt lat="45.71017" lon="3.05016">
        <ele>776</ele>
        <time>2013-02-08T12:42:05Z</time>
      </trkpt>
      <trkpt lat="45.71017" lon="3.05018">
        <ele>776</ele>
        <time>2013-02-08T12:42:05Z</time>
      </trkpt>
      <trkpt lat="45.71016" lon="3.05021">
        <ele>776</ele>
        <time>2013-02-08T12:42:05Z</time>
      </trkpt>
      <trkpt lat="45.71015" lon="3.05024">
        <ele>776</ele>
        <time>2013-02-08T12:42:05Z</time>
      </trkpt>
      <trkpt lat="45.71013" lon="3.05026">
        <ele>776</ele>
        <time>2013-02-08T12:42:05Z</time>
      </trkpt>
      <trkpt lat="45.71012" lon="3.05028">
        <ele>776</ele>
        <time>2013-02-08T12:42:05Z</time>
      </trkpt>
      <trkpt lat="45.7101" lon="3.05032">
        <ele>776</ele>
        <time>2013-02-08T12:42:05Z</time>
      </trkpt>
      <trkpt lat="45.71008" lon="3.05034">
        <ele>776</ele>
        <time>2013-02-08T12:42:05Z</time>
      </trkpt>
      <trkpt lat="45.71007" lon="3.05038">
        <ele>775</ele>
        <time>2013-02-08T12:42:05Z</time>
      </trkpt>
      <trkpt lat="45.71005" lon="3.0504">
        <ele>775</ele>
        <time>2013-02-08T12:42:05Z</time>
      </trkpt>
      <trkpt lat="45.71003" lon="3.05043">
        <ele>775</ele>
        <time>2013-02-08T12:42:05Z</time>
      </trkpt>
      <trkpt lat="45.71002" lon="3.05046">
        <ele>775</ele>
        <time>2013-02-08T12:42:05Z</time>
      </trkpt>
      <trkpt lat="45.71001" lon="3.05049">
        <ele>775</ele>
        <time>2013-02-08T12:42:05Z</time>
      </trkpt>
      <trkpt lat="45.70999" lon="3.05052">
        <ele>782</ele>
        <time>2013-02-08T12:42:05Z</time>
      </trkpt>
      <trkpt lat="45.70997" lon="3.05054">
        <ele>782</ele>
        <time>2013-02-08T12:42:05Z</time>
      </trkpt>
      <trkpt lat="45.70995" lon="3.05057">
        <ele>781</ele>
        <time>2013-02-08T12:42:05Z</time>
      </trkpt>
      <trkpt lat="45.70994" lon="3.05059">
        <ele>781</ele>
        <time>2013-02-08T12:42:05Z</time>
      </trkpt>
      <trkpt lat="45.70993" lon="3.05061">
        <ele>781</ele>
        <time>2013-02-08T12:42:05Z</time>
      </trkpt>
      <trkpt lat="45.70992" lon="3.05064">
        <ele>781</ele>
        <time>2013-02-08T12:42:05Z</time>
      </trkpt>
      <trkpt lat="45.7099" lon="3.05067">
        <ele>781</ele>
        <time>2013-02-08T12:42:05Z</time>
      </trkpt>
      <trkpt lat="45.70989" lon="3.0507">
        <ele>780</ele>
        <time>2013-02-08T12:42:05Z</time>
      </trkpt>
      <trkpt lat="45.70987" lon="3.05073">
        <ele>780</ele>
        <time>2013-02-08T12:42:05Z</time>
      </trkpt>
      <trkpt lat="45.70986" lon="3.05076">
        <ele>780</ele>
        <time>2013-02-08T12:42:05Z</time>
      </trkpt>
      <trkpt lat="45.70986" lon="3.05079">
        <ele>780</ele>
        <time>2013-02-08T12:42:05Z</time>
      </trkpt>
      <trkpt lat="45.70985" lon="3.05082">
        <ele>780</ele>
        <time>2013-02-08T12:42:05Z</time>
      </trkpt>
      <trkpt lat="45.70984" lon="3.05085">
        <ele>779</ele>
        <time>2013-02-08T12:42:05Z</time>
      </trkpt>
      <trkpt lat="45.70983" lon="3.05089">
        <ele>779</ele>
        <time>2013-02-08T12:42:05Z</time>
      </trkpt>
      <trkpt lat="45.70981" lon="3.05092">
        <ele>779</ele>
        <time>2013-02-08T12:42:05Z</time>
      </trkpt>
      <trkpt lat="45.70981" lon="3.05095">
        <ele>779</ele>
        <time>2013-02-08T12:42:05Z</time>
      </trkpt>
      <trkpt lat="45.70981" lon="3.05099">
        <ele>779</ele>
        <time>2013-02-08T12:42:05Z</time>
      </trkpt>
      <trkpt lat="45.70981" lon="3.05102">
        <ele>779</ele>
        <time>2013-02-08T12:42:05Z</time>
      </trkpt>
      <trkpt lat="45.7098" lon="3.05106">
        <ele>779</ele>
        <time>2013-02-08T12:42:05Z</time>
      </trkpt>
      <trkpt lat="45.70979" lon="3.0511">
        <ele>779</ele>
        <time>2013-02-08T12:42:05Z</time>
      </trkpt>
      <trkpt lat="45.70979" lon="3.05115">
        <ele>780</ele>
        <time>2013-02-08T12:42:05Z</time>
      </trkpt>
      <trkpt lat="45.70978" lon="3.05119">
        <ele>779</ele>
        <time>2013-02-08T12:42:05Z</time>
      </trkpt>
      <trkpt lat="45.70977" lon="3.05123">
        <ele>779</ele>
        <time>2013-02-08T12:42:05Z</time>
      </trkpt>
      <trkpt lat="45.70977" lon="3.05127">
        <ele>779</ele>
        <time>2013-02-08T12:42:05Z</time>
      </trkpt>
      <trkpt lat="45.70977" lon="3.0513">
        <ele>779</ele>
        <time>2013-02-08T12:42:05Z</time>
      </trkpt>
      <trkpt lat="45.70976" lon="3.05135">
        <ele>779</ele>
        <time>2013-02-08T12:42:05Z</time>
      </trkpt>
      <trkpt lat="45.70976" lon="3.05138">
        <ele>779</ele>
        <time>2013-02-08T12:42:05Z</time>
      </trkpt>
      <trkpt lat="45.70976" lon="3.05141">
        <ele>779</ele>
        <time>2013-02-08T12:42:05Z</time>
      </trkpt>
      <trkpt lat="45.70975" lon="3.05144">
        <ele>779</ele>
        <time>2013-02-08T12:42:05Z</time>
      </trkpt>
      <trkpt lat="45.70975" lon="3.05147">
        <ele>779</ele>
        <time>2013-02-08T12:42:05Z</time>
      </trkpt>
      <trkpt lat="45.70978" lon="3.0515">
        <ele>778</ele>
        <time>2013-02-08T12:42:05Z</time>
      </trkpt>
      <trkpt lat="45.70979" lon="3.05155">
        <ele>778</ele>
        <time>2013-02-08T12:42:05Z</time>
      </trkpt>
      <trkpt lat="45.7098" lon="3.05158">
        <ele>778</ele>
        <time>2013-02-08T12:42:05Z</time>
      </trkpt>
      <trkpt lat="45.70982" lon="3.05161">
        <ele>778</ele>
        <time>2013-02-08T12:42:05Z</time>
      </trkpt>
      <trkpt lat="45.70983" lon="3.05165">
        <ele>777</ele>
        <time>2013-02-08T12:42:05Z</time>
      </trkpt>
      <trkpt lat="45.70983" lon="3.05168">
        <ele>776</ele>
        <time>2013-02-08T12:42:05Z</time>
      </trkpt>
      <trkpt lat="45.70984" lon="3.05172">
        <ele>776</ele>
        <time>2013-02-08T12:42:05Z</time>
      </trkpt>
      <trkpt lat="45.70984" lon="3.05177">
        <ele>776</ele>
        <time>2013-02-08T12:42:05Z</time>
      </trkpt>
      <trkpt lat="45.70986" lon="3.05182">
        <ele>776</ele>
        <time>2013-02-08T12:42:05Z</time>
      </trkpt>
      <trkpt lat="45.70987" lon="3.05185">
        <ele>776</ele>
        <time>2013-02-08T12:42:05Z</time>
      </trkpt>
      <trkpt lat="45.70988" lon="3.05189">
        <ele>776</ele>
        <time>2013-02-08T12:42:05Z</time>
      </trkpt>
      <trkpt lat="45.70988" lon="3.05192">
        <ele>776</ele>
        <time>2013-02-08T12:42:05Z</time>
      </trkpt>
      <trkpt lat="45.70989" lon="3.05196">
        <ele>776</ele>
        <time>2013-02-08T12:42:05Z</time>
      </trkpt>
      <trkpt lat="45.7099" lon="3.052">
        <ele>777</ele>
        <time>2013-02-08T12:42:05Z</time>
      </trkpt>
      <trkpt lat="45.70991" lon="3.05202">
        <ele>777</ele>
        <time>2013-02-08T12:42:05Z</time>
      </trkpt>
      <trkpt lat="45.70992" lon="3.05206">
        <ele>776</ele>
        <time>2013-02-08T12:42:05Z</time>
      </trkpt>
      <trkpt lat="45.70991" lon="3.05211">
        <ele>776</ele>
        <time>2013-02-08T12:42:05Z</time>
      </trkpt>
      <trkpt lat="45.70991" lon="3.05214">
        <ele>776</ele>
        <time>2013-02-08T12:42:05Z</time>
      </trkpt>
      <trkpt lat="45.70992" lon="3.05216">
        <ele>776</ele>
        <time>2013-02-08T12:42:05Z</time>
      </trkpt>
      <trkpt lat="45.70992" lon="3.0522">
        <ele>776</ele>
        <time>2013-02-08T12:42:05Z</time>
      </trkpt>
      <trkpt lat="45.70992" lon="3.05223">
        <ele>776</ele>
        <time>2013-02-08T12:42:05Z</time>
      </trkpt>
      <trkpt lat="45.70993" lon="3.05226">
        <ele>776</ele>
        <time>2013-02-08T12:42:05Z</time>
      </trkpt>
      <trkpt lat="45.70993" lon="3.05229">
        <ele>776</ele>
        <time>2013-02-08T12:42:05Z</time>
      </trkpt>
      <trkpt lat="45.70993" lon="3.05233">
        <ele>776</ele>
        <time>2013-02-08T12:42:05Z</time>
      </trkpt>
      <trkpt lat="45.70993" lon="3.05236">
        <ele>776</ele>
        <time>2013-02-08T12:42:05Z</time>
      </trkpt>
      <trkpt lat="45.70993" lon="3.05239">
        <ele>775</ele>
        <time>2013-02-08T12:42:05Z</time>
      </trkpt>
      <trkpt lat="45.70993" lon="3.05242">
        <ele>775</ele>
        <time>2013-02-08T12:42:05Z</time>
      </trkpt>
      <trkpt lat="45.70994" lon="3.05244">
        <ele>775</ele>
        <time>2013-02-08T12:42:05Z</time>
      </trkpt>
      <trkpt lat="45.70995" lon="3.05247">
        <ele>775</ele>
        <time>2013-02-08T12:42:05Z</time>
      </trkpt>
      <trkpt lat="45.70996" lon="3.05249">
        <ele>774</ele>
        <time>2013-02-08T12:42:05Z</time>
      </trkpt>
      <trkpt lat="45.70997" lon="3.05249">
        <ele>774</ele>
        <time>2013-02-08T12:42:05Z</time>
      </trkpt>
      <trkpt lat="45.70998" lon="3.0525">
        <ele>774</ele>
        <time>2013-02-08T12:42:05Z</time>
      </trkpt>
      <trkpt lat="45.71" lon="3.05251">
        <ele>774</ele>
        <time>2013-02-08T12:42:05Z</time>
      </trkpt>
      <trkpt lat="45.71003" lon="3.05252">
        <ele>774</ele>
        <time>2013-02-08T12:42:05Z</time>
      </trkpt>
      <trkpt lat="45.71005" lon="3.05253">
        <ele>773</ele>
        <time>2013-02-08T12:42:05Z</time>
      </trkpt>
      <trkpt lat="45.71007" lon="3.05254">
        <ele>773</ele>
        <time>2013-02-08T12:42:05Z</time>
      </trkpt>
      <trkpt lat="45.71008" lon="3.05255">
        <ele>773</ele>
        <time>2013-02-08T12:42:05Z</time>
      </trkpt>
      <trkpt lat="45.7101" lon="3.05257">
        <ele>773</ele>
        <time>2013-02-08T12:42:05Z</time>
      </trkpt>
      <trkpt lat="45.71012" lon="3.05259">
        <ele>773</ele>
        <time>2013-02-08T12:42:05Z</time>
      </trkpt>
      <trkpt lat="45.71013" lon="3.0526">
        <ele>773</ele>
        <time>2013-02-08T12:42:05Z</time>
      </trkpt>
      <trkpt lat="45.71015" lon="3.05262">
        <ele>773</ele>
        <time>2013-02-08T12:42:05Z</time>
      </trkpt>
      <trkpt lat="45.71018" lon="3.05263">
        <ele>772</ele>
        <time>2013-02-08T12:42:05Z</time>
      </trkpt>
      <trkpt lat="45.71021" lon="3.05264">
        <ele>772</ele>
        <time>2013-02-08T12:42:05Z</time>
      </trkpt>
      <trkpt lat="45.71024" lon="3.05266">
        <ele>772</ele>
        <time>2013-02-08T12:42:05Z</time>
      </trkpt>
      <trkpt lat="45.71025" lon="3.05267">
        <ele>772</ele>
        <time>2013-02-08T12:42:05Z</time>
      </trkpt>
      <trkpt lat="45.71028" lon="3.05269">
        <ele>772</ele>
        <time>2013-02-08T12:42:05Z</time>
      </trkpt>
      <trkpt lat="45.7103" lon="3.05271">
        <ele>772</ele>
        <time>2013-02-08T12:42:05Z</time>
      </trkpt>
      <trkpt lat="45.71032" lon="3.05272">
        <ele>772</ele>
        <time>2013-02-08T12:42:05Z</time>
      </trkpt>
      <trkpt lat="45.71034" lon="3.05274">
        <ele>772</ele>
        <time>2013-02-08T12:42:05Z</time>
      </trkpt>
      <trkpt lat="45.71036" lon="3.05276">
        <ele>772</ele>
        <time>2013-02-08T12:42:05Z</time>
      </trkpt>
      <trkpt lat="45.71038" lon="3.05279">
        <ele>772</ele>
        <time>2013-02-08T12:42:05Z</time>
      </trkpt>
      <trkpt lat="45.71041" lon="3.05281">
        <ele>771</ele>
        <time>2013-02-08T12:42:05Z</time>
      </trkpt>
      <trkpt lat="45.71043" lon="3.05284">
        <ele>771</ele>
        <time>2013-02-08T12:42:05Z</time>
      </trkpt>
      <trkpt lat="45.71045" lon="3.05286">
        <ele>771</ele>
        <time>2013-02-08T12:42:05Z</time>
      </trkpt>
      <trkpt lat="45.71047" lon="3.05288">
        <ele>771</ele>
        <time>2013-02-08T12:42:05Z</time>
      </trkpt>
      <trkpt lat="45.71048" lon="3.05291">
        <ele>771</ele>
        <time>2013-02-08T12:42:05Z</time>
      </trkpt>
      <trkpt lat="45.71051" lon="3.05293">
        <ele>771</ele>
        <time>2013-02-08T12:42:05Z</time>
      </trkpt>
      <trkpt lat="45.71052" lon="3.05296">
        <ele>771</ele>
        <time>2013-02-08T12:42:05Z</time>
      </trkpt>
      <trkpt lat="45.71054" lon="3.05299">
        <ele>771</ele>
        <time>2013-02-08T12:42:05Z</time>
      </trkpt>
      <trkpt lat="45.71055" lon="3.05302">
        <ele>771</ele>
        <time>2013-02-08T12:42:05Z</time>
      </trkpt>
      <trkpt lat="45.71057" lon="3.05305">
        <ele>771</ele>
        <time>2013-02-08T12:42:05Z</time>
      </trkpt>
      <trkpt lat="45.71058" lon="3.05307">
        <ele>771</ele>
        <time>2013-02-08T12:42:05Z</time>
      </trkpt>
      <trkpt lat="45.71059" lon="3.0531">
        <ele>771</ele>
        <time>2013-02-08T12:42:05Z</time>
      </trkpt>
      <trkpt lat="45.71061" lon="3.05311">
        <ele>771</ele>
        <time>2013-02-08T12:42:05Z</time>
      </trkpt>
      <trkpt lat="45.71061" lon="3.05312">
        <ele>771</ele>
        <time>2013-02-08T12:42:05Z</time>
      </trkpt>
      <trkpt lat="45.71064" lon="3.05314">
        <ele>772</ele>
        <time>2013-02-08T12:42:05Z</time>
      </trkpt>
      <trkpt lat="45.71066" lon="3.05317">
        <ele>772</ele>
        <time>2013-02-08T12:42:05Z</time>
      </trkpt>
      <trkpt lat="45.71067" lon="3.0532">
        <ele>772</ele>
        <time>2013-02-08T12:42:05Z</time>
      </trkpt>
      <trkpt lat="45.71068" lon="3.05324">
        <ele>772</ele>
        <time>2013-02-08T12:42:05Z</time>
      </trkpt>
      <trkpt lat="45.7107" lon="3.05327">
        <ele>772</ele>
        <time>2013-02-08T12:42:05Z</time>
      </trkpt>
      <trkpt lat="45.71072" lon="3.0533">
        <ele>772</ele>
        <time>2013-02-08T12:42:05Z</time>
      </trkpt>
      <trkpt lat="45.71072" lon="3.0533">
        <ele>772</ele>
        <time>2013-02-08T12:42:05Z</time>
      </trkpt>
      <trkpt lat="45.71072" lon="3.0533">
        <ele>772</ele>
        <time>2013-02-08T12:42:05Z</time>
      </trkpt>
      <trkpt lat="45.71074" lon="3.05333">
        <ele>772</ele>
        <time>2013-02-08T12:42:05Z</time>
      </trkpt>
      <trkpt lat="45.71076" lon="3.05336">
        <ele>771</ele>
        <time>2013-02-08T12:42:05Z</time>
      </trkpt>
      <trkpt lat="45.71078" lon="3.05339">
        <ele>771</ele>
        <time>2013-02-08T12:42:05Z</time>
      </trkpt>
      <trkpt lat="45.7108" lon="3.05342">
        <ele>771</ele>
        <time>2013-02-08T12:42:05Z</time>
      </trkpt>
      <trkpt lat="45.71082" lon="3.05345">
        <ele>771</ele>
        <time>2013-02-08T12:42:05Z</time>
      </trkpt>
      <trkpt lat="45.71083" lon="3.05349">
        <ele>771</ele>
        <time>2013-02-08T12:42:05Z</time>
      </trkpt>
      <trkpt lat="45.71085" lon="3.05353">
        <ele>772</ele>
        <time>2013-02-08T12:42:05Z</time>
      </trkpt>
      <trkpt lat="45.71086" lon="3.05356">
        <ele>772</ele>
        <time>2013-02-08T12:42:05Z</time>
      </trkpt>
      <trkpt lat="45.71088" lon="3.05359">
        <ele>772</ele>
        <time>2013-02-08T12:42:05Z</time>
      </trkpt>
      <trkpt lat="45.7109" lon="3.05362">
        <ele>772</ele>
        <time>2013-02-08T12:42:05Z</time>
      </trkpt>
      <trkpt lat="45.71092" lon="3.05364">
        <ele>772</ele>
        <time>2013-02-08T12:42:05Z</time>
      </trkpt>
      <trkpt lat="45.71095" lon="3.05366">
        <ele>772</ele>
        <time>2013-02-08T12:42:05Z</time>
      </trkpt>
      <trkpt lat="45.71097" lon="3.05368">
        <ele>772</ele>
        <time>2013-02-08T12:42:05Z</time>
      </trkpt>
      <trkpt lat="45.71099" lon="3.0537">
        <ele>772</ele>
        <time>2013-02-08T12:42:05Z</time>
      </trkpt>
      <trkpt lat="45.71101" lon="3.05372">
        <ele>772</ele>
        <time>2013-02-08T12:42:05Z</time>
      </trkpt>
      <trkpt lat="45.71103" lon="3.05374">
        <ele>772</ele>
        <time>2013-02-08T12:42:05Z</time>
      </trkpt>
      <trkpt lat="45.71105" lon="3.05376">
        <ele>772</ele>
        <time>2013-02-08T12:42:05Z</time>
      </trkpt>
      <trkpt lat="45.71107" lon="3.05378">
        <ele>772</ele>
        <time>2013-02-08T12:42:05Z</time>
      </trkpt>
      <trkpt lat="45.71109" lon="3.05379">
        <ele>772</ele>
        <time>2013-02-08T12:42:05Z</time>
      </trkpt>
      <trkpt lat="45.71111" lon="3.0538">
        <ele>772</ele>
        <time>2013-02-08T12:42:05Z</time>
      </trkpt>
      <trkpt lat="45.71114" lon="3.05382">
        <ele>772</ele>
        <time>2013-02-08T12:42:05Z</time>
      </trkpt>
      <trkpt lat="45.71115" lon="3.05382">
        <ele>772</ele>
        <time>2013-02-08T12:42:05Z</time>
      </trkpt>
      <trkpt lat="45.71117" lon="3.05383">
        <ele>772</ele>
        <time>2013-02-08T12:42:05Z</time>
      </trkpt>
      <trkpt lat="45.7112" lon="3.05384">
        <ele>772</ele>
        <time>2013-02-08T12:42:05Z</time>
      </trkpt>
      <trkpt lat="45.71122" lon="3.05385">
        <ele>772</ele>
        <time>2013-02-08T12:42:05Z</time>
      </trkpt>
      <trkpt lat="45.71124" lon="3.05387">
        <ele>772</ele>
        <time>2013-02-08T12:42:05Z</time>
      </trkpt>
      <trkpt lat="45.71126" lon="3.05388">
        <ele>772</ele>
        <time>2013-02-08T12:42:05Z</time>
      </trkpt>
      <trkpt lat="45.71128" lon="3.05389">
        <ele>772</ele>
        <time>2013-02-08T12:42:05Z</time>
      </trkpt>
      <trkpt lat="45.71131" lon="3.05392">
        <ele>772</ele>
        <time>2013-02-08T12:42:05Z</time>
      </trkpt>
      <trkpt lat="45.71135" lon="3.05394">
        <ele>772</ele>
        <time>2013-02-08T12:42:05Z</time>
      </trkpt>
      <trkpt lat="45.71137" lon="3.05395">
        <ele>772</ele>
        <time>2013-02-08T12:42:05Z</time>
      </trkpt>
      <trkpt lat="45.71139" lon="3.05397">
        <ele>772</ele>
        <time>2013-02-08T12:42:05Z</time>
      </trkpt>
      <trkpt lat="45.71142" lon="3.054">
        <ele>772</ele>
        <time>2013-02-08T12:42:05Z</time>
      </trkpt>
      <trkpt lat="45.71145" lon="3.05402">
        <ele>772</ele>
        <time>2013-02-08T12:42:05Z</time>
      </trkpt>
      <trkpt lat="45.71146" lon="3.05403">
        <ele>772</ele>
        <time>2013-02-08T12:42:05Z</time>
      </trkpt>
      <trkpt lat="45.71146" lon="3.05403">
        <ele>772</ele>
        <time>2013-02-08T12:42:05Z</time>
      </trkpt>
      <trkpt lat="45.71146" lon="3.05403">
        <ele>772</ele>
        <time>2013-02-08T12:42:05Z</time>
      </trkpt>
      <trkpt lat="45.71145" lon="3.05403">
        <ele>772</ele>
        <time>2013-02-08T12:42:05Z</time>
      </trkpt>
      <trkpt lat="45.71145" lon="3.05403">
        <ele>772</ele>
        <time>2013-02-08T12:42:05Z</time>
      </trkpt>
      <trkpt lat="45.71145" lon="3.05405">
        <ele>772</ele>
        <time>2013-02-08T12:42:05Z</time>
      </trkpt>
      <trkpt lat="45.71145" lon="3.05409">
        <ele>772</ele>
        <time>2013-02-08T12:42:05Z</time>
      </trkpt>
      <trkpt lat="45.71145" lon="3.05413">
        <ele>772</ele>
        <time>2013-02-08T12:42:05Z</time>
      </trkpt>
      <trkpt lat="45.71145" lon="3.05418">
        <ele>771</ele>
        <time>2013-02-08T12:42:05Z</time>
      </trkpt>
      <trkpt lat="45.71145" lon="3.05422">
        <ele>771</ele>
        <time>2013-02-08T12:42:05Z</time>
      </trkpt>
      <trkpt lat="45.71143" lon="3.05426">
        <ele>770</ele>
        <time>2013-02-08T12:42:05Z</time>
      </trkpt>
      <trkpt lat="45.71142" lon="3.05429">
        <ele>770</ele>
        <time>2013-02-08T12:42:05Z</time>
      </trkpt>
      <trkpt lat="45.71141" lon="3.05433">
        <ele>770</ele>
        <time>2013-02-08T12:42:05Z</time>
      </trkpt>
      <trkpt lat="45.71139" lon="3.05437">
        <ele>770</ele>
        <time>2013-02-08T12:42:05Z</time>
      </trkpt>
      <trkpt lat="45.71138" lon="3.05442">
        <ele>770</ele>
        <time>2013-02-08T12:42:05Z</time>
      </trkpt>
      <trkpt lat="45.71138" lon="3.05446">
        <ele>770</ele>
        <time>2013-02-08T12:42:05Z</time>
      </trkpt>
      <trkpt lat="45.71137" lon="3.0545">
        <ele>769</ele>
        <time>2013-02-08T12:42:05Z</time>
      </trkpt>
      <trkpt lat="45.71136" lon="3.05454">
        <ele>769</ele>
        <time>2013-02-08T12:42:05Z</time>
      </trkpt>
      <trkpt lat="45.71136" lon="3.05458">
        <ele>769</ele>
        <time>2013-02-08T12:42:05Z</time>
      </trkpt>
      <trkpt lat="45.71136" lon="3.05462">
        <ele>769</ele>
        <time>2013-02-08T12:42:05Z</time>
      </trkpt>
      <trkpt lat="45.71136" lon="3.05466">
        <ele>769</ele>
        <time>2013-02-08T12:42:05Z</time>
      </trkpt>
      <trkpt lat="45.71136" lon="3.0547">
        <ele>769</ele>
        <time>2013-02-08T12:42:05Z</time>
      </trkpt>
      <trkpt lat="45.71137" lon="3.05473">
        <ele>769</ele>
        <time>2013-02-08T12:42:05Z</time>
      </trkpt>
      <trkpt lat="45.71137" lon="3.05476">
        <ele>769</ele>
        <time>2013-02-08T12:42:05Z</time>
      </trkpt>
      <trkpt lat="45.71136" lon="3.0548">
        <ele>768</ele>
        <time>2013-02-08T12:42:05Z</time>
      </trkpt>
      <trkpt lat="45.71135" lon="3.05482">
        <ele>768</ele>
        <time>2013-02-08T12:42:05Z</time>
      </trkpt>
      <trkpt lat="45.71135" lon="3.05482">
        <ele>768</ele>
        <time>2013-02-08T12:42:05Z</time>
      </trkpt>
      <trkpt lat="45.71135" lon="3.05482">
        <ele>768</ele>
        <time>2013-02-08T12:42:05Z</time>
      </trkpt>
      <trkpt lat="45.71135" lon="3.05483">
        <ele>768</ele>
        <time>2013-02-08T12:42:05Z</time>
      </trkpt>
      <trkpt lat="45.71134" lon="3.05483">
        <ele>768</ele>
        <time>2013-02-08T12:42:05Z</time>
      </trkpt>
      <trkpt lat="45.71133" lon="3.05483">
        <ele>768</ele>
        <time>2013-02-08T12:42:05Z</time>
      </trkpt>
      <trkpt lat="45.71134" lon="3.05481">
        <ele>768</ele>
        <time>2013-02-08T12:42:05Z</time>
      </trkpt>
      <trkpt lat="45.71134" lon="3.05481">
        <ele>768</ele>
        <time>2013-02-08T12:42:05Z</time>
      </trkpt>
      <trkpt lat="45.71134" lon="3.05481">
        <ele>768</ele>
        <time>2013-02-08T12:42:05Z</time>
      </trkpt>
      <trkpt lat="45.71134" lon="3.05481">
        <ele>768</ele>
        <time>2013-02-08T12:42:05Z</time>
      </trkpt>
      <trkpt lat="45.71135" lon="3.05484">
        <ele>768</ele>
        <time>2013-02-08T12:42:05Z</time>
      </trkpt>
      <trkpt lat="45.71135" lon="3.05488">
        <ele>768</ele>
        <time>2013-02-08T12:42:05Z</time>
      </trkpt>
      <trkpt lat="45.71136" lon="3.05492">
        <ele>768</ele>
        <time>2013-02-08T12:42:05Z</time>
      </trkpt>
      <trkpt lat="45.71137" lon="3.05496">
        <ele>768</ele>
        <time>2013-02-08T12:42:05Z</time>
      </trkpt>
      <trkpt lat="45.71137" lon="3.05501">
        <ele>766</ele>
        <time>2013-02-08T12:42:05Z</time>
      </trkpt>
      <trkpt lat="45.71136" lon="3.05505">
        <ele>766</ele>
        <time>2013-02-08T12:42:05Z</time>
      </trkpt>
      <trkpt lat="45.71136" lon="3.0551">
        <ele>766</ele>
        <time>2013-02-08T12:42:05Z</time>
      </trkpt>
      <trkpt lat="45.71137" lon="3.05513">
        <ele>765</ele>
        <time>2013-02-08T12:42:05Z</time>
      </trkpt>
      <trkpt lat="45.71138" lon="3.05517">
        <ele>765</ele>
        <time>2013-02-08T12:42:05Z</time>
      </trkpt>
      <trkpt lat="45.71138" lon="3.05521">
        <ele>765</ele>
        <time>2013-02-08T12:42:05Z</time>
      </trkpt>
      <trkpt lat="45.71139" lon="3.05524">
        <ele>765</ele>
        <time>2013-02-08T12:42:05Z</time>
      </trkpt>
      <trkpt lat="45.71139" lon="3.05529">
        <ele>765</ele>
        <time>2013-02-08T12:42:05Z</time>
      </trkpt>
      <trkpt lat="45.71139" lon="3.05533">
        <ele>765</ele>
        <time>2013-02-08T12:42:05Z</time>
      </trkpt>
      <trkpt lat="45.71139" lon="3.05537">
        <ele>765</ele>
        <time>2013-02-08T12:42:05Z</time>
      </trkpt>
      <trkpt lat="45.7114" lon="3.05541">
        <ele>765</ele>
        <time>2013-02-08T12:42:05Z</time>
      </trkpt>
      <trkpt lat="45.7114" lon="3.05545">
        <ele>765</ele>
        <time>2013-02-08T12:42:05Z</time>
      </trkpt>
      <trkpt lat="45.71141" lon="3.0555">
        <ele>765</ele>
        <time>2013-02-08T12:42:05Z</time>
      </trkpt>
      <trkpt lat="45.71141" lon="3.05554">
        <ele>765</ele>
        <time>2013-02-08T12:42:05Z</time>
      </trkpt>
      <trkpt lat="45.71141" lon="3.05558">
        <ele>765</ele>
        <time>2013-02-08T12:42:05Z</time>
      </trkpt>
      <trkpt lat="45.71141" lon="3.05563">
        <ele>765</ele>
        <time>2013-02-08T12:42:05Z</time>
      </trkpt>
      <trkpt lat="45.71142" lon="3.05567">
        <ele>765</ele>
        <time>2013-02-08T12:42:05Z</time>
      </trkpt>
      <trkpt lat="45.71142" lon="3.0557">
        <ele>765</ele>
        <time>2013-02-08T12:42:05Z</time>
      </trkpt>
      <trkpt lat="45.71144" lon="3.0558">
        <ele>765</ele>
        <time>2013-02-08T12:42:05Z</time>
      </trkpt>
      <trkpt lat="45.71145" lon="3.05584">
        <ele>764</ele>
        <time>2013-02-08T12:42:05Z</time>
      </trkpt>
      <trkpt lat="45.71146" lon="3.05588">
        <ele>764</ele>
        <time>2013-02-08T12:42:05Z</time>
      </trkpt>
      <trkpt lat="45.71146" lon="3.05591">
        <ele>764</ele>
        <time>2013-02-08T12:42:05Z</time>
      </trkpt>
      <trkpt lat="45.71147" lon="3.05595">
        <ele>764</ele>
        <time>2013-02-08T12:42:05Z</time>
      </trkpt>
      <trkpt lat="45.71146" lon="3.056">
        <ele>764</ele>
        <time>2013-02-08T12:42:05Z</time>
      </trkpt>
      <trkpt lat="45.71145" lon="3.05604">
        <ele>764</ele>
        <time>2013-02-08T12:42:05Z</time>
      </trkpt>
      <trkpt lat="45.71145" lon="3.05608">
        <ele>764</ele>
        <time>2013-02-08T12:42:05Z</time>
      </trkpt>
      <trkpt lat="45.71145" lon="3.05612">
        <ele>764</ele>
        <time>2013-02-08T12:42:05Z</time>
      </trkpt>
      <trkpt lat="45.71145" lon="3.05617">
        <ele>764</ele>
        <time>2013-02-08T12:42:05Z</time>
      </trkpt>
      <trkpt lat="45.71145" lon="3.0562">
        <ele>763</ele>
        <time>2013-02-08T12:42:05Z</time>
      </trkpt>
      <trkpt lat="45.71144" lon="3.05623">
        <ele>763</ele>
        <time>2013-02-08T12:42:05Z</time>
      </trkpt>
      <trkpt lat="45.71142" lon="3.05628">
        <ele>763</ele>
        <time>2013-02-08T12:42:05Z</time>
      </trkpt>
      <trkpt lat="45.7114" lon="3.05631">
        <ele>763</ele>
        <time>2013-02-08T12:42:05Z</time>
      </trkpt>
      <trkpt lat="45.71138" lon="3.05634">
        <ele>763</ele>
        <time>2013-02-08T12:42:05Z</time>
      </trkpt>
      <trkpt lat="45.71137" lon="3.05636">
        <ele>763</ele>
        <time>2013-02-08T12:42:05Z</time>
      </trkpt>
      <trkpt lat="45.71135" lon="3.0564">
        <ele>763</ele>
        <time>2013-02-08T12:42:05Z</time>
      </trkpt>
      <trkpt lat="45.71132" lon="3.05644">
        <ele>763</ele>
        <time>2013-02-08T12:42:05Z</time>
      </trkpt>
      <trkpt lat="45.7113" lon="3.05647">
        <ele>763</ele>
        <time>2013-02-08T12:42:05Z</time>
      </trkpt>
      <trkpt lat="45.71128" lon="3.05649">
        <ele>762</ele>
        <time>2013-02-08T12:42:05Z</time>
      </trkpt>
      <trkpt lat="45.71125" lon="3.05652">
        <ele>762</ele>
        <time>2013-02-08T12:42:05Z</time>
      </trkpt>
      <trkpt lat="45.71122" lon="3.05653">
        <ele>762</ele>
        <time>2013-02-08T12:42:05Z</time>
      </trkpt>
      <trkpt lat="45.7112" lon="3.05655">
        <ele>762</ele>
        <time>2013-02-08T12:42:05Z</time>
      </trkpt>
      <trkpt lat="45.71118" lon="3.05655">
        <ele>762</ele>
        <time>2013-02-08T12:42:05Z</time>
      </trkpt>
      <trkpt lat="45.71115" lon="3.05657">
        <ele>761</ele>
        <time>2013-02-08T12:42:05Z</time>
      </trkpt>
      <trkpt lat="45.71111" lon="3.05659">
        <ele>761</ele>
        <time>2013-02-08T12:42:05Z</time>
      </trkpt>
      <trkpt lat="45.71108" lon="3.0566">
        <ele>761</ele>
        <time>2013-02-08T12:42:05Z</time>
      </trkpt>
      <trkpt lat="45.71106" lon="3.05662">
        <ele>760</ele>
        <time>2013-02-08T12:42:05Z</time>
      </trkpt>
      <trkpt lat="45.71103" lon="3.05662">
        <ele>760</ele>
        <time>2013-02-08T12:42:05Z</time>
      </trkpt>
      <trkpt lat="45.711" lon="3.05664">
        <ele>760</ele>
        <time>2013-02-08T12:42:05Z</time>
      </trkpt>
      <trkpt lat="45.71097" lon="3.05666">
        <ele>759</ele>
        <time>2013-02-08T12:42:05Z</time>
      </trkpt>
      <trkpt lat="45.71093" lon="3.05667">
        <ele>759</ele>
        <time>2013-02-08T12:42:05Z</time>
      </trkpt>
      <trkpt lat="45.71091" lon="3.05669">
        <ele>759</ele>
        <time>2013-02-08T12:42:05Z</time>
      </trkpt>
      <trkpt lat="45.71088" lon="3.0567">
        <ele>758</ele>
        <time>2013-02-08T12:42:05Z</time>
      </trkpt>
      <trkpt lat="45.71085" lon="3.05671">
        <ele>758</ele>
        <time>2013-02-08T12:42:05Z</time>
      </trkpt>
      <trkpt lat="45.71083" lon="3.05672">
        <ele>756</ele>
        <time>2013-02-08T12:42:05Z</time>
      </trkpt>
      <trkpt lat="45.71081" lon="3.05673">
        <ele>756</ele>
        <time>2013-02-08T12:42:05Z</time>
      </trkpt>
      <trkpt lat="45.71078" lon="3.05675">
        <ele>756</ele>
        <time>2013-02-08T12:42:05Z</time>
      </trkpt>
      <trkpt lat="45.71075" lon="3.05676">
        <ele>755</ele>
        <time>2013-02-08T12:42:05Z</time>
      </trkpt>
      <trkpt lat="45.71073" lon="3.05678">
        <ele>755</ele>
        <time>2013-02-08T12:42:05Z</time>
      </trkpt>
      <trkpt lat="45.7107" lon="3.0568">
        <ele>755</ele>
        <time>2013-02-08T12:42:05Z</time>
      </trkpt>
      <trkpt lat="45.71068" lon="3.05681">
        <ele>755</ele>
        <time>2013-02-08T12:42:05Z</time>
      </trkpt>
      <trkpt lat="45.71066" lon="3.05683">
        <ele>754</ele>
        <time>2013-02-08T12:42:05Z</time>
      </trkpt>
      <trkpt lat="45.71064" lon="3.05684">
        <ele>754</ele>
        <time>2013-02-08T12:42:05Z</time>
      </trkpt>
      <trkpt lat="45.71062" lon="3.05686">
        <ele>754</ele>
        <time>2013-02-08T12:42:05Z</time>
      </trkpt>
      <trkpt lat="45.7106" lon="3.05688">
        <ele>754</ele>
        <time>2013-02-08T12:42:05Z</time>
      </trkpt>
      <trkpt lat="45.71058" lon="3.05689">
        <ele>754</ele>
        <time>2013-02-08T12:42:05Z</time>
      </trkpt>
      <trkpt lat="45.71056" lon="3.0569">
        <ele>754</ele>
        <time>2013-02-08T12:42:05Z</time>
      </trkpt>
      <trkpt lat="45.71053" lon="3.05692">
        <ele>753</ele>
        <time>2013-02-08T12:42:05Z</time>
      </trkpt>
      <trkpt lat="45.71051" lon="3.05694">
        <ele>753</ele>
        <time>2013-02-08T12:42:05Z</time>
      </trkpt>
      <trkpt lat="45.71049" lon="3.05696">
        <ele>753</ele>
        <time>2013-02-08T12:42:05Z</time>
      </trkpt>
      <trkpt lat="45.71047" lon="3.05699">
        <ele>753</ele>
        <time>2013-02-08T12:42:05Z</time>
      </trkpt>
      <trkpt lat="45.71046" lon="3.05701">
        <ele>753</ele>
        <time>2013-02-08T12:42:05Z</time>
      </trkpt>
      <trkpt lat="45.71044" lon="3.05703">
        <ele>753</ele>
        <time>2013-02-08T12:42:05Z</time>
      </trkpt>
      <trkpt lat="45.71043" lon="3.05705">
        <ele>753</ele>
        <time>2013-02-08T12:42:05Z</time>
      </trkpt>
      <trkpt lat="45.71041" lon="3.05707">
        <ele>753</ele>
        <time>2013-02-08T12:42:05Z</time>
      </trkpt>
      <trkpt lat="45.7104" lon="3.05708">
        <ele>753</ele>
        <time>2013-02-08T12:42:05Z</time>
      </trkpt>
      <trkpt lat="45.71039" lon="3.0571">
        <ele>753</ele>
        <time>2013-02-08T12:42:05Z</time>
      </trkpt>
      <trkpt lat="45.71035" lon="3.05715">
        <ele>752</ele>
        <time>2013-02-08T12:42:05Z</time>
      </trkpt>
      <trkpt lat="45.71034" lon="3.05719">
        <ele>752</ele>
        <time>2013-02-08T12:42:05Z</time>
      </trkpt>
      <trkpt lat="45.71031" lon="3.05725">
        <ele>752</ele>
        <time>2013-02-08T12:42:05Z</time>
      </trkpt>
      <trkpt lat="45.7103" lon="3.05725">
        <ele>752</ele>
        <time>2013-02-08T12:42:05Z</time>
      </trkpt>
      <trkpt lat="45.71028" lon="3.05728">
        <ele>752</ele>
        <time>2013-02-08T12:42:05Z</time>
      </trkpt>
      <trkpt lat="45.71029" lon="3.05731">
        <ele>752</ele>
        <time>2013-02-08T12:42:05Z</time>
      </trkpt>
      <trkpt lat="45.71028" lon="3.05733">
        <ele>752</ele>
        <time>2013-02-08T12:42:05Z</time>
      </trkpt>
      <trkpt lat="45.71026" lon="3.05734">
        <ele>752</ele>
        <time>2013-02-08T12:42:05Z</time>
      </trkpt>
      <trkpt lat="45.71023" lon="3.05739">
        <ele>751</ele>
        <time>2013-02-08T12:42:05Z</time>
      </trkpt>
      <trkpt lat="45.71021" lon="3.05743">
        <ele>751</ele>
        <time>2013-02-08T12:42:05Z</time>
      </trkpt>
      <trkpt lat="45.71019" lon="3.05746">
        <ele>750</ele>
        <time>2013-02-08T12:42:05Z</time>
      </trkpt>
      <trkpt lat="45.71017" lon="3.05748">
        <ele>750</ele>
        <time>2013-02-08T12:42:05Z</time>
      </trkpt>
      <trkpt lat="45.71016" lon="3.0575">
        <ele>751</ele>
        <time>2013-02-08T12:42:05Z</time>
      </trkpt>
      <trkpt lat="45.71014" lon="3.05753">
        <ele>750</ele>
        <time>2013-02-08T12:42:05Z</time>
      </trkpt>
      <trkpt lat="45.71013" lon="3.05756">
        <ele>750</ele>
        <time>2013-02-08T12:42:05Z</time>
      </trkpt>
      <trkpt lat="45.71011" lon="3.05758">
        <ele>750</ele>
        <time>2013-02-08T12:42:05Z</time>
      </trkpt>
      <trkpt lat="45.7101" lon="3.05761">
        <ele>750</ele>
        <time>2013-02-08T12:42:05Z</time>
      </trkpt>
      <trkpt lat="45.71009" lon="3.05764">
        <ele>751</ele>
        <time>2013-02-08T12:42:05Z</time>
      </trkpt>
      <trkpt lat="45.71008" lon="3.05767">
        <ele>751</ele>
        <time>2013-02-08T12:42:05Z</time>
      </trkpt>
      <trkpt lat="45.71007" lon="3.05769">
        <ele>751</ele>
        <time>2013-02-08T12:42:05Z</time>
      </trkpt>
      <trkpt lat="45.71006" lon="3.0577">
        <ele>751</ele>
        <time>2013-02-08T12:42:05Z</time>
      </trkpt>
      <trkpt lat="45.71006" lon="3.0577">
        <ele>751</ele>
        <time>2013-02-08T12:42:05Z</time>
      </trkpt>
      <trkpt lat="45.71006" lon="3.0577">
        <ele>751</ele>
        <time>2013-02-08T12:42:05Z</time>
      </trkpt>
      <trkpt lat="45.71006" lon="3.0577">
        <ele>751</ele>
        <time>2013-02-08T12:42:05Z</time>
      </trkpt>
      <trkpt lat="45.71006" lon="3.05771">
        <ele>751</ele>
        <time>2013-02-08T12:42:05Z</time>
      </trkpt>
      <trkpt lat="45.71006" lon="3.05773">
        <ele>751</ele>
        <time>2013-02-08T12:42:05Z</time>
      </trkpt>
      <trkpt lat="45.71006" lon="3.05776">
        <ele>751</ele>
        <time>2013-02-08T12:42:05Z</time>
      </trkpt>
      <trkpt lat="45.71005" lon="3.05779">
        <ele>752</ele>
        <time>2013-02-08T12:42:05Z</time>
      </trkpt>
      <trkpt lat="45.71004" lon="3.05783">
        <ele>752</ele>
        <time>2013-02-08T12:42:05Z</time>
      </trkpt>
      <trkpt lat="45.71004" lon="3.05786">
        <ele>752</ele>
        <time>2013-02-08T12:42:05Z</time>
      </trkpt>
      <trkpt lat="45.71003" lon="3.0579">
        <ele>752</ele>
        <time>2013-02-08T12:42:05Z</time>
      </trkpt>
      <trkpt lat="45.71003" lon="3.05794">
        <ele>752</ele>
        <time>2013-02-08T12:42:05Z</time>
      </trkpt>
      <trkpt lat="45.71002" lon="3.05799">
        <ele>752</ele>
        <time>2013-02-08T12:42:05Z</time>
      </trkpt>
      <trkpt lat="45.71002" lon="3.05803">
        <ele>751</ele>
        <time>2013-02-08T12:42:05Z</time>
      </trkpt>
      <trkpt lat="45.71" lon="3.05807">
        <ele>740</ele>
        <time>2013-02-08T12:42:05Z</time>
      </trkpt>
      <trkpt lat="45.70999" lon="3.0581">
        <ele>740</ele>
        <time>2013-02-08T12:42:05Z</time>
      </trkpt>
      <trkpt lat="45.70998" lon="3.05814">
        <ele>741</ele>
        <time>2013-02-08T12:42:05Z</time>
      </trkpt>
      <trkpt lat="45.70998" lon="3.05817">
        <ele>741</ele>
        <time>2013-02-08T12:42:05Z</time>
      </trkpt>
      <trkpt lat="45.70999" lon="3.0582">
        <ele>742</ele>
        <time>2013-02-08T12:42:05Z</time>
      </trkpt>
      <trkpt lat="45.70999" lon="3.05823">
        <ele>742</ele>
        <time>2013-02-08T12:42:05Z</time>
      </trkpt>
      <trkpt lat="45.71" lon="3.05825">
        <ele>748</ele>
        <time>2013-02-08T12:42:05Z</time>
      </trkpt>
      <trkpt lat="45.71001" lon="3.05828">
        <ele>748</ele>
        <time>2013-02-08T12:42:05Z</time>
      </trkpt>
      <trkpt lat="45.71" lon="3.05831">
        <ele>747</ele>
        <time>2013-02-08T12:42:05Z</time>
      </trkpt>
      <trkpt lat="45.71" lon="3.05836">
        <ele>745</ele>
        <time>2013-02-08T12:42:05Z</time>
      </trkpt>
      <trkpt lat="45.70999" lon="3.0584">
        <ele>743</ele>
        <time>2013-02-08T12:42:05Z</time>
      </trkpt>
      <trkpt lat="45.70999" lon="3.05843">
        <ele>742</ele>
        <time>2013-02-08T12:42:05Z</time>
      </trkpt>
      <trkpt lat="45.70998" lon="3.05847">
        <ele>741</ele>
        <time>2013-02-08T12:42:05Z</time>
      </trkpt>
      <trkpt lat="45.70998" lon="3.05851">
        <ele>741</ele>
        <time>2013-02-08T12:42:05Z</time>
      </trkpt>
      <trkpt lat="45.70998" lon="3.05855">
        <ele>740</ele>
        <time>2013-02-08T12:42:05Z</time>
      </trkpt>
      <trkpt lat="45.70999" lon="3.05858">
        <ele>740</ele>
        <time>2013-02-08T12:42:05Z</time>
      </trkpt>
      <trkpt lat="45.70999" lon="3.05862">
        <ele>739</ele>
        <time>2013-02-08T12:42:05Z</time>
      </trkpt>
      <trkpt lat="45.71" lon="3.05865">
        <ele>750</ele>
        <time>2013-02-08T12:42:05Z</time>
      </trkpt>
      <trkpt lat="45.71001" lon="3.05869">
        <ele>750</ele>
        <time>2013-02-08T12:42:05Z</time>
      </trkpt>
      <trkpt lat="45.71003" lon="3.05872">
        <ele>750</ele>
        <time>2013-02-08T12:42:05Z</time>
      </trkpt>
      <trkpt lat="45.71005" lon="3.05874">
        <ele>750</ele>
        <time>2013-02-08T12:42:05Z</time>
      </trkpt>
      <trkpt lat="45.71006" lon="3.05877">
        <ele>750</ele>
        <time>2013-02-08T12:42:05Z</time>
      </trkpt>
      <trkpt lat="45.71006" lon="3.05881">
        <ele>750</ele>
        <time>2013-02-08T12:42:05Z</time>
      </trkpt>
      <trkpt lat="45.71007" lon="3.05884">
        <ele>750</ele>
        <time>2013-02-08T12:42:05Z</time>
      </trkpt>
      <trkpt lat="45.71008" lon="3.05887">
        <ele>750</ele>
        <time>2013-02-08T12:42:05Z</time>
      </trkpt>
      <trkpt lat="45.71008" lon="3.05891">
        <ele>750</ele>
        <time>2013-02-08T12:42:05Z</time>
      </trkpt>
      <trkpt lat="45.71008" lon="3.05895">
        <ele>749</ele>
        <time>2013-02-08T12:42:05Z</time>
      </trkpt>
      <trkpt lat="45.71008" lon="3.059">
        <ele>749</ele>
        <time>2013-02-08T12:42:05Z</time>
      </trkpt>
      <trkpt lat="45.71008" lon="3.05903">
        <ele>748</ele>
        <time>2013-02-08T12:42:05Z</time>
      </trkpt>
      <trkpt lat="45.71008" lon="3.05907">
        <ele>748</ele>
        <time>2013-02-08T12:42:05Z</time>
      </trkpt>
      <trkpt lat="45.71009" lon="3.05911">
        <ele>747</ele>
        <time>2013-02-08T12:42:05Z</time>
      </trkpt>
      <trkpt lat="45.71009" lon="3.05914">
        <ele>747</ele>
        <time>2013-02-08T12:42:05Z</time>
      </trkpt>
      <trkpt lat="45.71009" lon="3.05917">
        <ele>746</ele>
        <time>2013-02-08T12:42:05Z</time>
      </trkpt>
      <trkpt lat="45.71008" lon="3.05921">
        <ele>746</ele>
        <time>2013-02-08T12:42:05Z</time>
      </trkpt>
      <trkpt lat="45.71008" lon="3.05925">
        <ele>746</ele>
        <time>2013-02-08T12:42:05Z</time>
      </trkpt>
      <trkpt lat="45.71007" lon="3.05928">
        <ele>746</ele>
        <time>2013-02-08T12:42:05Z</time>
      </trkpt>
      <trkpt lat="45.71007" lon="3.05931">
        <ele>746</ele>
        <time>2013-02-08T12:42:05Z</time>
      </trkpt>
      <trkpt lat="45.71007" lon="3.05934">
        <ele>746</ele>
        <time>2013-02-08T12:42:05Z</time>
      </trkpt>
      <trkpt lat="45.71006" lon="3.05937">
        <ele>747</ele>
        <time>2013-02-08T12:42:05Z</time>
      </trkpt>
      <trkpt lat="45.71005" lon="3.05941">
        <ele>747</ele>
        <time>2013-02-08T12:42:05Z</time>
      </trkpt>
      <trkpt lat="45.71004" lon="3.05944">
        <ele>747</ele>
        <time>2013-02-08T12:42:05Z</time>
      </trkpt>
      <trkpt lat="45.71002" lon="3.05948">
        <ele>747</ele>
        <time>2013-02-08T12:42:05Z</time>
      </trkpt>
      <trkpt lat="45.71001" lon="3.05951">
        <ele>747</ele>
        <time>2013-02-08T12:42:05Z</time>
      </trkpt>
      <trkpt lat="45.71" lon="3.05955">
        <ele>740</ele>
        <time>2013-02-08T12:42:05Z</time>
      </trkpt>
      <trkpt lat="45.71" lon="3.05958">
        <ele>740</ele>
        <time>2013-02-08T12:42:05Z</time>
      </trkpt>
      <trkpt lat="45.71" lon="3.0596">
        <ele>747</ele>
        <time>2013-02-08T12:42:05Z</time>
      </trkpt>
      <trkpt lat="45.70999" lon="3.05964">
        <ele>740</ele>
        <time>2013-02-08T12:42:05Z</time>
      </trkpt>
      <trkpt lat="45.70997" lon="3.05968">
        <ele>740</ele>
        <time>2013-02-08T12:42:05Z</time>
      </trkpt>
      <trkpt lat="45.70996" lon="3.05971">
        <ele>740</ele>
        <time>2013-02-08T12:42:05Z</time>
      </trkpt>
      <trkpt lat="45.70994" lon="3.05975">
        <ele>740</ele>
        <time>2013-02-08T12:42:05Z</time>
      </trkpt>
      <trkpt lat="45.70992" lon="3.05978">
        <ele>740</ele>
        <time>2013-02-08T12:42:05Z</time>
      </trkpt>
      <trkpt lat="45.7099" lon="3.05981">
        <ele>740</ele>
        <time>2013-02-08T12:42:05Z</time>
      </trkpt>
      <trkpt lat="45.70988" lon="3.05984">
        <ele>740</ele>
        <time>2013-02-08T12:42:05Z</time>
      </trkpt>
      <trkpt lat="45.70986" lon="3.05985">
        <ele>740</ele>
        <time>2013-02-08T12:42:05Z</time>
      </trkpt>
      <trkpt lat="45.70985" lon="3.05987">
        <ele>740</ele>
        <time>2013-02-08T12:42:05Z</time>
      </trkpt>
      <trkpt lat="45.70982" lon="3.0599">
        <ele>740</ele>
        <time>2013-02-08T12:42:05Z</time>
      </trkpt>
      <trkpt lat="45.7098" lon="3.05992">
        <ele>740</ele>
        <time>2013-02-08T12:42:05Z</time>
      </trkpt>
      <trkpt lat="45.70977" lon="3.05994">
        <ele>740</ele>
        <time>2013-02-08T12:42:05Z</time>
      </trkpt>
      <trkpt lat="45.70975" lon="3.05996">
        <ele>739</ele>
        <time>2013-02-08T12:42:05Z</time>
      </trkpt>
      <trkpt lat="45.70972" lon="3.05999">
        <ele>739</ele>
        <time>2013-02-08T12:42:05Z</time>
      </trkpt>
      <trkpt lat="45.70971" lon="3.06">
        <ele>739</ele>
        <time>2013-02-08T12:42:05Z</time>
      </trkpt>
      <trkpt lat="45.70969" lon="3.06002">
        <ele>740</ele>
        <time>2013-02-08T12:42:05Z</time>
      </trkpt>
      <trkpt lat="45.70967" lon="3.06004">
        <ele>740</ele>
        <time>2013-02-08T12:42:05Z</time>
      </trkpt>
      <trkpt lat="45.70965" lon="3.06006">
        <ele>740</ele>
        <time>2013-02-08T12:42:05Z</time>
      </trkpt>
      <trkpt lat="45.70963" lon="3.06009">
        <ele>739</ele>
        <time>2013-02-08T12:42:05Z</time>
      </trkpt>
      <trkpt lat="45.70962" lon="3.0601">
        <ele>739</ele>
        <time>2013-02-08T12:42:05Z</time>
      </trkpt>
      <trkpt lat="45.70962" lon="3.0601">
        <ele>739</ele>
        <time>2013-02-08T12:42:05Z</time>
      </trkpt>
      <trkpt lat="45.70963" lon="3.0601">
        <ele>739</ele>
        <time>2013-02-08T12:42:05Z</time>
      </trkpt>
      <trkpt lat="45.70963" lon="3.0601">
        <ele>739</ele>
        <time>2013-02-08T12:42:05Z</time>
      </trkpt>
      <trkpt lat="45.70963" lon="3.0601">
        <ele>739</ele>
        <time>2013-02-08T12:42:05Z</time>
      </trkpt>
      <trkpt lat="45.70964" lon="3.0601">
        <ele>740</ele>
        <time>2013-02-08T12:42:05Z</time>
      </trkpt>
      <trkpt lat="45.70964" lon="3.0601">
        <ele>740</ele>
        <time>2013-02-08T12:42:05Z</time>
      </trkpt>
      <trkpt lat="45.70963" lon="3.06011">
        <ele>740</ele>
        <time>2013-02-08T12:42:05Z</time>
      </trkpt>
      <trkpt lat="45.70962" lon="3.06013">
        <ele>739</ele>
        <time>2013-02-08T12:42:05Z</time>
      </trkpt>
      <trkpt lat="45.7096" lon="3.06014">
        <ele>739</ele>
        <time>2013-02-08T12:42:05Z</time>
      </trkpt>
      <trkpt lat="45.70957" lon="3.06016">
        <ele>739</ele>
        <time>2013-02-08T12:42:05Z</time>
      </trkpt>
      <trkpt lat="45.70955" lon="3.06018">
        <ele>739</ele>
        <time>2013-02-08T12:42:05Z</time>
      </trkpt>
      <trkpt lat="45.70952" lon="3.0602">
        <ele>739</ele>
        <time>2013-02-08T12:42:05Z</time>
      </trkpt>
      <trkpt lat="45.7095" lon="3.06022">
        <ele>739</ele>
        <time>2013-02-08T12:42:05Z</time>
      </trkpt>
      <trkpt lat="45.70947" lon="3.06025">
        <ele>739</ele>
        <time>2013-02-08T12:42:05Z</time>
      </trkpt>
      <trkpt lat="45.70945" lon="3.06027">
        <ele>738</ele>
        <time>2013-02-08T12:42:05Z</time>
      </trkpt>
      <trkpt lat="45.70944" lon="3.0603">
        <ele>738</ele>
        <time>2013-02-08T12:42:05Z</time>
      </trkpt>
      <trkpt lat="45.70942" lon="3.06033">
        <ele>738</ele>
        <time>2013-02-08T12:42:05Z</time>
      </trkpt>
      <trkpt lat="45.7094" lon="3.06035">
        <ele>738</ele>
        <time>2013-02-08T12:42:05Z</time>
      </trkpt>
      <trkpt lat="45.70938" lon="3.06038">
        <ele>738</ele>
        <time>2013-02-08T12:42:05Z</time>
      </trkpt>
      <trkpt lat="45.70937" lon="3.0604">
        <ele>738</ele>
        <time>2013-02-08T12:42:05Z</time>
      </trkpt>
      <trkpt lat="45.70935" lon="3.06043">
        <ele>738</ele>
        <time>2013-02-08T12:42:05Z</time>
      </trkpt>
      <trkpt lat="45.70934" lon="3.06046">
        <ele>738</ele>
        <time>2013-02-08T12:42:05Z</time>
      </trkpt>
      <trkpt lat="45.70933" lon="3.0605">
        <ele>738</ele>
        <time>2013-02-08T12:42:05Z</time>
      </trkpt>
      <trkpt lat="45.70933" lon="3.06053">
        <ele>738</ele>
        <time>2013-02-08T12:42:05Z</time>
      </trkpt>
      <trkpt lat="45.70932" lon="3.06056">
        <ele>738</ele>
        <time>2013-02-08T12:42:05Z</time>
      </trkpt>
      <trkpt lat="45.70931" lon="3.06059">
        <ele>738</ele>
        <time>2013-02-08T12:42:05Z</time>
      </trkpt>
      <trkpt lat="45.7093" lon="3.06063">
        <ele>738</ele>
        <time>2013-02-08T12:42:05Z</time>
      </trkpt>
      <trkpt lat="45.7093" lon="3.06066">
        <ele>737</ele>
        <time>2013-02-08T12:42:05Z</time>
      </trkpt>
      <trkpt lat="45.7093" lon="3.0607">
        <ele>737</ele>
        <time>2013-02-08T12:42:05Z</time>
      </trkpt>
      <trkpt lat="45.7093" lon="3.06073">
        <ele>737</ele>
        <time>2013-02-08T12:42:05Z</time>
      </trkpt>
      <trkpt lat="45.7093" lon="3.06077">
        <ele>737</ele>
        <time>2013-02-08T12:42:05Z</time>
      </trkpt>
      <trkpt lat="45.7093" lon="3.0608">
        <ele>737</ele>
        <time>2013-02-08T12:42:05Z</time>
      </trkpt>
      <trkpt lat="45.7093" lon="3.06084">
        <ele>736</ele>
        <time>2013-02-08T12:42:05Z</time>
      </trkpt>
      <trkpt lat="45.7093" lon="3.06087">
        <ele>736</ele>
        <time>2013-02-08T12:42:05Z</time>
      </trkpt>
      <trkpt lat="45.7093" lon="3.0609">
        <ele>736</ele>
        <time>2013-02-08T12:42:05Z</time>
      </trkpt>
      <trkpt lat="45.70929" lon="3.06094">
        <ele>736</ele>
        <time>2013-02-08T12:42:05Z</time>
      </trkpt>
      <trkpt lat="45.70929" lon="3.06098">
        <ele>736</ele>
        <time>2013-02-08T12:42:05Z</time>
      </trkpt>
      <trkpt lat="45.70929" lon="3.06101">
        <ele>737</ele>
        <time>2013-02-08T12:42:05Z</time>
      </trkpt>
      <trkpt lat="45.70929" lon="3.06105">
        <ele>737</ele>
        <time>2013-02-08T12:42:05Z</time>
      </trkpt>
      <trkpt lat="45.70929" lon="3.06109">
        <ele>737</ele>
        <time>2013-02-08T12:42:05Z</time>
      </trkpt>
      <trkpt lat="45.70929" lon="3.06112">
        <ele>737</ele>
        <time>2013-02-08T12:42:05Z</time>
      </trkpt>
      <trkpt lat="45.70929" lon="3.06116">
        <ele>737</ele>
        <time>2013-02-08T12:42:05Z</time>
      </trkpt>
      <trkpt lat="45.70928" lon="3.06119">
        <ele>736</ele>
        <time>2013-02-08T12:42:05Z</time>
      </trkpt>
      <trkpt lat="45.70928" lon="3.06123">
        <ele>736</ele>
        <time>2013-02-08T12:42:05Z</time>
      </trkpt>
      <trkpt lat="45.70928" lon="3.06126">
        <ele>736</ele>
        <time>2013-02-08T12:42:05Z</time>
      </trkpt>
      <trkpt lat="45.70928" lon="3.06129">
        <ele>736</ele>
        <time>2013-02-08T12:42:05Z</time>
      </trkpt>
      <trkpt lat="45.70928" lon="3.06133">
        <ele>736</ele>
        <time>2013-02-08T12:42:05Z</time>
      </trkpt>
      <trkpt lat="45.70927" lon="3.06136">
        <ele>736</ele>
        <time>2013-02-08T12:42:05Z</time>
      </trkpt>
      <trkpt lat="45.70927" lon="3.0614">
        <ele>735</ele>
        <time>2013-02-08T12:42:05Z</time>
      </trkpt>
      <trkpt lat="45.70927" lon="3.06144">
        <ele>735</ele>
        <time>2013-02-08T12:42:05Z</time>
      </trkpt>
      <trkpt lat="45.70928" lon="3.06147">
        <ele>735</ele>
        <time>2013-02-08T12:42:05Z</time>
      </trkpt>
      <trkpt lat="45.70928" lon="3.06151">
        <ele>734</ele>
        <time>2013-02-08T12:42:05Z</time>
      </trkpt>
      <trkpt lat="45.70928" lon="3.06154">
        <ele>734</ele>
        <time>2013-02-08T12:42:05Z</time>
      </trkpt>
      <trkpt lat="45.70928" lon="3.06157">
        <ele>734</ele>
        <time>2013-02-08T12:42:05Z</time>
      </trkpt>
      <trkpt lat="45.70928" lon="3.06161">
        <ele>733</ele>
        <time>2013-02-08T12:42:05Z</time>
      </trkpt>
      <trkpt lat="45.70929" lon="3.06165">
        <ele>733</ele>
        <time>2013-02-08T12:42:05Z</time>
      </trkpt>
      <trkpt lat="45.70928" lon="3.06168">
        <ele>731</ele>
        <time>2013-02-08T12:42:05Z</time>
      </trkpt>
      <trkpt lat="45.70929" lon="3.06171">
        <ele>731</ele>
        <time>2013-02-08T12:42:05Z</time>
      </trkpt>
      <trkpt lat="45.70928" lon="3.06175">
        <ele>731</ele>
        <time>2013-02-08T12:42:05Z</time>
      </trkpt>
      <trkpt lat="45.70929" lon="3.06178">
        <ele>731</ele>
        <time>2013-02-08T12:42:05Z</time>
      </trkpt>
      <trkpt lat="45.70929" lon="3.06181">
        <ele>731</ele>
        <time>2013-02-08T12:42:05Z</time>
      </trkpt>
      <trkpt lat="45.7093" lon="3.06184">
        <ele>731</ele>
        <time>2013-02-08T12:42:05Z</time>
      </trkpt>
      <trkpt lat="45.70931" lon="3.06188">
        <ele>731</ele>
        <time>2013-02-08T12:42:05Z</time>
      </trkpt>
      <trkpt lat="45.70931" lon="3.0619">
        <ele>731</ele>
        <time>2013-02-08T12:42:05Z</time>
      </trkpt>
      <trkpt lat="45.70931" lon="3.06194">
        <ele>731</ele>
        <time>2013-02-08T12:42:05Z</time>
      </trkpt>
      <trkpt lat="45.70931" lon="3.06196">
        <ele>731</ele>
        <time>2013-02-08T12:42:05Z</time>
      </trkpt>
      <trkpt lat="45.70931" lon="3.06199">
        <ele>731</ele>
        <time>2013-02-08T12:42:05Z</time>
      </trkpt>
      <trkpt lat="45.70931" lon="3.06201">
        <ele>731</ele>
        <time>2013-02-08T12:42:05Z</time>
      </trkpt>
      <trkpt lat="45.70931" lon="3.06205">
        <ele>731</ele>
        <time>2013-02-08T12:42:05Z</time>
      </trkpt>
      <trkpt lat="45.70932" lon="3.06207">
        <ele>731</ele>
        <time>2013-02-08T12:42:05Z</time>
      </trkpt>
      <trkpt lat="45.70932" lon="3.0621">
        <ele>731</ele>
        <time>2013-02-08T12:42:05Z</time>
      </trkpt>
      <trkpt lat="45.70932" lon="3.06213">
        <ele>730</ele>
        <time>2013-02-08T12:42:05Z</time>
      </trkpt>
      <trkpt lat="45.70933" lon="3.06216">
        <ele>730</ele>
        <time>2013-02-08T12:42:05Z</time>
      </trkpt>
      <trkpt lat="45.70934" lon="3.06219">
        <ele>730</ele>
        <time>2013-02-08T12:42:05Z</time>
      </trkpt>
      <trkpt lat="45.70933" lon="3.06222">
        <ele>730</ele>
        <time>2013-02-08T12:42:05Z</time>
      </trkpt>
      <trkpt lat="45.70933" lon="3.06225">
        <ele>730</ele>
        <time>2013-02-08T12:42:05Z</time>
      </trkpt>
      <trkpt lat="45.70932" lon="3.06227">
        <ele>729</ele>
        <time>2013-02-08T12:42:05Z</time>
      </trkpt>
      <trkpt lat="45.70931" lon="3.0623">
        <ele>729</ele>
        <time>2013-02-08T12:42:05Z</time>
      </trkpt>
      <trkpt lat="45.70931" lon="3.06233">
        <ele>729</ele>
        <time>2013-02-08T12:42:05Z</time>
      </trkpt>
      <trkpt lat="45.70931" lon="3.06235">
        <ele>728</ele>
        <time>2013-02-08T12:42:05Z</time>
      </trkpt>
      <trkpt lat="45.70931" lon="3.06238">
        <ele>728</ele>
        <time>2013-02-08T12:42:05Z</time>
      </trkpt>
      <trkpt lat="45.7093" lon="3.0624">
        <ele>728</ele>
        <time>2013-02-08T12:42:05Z</time>
      </trkpt>
      <trkpt lat="45.7093" lon="3.06243">
        <ele>727</ele>
        <time>2013-02-08T12:42:05Z</time>
      </trkpt>
      <trkpt lat="45.7093" lon="3.06246">
        <ele>727</ele>
        <time>2013-02-08T12:42:05Z</time>
      </trkpt>
      <trkpt lat="45.7093" lon="3.06249">
        <ele>727</ele>
        <time>2013-02-08T12:42:05Z</time>
      </trkpt>
      <trkpt lat="45.7093" lon="3.06251">
        <ele>724</ele>
        <time>2013-02-08T12:42:05Z</time>
      </trkpt>
      <trkpt lat="45.7093" lon="3.06255">
        <ele>724</ele>
        <time>2013-02-08T12:42:05Z</time>
      </trkpt>
      <trkpt lat="45.7093" lon="3.06259">
        <ele>724</ele>
        <time>2013-02-08T12:42:05Z</time>
      </trkpt>
      <trkpt lat="45.70929" lon="3.06262">
        <ele>724</ele>
        <time>2013-02-08T12:42:05Z</time>
      </trkpt>
      <trkpt lat="45.70929" lon="3.06265">
        <ele>724</ele>
        <time>2013-02-08T12:42:05Z</time>
      </trkpt>
      <trkpt lat="45.70929" lon="3.06269">
        <ele>724</ele>
        <time>2013-02-08T12:42:05Z</time>
      </trkpt>
      <trkpt lat="45.70929" lon="3.06272">
        <ele>724</ele>
        <time>2013-02-08T12:42:05Z</time>
      </trkpt>
      <trkpt lat="45.70929" lon="3.06276">
        <ele>724</ele>
        <time>2013-02-08T12:42:05Z</time>
      </trkpt>
      <trkpt lat="45.7093" lon="3.06279">
        <ele>724</ele>
        <time>2013-02-08T12:42:05Z</time>
      </trkpt>
      <trkpt lat="45.70929" lon="3.06282">
        <ele>724</ele>
        <time>2013-02-08T12:42:05Z</time>
      </trkpt>
      <trkpt lat="45.70929" lon="3.06285">
        <ele>723</ele>
        <time>2013-02-08T12:42:05Z</time>
      </trkpt>
      <trkpt lat="45.70929" lon="3.06289">
        <ele>723</ele>
        <time>2013-02-08T12:42:05Z</time>
      </trkpt>
      <trkpt lat="45.70929" lon="3.06292">
        <ele>723</ele>
        <time>2013-02-08T12:42:05Z</time>
      </trkpt>
      <trkpt lat="45.70929" lon="3.06296">
        <ele>723</ele>
        <time>2013-02-08T12:42:05Z</time>
      </trkpt>
      <trkpt lat="45.70929" lon="3.06299">
        <ele>723</ele>
        <time>2013-02-08T12:42:05Z</time>
      </trkpt>
      <trkpt lat="45.70929" lon="3.06303">
        <ele>722</ele>
        <time>2013-02-08T12:42:05Z</time>
      </trkpt>
      <trkpt lat="45.70928" lon="3.06307">
        <ele>722</ele>
        <time>2013-02-08T12:42:05Z</time>
      </trkpt>
      <trkpt lat="45.70927" lon="3.06309">
        <ele>722</ele>
        <time>2013-02-08T12:42:05Z</time>
      </trkpt>
      <trkpt lat="45.70927" lon="3.06312">
        <ele>721</ele>
        <time>2013-02-08T12:42:05Z</time>
      </trkpt>
      <trkpt lat="45.70926" lon="3.06316">
        <ele>721</ele>
        <time>2013-02-08T12:42:05Z</time>
      </trkpt>
      <trkpt lat="45.70926" lon="3.06318">
        <ele>720</ele>
        <time>2013-02-08T12:42:05Z</time>
      </trkpt>
      <trkpt lat="45.70925" lon="3.06321">
        <ele>720</ele>
        <time>2013-02-08T12:42:05Z</time>
      </trkpt>
      <trkpt lat="45.70924" lon="3.06324">
        <ele>719</ele>
        <time>2013-02-08T12:42:05Z</time>
      </trkpt>
      <trkpt lat="45.70923" lon="3.06328">
        <ele>718</ele>
        <time>2013-02-08T12:42:05Z</time>
      </trkpt>
      <trkpt lat="45.70922" lon="3.06331">
        <ele>718</ele>
        <time>2013-02-08T12:42:05Z</time>
      </trkpt>
      <trkpt lat="45.70921" lon="3.06334">
        <ele>716</ele>
        <time>2013-02-08T12:42:05Z</time>
      </trkpt>
      <trkpt lat="45.70921" lon="3.06337">
        <ele>716</ele>
        <time>2013-02-08T12:42:05Z</time>
      </trkpt>
      <trkpt lat="45.7092" lon="3.0634">
        <ele>716</ele>
        <time>2013-02-08T12:42:05Z</time>
      </trkpt>
      <trkpt lat="45.70919" lon="3.06344">
        <ele>716</ele>
        <time>2013-02-08T12:42:05Z</time>
      </trkpt>
      <trkpt lat="45.70918" lon="3.06347">
        <ele>716</ele>
        <time>2013-02-08T12:42:05Z</time>
      </trkpt>
      <trkpt lat="45.70918" lon="3.0635">
        <ele>716</ele>
        <time>2013-02-08T12:42:05Z</time>
      </trkpt>
      <trkpt lat="45.70917" lon="3.06353">
        <ele>716</ele>
        <time>2013-02-08T12:42:05Z</time>
      </trkpt>
      <trkpt lat="45.70916" lon="3.06356">
        <ele>712</ele>
        <time>2013-02-08T12:42:05Z</time>
      </trkpt>
      <trkpt lat="45.70916" lon="3.06359">
        <ele>712</ele>
        <time>2013-02-08T12:42:05Z</time>
      </trkpt>
      <trkpt lat="45.70915" lon="3.06362">
        <ele>711</ele>
        <time>2013-02-08T12:42:05Z</time>
      </trkpt>
      <trkpt lat="45.70914" lon="3.06365">
        <ele>711</ele>
        <time>2013-02-08T12:42:05Z</time>
      </trkpt>
      <trkpt lat="45.70914" lon="3.06368">
        <ele>711</ele>
        <time>2013-02-08T12:42:05Z</time>
      </trkpt>
      <trkpt lat="45.70913" lon="3.06371">
        <ele>711</ele>
        <time>2013-02-08T12:42:05Z</time>
      </trkpt>
      <trkpt lat="45.70912" lon="3.06374">
        <ele>710</ele>
        <time>2013-02-08T12:42:05Z</time>
      </trkpt>
      <trkpt lat="45.70912" lon="3.06377">
        <ele>710</ele>
        <time>2013-02-08T12:42:05Z</time>
      </trkpt>
      <trkpt lat="45.70911" lon="3.06381">
        <ele>710</ele>
        <time>2013-02-08T12:42:05Z</time>
      </trkpt>
      <trkpt lat="45.70911" lon="3.06384">
        <ele>710</ele>
        <time>2013-02-08T12:42:05Z</time>
      </trkpt>
      <trkpt lat="45.7091" lon="3.06388">
        <ele>710</ele>
        <time>2013-02-08T12:42:05Z</time>
      </trkpt>
      <trkpt lat="45.7091" lon="3.06391">
        <ele>710</ele>
        <time>2013-02-08T12:42:05Z</time>
      </trkpt>
      <trkpt lat="45.7091" lon="3.06394">
        <ele>710</ele>
        <time>2013-02-08T12:42:05Z</time>
      </trkpt>
      <trkpt lat="45.70909" lon="3.06397">
        <ele>710</ele>
        <time>2013-02-08T12:42:05Z</time>
      </trkpt>
      <trkpt lat="45.70909" lon="3.064">
        <ele>710</ele>
        <time>2013-02-08T12:42:05Z</time>
      </trkpt>
      <trkpt lat="45.70909" lon="3.06404">
        <ele>710</ele>
        <time>2013-02-08T12:42:05Z</time>
      </trkpt>
      <trkpt lat="45.70908" lon="3.06407">
        <ele>710</ele>
        <time>2013-02-08T12:42:05Z</time>
      </trkpt>
      <trkpt lat="45.70907" lon="3.06411">
        <ele>710</ele>
        <time>2013-02-08T12:42:05Z</time>
      </trkpt>
      <trkpt lat="45.70907" lon="3.06414">
        <ele>710</ele>
        <time>2013-02-08T12:42:05Z</time>
      </trkpt>
      <trkpt lat="45.70906" lon="3.06418">
        <ele>708</ele>
        <time>2013-02-08T12:42:05Z</time>
      </trkpt>
      <trkpt lat="45.70906" lon="3.06421">
        <ele>708</ele>
        <time>2013-02-08T12:42:05Z</time>
      </trkpt>
      <trkpt lat="45.70905" lon="3.06425">
        <ele>707</ele>
        <time>2013-02-08T12:42:05Z</time>
      </trkpt>
      <trkpt lat="45.70904" lon="3.06427">
        <ele>707</ele>
        <time>2013-02-08T12:42:05Z</time>
      </trkpt>
      <trkpt lat="45.70903" lon="3.0643">
        <ele>707</ele>
        <time>2013-02-08T12:42:05Z</time>
      </trkpt>
      <trkpt lat="45.70902" lon="3.06433">
        <ele>707</ele>
        <time>2013-02-08T12:42:05Z</time>
      </trkpt>
      <trkpt lat="45.70902" lon="3.06436">
        <ele>706</ele>
        <time>2013-02-08T12:42:05Z</time>
      </trkpt>
      <trkpt lat="45.70904" lon="3.06439">
        <ele>706</ele>
        <time>2013-02-08T12:42:05Z</time>
      </trkpt>
      <trkpt lat="45.70904" lon="3.06439">
        <ele>706</ele>
        <time>2013-02-08T12:42:05Z</time>
      </trkpt>
      <trkpt lat="45.70903" lon="3.06439">
        <ele>706</ele>
        <time>2013-02-08T12:42:05Z</time>
      </trkpt>
      <trkpt lat="45.709" lon="3.0644">
        <ele>706</ele>
        <time>2013-02-08T12:42:05Z</time>
      </trkpt>
      <trkpt lat="45.70897" lon="3.06442">
        <ele>706</ele>
        <time>2013-02-08T12:42:05Z</time>
      </trkpt>
      <trkpt lat="45.70894" lon="3.06445">
        <ele>705</ele>
        <time>2013-02-08T12:42:05Z</time>
      </trkpt>
      <trkpt lat="45.70891" lon="3.06448">
        <ele>705</ele>
        <time>2013-02-08T12:42:05Z</time>
      </trkpt>
      <trkpt lat="45.70888" lon="3.06451">
        <ele>705</ele>
        <time>2013-02-08T12:42:05Z</time>
      </trkpt>
      <trkpt lat="45.70885" lon="3.06454">
        <ele>705</ele>
        <time>2013-02-08T12:42:05Z</time>
      </trkpt>
      <trkpt lat="45.70882" lon="3.06458">
        <ele>705</ele>
        <time>2013-02-08T12:42:05Z</time>
      </trkpt>
      <trkpt lat="45.7088" lon="3.0646">
        <ele>704</ele>
        <time>2013-02-08T12:42:05Z</time>
      </trkpt>
      <trkpt lat="45.70878" lon="3.06463">
        <ele>704</ele>
        <time>2013-02-08T12:42:05Z</time>
      </trkpt>
      <trkpt lat="45.70876" lon="3.06465">
        <ele>704</ele>
        <time>2013-02-08T12:42:05Z</time>
      </trkpt>
      <trkpt lat="45.70874" lon="3.06467">
        <ele>704</ele>
        <time>2013-02-08T12:42:05Z</time>
      </trkpt>
      <trkpt lat="45.70871" lon="3.0647">
        <ele>704</ele>
        <time>2013-02-08T12:42:05Z</time>
      </trkpt>
      <trkpt lat="45.70868" lon="3.06473">
        <ele>704</ele>
        <time>2013-02-08T12:42:05Z</time>
      </trkpt>
      <trkpt lat="45.70867" lon="3.06475">
        <ele>704</ele>
        <time>2013-02-08T12:42:05Z</time>
      </trkpt>
      <trkpt lat="45.70865" lon="3.06478">
        <ele>704</ele>
        <time>2013-02-08T12:42:05Z</time>
      </trkpt>
      <trkpt lat="45.70863" lon="3.06481">
        <ele>703</ele>
        <time>2013-02-08T12:42:05Z</time>
      </trkpt>
      <trkpt lat="45.70861" lon="3.06483">
        <ele>703</ele>
        <time>2013-02-08T12:42:05Z</time>
      </trkpt>
      <trkpt lat="45.70859" lon="3.06484">
        <ele>703</ele>
        <time>2013-02-08T12:42:05Z</time>
      </trkpt>
      <trkpt lat="45.70856" lon="3.06487">
        <ele>703</ele>
        <time>2013-02-08T12:42:05Z</time>
      </trkpt>
      <trkpt lat="45.70853" lon="3.06489">
        <ele>703</ele>
        <time>2013-02-08T12:42:05Z</time>
      </trkpt>
      <trkpt lat="45.7085" lon="3.06491">
        <ele>703</ele>
        <time>2013-02-08T12:42:05Z</time>
      </trkpt>
      <trkpt lat="45.70847" lon="3.06492">
        <ele>702</ele>
        <time>2013-02-08T12:42:05Z</time>
      </trkpt>
      <trkpt lat="45.70845" lon="3.06493">
        <ele>702</ele>
        <time>2013-02-08T12:42:05Z</time>
      </trkpt>
      <trkpt lat="45.70842" lon="3.06495">
        <ele>702</ele>
        <time>2013-02-08T12:42:05Z</time>
      </trkpt>
      <trkpt lat="45.70839" lon="3.06497">
        <ele>702</ele>
        <time>2013-02-08T12:42:05Z</time>
      </trkpt>
      <trkpt lat="45.70836" lon="3.06499">
        <ele>701</ele>
        <time>2013-02-08T12:42:05Z</time>
      </trkpt>
      <trkpt lat="45.70833" lon="3.06501">
        <ele>701</ele>
        <time>2013-02-08T12:42:05Z</time>
      </trkpt>
      <trkpt lat="45.7083" lon="3.06502">
        <ele>701</ele>
        <time>2013-02-08T12:42:05Z</time>
      </trkpt>
      <trkpt lat="45.70828" lon="3.06502">
        <ele>701</ele>
        <time>2013-02-08T12:42:05Z</time>
      </trkpt>
      <trkpt lat="45.70825" lon="3.06503">
        <ele>701</ele>
        <time>2013-02-08T12:42:05Z</time>
      </trkpt>
      <trkpt lat="45.70824" lon="3.06504">
        <ele>701</ele>
        <time>2013-02-08T12:42:05Z</time>
      </trkpt>
      <trkpt lat="45.70822" lon="3.06506">
        <ele>701</ele>
        <time>2013-02-08T12:42:05Z</time>
      </trkpt>
      <trkpt lat="45.70821" lon="3.06507">
        <ele>701</ele>
        <time>2013-02-08T12:42:05Z</time>
      </trkpt>
      <trkpt lat="45.70821" lon="3.06507">
        <ele>701</ele>
        <time>2013-02-08T12:42:05Z</time>
      </trkpt>
      <trkpt lat="45.70822" lon="3.06509">
        <ele>701</ele>
        <time>2013-02-08T12:42:05Z</time>
      </trkpt>
      <trkpt lat="45.70824" lon="3.0651">
        <ele>701</ele>
        <time>2013-02-08T12:42:05Z</time>
      </trkpt>
      <trkpt lat="45.70827" lon="3.06511">
        <ele>701</ele>
        <time>2013-02-08T12:42:05Z</time>
      </trkpt>
      <trkpt lat="45.7083" lon="3.06513">
        <ele>701</ele>
        <time>2013-02-08T12:42:05Z</time>
      </trkpt>
      <trkpt lat="45.70831" lon="3.06514">
        <ele>701</ele>
        <time>2013-02-08T12:42:05Z</time>
      </trkpt>
      <trkpt lat="45.70834" lon="3.06515">
        <ele>700</ele>
        <time>2013-02-08T12:42:05Z</time>
      </trkpt>
      <trkpt lat="45.70835" lon="3.06515">
        <ele>700</ele>
        <time>2013-02-08T12:42:05Z</time>
      </trkpt>
      <trkpt lat="45.70836" lon="3.06516">
        <ele>700</ele>
        <time>2013-02-08T12:42:05Z</time>
      </trkpt>
      <trkpt lat="45.70838" lon="3.06517">
        <ele>700</ele>
        <time>2013-02-08T12:42:05Z</time>
      </trkpt>
      <trkpt lat="45.70841" lon="3.06518">
        <ele>700</ele>
        <time>2013-02-08T12:42:05Z</time>
      </trkpt>
      <trkpt lat="45.70843" lon="3.06519">
        <ele>700</ele>
        <time>2013-02-08T12:42:05Z</time>
      </trkpt>
      <trkpt lat="45.70845" lon="3.0652">
        <ele>700</ele>
        <time>2013-02-08T12:42:05Z</time>
      </trkpt>
      <trkpt lat="45.70848" lon="3.06521">
        <ele>700</ele>
        <time>2013-02-08T12:42:05Z</time>
      </trkpt>
      <trkpt lat="45.70851" lon="3.06522">
        <ele>700</ele>
        <time>2013-02-08T12:42:05Z</time>
      </trkpt>
      <trkpt lat="45.70854" lon="3.06524">
        <ele>700</ele>
        <time>2013-02-08T12:42:05Z</time>
      </trkpt>
      <trkpt lat="45.70855" lon="3.06525">
        <ele>700</ele>
        <time>2013-02-08T12:42:05Z</time>
      </trkpt>
      <trkpt lat="45.70858" lon="3.06527">
        <ele>700</ele>
        <time>2013-02-08T12:42:05Z</time>
      </trkpt>
      <trkpt lat="45.70858" lon="3.06529">
        <ele>700</ele>
        <time>2013-02-08T12:42:05Z</time>
      </trkpt>
      <trkpt lat="45.7086" lon="3.06531">
        <ele>700</ele>
        <time>2013-02-08T12:42:05Z</time>
      </trkpt>
      <trkpt lat="45.70862" lon="3.06533">
        <ele>700</ele>
        <time>2013-02-08T12:42:05Z</time>
      </trkpt>
      <trkpt lat="45.70871" lon="3.0654">
        <ele>699</ele>
        <time>2013-02-08T12:42:05Z</time>
      </trkpt>
      <trkpt lat="45.70876" lon="3.06541">
        <ele>699</ele>
        <time>2013-02-08T12:42:05Z</time>
      </trkpt>
      <trkpt lat="45.7088" lon="3.06543">
        <ele>699</ele>
        <time>2013-02-08T12:42:05Z</time>
      </trkpt>
      <trkpt lat="45.70882" lon="3.06546">
        <ele>699</ele>
        <time>2013-02-08T12:42:05Z</time>
      </trkpt>
      <trkpt lat="45.70883" lon="3.06548">
        <ele>699</ele>
        <time>2013-02-08T12:42:05Z</time>
      </trkpt>
      <trkpt lat="45.70886" lon="3.0655">
        <ele>699</ele>
        <time>2013-02-08T12:42:05Z</time>
      </trkpt>
      <trkpt lat="45.70889" lon="3.06552">
        <ele>699</ele>
        <time>2013-02-08T12:42:05Z</time>
      </trkpt>
      <trkpt lat="45.7089" lon="3.06553">
        <ele>698</ele>
        <time>2013-02-08T12:42:05Z</time>
      </trkpt>
      <trkpt lat="45.70892" lon="3.06555">
        <ele>698</ele>
        <time>2013-02-08T12:42:05Z</time>
      </trkpt>
      <trkpt lat="45.70895" lon="3.06557">
        <ele>698</ele>
        <time>2013-02-08T12:42:05Z</time>
      </trkpt>
      <trkpt lat="45.70898" lon="3.0656">
        <ele>698</ele>
        <time>2013-02-08T12:42:05Z</time>
      </trkpt>
      <trkpt lat="45.70901" lon="3.06562">
        <ele>697</ele>
        <time>2013-02-08T12:42:05Z</time>
      </trkpt>
      <trkpt lat="45.70903" lon="3.06564">
        <ele>697</ele>
        <time>2013-02-08T12:42:05Z</time>
      </trkpt>
      <trkpt lat="45.70904" lon="3.06565">
        <ele>697</ele>
        <time>2013-02-08T12:42:05Z</time>
      </trkpt>
      <trkpt lat="45.70907" lon="3.06565">
        <ele>697</ele>
        <time>2013-02-08T12:42:05Z</time>
      </trkpt>
      <trkpt lat="45.70911" lon="3.06565">
        <ele>697</ele>
        <time>2013-02-08T12:42:05Z</time>
      </trkpt>
      <trkpt lat="45.70914" lon="3.06564">
        <ele>697</ele>
        <time>2013-02-08T12:42:05Z</time>
      </trkpt>
      <trkpt lat="45.70917" lon="3.06565">
        <ele>695</ele>
        <time>2013-02-08T12:42:05Z</time>
      </trkpt>
      <trkpt lat="45.70918" lon="3.06566">
        <ele>695</ele>
        <time>2013-02-08T12:42:05Z</time>
      </trkpt>
      <trkpt lat="45.70922" lon="3.06566">
        <ele>695</ele>
        <time>2013-02-08T12:42:05Z</time>
      </trkpt>
      <trkpt lat="45.70925" lon="3.06567">
        <ele>695</ele>
        <time>2013-02-08T12:42:05Z</time>
      </trkpt>
      <trkpt lat="45.70926" lon="3.06568">
        <ele>695</ele>
        <time>2013-02-08T12:42:05Z</time>
      </trkpt>
      <trkpt lat="45.70928" lon="3.0657">
        <ele>695</ele>
        <time>2013-02-08T12:42:05Z</time>
      </trkpt>
      <trkpt lat="45.70928" lon="3.06573">
        <ele>694</ele>
        <time>2013-02-08T12:42:05Z</time>
      </trkpt>
      <trkpt lat="45.7093" lon="3.06575">
        <ele>694</ele>
        <time>2013-02-08T12:42:05Z</time>
      </trkpt>
      <trkpt lat="45.70933" lon="3.06576">
        <ele>694</ele>
        <time>2013-02-08T12:42:05Z</time>
      </trkpt>
      <trkpt lat="45.70936" lon="3.06578">
        <ele>694</ele>
        <time>2013-02-08T12:42:05Z</time>
      </trkpt>
      <trkpt lat="45.70938" lon="3.06579">
        <ele>694</ele>
        <time>2013-02-08T12:42:05Z</time>
      </trkpt>
      <trkpt lat="45.7094" lon="3.06579">
        <ele>694</ele>
        <time>2013-02-08T12:42:05Z</time>
      </trkpt>
      <trkpt lat="45.70942" lon="3.06579">
        <ele>694</ele>
        <time>2013-02-08T12:42:05Z</time>
      </trkpt>
      <trkpt lat="45.70945" lon="3.0658">
        <ele>694</ele>
        <time>2013-02-08T12:42:05Z</time>
      </trkpt>
      <trkpt lat="45.70948" lon="3.0658">
        <ele>694</ele>
        <time>2013-02-08T12:42:05Z</time>
      </trkpt>
      <trkpt lat="45.70951" lon="3.0658">
        <ele>694</ele>
        <time>2013-02-08T12:42:05Z</time>
      </trkpt>
      <trkpt lat="45.70955" lon="3.06581">
        <ele>694</ele>
        <time>2013-02-08T12:42:05Z</time>
      </trkpt>
      <trkpt lat="45.70955" lon="3.06583">
        <ele>694</ele>
        <time>2013-02-08T12:42:05Z</time>
      </trkpt>
      <trkpt lat="45.70954" lon="3.06586">
        <ele>687</ele>
        <time>2013-02-08T12:42:05Z</time>
      </trkpt>
      <trkpt lat="45.70958" lon="3.06588">
        <ele>686</ele>
        <time>2013-02-08T12:42:05Z</time>
      </trkpt>
      <trkpt lat="45.70958" lon="3.0659">
        <ele>686</ele>
        <time>2013-02-08T12:42:05Z</time>
      </trkpt>
      <trkpt lat="45.70959" lon="3.06591">
        <ele>686</ele>
        <time>2013-02-08T12:42:05Z</time>
      </trkpt>
      <trkpt lat="45.7096" lon="3.06592">
        <ele>686</ele>
        <time>2013-02-08T12:42:05Z</time>
      </trkpt>
      <trkpt lat="45.70961" lon="3.06595">
        <ele>686</ele>
        <time>2013-02-08T12:42:05Z</time>
      </trkpt>
      <trkpt lat="45.70961" lon="3.06597">
        <ele>686</ele>
        <time>2013-02-08T12:42:05Z</time>
      </trkpt>
      <trkpt lat="45.70961" lon="3.066">
        <ele>686</ele>
        <time>2013-02-08T12:42:05Z</time>
      </trkpt>
      <trkpt lat="45.70963" lon="3.06602">
        <ele>686</ele>
        <time>2013-02-08T12:42:05Z</time>
      </trkpt>
      <trkpt lat="45.70964" lon="3.06604">
        <ele>685</ele>
        <time>2013-02-08T12:42:05Z</time>
      </trkpt>
      <trkpt lat="45.70964" lon="3.06606">
        <ele>685</ele>
        <time>2013-02-08T12:42:05Z</time>
      </trkpt>
      <trkpt lat="45.70966" lon="3.06607">
        <ele>685</ele>
        <time>2013-02-08T12:42:05Z</time>
      </trkpt>
      <trkpt lat="45.70967" lon="3.06608">
        <ele>685</ele>
        <time>2013-02-08T12:42:05Z</time>
      </trkpt>
      <trkpt lat="45.70968" lon="3.06609">
        <ele>685</ele>
        <time>2013-02-08T12:42:05Z</time>
      </trkpt>
      <trkpt lat="45.7097" lon="3.06611">
        <ele>685</ele>
        <time>2013-02-08T12:42:05Z</time>
      </trkpt>
      <trkpt lat="45.70972" lon="3.06611">
        <ele>685</ele>
        <time>2013-02-08T12:42:05Z</time>
      </trkpt>
      <trkpt lat="45.70973" lon="3.06611">
        <ele>685</ele>
        <time>2013-02-08T12:42:05Z</time>
      </trkpt>
      <trkpt lat="45.70974" lon="3.06611">
        <ele>685</ele>
        <time>2013-02-08T12:42:05Z</time>
      </trkpt>
      <trkpt lat="45.70975" lon="3.06611">
        <ele>685</ele>
        <time>2013-02-08T12:42:05Z</time>
      </trkpt>
      <trkpt lat="45.70976" lon="3.06612">
        <ele>685</ele>
        <time>2013-02-08T12:42:05Z</time>
      </trkpt>
      <trkpt lat="45.70978" lon="3.06613">
        <ele>684</ele>
        <time>2013-02-08T12:42:05Z</time>
      </trkpt>
      <trkpt lat="45.7098" lon="3.06614">
        <ele>684</ele>
        <time>2013-02-08T12:42:05Z</time>
      </trkpt>
      <trkpt lat="45.70983" lon="3.06615">
        <ele>684</ele>
        <time>2013-02-08T12:42:05Z</time>
      </trkpt>
      <trkpt lat="45.70986" lon="3.06616">
        <ele>684</ele>
        <time>2013-02-08T12:42:05Z</time>
      </trkpt>
      <trkpt lat="45.70987" lon="3.06617">
        <ele>684</ele>
        <time>2013-02-08T12:42:05Z</time>
      </trkpt>
      <trkpt lat="45.70989" lon="3.06618">
        <ele>684</ele>
        <time>2013-02-08T12:42:05Z</time>
      </trkpt>
      <trkpt lat="45.70992" lon="3.06619">
        <ele>684</ele>
        <time>2013-02-08T12:42:05Z</time>
      </trkpt>
      <trkpt lat="45.70996" lon="3.0662">
        <ele>683</ele>
        <time>2013-02-08T12:42:05Z</time>
      </trkpt>
      <trkpt lat="45.70999" lon="3.06622">
        <ele>683</ele>
        <time>2013-02-08T12:42:05Z</time>
      </trkpt>
      <trkpt lat="45.71001" lon="3.06623">
        <ele>680</ele>
        <time>2013-02-08T12:42:05Z</time>
      </trkpt>
      <trkpt lat="45.71" lon="3.06625">
        <ele>680</ele>
        <time>2013-02-08T12:42:05Z</time>
      </trkpt>
      <trkpt lat="45.71001" lon="3.06626">
        <ele>680</ele>
        <time>2013-02-08T12:42:05Z</time>
      </trkpt>
      <trkpt lat="45.71004" lon="3.06627">
        <ele>680</ele>
        <time>2013-02-08T12:42:05Z</time>
      </trkpt>
      <trkpt lat="45.71006" lon="3.06628">
        <ele>680</ele>
        <time>2013-02-08T12:42:05Z</time>
      </trkpt>
      <trkpt lat="45.71008" lon="3.06629">
        <ele>680</ele>
        <time>2013-02-08T12:42:05Z</time>
      </trkpt>
      <trkpt lat="45.71013" lon="3.06631">
        <ele>680</ele>
        <time>2013-02-08T12:42:05Z</time>
      </trkpt>
      <trkpt lat="45.71016" lon="3.06632">
        <ele>680</ele>
        <time>2013-02-08T12:42:05Z</time>
      </trkpt>
      <trkpt lat="45.71019" lon="3.06633">
        <ele>679</ele>
        <time>2013-02-08T12:42:05Z</time>
      </trkpt>
      <trkpt lat="45.71022" lon="3.06634">
        <ele>679</ele>
        <time>2013-02-08T12:42:05Z</time>
      </trkpt>
      <trkpt lat="45.71026" lon="3.06636">
        <ele>679</ele>
        <time>2013-02-08T12:42:05Z</time>
      </trkpt>
      <trkpt lat="45.71027" lon="3.06637">
        <ele>679</ele>
        <time>2013-02-08T12:42:05Z</time>
      </trkpt>
      <trkpt lat="45.71028" lon="3.06637">
        <ele>679</ele>
        <time>2013-02-08T12:42:05Z</time>
      </trkpt>
      <trkpt lat="45.7103" lon="3.06638">
        <ele>679</ele>
        <time>2013-02-08T12:42:05Z</time>
      </trkpt>
      <trkpt lat="45.71032" lon="3.06639">
        <ele>679</ele>
        <time>2013-02-08T12:42:05Z</time>
      </trkpt>
      <trkpt lat="45.71034" lon="3.0664">
        <ele>679</ele>
        <time>2013-02-08T12:42:05Z</time>
      </trkpt>
      <trkpt lat="45.71036" lon="3.06642">
        <ele>679</ele>
        <time>2013-02-08T12:42:05Z</time>
      </trkpt>
      <trkpt lat="45.71038" lon="3.06642">
        <ele>679</ele>
        <time>2013-02-08T12:42:05Z</time>
      </trkpt>
      <trkpt lat="45.7104" lon="3.06643">
        <ele>679</ele>
        <time>2013-02-08T12:42:05Z</time>
      </trkpt>
      <trkpt lat="45.71042" lon="3.06643">
        <ele>679</ele>
        <time>2013-02-08T12:42:05Z</time>
      </trkpt>
      <trkpt lat="45.71045" lon="3.06643">
        <ele>678</ele>
        <time>2013-02-08T12:42:05Z</time>
      </trkpt>
      <trkpt lat="45.71047" lon="3.06643">
        <ele>678</ele>
        <time>2013-02-08T12:42:05Z</time>
      </trkpt>
      <trkpt lat="45.71049" lon="3.06644">
        <ele>678</ele>
        <time>2013-02-08T12:42:05Z</time>
      </trkpt>
      <trkpt lat="45.71052" lon="3.06644">
        <ele>678</ele>
        <time>2013-02-08T12:42:05Z</time>
      </trkpt>
      <trkpt lat="45.71054" lon="3.06644">
        <ele>678</ele>
        <time>2013-02-08T12:42:05Z</time>
      </trkpt>
      <trkpt lat="45.71057" lon="3.06644">
        <ele>678</ele>
        <time>2013-02-08T12:42:05Z</time>
      </trkpt>
      <trkpt lat="45.7106" lon="3.06644">
        <ele>678</ele>
        <time>2013-02-08T12:42:05Z</time>
      </trkpt>
      <trkpt lat="45.71061" lon="3.06645">
        <ele>678</ele>
        <time>2013-02-08T12:42:05Z</time>
      </trkpt>
      <trkpt lat="45.71064" lon="3.06645">
        <ele>677</ele>
        <time>2013-02-08T12:42:05Z</time>
      </trkpt>
      <trkpt lat="45.71066" lon="3.06646">
        <ele>677</ele>
        <time>2013-02-08T12:42:05Z</time>
      </trkpt>
      <trkpt lat="45.71067" lon="3.06646">
        <ele>677</ele>
        <time>2013-02-08T12:42:05Z</time>
      </trkpt>
      <trkpt lat="45.71069" lon="3.06647">
        <ele>677</ele>
        <time>2013-02-08T12:42:05Z</time>
      </trkpt>
      <trkpt lat="45.71071" lon="3.06648">
        <ele>677</ele>
        <time>2013-02-08T12:42:05Z</time>
      </trkpt>
      <trkpt lat="45.71074" lon="3.06648">
        <ele>676</ele>
        <time>2013-02-08T12:42:05Z</time>
      </trkpt>
      <trkpt lat="45.71075" lon="3.06649">
        <ele>676</ele>
        <time>2013-02-08T12:42:05Z</time>
      </trkpt>
      <trkpt lat="45.71079" lon="3.06649">
        <ele>676</ele>
        <time>2013-02-08T12:42:05Z</time>
      </trkpt>
      <trkpt lat="45.71082" lon="3.0665">
        <ele>676</ele>
        <time>2013-02-08T12:42:05Z</time>
      </trkpt>
      <trkpt lat="45.71084" lon="3.06651">
        <ele>675</ele>
        <time>2013-02-08T12:42:05Z</time>
      </trkpt>
      <trkpt lat="45.71086" lon="3.06652">
        <ele>675</ele>
        <time>2013-02-08T12:42:05Z</time>
      </trkpt>
      <trkpt lat="45.71089" lon="3.06652">
        <ele>675</ele>
        <time>2013-02-08T12:42:05Z</time>
      </trkpt>
      <trkpt lat="45.71091" lon="3.06652">
        <ele>675</ele>
        <time>2013-02-08T12:42:05Z</time>
      </trkpt>
      <trkpt lat="45.71093" lon="3.06653">
        <ele>675</ele>
        <time>2013-02-08T12:42:05Z</time>
      </trkpt>
      <trkpt lat="45.71095" lon="3.06654">
        <ele>675</ele>
        <time>2013-02-08T12:42:05Z</time>
      </trkpt>
      <trkpt lat="45.71097" lon="3.06656">
        <ele>675</ele>
        <time>2013-02-08T12:42:05Z</time>
      </trkpt>
      <trkpt lat="45.71099" lon="3.06658">
        <ele>675</ele>
        <time>2013-02-08T12:42:05Z</time>
      </trkpt>
      <trkpt lat="45.711" lon="3.06659">
        <ele>675</ele>
        <time>2013-02-08T12:42:05Z</time>
      </trkpt>
      <trkpt lat="45.71101" lon="3.06661">
        <ele>674</ele>
        <time>2013-02-08T12:42:05Z</time>
      </trkpt>
      <trkpt lat="45.71101" lon="3.06663">
        <ele>674</ele>
        <time>2013-02-08T12:42:05Z</time>
      </trkpt>
      <trkpt lat="45.71103" lon="3.06664">
        <ele>675</ele>
        <time>2013-02-08T12:42:05Z</time>
      </trkpt>
      <trkpt lat="45.71106" lon="3.06666">
        <ele>675</ele>
        <time>2013-02-08T12:42:05Z</time>
      </trkpt>
      <trkpt lat="45.71106" lon="3.06667">
        <ele>668</ele>
        <time>2013-02-08T12:42:05Z</time>
      </trkpt>
      <trkpt lat="45.71107" lon="3.0667">
        <ele>668</ele>
        <time>2013-02-08T12:42:05Z</time>
      </trkpt>
      <trkpt lat="45.71108" lon="3.06672">
        <ele>668</ele>
        <time>2013-02-08T12:42:05Z</time>
      </trkpt>
      <trkpt lat="45.71109" lon="3.06674">
        <ele>668</ele>
        <time>2013-02-08T12:42:05Z</time>
      </trkpt>
      <trkpt lat="45.7111" lon="3.06676">
        <ele>668</ele>
        <time>2013-02-08T12:42:05Z</time>
      </trkpt>
      <trkpt lat="45.71112" lon="3.06679">
        <ele>667</ele>
        <time>2013-02-08T12:42:05Z</time>
      </trkpt>
      <trkpt lat="45.71111" lon="3.06682">
        <ele>667</ele>
        <time>2013-02-08T12:42:05Z</time>
      </trkpt>
      <trkpt lat="45.71112" lon="3.06685">
        <ele>667</ele>
        <time>2013-02-08T12:42:05Z</time>
      </trkpt>
      <trkpt lat="45.71112" lon="3.06688">
        <ele>667</ele>
        <time>2013-02-08T12:42:05Z</time>
      </trkpt>
      <trkpt lat="45.71113" lon="3.06691">
        <ele>667</ele>
        <time>2013-02-08T12:42:05Z</time>
      </trkpt>
      <trkpt lat="45.71114" lon="3.06693">
        <ele>667</ele>
        <time>2013-02-08T12:42:05Z</time>
      </trkpt>
      <trkpt lat="45.71115" lon="3.06696">
        <ele>667</ele>
        <time>2013-02-08T12:42:05Z</time>
      </trkpt>
      <trkpt lat="45.71117" lon="3.06698">
        <ele>666</ele>
        <time>2013-02-08T12:42:05Z</time>
      </trkpt>
      <trkpt lat="45.71119" lon="3.067">
        <ele>666</ele>
        <time>2013-02-08T12:42:05Z</time>
      </trkpt>
      <trkpt lat="45.7112" lon="3.06702">
        <ele>666</ele>
        <time>2013-02-08T12:42:05Z</time>
      </trkpt>
      <trkpt lat="45.71121" lon="3.06705">
        <ele>666</ele>
        <time>2013-02-08T12:42:05Z</time>
      </trkpt>
      <trkpt lat="45.71122" lon="3.06708">
        <ele>666</ele>
        <time>2013-02-08T12:42:05Z</time>
      </trkpt>
      <trkpt lat="45.71125" lon="3.0671">
        <ele>666</ele>
        <time>2013-02-08T12:42:05Z</time>
      </trkpt>
      <trkpt lat="45.71127" lon="3.06712">
        <ele>666</ele>
        <time>2013-02-08T12:42:05Z</time>
      </trkpt>
      <trkpt lat="45.71129" lon="3.06714">
        <ele>665</ele>
        <time>2013-02-08T12:42:05Z</time>
      </trkpt>
      <trkpt lat="45.71131" lon="3.06716">
        <ele>665</ele>
        <time>2013-02-08T12:42:05Z</time>
      </trkpt>
      <trkpt lat="45.71133" lon="3.06718">
        <ele>665</ele>
        <time>2013-02-08T12:42:05Z</time>
      </trkpt>
      <trkpt lat="45.71134" lon="3.0672">
        <ele>665</ele>
        <time>2013-02-08T12:42:05Z</time>
      </trkpt>
      <trkpt lat="45.71136" lon="3.06722">
        <ele>665</ele>
        <time>2013-02-08T12:42:05Z</time>
      </trkpt>
      <trkpt lat="45.71137" lon="3.06724">
        <ele>665</ele>
        <time>2013-02-08T12:42:05Z</time>
      </trkpt>
      <trkpt lat="45.71139" lon="3.06726">
        <ele>665</ele>
        <time>2013-02-08T12:42:05Z</time>
      </trkpt>
      <trkpt lat="45.71142" lon="3.06729">
        <ele>664</ele>
        <time>2013-02-08T12:42:05Z</time>
      </trkpt>
      <trkpt lat="45.71144" lon="3.0673">
        <ele>664</ele>
        <time>2013-02-08T12:42:05Z</time>
      </trkpt>
      <trkpt lat="45.71146" lon="3.06732">
        <ele>664</ele>
        <time>2013-02-08T12:42:05Z</time>
      </trkpt>
      <trkpt lat="45.71149" lon="3.06734">
        <ele>664</ele>
        <time>2013-02-08T12:42:05Z</time>
      </trkpt>
      <trkpt lat="45.71151" lon="3.06734">
        <ele>663</ele>
        <time>2013-02-08T12:42:05Z</time>
      </trkpt>
      <trkpt lat="45.71153" lon="3.06735">
        <ele>663</ele>
        <time>2013-02-08T12:42:05Z</time>
      </trkpt>
      <trkpt lat="45.71155" lon="3.06736">
        <ele>663</ele>
        <time>2013-02-08T12:42:05Z</time>
      </trkpt>
      <trkpt lat="45.71157" lon="3.06738">
        <ele>663</ele>
        <time>2013-02-08T12:42:05Z</time>
      </trkpt>
      <trkpt lat="45.71161" lon="3.06738">
        <ele>662</ele>
        <time>2013-02-08T12:42:05Z</time>
      </trkpt>
      <trkpt lat="45.71163" lon="3.06739">
        <ele>662</ele>
        <time>2013-02-08T12:42:05Z</time>
      </trkpt>
      <trkpt lat="45.71164" lon="3.06739">
        <ele>662</ele>
        <time>2013-02-08T12:42:05Z</time>
      </trkpt>
      <trkpt lat="45.71166" lon="3.06739">
        <ele>662</ele>
        <time>2013-02-08T12:42:05Z</time>
      </trkpt>
      <trkpt lat="45.71169" lon="3.0674">
        <ele>660</ele>
        <time>2013-02-08T12:42:05Z</time>
      </trkpt>
      <trkpt lat="45.71171" lon="3.06741">
        <ele>660</ele>
        <time>2013-02-08T12:42:05Z</time>
      </trkpt>
      <trkpt lat="45.71173" lon="3.06742">
        <ele>660</ele>
        <time>2013-02-08T12:42:05Z</time>
      </trkpt>
      <trkpt lat="45.71174" lon="3.06743">
        <ele>660</ele>
        <time>2013-02-08T12:42:05Z</time>
      </trkpt>
      <trkpt lat="45.71176" lon="3.06743">
        <ele>660</ele>
        <time>2013-02-08T12:42:05Z</time>
      </trkpt>
      <trkpt lat="45.71178" lon="3.06744">
        <ele>660</ele>
        <time>2013-02-08T12:42:05Z</time>
      </trkpt>
      <trkpt lat="45.71179" lon="3.06746">
        <ele>660</ele>
        <time>2013-02-08T12:42:05Z</time>
      </trkpt>
      <trkpt lat="45.71183" lon="3.06748">
        <ele>660</ele>
        <time>2013-02-08T12:42:05Z</time>
      </trkpt>
      <trkpt lat="45.71185" lon="3.06749">
        <ele>660</ele>
        <time>2013-02-08T12:42:05Z</time>
      </trkpt>
      <trkpt lat="45.71188" lon="3.0675">
        <ele>659</ele>
        <time>2013-02-08T12:42:05Z</time>
      </trkpt>
      <trkpt lat="45.7119" lon="3.06751">
        <ele>656</ele>
        <time>2013-02-08T12:42:05Z</time>
      </trkpt>
      <trkpt lat="45.71192" lon="3.06752">
        <ele>656</ele>
        <time>2013-02-08T12:42:05Z</time>
      </trkpt>
      <trkpt lat="45.71194" lon="3.06753">
        <ele>656</ele>
        <time>2013-02-08T12:42:05Z</time>
      </trkpt>
      <trkpt lat="45.71195" lon="3.06753">
        <ele>656</ele>
        <time>2013-02-08T12:42:05Z</time>
      </trkpt>
      <trkpt lat="45.71196" lon="3.06755">
        <ele>656</ele>
        <time>2013-02-08T12:42:05Z</time>
      </trkpt>
      <trkpt lat="45.71198" lon="3.06756">
        <ele>655</ele>
        <time>2013-02-08T12:42:05Z</time>
      </trkpt>
      <trkpt lat="45.71202" lon="3.06756">
        <ele>655</ele>
        <time>2013-02-08T12:42:05Z</time>
      </trkpt>
      <trkpt lat="45.71205" lon="3.06759">
        <ele>655</ele>
        <time>2013-02-08T12:42:05Z</time>
      </trkpt>
      <trkpt lat="45.71205" lon="3.0676">
        <ele>655</ele>
        <time>2013-02-08T12:42:05Z</time>
      </trkpt>
      <trkpt lat="45.71205" lon="3.0676">
        <ele>655</ele>
        <time>2013-02-08T12:42:05Z</time>
      </trkpt>
      <trkpt lat="45.71205" lon="3.06761">
        <ele>655</ele>
        <time>2013-02-08T12:42:05Z</time>
      </trkpt>
      <trkpt lat="45.71206" lon="3.06761">
        <ele>655</ele>
        <time>2013-02-08T12:42:05Z</time>
      </trkpt>
      <trkpt lat="45.71205" lon="3.06764">
        <ele>655</ele>
        <time>2013-02-08T12:42:05Z</time>
      </trkpt>
      <trkpt lat="45.71204" lon="3.06763">
        <ele>655</ele>
        <time>2013-02-08T12:42:05Z</time>
      </trkpt>
      <trkpt lat="45.71204" lon="3.06762">
        <ele>655</ele>
        <time>2013-02-08T12:42:05Z</time>
      </trkpt>
      <trkpt lat="45.71204" lon="3.06762">
        <ele>655</ele>
        <time>2013-02-08T12:42:05Z</time>
      </trkpt>
      <trkpt lat="45.71204" lon="3.06762">
        <ele>655</ele>
        <time>2013-02-08T12:42:05Z</time>
      </trkpt>
      <trkpt lat="45.71203" lon="3.06762">
        <ele>655</ele>
        <time>2013-02-08T12:42:05Z</time>
      </trkpt>
      <trkpt lat="45.71203" lon="3.06761">
        <ele>655</ele>
        <time>2013-02-08T12:42:05Z</time>
      </trkpt>
      <trkpt lat="45.71203" lon="3.06763">
        <ele>655</ele>
        <time>2013-02-08T12:42:05Z</time>
      </trkpt>
      <trkpt lat="45.71203" lon="3.06764">
        <ele>655</ele>
        <time>2013-02-08T12:42:05Z</time>
      </trkpt>
      <trkpt lat="45.71204" lon="3.06763">
        <ele>655</ele>
        <time>2013-02-08T12:42:05Z</time>
      </trkpt>
      <trkpt lat="45.71206" lon="3.06762">
        <ele>655</ele>
        <time>2013-02-08T12:42:05Z</time>
      </trkpt>
      <trkpt lat="45.71207" lon="3.06762">
        <ele>655</ele>
        <time>2013-02-08T12:42:05Z</time>
      </trkpt>
      <trkpt lat="45.71208" lon="3.06763">
        <ele>654</ele>
        <time>2013-02-08T12:42:05Z</time>
      </trkpt>
      <trkpt lat="45.71211" lon="3.06763">
        <ele>654</ele>
        <time>2013-02-08T12:42:05Z</time>
      </trkpt>
      <trkpt lat="45.71212" lon="3.06762">
        <ele>654</ele>
        <time>2013-02-08T12:42:05Z</time>
      </trkpt>
      <trkpt lat="45.71215" lon="3.06762">
        <ele>654</ele>
        <time>2013-02-08T12:42:05Z</time>
      </trkpt>
      <trkpt lat="45.71218" lon="3.06762">
        <ele>654</ele>
        <time>2013-02-08T12:42:05Z</time>
      </trkpt>
      <trkpt lat="45.7122" lon="3.06763">
        <ele>654</ele>
        <time>2013-02-08T12:42:05Z</time>
      </trkpt>
      <trkpt lat="45.71221" lon="3.06764">
        <ele>654</ele>
        <time>2013-02-08T12:42:05Z</time>
      </trkpt>
      <trkpt lat="45.71224" lon="3.06764">
        <ele>653</ele>
        <time>2013-02-08T12:42:05Z</time>
      </trkpt>
      <trkpt lat="45.71225" lon="3.06765">
        <ele>653</ele>
        <time>2013-02-08T12:42:05Z</time>
      </trkpt>
      <trkpt lat="45.71227" lon="3.06766">
        <ele>653</ele>
        <time>2013-02-08T12:42:05Z</time>
      </trkpt>
      <trkpt lat="45.71229" lon="3.06767">
        <ele>653</ele>
        <time>2013-02-08T12:42:05Z</time>
      </trkpt>
      <trkpt lat="45.71233" lon="3.06767">
        <ele>653</ele>
        <time>2013-02-08T12:42:05Z</time>
      </trkpt>
      <trkpt lat="45.71239" lon="3.06767">
        <ele>653</ele>
        <time>2013-02-08T12:42:05Z</time>
      </trkpt>
      <trkpt lat="45.71243" lon="3.06767">
        <ele>652</ele>
        <time>2013-02-08T12:42:05Z</time>
      </trkpt>
      <trkpt lat="45.71245" lon="3.06768">
        <ele>652</ele>
        <time>2013-02-08T12:42:05Z</time>
      </trkpt>
      <trkpt lat="45.71247" lon="3.0677">
        <ele>652</ele>
        <time>2013-02-08T12:42:05Z</time>
      </trkpt>
      <trkpt lat="45.7125" lon="3.06771">
        <ele>652</ele>
        <time>2013-02-08T12:42:05Z</time>
      </trkpt>
      <trkpt lat="45.71252" lon="3.06772">
        <ele>649</ele>
        <time>2013-02-08T12:42:05Z</time>
      </trkpt>
      <trkpt lat="45.71255" lon="3.06774">
        <ele>649</ele>
        <time>2013-02-08T12:42:05Z</time>
      </trkpt>
      <trkpt lat="45.71256" lon="3.06775">
        <ele>649</ele>
        <time>2013-02-08T12:42:05Z</time>
      </trkpt>
      <trkpt lat="45.71258" lon="3.06776">
        <ele>649</ele>
        <time>2013-02-08T12:42:05Z</time>
      </trkpt>
      <trkpt lat="45.7126" lon="3.06777">
        <ele>649</ele>
        <time>2013-02-08T12:42:05Z</time>
      </trkpt>
      <trkpt lat="45.71263" lon="3.06778">
        <ele>649</ele>
        <time>2013-02-08T12:42:05Z</time>
      </trkpt>
      <trkpt lat="45.71265" lon="3.06779">
        <ele>649</ele>
        <time>2013-02-08T12:42:05Z</time>
      </trkpt>
      <trkpt lat="45.71267" lon="3.0678">
        <ele>649</ele>
        <time>2013-02-08T12:42:05Z</time>
      </trkpt>
      <trkpt lat="45.71269" lon="3.06782">
        <ele>649</ele>
        <time>2013-02-08T12:42:05Z</time>
      </trkpt>
      <trkpt lat="45.71271" lon="3.06784">
        <ele>649</ele>
        <time>2013-02-08T12:42:05Z</time>
      </trkpt>
      <trkpt lat="45.71273" lon="3.06785">
        <ele>649</ele>
        <time>2013-02-08T12:42:05Z</time>
      </trkpt>
      <trkpt lat="45.71275" lon="3.06787">
        <ele>649</ele>
        <time>2013-02-08T12:42:05Z</time>
      </trkpt>
      <trkpt lat="45.71278" lon="3.06788">
        <ele>649</ele>
        <time>2013-02-08T12:42:05Z</time>
      </trkpt>
      <trkpt lat="45.7128" lon="3.0679">
        <ele>649</ele>
        <time>2013-02-08T12:42:05Z</time>
      </trkpt>
      <trkpt lat="45.71282" lon="3.06792">
        <ele>648</ele>
        <time>2013-02-08T12:42:05Z</time>
      </trkpt>
      <trkpt lat="45.71284" lon="3.06793">
        <ele>648</ele>
        <time>2013-02-08T12:42:05Z</time>
      </trkpt>
      <trkpt lat="45.71286" lon="3.06794">
        <ele>648</ele>
        <time>2013-02-08T12:42:05Z</time>
      </trkpt>
      <trkpt lat="45.71288" lon="3.06795">
        <ele>648</ele>
        <time>2013-02-08T12:42:05Z</time>
      </trkpt>
      <trkpt lat="45.7129" lon="3.06797">
        <ele>648</ele>
        <time>2013-02-08T12:42:05Z</time>
      </trkpt>
      <trkpt lat="45.71292" lon="3.06799">
        <ele>648</ele>
        <time>2013-02-08T12:42:05Z</time>
      </trkpt>
      <trkpt lat="45.71295" lon="3.068">
        <ele>648</ele>
        <time>2013-02-08T12:42:05Z</time>
      </trkpt>
      <trkpt lat="45.71297" lon="3.06802">
        <ele>648</ele>
        <time>2013-02-08T12:42:05Z</time>
      </trkpt>
      <trkpt lat="45.713" lon="3.06803">
        <ele>648</ele>
        <time>2013-02-08T12:42:05Z</time>
      </trkpt>
      <trkpt lat="45.71302" lon="3.06805">
        <ele>648</ele>
        <time>2013-02-08T12:42:05Z</time>
      </trkpt>
      <trkpt lat="45.71304" lon="3.06807">
        <ele>648</ele>
        <time>2013-02-08T12:42:05Z</time>
      </trkpt>
      <trkpt lat="45.71306" lon="3.06808">
        <ele>648</ele>
        <time>2013-02-08T12:42:05Z</time>
      </trkpt>
      <trkpt lat="45.71309" lon="3.0681">
        <ele>648</ele>
        <time>2013-02-08T12:42:05Z</time>
      </trkpt>
      <trkpt lat="45.71311" lon="3.06812">
        <ele>648</ele>
        <time>2013-02-08T12:42:05Z</time>
      </trkpt>
      <trkpt lat="45.71313" lon="3.06813">
        <ele>648</ele>
        <time>2013-02-08T12:42:05Z</time>
      </trkpt>
      <trkpt lat="45.71315" lon="3.06815">
        <ele>648</ele>
        <time>2013-02-08T12:42:05Z</time>
      </trkpt>
      <trkpt lat="45.71317" lon="3.06817">
        <ele>648</ele>
        <time>2013-02-08T12:42:05Z</time>
      </trkpt>
      <trkpt lat="45.71319" lon="3.06818">
        <ele>648</ele>
        <time>2013-02-08T12:42:05Z</time>
      </trkpt>
      <trkpt lat="45.71321" lon="3.0682">
        <ele>648</ele>
        <time>2013-02-08T12:42:05Z</time>
      </trkpt>
      <trkpt lat="45.71323" lon="3.06821">
        <ele>648</ele>
        <time>2013-02-08T12:42:05Z</time>
      </trkpt>
      <trkpt lat="45.71324" lon="3.0682">
        <ele>648</ele>
        <time>2013-02-08T12:42:05Z</time>
      </trkpt>
      <trkpt lat="45.71325" lon="3.0682">
        <ele>647</ele>
        <time>2013-02-08T12:42:05Z</time>
      </trkpt>
      <trkpt lat="45.71328" lon="3.06821">
        <ele>647</ele>
        <time>2013-02-08T12:42:05Z</time>
      </trkpt>
      <trkpt lat="45.7133" lon="3.06821">
        <ele>647</ele>
        <time>2013-02-08T12:42:05Z</time>
      </trkpt>
      <trkpt lat="45.71335" lon="3.06819">
        <ele>647</ele>
        <time>2013-02-08T12:42:05Z</time>
      </trkpt>
      <trkpt lat="45.71336" lon="3.06819">
        <ele>647</ele>
        <time>2013-02-08T12:42:05Z</time>
      </trkpt>
      <trkpt lat="45.71336" lon="3.06818">
        <ele>647</ele>
        <time>2013-02-08T12:42:05Z</time>
      </trkpt>
      <trkpt lat="45.71336" lon="3.06817">
        <ele>647</ele>
        <time>2013-02-08T12:42:05Z</time>
      </trkpt>
      <trkpt lat="45.71335" lon="3.06816">
        <ele>647</ele>
        <time>2013-02-08T12:42:05Z</time>
      </trkpt>
      <trkpt lat="45.71334" lon="3.06812">
        <ele>647</ele>
        <time>2013-02-08T12:42:05Z</time>
      </trkpt>
      <trkpt lat="45.71333" lon="3.06809">
        <ele>648</ele>
        <time>2013-02-08T12:42:05Z</time>
      </trkpt>
      <trkpt lat="45.71334" lon="3.06807">
        <ele>647</ele>
        <time>2013-02-08T12:42:05Z</time>
      </trkpt>
      <trkpt lat="45.71333" lon="3.06802">
        <ele>648</ele>
        <time>2013-02-08T12:42:05Z</time>
      </trkpt>
      <trkpt lat="45.71334" lon="3.06799">
        <ele>646</ele>
        <time>2013-02-08T12:42:05Z</time>
      </trkpt>
      <trkpt lat="45.71335" lon="3.06796">
        <ele>646</ele>
        <time>2013-02-08T12:42:05Z</time>
      </trkpt>
      <trkpt lat="45.71336" lon="3.06793">
        <ele>646</ele>
        <time>2013-02-08T12:42:05Z</time>
      </trkpt>
      <trkpt lat="45.71336" lon="3.06789">
        <ele>646</ele>
        <time>2013-02-08T12:42:05Z</time>
      </trkpt>
      <trkpt lat="45.71335" lon="3.06785">
        <ele>646</ele>
        <time>2013-02-08T12:42:05Z</time>
      </trkpt>
      <trkpt lat="45.71335" lon="3.06782">
        <ele>646</ele>
        <time>2013-02-08T12:42:05Z</time>
      </trkpt>
      <trkpt lat="45.71335" lon="3.06779">
        <ele>646</ele>
        <time>2013-02-08T12:42:05Z</time>
      </trkpt>
      <trkpt lat="45.71337" lon="3.06777">
        <ele>646</ele>
        <time>2013-02-08T12:42:05Z</time>
      </trkpt>
      <trkpt lat="45.71338" lon="3.06774">
        <ele>646</ele>
        <time>2013-02-08T12:42:05Z</time>
      </trkpt>
      <trkpt lat="45.7134" lon="3.06771">
        <ele>646</ele>
        <time>2013-02-08T12:42:05Z</time>
      </trkpt>
      <trkpt lat="45.71341" lon="3.06768">
        <ele>646</ele>
        <time>2013-02-08T12:42:05Z</time>
      </trkpt>
      <trkpt lat="45.71343" lon="3.06765">
        <ele>646</ele>
        <time>2013-02-08T12:42:05Z</time>
      </trkpt>
      <trkpt lat="45.71344" lon="3.06762">
        <ele>646</ele>
        <time>2013-02-08T12:42:05Z</time>
      </trkpt>
      <trkpt lat="45.71346" lon="3.0676">
        <ele>646</ele>
        <time>2013-02-08T12:42:05Z</time>
      </trkpt>
      <trkpt lat="45.71347" lon="3.06758">
        <ele>646</ele>
        <time>2013-02-08T12:42:05Z</time>
      </trkpt>
      <trkpt lat="45.7135" lon="3.06756">
        <ele>646</ele>
        <time>2013-02-08T12:42:05Z</time>
      </trkpt>
      <trkpt lat="45.71352" lon="3.06754">
        <ele>646</ele>
        <time>2013-02-08T12:42:05Z</time>
      </trkpt>
      <trkpt lat="45.71354" lon="3.06751">
        <ele>646</ele>
        <time>2013-02-08T12:42:05Z</time>
      </trkpt>
      <trkpt lat="45.71356" lon="3.06749">
        <ele>646</ele>
        <time>2013-02-08T12:42:05Z</time>
      </trkpt>
      <trkpt lat="45.71358" lon="3.06748">
        <ele>646</ele>
        <time>2013-02-08T12:42:05Z</time>
      </trkpt>
      <trkpt lat="45.71361" lon="3.06746">
        <ele>646</ele>
        <time>2013-02-08T12:42:05Z</time>
      </trkpt>
      <trkpt lat="45.71364" lon="3.06744">
        <ele>646</ele>
        <time>2013-02-08T12:42:05Z</time>
      </trkpt>
      <trkpt lat="45.71367" lon="3.06742">
        <ele>646</ele>
        <time>2013-02-08T12:42:05Z</time>
      </trkpt>
      <trkpt lat="45.71369" lon="3.0674">
        <ele>646</ele>
        <time>2013-02-08T12:42:05Z</time>
      </trkpt>
      <trkpt lat="45.71371" lon="3.06738">
        <ele>646</ele>
        <time>2013-02-08T12:42:05Z</time>
      </trkpt>
      <trkpt lat="45.71372" lon="3.06736">
        <ele>646</ele>
        <time>2013-02-08T12:42:05Z</time>
      </trkpt>
      <trkpt lat="45.71373" lon="3.06732">
        <ele>646</ele>
        <time>2013-02-08T12:42:05Z</time>
      </trkpt>
      <trkpt lat="45.71373" lon="3.06728">
        <ele>646</ele>
        <time>2013-02-08T12:42:05Z</time>
      </trkpt>
      <trkpt lat="45.71376" lon="3.06725">
        <ele>645</ele>
        <time>2013-02-08T12:42:05Z</time>
      </trkpt>
      <trkpt lat="45.71377" lon="3.06722">
        <ele>645</ele>
        <time>2013-02-08T12:42:05Z</time>
      </trkpt>
      <trkpt lat="45.71378" lon="3.0672">
        <ele>645</ele>
        <time>2013-02-08T12:42:05Z</time>
      </trkpt>
      <trkpt lat="45.7138" lon="3.06717">
        <ele>645</ele>
        <time>2013-02-08T12:42:05Z</time>
      </trkpt>
      <trkpt lat="45.71381" lon="3.06714">
        <ele>645</ele>
        <time>2013-02-08T12:42:05Z</time>
      </trkpt>
      <trkpt lat="45.71382" lon="3.06711">
        <ele>645</ele>
        <time>2013-02-08T12:42:05Z</time>
      </trkpt>
      <trkpt lat="45.71384" lon="3.06708">
        <ele>645</ele>
        <time>2013-02-08T12:42:05Z</time>
      </trkpt>
      <trkpt lat="45.71386" lon="3.06707">
        <ele>645</ele>
        <time>2013-02-08T12:42:05Z</time>
      </trkpt>
      <trkpt lat="45.71388" lon="3.06704">
        <ele>645</ele>
        <time>2013-02-08T12:42:05Z</time>
      </trkpt>
      <trkpt lat="45.71389" lon="3.06702">
        <ele>645</ele>
        <time>2013-02-08T12:42:05Z</time>
      </trkpt>
      <trkpt lat="45.71391" lon="3.06699">
        <ele>645</ele>
        <time>2013-02-08T12:42:05Z</time>
      </trkpt>
      <trkpt lat="45.71393" lon="3.06697">
        <ele>645</ele>
        <time>2013-02-08T12:42:05Z</time>
      </trkpt>
      <trkpt lat="45.71395" lon="3.06695">
        <ele>645</ele>
        <time>2013-02-08T12:42:05Z</time>
      </trkpt>
      <trkpt lat="45.71397" lon="3.06693">
        <ele>645</ele>
        <time>2013-02-08T12:42:05Z</time>
      </trkpt>
      <trkpt lat="45.71399" lon="3.06692">
        <ele>645</ele>
        <time>2013-02-08T12:42:05Z</time>
      </trkpt>
      <trkpt lat="45.71401" lon="3.0669">
        <ele>644</ele>
        <time>2013-02-08T12:42:05Z</time>
      </trkpt>
      <trkpt lat="45.71403" lon="3.06688">
        <ele>644</ele>
        <time>2013-02-08T12:42:05Z</time>
      </trkpt>
      <trkpt lat="45.71405" lon="3.06686">
        <ele>644</ele>
        <time>2013-02-08T12:42:05Z</time>
      </trkpt>
      <trkpt lat="45.71406" lon="3.06684">
        <ele>644</ele>
        <time>2013-02-08T12:42:05Z</time>
      </trkpt>
      <trkpt lat="45.71408" lon="3.06681">
        <ele>644</ele>
        <time>2013-02-08T12:42:05Z</time>
      </trkpt>
      <trkpt lat="45.7141" lon="3.06678">
        <ele>644</ele>
        <time>2013-02-08T12:42:05Z</time>
      </trkpt>
      <trkpt lat="45.71412" lon="3.06675">
        <ele>643</ele>
        <time>2013-02-08T12:42:05Z</time>
      </trkpt>
      <trkpt lat="45.71412" lon="3.06672">
        <ele>643</ele>
        <time>2013-02-08T12:42:05Z</time>
      </trkpt>
      <trkpt lat="45.71414" lon="3.0667">
        <ele>643</ele>
        <time>2013-02-08T12:42:05Z</time>
      </trkpt>
      <trkpt lat="45.71416" lon="3.06668">
        <ele>642</ele>
        <time>2013-02-08T12:42:05Z</time>
      </trkpt>
      <trkpt lat="45.71418" lon="3.06665">
        <ele>642</ele>
        <time>2013-02-08T12:42:05Z</time>
      </trkpt>
      <trkpt lat="45.7142" lon="3.06662">
        <ele>642</ele>
        <time>2013-02-08T12:42:05Z</time>
      </trkpt>
      <trkpt lat="45.71423" lon="3.06661">
        <ele>642</ele>
        <time>2013-02-08T12:42:05Z</time>
      </trkpt>
      <trkpt lat="45.71425" lon="3.0666">
        <ele>643</ele>
        <time>2013-02-08T12:42:05Z</time>
      </trkpt>
      <trkpt lat="45.71427" lon="3.06658">
        <ele>643</ele>
        <time>2013-02-08T12:42:05Z</time>
      </trkpt>
      <trkpt lat="45.7143" lon="3.06657">
        <ele>643</ele>
        <time>2013-02-08T12:42:05Z</time>
      </trkpt>
      <trkpt lat="45.71431" lon="3.06656">
        <ele>643</ele>
        <time>2013-02-08T12:42:05Z</time>
      </trkpt>
      <trkpt lat="45.71433" lon="3.06653">
        <ele>643</ele>
        <time>2013-02-08T12:42:05Z</time>
      </trkpt>
      <trkpt lat="45.71436" lon="3.06652">
        <ele>643</ele>
        <time>2013-02-08T12:42:05Z</time>
      </trkpt>
      <trkpt lat="45.71438" lon="3.0665">
        <ele>643</ele>
        <time>2013-02-08T12:42:05Z</time>
      </trkpt>
      <trkpt lat="45.7144" lon="3.06648">
        <ele>643</ele>
        <time>2013-02-08T12:42:05Z</time>
      </trkpt>
      <trkpt lat="45.71442" lon="3.06646">
        <ele>643</ele>
        <time>2013-02-08T12:42:05Z</time>
      </trkpt>
      <trkpt lat="45.71443" lon="3.06641">
        <ele>643</ele>
        <time>2013-02-08T12:42:05Z</time>
      </trkpt>
      <trkpt lat="45.71445" lon="3.06638">
        <ele>643</ele>
        <time>2013-02-08T12:42:05Z</time>
      </trkpt>
      <trkpt lat="45.71446" lon="3.06635">
        <ele>643</ele>
        <time>2013-02-08T12:42:05Z</time>
      </trkpt>
      <trkpt lat="45.71447" lon="3.06633">
        <ele>643</ele>
        <time>2013-02-08T12:42:05Z</time>
      </trkpt>
      <trkpt lat="45.71449" lon="3.06632">
        <ele>643</ele>
        <time>2013-02-08T12:42:05Z</time>
      </trkpt>
      <trkpt lat="45.71452" lon="3.06628">
        <ele>643</ele>
        <time>2013-02-08T12:42:05Z</time>
      </trkpt>
      <trkpt lat="45.71454" lon="3.06625">
        <ele>643</ele>
        <time>2013-02-08T12:42:05Z</time>
      </trkpt>
      <trkpt lat="45.71456" lon="3.06623">
        <ele>643</ele>
        <time>2013-02-08T12:42:05Z</time>
      </trkpt>
      <trkpt lat="45.71457" lon="3.06621">
        <ele>643</ele>
        <time>2013-02-08T12:42:05Z</time>
      </trkpt>
      <trkpt lat="45.71459" lon="3.06619">
        <ele>643</ele>
        <time>2013-02-08T12:42:05Z</time>
      </trkpt>
      <trkpt lat="45.7146" lon="3.06617">
        <ele>643</ele>
        <time>2013-02-08T12:42:05Z</time>
      </trkpt>
      <trkpt lat="45.71462" lon="3.06615">
        <ele>643</ele>
        <time>2013-02-08T12:42:05Z</time>
      </trkpt>
      <trkpt lat="45.71465" lon="3.06613">
        <ele>643</ele>
        <time>2013-02-08T12:42:05Z</time>
      </trkpt>
      <trkpt lat="45.71466" lon="3.06611">
        <ele>643</ele>
        <time>2013-02-08T12:42:05Z</time>
      </trkpt>
      <trkpt lat="45.71469" lon="3.0661">
        <ele>643</ele>
        <time>2013-02-08T12:42:05Z</time>
      </trkpt>
      <trkpt lat="45.71471" lon="3.06606">
        <ele>643</ele>
        <time>2013-02-08T12:42:05Z</time>
      </trkpt>
      <trkpt lat="45.71473" lon="3.06604">
        <ele>643</ele>
        <time>2013-02-08T12:42:05Z</time>
      </trkpt>
      <trkpt lat="45.71474" lon="3.06601">
        <ele>642</ele>
        <time>2013-02-08T12:42:05Z</time>
      </trkpt>
      <trkpt lat="45.71476" lon="3.06598">
        <ele>642</ele>
        <time>2013-02-08T12:42:05Z</time>
      </trkpt>
      <trkpt lat="45.71479" lon="3.06596">
        <ele>642</ele>
        <time>2013-02-08T12:42:05Z</time>
      </trkpt>
      <trkpt lat="45.71482" lon="3.06594">
        <ele>642</ele>
        <time>2013-02-08T12:42:05Z</time>
      </trkpt>
      <trkpt lat="45.71485" lon="3.06592">
        <ele>641</ele>
        <time>2013-02-08T12:42:05Z</time>
      </trkpt>
      <trkpt lat="45.71488" lon="3.0659">
        <ele>641</ele>
        <time>2013-02-08T12:42:05Z</time>
      </trkpt>
      <trkpt lat="45.7149" lon="3.06589">
        <ele>641</ele>
        <time>2013-02-08T12:42:05Z</time>
      </trkpt>
      <trkpt lat="45.71492" lon="3.06587">
        <ele>640</ele>
        <time>2013-02-08T12:42:05Z</time>
      </trkpt>
      <trkpt lat="45.71495" lon="3.06585">
        <ele>640</ele>
        <time>2013-02-08T12:42:05Z</time>
      </trkpt>
      <trkpt lat="45.71498" lon="3.06582">
        <ele>640</ele>
        <time>2013-02-08T12:42:05Z</time>
      </trkpt>
      <trkpt lat="45.715" lon="3.0658">
        <ele>640</ele>
        <time>2013-02-08T12:42:05Z</time>
      </trkpt>
      <trkpt lat="45.71502" lon="3.06578">
        <ele>639</ele>
        <time>2013-02-08T12:42:05Z</time>
      </trkpt>
      <trkpt lat="45.71502" lon="3.06577">
        <ele>639</ele>
        <time>2013-02-08T12:42:05Z</time>
      </trkpt>
      <trkpt lat="45.71504" lon="3.06575">
        <ele>639</ele>
        <time>2013-02-08T12:42:05Z</time>
      </trkpt>
      <trkpt lat="45.71506" lon="3.06572">
        <ele>639</ele>
        <time>2013-02-08T12:42:05Z</time>
      </trkpt>
      <trkpt lat="45.71507" lon="3.0657">
        <ele>639</ele>
        <time>2013-02-08T12:42:05Z</time>
      </trkpt>
      <trkpt lat="45.71508" lon="3.06568">
        <ele>640</ele>
        <time>2013-02-08T12:42:05Z</time>
      </trkpt>
      <trkpt lat="45.7151" lon="3.06566">
        <ele>640</ele>
        <time>2013-02-08T12:42:05Z</time>
      </trkpt>
      <trkpt lat="45.71511" lon="3.06564">
        <ele>640</ele>
        <time>2013-02-08T12:42:05Z</time>
      </trkpt>
      <trkpt lat="45.71513" lon="3.06562">
        <ele>640</ele>
        <time>2013-02-08T12:42:05Z</time>
      </trkpt>
      <trkpt lat="45.71515" lon="3.0656">
        <ele>640</ele>
        <time>2013-02-08T12:42:05Z</time>
      </trkpt>
      <trkpt lat="45.71517" lon="3.06559">
        <ele>640</ele>
        <time>2013-02-08T12:42:05Z</time>
      </trkpt>
      <trkpt lat="45.71522" lon="3.06554">
        <ele>640</ele>
        <time>2013-02-08T12:42:05Z</time>
      </trkpt>
      <trkpt lat="45.71526" lon="3.0655">
        <ele>640</ele>
        <time>2013-02-08T12:42:05Z</time>
      </trkpt>
      <trkpt lat="45.71528" lon="3.06548">
        <ele>640</ele>
        <time>2013-02-08T12:42:05Z</time>
      </trkpt>
      <trkpt lat="45.7153" lon="3.06546">
        <ele>640</ele>
        <time>2013-02-08T12:42:05Z</time>
      </trkpt>
      <trkpt lat="45.71532" lon="3.06544">
        <ele>640</ele>
        <time>2013-02-08T12:42:05Z</time>
      </trkpt>
      <trkpt lat="45.71534" lon="3.06542">
        <ele>640</ele>
        <time>2013-02-08T12:42:05Z</time>
      </trkpt>
      <trkpt lat="45.71536" lon="3.0654">
        <ele>640</ele>
        <time>2013-02-08T12:42:05Z</time>
      </trkpt>
      <trkpt lat="45.71538" lon="3.06539">
        <ele>640</ele>
        <time>2013-02-08T12:42:05Z</time>
      </trkpt>
      <trkpt lat="45.7154" lon="3.06536">
        <ele>640</ele>
        <time>2013-02-08T12:42:05Z</time>
      </trkpt>
      <trkpt lat="45.71542" lon="3.06534">
        <ele>640</ele>
        <time>2013-02-08T12:42:05Z</time>
      </trkpt>
      <trkpt lat="45.71544" lon="3.06533">
        <ele>640</ele>
        <time>2013-02-08T12:42:05Z</time>
      </trkpt>
      <trkpt lat="45.71546" lon="3.06531">
        <ele>640</ele>
        <time>2013-02-08T12:42:05Z</time>
      </trkpt>
      <trkpt lat="45.71549" lon="3.0653">
        <ele>640</ele>
        <time>2013-02-08T12:42:05Z</time>
      </trkpt>
      <trkpt lat="45.71551" lon="3.06529">
        <ele>640</ele>
        <time>2013-02-08T12:42:05Z</time>
      </trkpt>
      <trkpt lat="45.71554" lon="3.06528">
        <ele>640</ele>
        <time>2013-02-08T12:42:05Z</time>
      </trkpt>
      <trkpt lat="45.71557" lon="3.06527">
        <ele>640</ele>
        <time>2013-02-08T12:42:05Z</time>
      </trkpt>
      <trkpt lat="45.7156" lon="3.06527">
        <ele>639</ele>
        <time>2013-02-08T12:42:05Z</time>
      </trkpt>
      <trkpt lat="45.71562" lon="3.06527">
        <ele>639</ele>
        <time>2013-02-08T12:42:05Z</time>
      </trkpt>
      <trkpt lat="45.71565" lon="3.06526">
        <ele>639</ele>
        <time>2013-02-08T12:42:05Z</time>
      </trkpt>
      <trkpt lat="45.71567" lon="3.06525">
        <ele>639</ele>
        <time>2013-02-08T12:42:05Z</time>
      </trkpt>
      <trkpt lat="45.71568" lon="3.06524">
        <ele>639</ele>
        <time>2013-02-08T12:42:05Z</time>
      </trkpt>
      <trkpt lat="45.71571" lon="3.06524">
        <ele>639</ele>
        <time>2013-02-08T12:42:05Z</time>
      </trkpt>
      <trkpt lat="45.71573" lon="3.06523">
        <ele>639</ele>
        <time>2013-02-08T12:42:05Z</time>
      </trkpt>
      <trkpt lat="45.71575" lon="3.06523">
        <ele>639</ele>
        <time>2013-02-08T12:42:05Z</time>
      </trkpt>
      <trkpt lat="45.71578" lon="3.06523">
        <ele>639</ele>
        <time>2013-02-08T12:42:05Z</time>
      </trkpt>
      <trkpt lat="45.7158" lon="3.06523">
        <ele>639</ele>
        <time>2013-02-08T12:42:05Z</time>
      </trkpt>
      <trkpt lat="45.71582" lon="3.06522">
        <ele>639</ele>
        <time>2013-02-08T12:42:05Z</time>
      </trkpt>
      <trkpt lat="45.71582" lon="3.06522">
        <ele>639</ele>
        <time>2013-02-08T12:42:05Z</time>
      </trkpt>
      <trkpt lat="45.71584" lon="3.06524">
        <ele>637</ele>
        <time>2013-02-08T12:42:05Z</time>
      </trkpt>
      <trkpt lat="45.71586" lon="3.06524">
        <ele>637</ele>
        <time>2013-02-08T12:42:05Z</time>
      </trkpt>
      <trkpt lat="45.71588" lon="3.06525">
        <ele>637</ele>
        <time>2013-02-08T12:42:05Z</time>
      </trkpt>
      <trkpt lat="45.71589" lon="3.06526">
        <ele>637</ele>
        <time>2013-02-08T12:42:05Z</time>
      </trkpt>
      <trkpt lat="45.71589" lon="3.06527">
        <ele>637</ele>
        <time>2013-02-08T12:42:05Z</time>
      </trkpt>
      <trkpt lat="45.7159" lon="3.06528">
        <ele>637</ele>
        <time>2013-02-08T12:42:05Z</time>
      </trkpt>
      <trkpt lat="45.71591" lon="3.06529">
        <ele>637</ele>
        <time>2013-02-08T12:42:05Z</time>
      </trkpt>
      <trkpt lat="45.71599" lon="3.06529">
        <ele>637</ele>
        <time>2013-02-08T12:42:05Z</time>
      </trkpt>
      <trkpt lat="45.71602" lon="3.0653">
        <ele>636</ele>
        <time>2013-02-08T12:42:05Z</time>
      </trkpt>
      <trkpt lat="45.71604" lon="3.06531">
        <ele>636</ele>
        <time>2013-02-08T12:42:05Z</time>
      </trkpt>
      <trkpt lat="45.71607" lon="3.06533">
        <ele>636</ele>
        <time>2013-02-08T12:42:05Z</time>
      </trkpt>
      <trkpt lat="45.71609" lon="3.06534">
        <ele>636</ele>
        <time>2013-02-08T12:42:05Z</time>
      </trkpt>
      <trkpt lat="45.71617" lon="3.06534">
        <ele>636</ele>
        <time>2013-02-08T12:42:05Z</time>
      </trkpt>
      <trkpt lat="45.71619" lon="3.06535">
        <ele>636</ele>
        <time>2013-02-08T12:42:05Z</time>
      </trkpt>
      <trkpt lat="45.71619" lon="3.06537">
        <ele>636</ele>
        <time>2013-02-08T12:42:05Z</time>
      </trkpt>
      <trkpt lat="45.7162" lon="3.06538">
        <ele>636</ele>
        <time>2013-02-08T12:42:05Z</time>
      </trkpt>
      <trkpt lat="45.71619" lon="3.0654">
        <ele>636</ele>
        <time>2013-02-08T12:42:05Z</time>
      </trkpt>
      <trkpt lat="45.71621" lon="3.06542">
        <ele>636</ele>
        <time>2013-02-08T12:42:05Z</time>
      </trkpt>
      <trkpt lat="45.71623" lon="3.06543">
        <ele>636</ele>
        <time>2013-02-08T12:42:05Z</time>
      </trkpt>
      <trkpt lat="45.71626" lon="3.06544">
        <ele>636</ele>
        <time>2013-02-08T12:42:05Z</time>
      </trkpt>
      <trkpt lat="45.71627" lon="3.06545">
        <ele>636</ele>
        <time>2013-02-08T12:42:05Z</time>
      </trkpt>
      <trkpt lat="45.7163" lon="3.06546">
        <ele>635</ele>
        <time>2013-02-08T12:42:05Z</time>
      </trkpt>
      <trkpt lat="45.71633" lon="3.06548">
        <ele>635</ele>
        <time>2013-02-08T12:42:05Z</time>
      </trkpt>
      <trkpt lat="45.71637" lon="3.0655">
        <ele>635</ele>
        <time>2013-02-08T12:42:05Z</time>
      </trkpt>
      <trkpt lat="45.7164" lon="3.06552">
        <ele>635</ele>
        <time>2013-02-08T12:42:05Z</time>
      </trkpt>
      <trkpt lat="45.71642" lon="3.06554">
        <ele>635</ele>
        <time>2013-02-08T12:42:05Z</time>
      </trkpt>
      <trkpt lat="45.71644" lon="3.06555">
        <ele>635</ele>
        <time>2013-02-08T12:42:05Z</time>
      </trkpt>
      <trkpt lat="45.71647" lon="3.06556">
        <ele>634</ele>
        <time>2013-02-08T12:42:05Z</time>
      </trkpt>
      <trkpt lat="45.71649" lon="3.06557">
        <ele>634</ele>
        <time>2013-02-08T12:42:05Z</time>
      </trkpt>
      <trkpt lat="45.71651" lon="3.06558">
        <ele>634</ele>
        <time>2013-02-08T12:42:05Z</time>
      </trkpt>
      <trkpt lat="45.71654" lon="3.0656">
        <ele>634</ele>
        <time>2013-02-08T12:42:05Z</time>
      </trkpt>
      <trkpt lat="45.71655" lon="3.06561">
        <ele>634</ele>
        <time>2013-02-08T12:42:05Z</time>
      </trkpt>
      <trkpt lat="45.71655" lon="3.06563">
        <ele>633</ele>
        <time>2013-02-08T12:42:05Z</time>
      </trkpt>
      <trkpt lat="45.71657" lon="3.06565">
        <ele>633</ele>
        <time>2013-02-08T12:42:05Z</time>
      </trkpt>
      <trkpt lat="45.7166" lon="3.06566">
        <ele>633</ele>
        <time>2013-02-08T12:42:05Z</time>
      </trkpt>
      <trkpt lat="45.71661" lon="3.06567">
        <ele>633</ele>
        <time>2013-02-08T12:42:05Z</time>
      </trkpt>
      <trkpt lat="45.71663" lon="3.06569">
        <ele>632</ele>
        <time>2013-02-08T12:42:05Z</time>
      </trkpt>
      <trkpt lat="45.71666" lon="3.06571">
        <ele>632</ele>
        <time>2013-02-08T12:42:05Z</time>
      </trkpt>
      <trkpt lat="45.71671" lon="3.06572">
        <ele>630</ele>
        <time>2013-02-08T12:42:05Z</time>
      </trkpt>
      <trkpt lat="45.71673" lon="3.06574">
        <ele>630</ele>
        <time>2013-02-08T12:42:05Z</time>
      </trkpt>
      <trkpt lat="45.71672" lon="3.06577">
        <ele>630</ele>
        <time>2013-02-08T12:42:05Z</time>
      </trkpt>
      <trkpt lat="45.71675" lon="3.06577">
        <ele>630</ele>
        <time>2013-02-08T12:42:05Z</time>
      </trkpt>
      <trkpt lat="45.71677" lon="3.06579">
        <ele>630</ele>
        <time>2013-02-08T12:42:05Z</time>
      </trkpt>
      <trkpt lat="45.71679" lon="3.0658">
        <ele>630</ele>
        <time>2013-02-08T12:42:05Z</time>
      </trkpt>
      <trkpt lat="45.71682" lon="3.06582">
        <ele>630</ele>
        <time>2013-02-08T12:42:05Z</time>
      </trkpt>
      <trkpt lat="45.71684" lon="3.06583">
        <ele>630</ele>
        <time>2013-02-08T12:42:05Z</time>
      </trkpt>
      <trkpt lat="45.71687" lon="3.06584">
        <ele>628</ele>
        <time>2013-02-08T12:42:05Z</time>
      </trkpt>
      <trkpt lat="45.71689" lon="3.06586">
        <ele>628</ele>
        <time>2013-02-08T12:42:05Z</time>
      </trkpt>
      <trkpt lat="45.71691" lon="3.06587">
        <ele>628</ele>
        <time>2013-02-08T12:42:05Z</time>
      </trkpt>
      <trkpt lat="45.71693" lon="3.06588">
        <ele>628</ele>
        <time>2013-02-08T12:42:05Z</time>
      </trkpt>
      <trkpt lat="45.71695" lon="3.06589">
        <ele>628</ele>
        <time>2013-02-08T12:42:05Z</time>
      </trkpt>
      <trkpt lat="45.71696" lon="3.0659">
        <ele>628</ele>
        <time>2013-02-08T12:42:05Z</time>
      </trkpt>
      <trkpt lat="45.71699" lon="3.06591">
        <ele>628</ele>
        <time>2013-02-08T12:42:05Z</time>
      </trkpt>
      <trkpt lat="45.71702" lon="3.06592">
        <ele>628</ele>
        <time>2013-02-08T12:42:05Z</time>
      </trkpt>
      <trkpt lat="45.71704" lon="3.06593">
        <ele>628</ele>
        <time>2013-02-08T12:42:05Z</time>
      </trkpt>
      <trkpt lat="45.71706" lon="3.06594">
        <ele>628</ele>
        <time>2013-02-08T12:42:05Z</time>
      </trkpt>
      <trkpt lat="45.71708" lon="3.06597">
        <ele>628</ele>
        <time>2013-02-08T12:42:05Z</time>
      </trkpt>
      <trkpt lat="45.71709" lon="3.06599">
        <ele>627</ele>
        <time>2013-02-08T12:42:05Z</time>
      </trkpt>
      <trkpt lat="45.71713" lon="3.066">
        <ele>627</ele>
        <time>2013-02-08T12:42:05Z</time>
      </trkpt>
      <trkpt lat="45.71719" lon="3.066">
        <ele>627</ele>
        <time>2013-02-08T12:42:05Z</time>
      </trkpt>
      <trkpt lat="45.71721" lon="3.06602">
        <ele>627</ele>
        <time>2013-02-08T12:42:05Z</time>
      </trkpt>
      <trkpt lat="45.71721" lon="3.06604">
        <ele>627</ele>
        <time>2013-02-08T12:42:05Z</time>
      </trkpt>
      <trkpt lat="45.71723" lon="3.06606">
        <ele>627</ele>
        <time>2013-02-08T12:42:05Z</time>
      </trkpt>
      <trkpt lat="45.71726" lon="3.06607">
        <ele>627</ele>
        <time>2013-02-08T12:42:05Z</time>
      </trkpt>
      <trkpt lat="45.71729" lon="3.06609">
        <ele>627</ele>
        <time>2013-02-08T12:42:05Z</time>
      </trkpt>
      <trkpt lat="45.71733" lon="3.06609">
        <ele>627</ele>
        <time>2013-02-08T12:42:05Z</time>
      </trkpt>
      <trkpt lat="45.71733" lon="3.0661">
        <ele>627</ele>
        <time>2013-02-08T12:42:05Z</time>
      </trkpt>
      <trkpt lat="45.71731" lon="3.06612">
        <ele>627</ele>
        <time>2013-02-08T12:42:05Z</time>
      </trkpt>
      <trkpt lat="45.71731" lon="3.06612">
        <ele>627</ele>
        <time>2013-02-08T12:42:05Z</time>
      </trkpt>
      <trkpt lat="45.7173" lon="3.06612">
        <ele>627</ele>
        <time>2013-02-08T12:42:05Z</time>
      </trkpt>
      <trkpt lat="45.7173" lon="3.06614">
        <ele>627</ele>
        <time>2013-02-08T12:42:05Z</time>
      </trkpt>
      <trkpt lat="45.71731" lon="3.06615">
        <ele>627</ele>
        <time>2013-02-08T12:42:05Z</time>
      </trkpt>
      <trkpt lat="45.71733" lon="3.06616">
        <ele>627</ele>
        <time>2013-02-08T12:42:05Z</time>
      </trkpt>
      <trkpt lat="45.71735" lon="3.06617">
        <ele>627</ele>
        <time>2013-02-08T12:42:05Z</time>
      </trkpt>
      <trkpt lat="45.71738" lon="3.06617">
        <ele>627</ele>
        <time>2013-02-08T12:42:05Z</time>
      </trkpt>
      <trkpt lat="45.7174" lon="3.06618">
        <ele>627</ele>
        <time>2013-02-08T12:42:05Z</time>
      </trkpt>
      <trkpt lat="45.71742" lon="3.06619">
        <ele>627</ele>
        <time>2013-02-08T12:42:05Z</time>
      </trkpt>
      <trkpt lat="45.71744" lon="3.0662">
        <ele>627</ele>
        <time>2013-02-08T12:42:05Z</time>
      </trkpt>
      <trkpt lat="45.71747" lon="3.06621">
        <ele>627</ele>
        <time>2013-02-08T12:42:05Z</time>
      </trkpt>
      <trkpt lat="45.71749" lon="3.06622">
        <ele>627</ele>
        <time>2013-02-08T12:42:05Z</time>
      </trkpt>
      <trkpt lat="45.71751" lon="3.06622">
        <ele>623</ele>
        <time>2013-02-08T12:42:05Z</time>
      </trkpt>
      <trkpt lat="45.71754" lon="3.06622">
        <ele>623</ele>
        <time>2013-02-08T12:42:05Z</time>
      </trkpt>
      <trkpt lat="45.71756" lon="3.06622">
        <ele>623</ele>
        <time>2013-02-08T12:42:05Z</time>
      </trkpt>
      <trkpt lat="45.71757" lon="3.06621">
        <ele>623</ele>
        <time>2013-02-08T12:42:05Z</time>
      </trkpt>
      <trkpt lat="45.71758" lon="3.0662">
        <ele>623</ele>
        <time>2013-02-08T12:42:05Z</time>
      </trkpt>
      <trkpt lat="45.71759" lon="3.0662">
        <ele>623</ele>
        <time>2013-02-08T12:42:05Z</time>
      </trkpt>
      <trkpt lat="45.71761" lon="3.06619">
        <ele>623</ele>
        <time>2013-02-08T12:42:05Z</time>
      </trkpt>
      <trkpt lat="45.71763" lon="3.06618">
        <ele>623</ele>
        <time>2013-02-08T12:42:05Z</time>
      </trkpt>
      <trkpt lat="45.71765" lon="3.06618">
        <ele>623</ele>
        <time>2013-02-08T12:42:05Z</time>
      </trkpt>
      <trkpt lat="45.71767" lon="3.06616">
        <ele>623</ele>
        <time>2013-02-08T12:42:05Z</time>
      </trkpt>
      <trkpt lat="45.7177" lon="3.06614">
        <ele>623</ele>
        <time>2013-02-08T12:42:05Z</time>
      </trkpt>
      <trkpt lat="45.71773" lon="3.06613">
        <ele>623</ele>
        <time>2013-02-08T12:42:05Z</time>
      </trkpt>
      <trkpt lat="45.71776" lon="3.06612">
        <ele>623</ele>
        <time>2013-02-08T12:42:05Z</time>
      </trkpt>
      <trkpt lat="45.71778" lon="3.0661">
        <ele>623</ele>
        <time>2013-02-08T12:42:05Z</time>
      </trkpt>
      <trkpt lat="45.71779" lon="3.06608">
        <ele>623</ele>
        <time>2013-02-08T12:42:05Z</time>
      </trkpt>
      <trkpt lat="45.71781" lon="3.06605">
        <ele>623</ele>
        <time>2013-02-08T12:42:05Z</time>
      </trkpt>
      <trkpt lat="45.71784" lon="3.06603">
        <ele>623</ele>
        <time>2013-02-08T12:42:05Z</time>
      </trkpt>
      <trkpt lat="45.71786" lon="3.066">
        <ele>623</ele>
        <time>2013-02-08T12:42:05Z</time>
      </trkpt>
      <trkpt lat="45.71788" lon="3.06598">
        <ele>623</ele>
        <time>2013-02-08T12:42:05Z</time>
      </trkpt>
      <trkpt lat="45.71789" lon="3.06597">
        <ele>623</ele>
        <time>2013-02-08T12:42:05Z</time>
      </trkpt>
      <trkpt lat="45.71791" lon="3.06598">
        <ele>622</ele>
        <time>2013-02-08T12:42:05Z</time>
      </trkpt>
      <trkpt lat="45.71793" lon="3.06599">
        <ele>622</ele>
        <time>2013-02-08T12:42:05Z</time>
      </trkpt>
      <trkpt lat="45.71795" lon="3.06601">
        <ele>622</ele>
        <time>2013-02-08T12:42:05Z</time>
      </trkpt>
      <trkpt lat="45.71796" lon="3.06604">
        <ele>622</ele>
        <time>2013-02-08T12:42:05Z</time>
      </trkpt>
      <trkpt lat="45.71797" lon="3.06608">
        <ele>622</ele>
        <time>2013-02-08T12:42:05Z</time>
      </trkpt>
      <trkpt lat="45.71799" lon="3.06612">
        <ele>622</ele>
        <time>2013-02-08T12:42:05Z</time>
      </trkpt>
      <trkpt lat="45.71799" lon="3.06615">
        <ele>622</ele>
        <time>2013-02-08T12:42:05Z</time>
      </trkpt>
      <trkpt lat="45.718" lon="3.06618">
        <ele>622</ele>
        <time>2013-02-08T12:42:05Z</time>
      </trkpt>
      <trkpt lat="45.71802" lon="3.06622">
        <ele>622</ele>
        <time>2013-02-08T12:42:05Z</time>
      </trkpt>
      <trkpt lat="45.71803" lon="3.06625">
        <ele>622</ele>
        <time>2013-02-08T12:42:05Z</time>
      </trkpt>
      <trkpt lat="45.71805" lon="3.06628">
        <ele>621</ele>
        <time>2013-02-08T12:42:05Z</time>
      </trkpt>
      <trkpt lat="45.71806" lon="3.06631">
        <ele>621</ele>
        <time>2013-02-08T12:42:05Z</time>
      </trkpt>
      <trkpt lat="45.71807" lon="3.06634">
        <ele>621</ele>
        <time>2013-02-08T12:42:05Z</time>
      </trkpt>
      <trkpt lat="45.71809" lon="3.06637">
        <ele>621</ele>
        <time>2013-02-08T12:42:05Z</time>
      </trkpt>
      <trkpt lat="45.71811" lon="3.0664">
        <ele>621</ele>
        <time>2013-02-08T12:42:05Z</time>
      </trkpt>
      <trkpt lat="45.71812" lon="3.06643">
        <ele>621</ele>
        <time>2013-02-08T12:42:05Z</time>
      </trkpt>
      <trkpt lat="45.71814" lon="3.06646">
        <ele>620</ele>
        <time>2013-02-08T12:42:05Z</time>
      </trkpt>
      <trkpt lat="45.71815" lon="3.06649">
        <ele>620</ele>
        <time>2013-02-08T12:42:05Z</time>
      </trkpt>
      <trkpt lat="45.71816" lon="3.06651">
        <ele>620</ele>
        <time>2013-02-08T12:42:05Z</time>
      </trkpt>
      <trkpt lat="45.71818" lon="3.06654">
        <ele>620</ele>
        <time>2013-02-08T12:42:05Z</time>
      </trkpt>
      <trkpt lat="45.7182" lon="3.06657">
        <ele>620</ele>
        <time>2013-02-08T12:42:05Z</time>
      </trkpt>
      <trkpt lat="45.71821" lon="3.06659">
        <ele>619</ele>
        <time>2013-02-08T12:42:05Z</time>
      </trkpt>
      <trkpt lat="45.71822" lon="3.06662">
        <ele>619</ele>
        <time>2013-02-08T12:42:05Z</time>
      </trkpt>
      <trkpt lat="45.71824" lon="3.06664">
        <ele>619</ele>
        <time>2013-02-08T12:42:05Z</time>
      </trkpt>
      <trkpt lat="45.71825" lon="3.06667">
        <ele>618</ele>
        <time>2013-02-08T12:42:05Z</time>
      </trkpt>
      <trkpt lat="45.71827" lon="3.06669">
        <ele>618</ele>
        <time>2013-02-08T12:42:05Z</time>
      </trkpt>
      <trkpt lat="45.71829" lon="3.06672">
        <ele>618</ele>
        <time>2013-02-08T12:42:05Z</time>
      </trkpt>
      <trkpt lat="45.71831" lon="3.06674">
        <ele>618</ele>
        <time>2013-02-08T12:42:05Z</time>
      </trkpt>
      <trkpt lat="45.71832" lon="3.06677">
        <ele>618</ele>
        <time>2013-02-08T12:42:05Z</time>
      </trkpt>
      <trkpt lat="45.71834" lon="3.0668">
        <ele>616</ele>
        <time>2013-02-08T12:42:05Z</time>
      </trkpt>
      <trkpt lat="45.71835" lon="3.06683">
        <ele>615</ele>
        <time>2013-02-08T12:42:05Z</time>
      </trkpt>
      <trkpt lat="45.71837" lon="3.06685">
        <ele>615</ele>
        <time>2013-02-08T12:42:05Z</time>
      </trkpt>
      <trkpt lat="45.71838" lon="3.06688">
        <ele>615</ele>
        <time>2013-02-08T12:42:05Z</time>
      </trkpt>
      <trkpt lat="45.7184" lon="3.06691">
        <ele>615</ele>
        <time>2013-02-08T12:42:05Z</time>
      </trkpt>
      <trkpt lat="45.71842" lon="3.06693">
        <ele>615</ele>
        <time>2013-02-08T12:42:05Z</time>
      </trkpt>
      <trkpt lat="45.71843" lon="3.06696">
        <ele>614</ele>
        <time>2013-02-08T12:42:05Z</time>
      </trkpt>
      <trkpt lat="45.71845" lon="3.06699">
        <ele>614</ele>
        <time>2013-02-08T12:42:05Z</time>
      </trkpt>
      <trkpt lat="45.71847" lon="3.06702">
        <ele>614</ele>
        <time>2013-02-08T12:42:05Z</time>
      </trkpt>
      <trkpt lat="45.71849" lon="3.06704">
        <ele>614</ele>
        <time>2013-02-08T12:42:05Z</time>
      </trkpt>
      <trkpt lat="45.71851" lon="3.06706">
        <ele>614</ele>
        <time>2013-02-08T12:42:05Z</time>
      </trkpt>
      <trkpt lat="45.71854" lon="3.06708">
        <ele>614</ele>
        <time>2013-02-08T12:42:05Z</time>
      </trkpt>
      <trkpt lat="45.71856" lon="3.06708">
        <ele>614</ele>
        <time>2013-02-08T12:42:05Z</time>
      </trkpt>
      <trkpt lat="45.71859" lon="3.06709">
        <ele>614</ele>
        <time>2013-02-08T12:42:05Z</time>
      </trkpt>
      <trkpt lat="45.71861" lon="3.0671">
        <ele>614</ele>
        <time>2013-02-08T12:42:05Z</time>
      </trkpt>
      <trkpt lat="45.71864" lon="3.06711">
        <ele>613</ele>
        <time>2013-02-08T12:42:05Z</time>
      </trkpt>
      <trkpt lat="45.71866" lon="3.06711">
        <ele>613</ele>
        <time>2013-02-08T12:42:05Z</time>
      </trkpt>
      <trkpt lat="45.71868" lon="3.06713">
        <ele>613</ele>
        <time>2013-02-08T12:42:05Z</time>
      </trkpt>
      <trkpt lat="45.71871" lon="3.06714">
        <ele>613</ele>
        <time>2013-02-08T12:42:05Z</time>
      </trkpt>
      <trkpt lat="45.71874" lon="3.06714">
        <ele>613</ele>
        <time>2013-02-08T12:42:05Z</time>
      </trkpt>
      <trkpt lat="45.71877" lon="3.06714">
        <ele>613</ele>
        <time>2013-02-08T12:42:05Z</time>
      </trkpt>
      <trkpt lat="45.71879" lon="3.06715">
        <ele>613</ele>
        <time>2013-02-08T12:42:05Z</time>
      </trkpt>
      <trkpt lat="45.71881" lon="3.06716">
        <ele>613</ele>
        <time>2013-02-08T12:42:05Z</time>
      </trkpt>
      <trkpt lat="45.71884" lon="3.06716">
        <ele>613</ele>
        <time>2013-02-08T12:42:05Z</time>
      </trkpt>
      <trkpt lat="45.71886" lon="3.06717">
        <ele>613</ele>
        <time>2013-02-08T12:42:05Z</time>
      </trkpt>
      <trkpt lat="45.71889" lon="3.06718">
        <ele>613</ele>
        <time>2013-02-08T12:42:05Z</time>
      </trkpt>
      <trkpt lat="45.71891" lon="3.06718">
        <ele>612</ele>
        <time>2013-02-08T12:42:05Z</time>
      </trkpt>
      <trkpt lat="45.71893" lon="3.06719">
        <ele>612</ele>
        <time>2013-02-08T12:42:05Z</time>
      </trkpt>
      <trkpt lat="45.71895" lon="3.06719">
        <ele>612</ele>
        <time>2013-02-08T12:42:05Z</time>
      </trkpt>
      <trkpt lat="45.71898" lon="3.0672">
        <ele>612</ele>
        <time>2013-02-08T12:42:05Z</time>
      </trkpt>
      <trkpt lat="45.719" lon="3.0672">
        <ele>612</ele>
        <time>2013-02-08T12:42:05Z</time>
      </trkpt>
      <trkpt lat="45.71902" lon="3.0672">
        <ele>612</ele>
        <time>2013-02-08T12:42:05Z</time>
      </trkpt>
      <trkpt lat="45.71904" lon="3.06721">
        <ele>612</ele>
        <time>2013-02-08T12:42:05Z</time>
      </trkpt>
      <trkpt lat="45.71906" lon="3.06722">
        <ele>612</ele>
        <time>2013-02-08T12:42:05Z</time>
      </trkpt>
      <trkpt lat="45.71908" lon="3.06722">
        <ele>612</ele>
        <time>2013-02-08T12:42:05Z</time>
      </trkpt>
      <trkpt lat="45.71911" lon="3.06723">
        <ele>612</ele>
        <time>2013-02-08T12:42:05Z</time>
      </trkpt>
      <trkpt lat="45.71913" lon="3.06724">
        <ele>611</ele>
        <time>2013-02-08T12:42:05Z</time>
      </trkpt>
      <trkpt lat="45.71915" lon="3.06724">
        <ele>611</ele>
        <time>2013-02-08T12:42:05Z</time>
      </trkpt>
      <trkpt lat="45.71918" lon="3.06724">
        <ele>610</ele>
        <time>2013-02-08T12:42:05Z</time>
      </trkpt>
      <trkpt lat="45.71921" lon="3.06724">
        <ele>610</ele>
        <time>2013-02-08T12:42:05Z</time>
      </trkpt>
      <trkpt lat="45.71924" lon="3.06725">
        <ele>610</ele>
        <time>2013-02-08T12:42:05Z</time>
      </trkpt>
      <trkpt lat="45.71926" lon="3.06725">
        <ele>610</ele>
        <time>2013-02-08T12:42:05Z</time>
      </trkpt>
      <trkpt lat="45.71929" lon="3.06725">
        <ele>610</ele>
        <time>2013-02-08T12:42:05Z</time>
      </trkpt>
      <trkpt lat="45.71931" lon="3.06726">
        <ele>610</ele>
        <time>2013-02-08T12:42:05Z</time>
      </trkpt>
      <trkpt lat="45.71934" lon="3.06726">
        <ele>610</ele>
        <time>2013-02-08T12:42:05Z</time>
      </trkpt>
      <trkpt lat="45.71936" lon="3.06726">
        <ele>610</ele>
        <time>2013-02-08T12:42:05Z</time>
      </trkpt>
      <trkpt lat="45.71939" lon="3.06726">
        <ele>610</ele>
        <time>2013-02-08T12:42:05Z</time>
      </trkpt>
      <trkpt lat="45.71941" lon="3.06727">
        <ele>610</ele>
        <time>2013-02-08T12:42:05Z</time>
      </trkpt>
      <trkpt lat="45.71944" lon="3.06727">
        <ele>610</ele>
        <time>2013-02-08T12:42:05Z</time>
      </trkpt>
      <trkpt lat="45.71946" lon="3.06727">
        <ele>610</ele>
        <time>2013-02-08T12:42:05Z</time>
      </trkpt>
      <trkpt lat="45.71948" lon="3.06727">
        <ele>610</ele>
        <time>2013-02-08T12:42:05Z</time>
      </trkpt>
      <trkpt lat="45.71949" lon="3.06728">
        <ele>610</ele>
        <time>2013-02-08T12:42:05Z</time>
      </trkpt>
      <trkpt lat="45.71952" lon="3.06728">
        <ele>610</ele>
        <time>2013-02-08T12:42:05Z</time>
      </trkpt>
      <trkpt lat="45.71955" lon="3.06729">
        <ele>610</ele>
        <time>2013-02-08T12:42:05Z</time>
      </trkpt>
      <trkpt lat="45.71957" lon="3.06729">
        <ele>610</ele>
        <time>2013-02-08T12:42:05Z</time>
      </trkpt>
      <trkpt lat="45.7196" lon="3.06729">
        <ele>610</ele>
        <time>2013-02-08T12:42:05Z</time>
      </trkpt>
      <trkpt lat="45.71963" lon="3.06728">
        <ele>610</ele>
        <time>2013-02-08T12:42:05Z</time>
      </trkpt>
      <trkpt lat="45.71966" lon="3.06728">
        <ele>610</ele>
        <time>2013-02-08T12:42:05Z</time>
      </trkpt>
      <trkpt lat="45.71968" lon="3.06728">
        <ele>610</ele>
        <time>2013-02-08T12:42:05Z</time>
      </trkpt>
      <trkpt lat="45.71969" lon="3.06729">
        <ele>610</ele>
        <time>2013-02-08T12:42:05Z</time>
      </trkpt>
      <trkpt lat="45.71972" lon="3.06729">
        <ele>610</ele>
        <time>2013-02-08T12:42:05Z</time>
      </trkpt>
      <trkpt lat="45.71974" lon="3.06728">
        <ele>610</ele>
        <time>2013-02-08T12:42:05Z</time>
      </trkpt>
      <trkpt lat="45.71976" lon="3.06729">
        <ele>610</ele>
        <time>2013-02-08T12:42:05Z</time>
      </trkpt>
      <trkpt lat="45.71979" lon="3.06729">
        <ele>610</ele>
        <time>2013-02-08T12:42:05Z</time>
      </trkpt>
      <trkpt lat="45.71981" lon="3.06729">
        <ele>610</ele>
        <time>2013-02-08T12:42:05Z</time>
      </trkpt>
      <trkpt lat="45.71983" lon="3.06728">
        <ele>610</ele>
        <time>2013-02-08T12:42:05Z</time>
      </trkpt>
      <trkpt lat="45.71986" lon="3.06728">
        <ele>610</ele>
        <time>2013-02-08T12:42:05Z</time>
      </trkpt>
      <trkpt lat="45.71988" lon="3.06728">
        <ele>610</ele>
        <time>2013-02-08T12:42:05Z</time>
      </trkpt>
      <trkpt lat="45.71991" lon="3.06728">
        <ele>610</ele>
        <time>2013-02-08T12:42:05Z</time>
      </trkpt>
      <trkpt lat="45.71994" lon="3.06728">
        <ele>610</ele>
        <time>2013-02-08T12:42:05Z</time>
      </trkpt>
      <trkpt lat="45.71997" lon="3.06728">
        <ele>610</ele>
        <time>2013-02-08T12:42:05Z</time>
      </trkpt>
      <trkpt lat="45.71999" lon="3.06727">
        <ele>610</ele>
        <time>2013-02-08T12:42:05Z</time>
      </trkpt>
      <trkpt lat="45.72002" lon="3.06727">
        <ele>608</ele>
        <time>2013-02-08T12:42:05Z</time>
      </trkpt>
      <trkpt lat="45.72004" lon="3.06727">
        <ele>608</ele>
        <time>2013-02-08T12:42:05Z</time>
      </trkpt>
      <trkpt lat="45.72006" lon="3.06727">
        <ele>608</ele>
        <time>2013-02-08T12:42:05Z</time>
      </trkpt>
      <trkpt lat="45.72008" lon="3.06726">
        <ele>608</ele>
        <time>2013-02-08T12:42:05Z</time>
      </trkpt>
      <trkpt lat="45.72009" lon="3.06726">
        <ele>608</ele>
        <time>2013-02-08T12:42:05Z</time>
      </trkpt>
      <trkpt lat="45.72011" lon="3.06726">
        <ele>608</ele>
        <time>2013-02-08T12:42:05Z</time>
      </trkpt>
      <trkpt lat="45.72013" lon="3.06726">
        <ele>608</ele>
        <time>2013-02-08T12:42:05Z</time>
      </trkpt>
      <trkpt lat="45.72015" lon="3.06725">
        <ele>608</ele>
        <time>2013-02-08T12:42:05Z</time>
      </trkpt>
      <trkpt lat="45.72018" lon="3.06725">
        <ele>608</ele>
        <time>2013-02-08T12:42:05Z</time>
      </trkpt>
      <trkpt lat="45.7202" lon="3.06725">
        <ele>608</ele>
        <time>2013-02-08T12:42:05Z</time>
      </trkpt>
      <trkpt lat="45.72024" lon="3.06723">
        <ele>607</ele>
        <time>2013-02-08T12:42:05Z</time>
      </trkpt>
      <trkpt lat="45.72027" lon="3.06723">
        <ele>607</ele>
        <time>2013-02-08T12:42:05Z</time>
      </trkpt>
      <trkpt lat="45.72029" lon="3.06722">
        <ele>607</ele>
        <time>2013-02-08T12:42:05Z</time>
      </trkpt>
      <trkpt lat="45.72033" lon="3.06722">
        <ele>607</ele>
        <time>2013-02-08T12:42:05Z</time>
      </trkpt>
      <trkpt lat="45.72036" lon="3.06721">
        <ele>607</ele>
        <time>2013-02-08T12:42:05Z</time>
      </trkpt>
      <trkpt lat="45.72038" lon="3.06721">
        <ele>607</ele>
        <time>2013-02-08T12:42:05Z</time>
      </trkpt>
      <trkpt lat="45.72041" lon="3.06721">
        <ele>607</ele>
        <time>2013-02-08T12:42:05Z</time>
      </trkpt>
      <trkpt lat="45.72043" lon="3.06721">
        <ele>607</ele>
        <time>2013-02-08T12:42:05Z</time>
      </trkpt>
      <trkpt lat="45.72046" lon="3.0672">
        <ele>607</ele>
        <time>2013-02-08T12:42:05Z</time>
      </trkpt>
      <trkpt lat="45.72048" lon="3.0672">
        <ele>607</ele>
        <time>2013-02-08T12:42:05Z</time>
      </trkpt>
      <trkpt lat="45.72051" lon="3.0672">
        <ele>607</ele>
        <time>2013-02-08T12:42:05Z</time>
      </trkpt>
      <trkpt lat="45.72053" lon="3.0672">
        <ele>606</ele>
        <time>2013-02-08T12:42:05Z</time>
      </trkpt>
      <trkpt lat="45.72056" lon="3.06719">
        <ele>606</ele>
        <time>2013-02-08T12:42:05Z</time>
      </trkpt>
      <trkpt lat="45.72059" lon="3.06719">
        <ele>606</ele>
        <time>2013-02-08T12:42:05Z</time>
      </trkpt>
      <trkpt lat="45.72061" lon="3.06719">
        <ele>606</ele>
        <time>2013-02-08T12:42:05Z</time>
      </trkpt>
      <trkpt lat="45.72063" lon="3.06719">
        <ele>606</ele>
        <time>2013-02-08T12:42:05Z</time>
      </trkpt>
      <trkpt lat="45.72065" lon="3.06719">
        <ele>606</ele>
        <time>2013-02-08T12:42:05Z</time>
      </trkpt>
      <trkpt lat="45.72068" lon="3.06718">
        <ele>606</ele>
        <time>2013-02-08T12:42:05Z</time>
      </trkpt>
      <trkpt lat="45.7207" lon="3.06718">
        <ele>606</ele>
        <time>2013-02-08T12:42:05Z</time>
      </trkpt>
      <trkpt lat="45.72072" lon="3.06718">
        <ele>606</ele>
        <time>2013-02-08T12:42:05Z</time>
      </trkpt>
      <trkpt lat="45.72073" lon="3.06718">
        <ele>606</ele>
        <time>2013-02-08T12:42:05Z</time>
      </trkpt>
      <trkpt lat="45.72075" lon="3.06718">
        <ele>606</ele>
        <time>2013-02-08T12:42:05Z</time>
      </trkpt>
      <trkpt lat="45.72077" lon="3.06718">
        <ele>606</ele>
        <time>2013-02-08T12:42:05Z</time>
      </trkpt>
      <trkpt lat="45.72079" lon="3.06718">
        <ele>606</ele>
        <time>2013-02-08T12:42:05Z</time>
      </trkpt>
      <trkpt lat="45.72081" lon="3.06718">
        <ele>606</ele>
        <time>2013-02-08T12:42:05Z</time>
      </trkpt>
      <trkpt lat="45.72083" lon="3.06717">
        <ele>602</ele>
        <time>2013-02-08T12:42:05Z</time>
      </trkpt>
      <trkpt lat="45.72086" lon="3.06717">
        <ele>602</ele>
        <time>2013-02-08T12:42:05Z</time>
      </trkpt>
      <trkpt lat="45.72088" lon="3.06717">
        <ele>602</ele>
        <time>2013-02-08T12:42:05Z</time>
      </trkpt>
      <trkpt lat="45.72091" lon="3.06717">
        <ele>602</ele>
        <time>2013-02-08T12:42:05Z</time>
      </trkpt>
      <trkpt lat="45.72094" lon="3.06717">
        <ele>602</ele>
        <time>2013-02-08T12:42:05Z</time>
      </trkpt>
      <trkpt lat="45.72097" lon="3.06716">
        <ele>602</ele>
        <time>2013-02-08T12:42:05Z</time>
      </trkpt>
      <trkpt lat="45.72099" lon="3.06716">
        <ele>602</ele>
        <time>2013-02-08T12:42:05Z</time>
      </trkpt>
      <trkpt lat="45.72101" lon="3.06716">
        <ele>602</ele>
        <time>2013-02-08T12:42:05Z</time>
      </trkpt>
      <trkpt lat="45.72104" lon="3.06715">
        <ele>602</ele>
        <time>2013-02-08T12:42:05Z</time>
      </trkpt>
      <trkpt lat="45.72107" lon="3.06714">
        <ele>602</ele>
        <time>2013-02-08T12:42:05Z</time>
      </trkpt>
      <trkpt lat="45.72108" lon="3.06714">
        <ele>602</ele>
        <time>2013-02-08T12:42:05Z</time>
      </trkpt>
      <trkpt lat="45.72111" lon="3.06713">
        <ele>601</ele>
        <time>2013-02-08T12:42:05Z</time>
      </trkpt>
      <trkpt lat="45.72113" lon="3.06713">
        <ele>601</ele>
        <time>2013-02-08T12:42:05Z</time>
      </trkpt>
      <trkpt lat="45.72114" lon="3.06712">
        <ele>601</ele>
        <time>2013-02-08T12:42:05Z</time>
      </trkpt>
      <trkpt lat="45.72115" lon="3.06711">
        <ele>601</ele>
        <time>2013-02-08T12:42:05Z</time>
      </trkpt>
      <trkpt lat="45.72117" lon="3.0671">
        <ele>601</ele>
        <time>2013-02-08T12:42:05Z</time>
      </trkpt>
      <trkpt lat="45.72119" lon="3.06709">
        <ele>601</ele>
        <time>2013-02-08T12:42:05Z</time>
      </trkpt>
      <trkpt lat="45.72121" lon="3.06708">
        <ele>601</ele>
        <time>2013-02-08T12:42:05Z</time>
      </trkpt>
      <trkpt lat="45.72123" lon="3.06707">
        <ele>601</ele>
        <time>2013-02-08T12:42:05Z</time>
      </trkpt>
      <trkpt lat="45.72126" lon="3.06706">
        <ele>601</ele>
        <time>2013-02-08T12:42:05Z</time>
      </trkpt>
      <trkpt lat="45.72128" lon="3.06705">
        <ele>601</ele>
        <time>2013-02-08T12:42:05Z</time>
      </trkpt>
      <trkpt lat="45.7213" lon="3.06704">
        <ele>601</ele>
        <time>2013-02-08T12:42:05Z</time>
      </trkpt>
      <trkpt lat="45.72134" lon="3.06702">
        <ele>601</ele>
        <time>2013-02-08T12:42:05Z</time>
      </trkpt>
      <trkpt lat="45.72137" lon="3.06701">
        <ele>601</ele>
        <time>2013-02-08T12:42:05Z</time>
      </trkpt>
      <trkpt lat="45.7214" lon="3.067">
        <ele>601</ele>
        <time>2013-02-08T12:42:05Z</time>
      </trkpt>
      <trkpt lat="45.72143" lon="3.06699">
        <ele>600</ele>
        <time>2013-02-08T12:42:05Z</time>
      </trkpt>
      <trkpt lat="45.72145" lon="3.06699">
        <ele>600</ele>
        <time>2013-02-08T12:42:05Z</time>
      </trkpt>
      <trkpt lat="45.72147" lon="3.06699">
        <ele>600</ele>
        <time>2013-02-08T12:42:05Z</time>
      </trkpt>
      <trkpt lat="45.7215" lon="3.06699">
        <ele>600</ele>
        <time>2013-02-08T12:42:05Z</time>
      </trkpt>
      <trkpt lat="45.72152" lon="3.06699">
        <ele>600</ele>
        <time>2013-02-08T12:42:05Z</time>
      </trkpt>
      <trkpt lat="45.72154" lon="3.06699">
        <ele>600</ele>
        <time>2013-02-08T12:42:05Z</time>
      </trkpt>
      <trkpt lat="45.72157" lon="3.06699">
        <ele>600</ele>
        <time>2013-02-08T12:42:05Z</time>
      </trkpt>
      <trkpt lat="45.7216" lon="3.06699">
        <ele>600</ele>
        <time>2013-02-08T12:42:05Z</time>
      </trkpt>
      <trkpt lat="45.72162" lon="3.06699">
        <ele>600</ele>
        <time>2013-02-08T12:42:05Z</time>
      </trkpt>
      <trkpt lat="45.72165" lon="3.06699">
        <ele>600</ele>
        <time>2013-02-08T12:42:05Z</time>
      </trkpt>
      <trkpt lat="45.72167" lon="3.06699">
        <ele>597</ele>
        <time>2013-02-08T12:42:05Z</time>
      </trkpt>
      <trkpt lat="45.72169" lon="3.06699">
        <ele>597</ele>
        <time>2013-02-08T12:42:05Z</time>
      </trkpt>
      <trkpt lat="45.72172" lon="3.067">
        <ele>597</ele>
        <time>2013-02-08T12:42:05Z</time>
      </trkpt>
      <trkpt lat="45.72174" lon="3.067">
        <ele>597</ele>
        <time>2013-02-08T12:42:05Z</time>
      </trkpt>
      <trkpt lat="45.72177" lon="3.06701">
        <ele>597</ele>
        <time>2013-02-08T12:42:05Z</time>
      </trkpt>
      <trkpt lat="45.72179" lon="3.06701">
        <ele>597</ele>
        <time>2013-02-08T12:42:05Z</time>
      </trkpt>
      <trkpt lat="45.72181" lon="3.06701">
        <ele>596</ele>
        <time>2013-02-08T12:42:05Z</time>
      </trkpt>
      <trkpt lat="45.72183" lon="3.06702">
        <ele>596</ele>
        <time>2013-02-08T12:42:05Z</time>
      </trkpt>
      <trkpt lat="45.72185" lon="3.06704">
        <ele>596</ele>
        <time>2013-02-08T12:42:05Z</time>
      </trkpt>
      <trkpt lat="45.72188" lon="3.06704">
        <ele>596</ele>
        <time>2013-02-08T12:42:05Z</time>
      </trkpt>
      <trkpt lat="45.7219" lon="3.06705">
        <ele>596</ele>
        <time>2013-02-08T12:42:05Z</time>
      </trkpt>
      <trkpt lat="45.72192" lon="3.06706">
        <ele>596</ele>
        <time>2013-02-08T12:42:05Z</time>
      </trkpt>
      <trkpt lat="45.72195" lon="3.06707">
        <ele>596</ele>
        <time>2013-02-08T12:42:05Z</time>
      </trkpt>
      <trkpt lat="45.72197" lon="3.06707">
        <ele>596</ele>
        <time>2013-02-08T12:42:05Z</time>
      </trkpt>
      <trkpt lat="45.722" lon="3.06709">
        <ele>596</ele>
        <time>2013-02-08T12:42:05Z</time>
      </trkpt>
      <trkpt lat="45.72203" lon="3.06709">
        <ele>596</ele>
        <time>2013-02-08T12:42:05Z</time>
      </trkpt>
      <trkpt lat="45.72205" lon="3.0671">
        <ele>596</ele>
        <time>2013-02-08T12:42:05Z</time>
      </trkpt>
      <trkpt lat="45.72208" lon="3.06711">
        <ele>596</ele>
        <time>2013-02-08T12:42:05Z</time>
      </trkpt>
      <trkpt lat="45.7221" lon="3.06712">
        <ele>596</ele>
        <time>2013-02-08T12:42:05Z</time>
      </trkpt>
      <trkpt lat="45.72212" lon="3.06712">
        <ele>596</ele>
        <time>2013-02-08T12:42:05Z</time>
      </trkpt>
      <trkpt lat="45.72214" lon="3.06712">
        <ele>596</ele>
        <time>2013-02-08T12:42:05Z</time>
      </trkpt>
      <trkpt lat="45.72217" lon="3.06713">
        <ele>595</ele>
        <time>2013-02-08T12:42:05Z</time>
      </trkpt>
      <trkpt lat="45.72219" lon="3.06713">
        <ele>595</ele>
        <time>2013-02-08T12:42:05Z</time>
      </trkpt>
      <trkpt lat="45.72222" lon="3.06713">
        <ele>595</ele>
        <time>2013-02-08T12:42:05Z</time>
      </trkpt>
      <trkpt lat="45.72224" lon="3.06713">
        <ele>595</ele>
        <time>2013-02-08T12:42:05Z</time>
      </trkpt>
      <trkpt lat="45.72226" lon="3.06713">
        <ele>595</ele>
        <time>2013-02-08T12:42:05Z</time>
      </trkpt>
      <trkpt lat="45.72229" lon="3.06714">
        <ele>595</ele>
        <time>2013-02-08T12:42:05Z</time>
      </trkpt>
      <trkpt lat="45.72232" lon="3.06714">
        <ele>595</ele>
        <time>2013-02-08T12:42:05Z</time>
      </trkpt>
      <trkpt lat="45.72235" lon="3.06715">
        <ele>595</ele>
        <time>2013-02-08T12:42:05Z</time>
      </trkpt>
      <trkpt lat="45.72237" lon="3.06716">
        <ele>595</ele>
        <time>2013-02-08T12:42:05Z</time>
      </trkpt>
      <trkpt lat="45.72239" lon="3.06716">
        <ele>595</ele>
        <time>2013-02-08T12:42:05Z</time>
      </trkpt>
      <trkpt lat="45.72242" lon="3.06717">
        <ele>595</ele>
        <time>2013-02-08T12:42:05Z</time>
      </trkpt>
      <trkpt lat="45.72244" lon="3.06717">
        <ele>595</ele>
        <time>2013-02-08T12:42:05Z</time>
      </trkpt>
      <trkpt lat="45.72247" lon="3.06717">
        <ele>595</ele>
        <time>2013-02-08T12:42:05Z</time>
      </trkpt>
      <trkpt lat="45.72248" lon="3.06718">
        <ele>595</ele>
        <time>2013-02-08T12:42:05Z</time>
      </trkpt>
      <trkpt lat="45.72251" lon="3.06718">
        <ele>592</ele>
        <time>2013-02-08T12:42:05Z</time>
      </trkpt>
      <trkpt lat="45.72253" lon="3.06719">
        <ele>592</ele>
        <time>2013-02-08T12:42:05Z</time>
      </trkpt>
      <trkpt lat="45.72255" lon="3.06719">
        <ele>592</ele>
        <time>2013-02-08T12:42:05Z</time>
      </trkpt>
      <trkpt lat="45.72257" lon="3.0672">
        <ele>592</ele>
        <time>2013-02-08T12:42:05Z</time>
      </trkpt>
      <trkpt lat="45.7226" lon="3.0672">
        <ele>592</ele>
        <time>2013-02-08T12:42:05Z</time>
      </trkpt>
      <trkpt lat="45.72262" lon="3.0672">
        <ele>592</ele>
        <time>2013-02-08T12:42:05Z</time>
      </trkpt>
      <trkpt lat="45.72265" lon="3.0672">
        <ele>592</ele>
        <time>2013-02-08T12:42:05Z</time>
      </trkpt>
      <trkpt lat="45.72268" lon="3.06721">
        <ele>592</ele>
        <time>2013-02-08T12:42:05Z</time>
      </trkpt>
      <trkpt lat="45.7227" lon="3.06721">
        <ele>592</ele>
        <time>2013-02-08T12:42:05Z</time>
      </trkpt>
      <trkpt lat="45.72273" lon="3.06721">
        <ele>592</ele>
        <time>2013-02-08T12:42:05Z</time>
      </trkpt>
      <trkpt lat="45.72275" lon="3.06722">
        <ele>591</ele>
        <time>2013-02-08T12:42:05Z</time>
      </trkpt>
      <trkpt lat="45.72278" lon="3.06722">
        <ele>591</ele>
        <time>2013-02-08T12:42:05Z</time>
      </trkpt>
      <trkpt lat="45.7228" lon="3.06723">
        <ele>591</ele>
        <time>2013-02-08T12:42:05Z</time>
      </trkpt>
      <trkpt lat="45.72283" lon="3.06723">
        <ele>591</ele>
        <time>2013-02-08T12:42:05Z</time>
      </trkpt>
      <trkpt lat="45.72285" lon="3.06724">
        <ele>591</ele>
        <time>2013-02-08T12:42:05Z</time>
      </trkpt>
      <trkpt lat="45.72288" lon="3.06724">
        <ele>591</ele>
        <time>2013-02-08T12:42:05Z</time>
      </trkpt>
      <trkpt lat="45.7229" lon="3.06725">
        <ele>591</ele>
        <time>2013-02-08T12:42:05Z</time>
      </trkpt>
      <trkpt lat="45.72293" lon="3.06726">
        <ele>591</ele>
        <time>2013-02-08T12:42:05Z</time>
      </trkpt>
      <trkpt lat="45.72295" lon="3.06726">
        <ele>591</ele>
        <time>2013-02-08T12:42:05Z</time>
      </trkpt>
      <trkpt lat="45.72298" lon="3.06727">
        <ele>591</ele>
        <time>2013-02-08T12:42:05Z</time>
      </trkpt>
      <trkpt lat="45.723" lon="3.06727">
        <ele>590</ele>
        <time>2013-02-08T12:42:05Z</time>
      </trkpt>
      <trkpt lat="45.72303" lon="3.06728">
        <ele>590</ele>
        <time>2013-02-08T12:42:05Z</time>
      </trkpt>
      <trkpt lat="45.72305" lon="3.06727">
        <ele>590</ele>
        <time>2013-02-08T12:42:05Z</time>
      </trkpt>
      <trkpt lat="45.72308" lon="3.06727">
        <ele>590</ele>
        <time>2013-02-08T12:42:05Z</time>
      </trkpt>
      <trkpt lat="45.72311" lon="3.06726">
        <ele>590</ele>
        <time>2013-02-08T12:42:05Z</time>
      </trkpt>
      <trkpt lat="45.72313" lon="3.06725">
        <ele>590</ele>
        <time>2013-02-08T12:42:05Z</time>
      </trkpt>
      <trkpt lat="45.72315" lon="3.06724">
        <ele>590</ele>
        <time>2013-02-08T12:42:05Z</time>
      </trkpt>
      <trkpt lat="45.72317" lon="3.06723">
        <ele>590</ele>
        <time>2013-02-08T12:42:05Z</time>
      </trkpt>
      <trkpt lat="45.72319" lon="3.06723">
        <ele>590</ele>
        <time>2013-02-08T12:42:05Z</time>
      </trkpt>
      <trkpt lat="45.72321" lon="3.06723">
        <ele>590</ele>
        <time>2013-02-08T12:42:05Z</time>
      </trkpt>
      <trkpt lat="45.72324" lon="3.06723">
        <ele>590</ele>
        <time>2013-02-08T12:42:05Z</time>
      </trkpt>
      <trkpt lat="45.72326" lon="3.06722">
        <ele>590</ele>
        <time>2013-02-08T12:42:05Z</time>
      </trkpt>
      <trkpt lat="45.72329" lon="3.06722">
        <ele>590</ele>
        <time>2013-02-08T12:42:05Z</time>
      </trkpt>
      <trkpt lat="45.72331" lon="3.06721">
        <ele>590</ele>
        <time>2013-02-08T12:42:05Z</time>
      </trkpt>
      <trkpt lat="45.72334" lon="3.0672">
        <ele>586</ele>
        <time>2013-02-08T12:42:05Z</time>
      </trkpt>
      <trkpt lat="45.72336" lon="3.0672">
        <ele>586</ele>
        <time>2013-02-08T12:42:05Z</time>
      </trkpt>
      <trkpt lat="45.72339" lon="3.06719">
        <ele>586</ele>
        <time>2013-02-08T12:42:05Z</time>
      </trkpt>
      <trkpt lat="45.72341" lon="3.06719">
        <ele>586</ele>
        <time>2013-02-08T12:42:05Z</time>
      </trkpt>
      <trkpt lat="45.72343" lon="3.06718">
        <ele>586</ele>
        <time>2013-02-08T12:42:05Z</time>
      </trkpt>
      <trkpt lat="45.72345" lon="3.06717">
        <ele>586</ele>
        <time>2013-02-08T12:42:05Z</time>
      </trkpt>
      <trkpt lat="45.72347" lon="3.06716">
        <ele>586</ele>
        <time>2013-02-08T12:42:05Z</time>
      </trkpt>
      <trkpt lat="45.72349" lon="3.06716">
        <ele>586</ele>
        <time>2013-02-08T12:42:05Z</time>
      </trkpt>
      <trkpt lat="45.72352" lon="3.06715">
        <ele>586</ele>
        <time>2013-02-08T12:42:05Z</time>
      </trkpt>
      <trkpt lat="45.72354" lon="3.06715">
        <ele>586</ele>
        <time>2013-02-08T12:42:05Z</time>
      </trkpt>
      <trkpt lat="45.72356" lon="3.06714">
        <ele>586</ele>
        <time>2013-02-08T12:42:05Z</time>
      </trkpt>
      <trkpt lat="45.72358" lon="3.06714">
        <ele>586</ele>
        <time>2013-02-08T12:42:05Z</time>
      </trkpt>
      <trkpt lat="45.72361" lon="3.06713">
        <ele>586</ele>
        <time>2013-02-08T12:42:05Z</time>
      </trkpt>
      <trkpt lat="45.72364" lon="3.06712">
        <ele>586</ele>
        <time>2013-02-08T12:42:05Z</time>
      </trkpt>
      <trkpt lat="45.72366" lon="3.06711">
        <ele>586</ele>
        <time>2013-02-08T12:42:05Z</time>
      </trkpt>
      <trkpt lat="45.72368" lon="3.0671">
        <ele>585</ele>
        <time>2013-02-08T12:42:05Z</time>
      </trkpt>
      <trkpt lat="45.7237" lon="3.06709">
        <ele>585</ele>
        <time>2013-02-08T12:42:05Z</time>
      </trkpt>
      <trkpt lat="45.72372" lon="3.06708">
        <ele>585</ele>
        <time>2013-02-08T12:42:05Z</time>
      </trkpt>
      <trkpt lat="45.72375" lon="3.06708">
        <ele>585</ele>
        <time>2013-02-08T12:42:05Z</time>
      </trkpt>
      <trkpt lat="45.72377" lon="3.06707">
        <ele>585</ele>
        <time>2013-02-08T12:42:05Z</time>
      </trkpt>
      <trkpt lat="45.72379" lon="3.06707">
        <ele>585</ele>
        <time>2013-02-08T12:42:05Z</time>
      </trkpt>
      <trkpt lat="45.72381" lon="3.06706">
        <ele>585</ele>
        <time>2013-02-08T12:42:05Z</time>
      </trkpt>
      <trkpt lat="45.72382" lon="3.06705">
        <ele>585</ele>
        <time>2013-02-08T12:42:05Z</time>
      </trkpt>
      <trkpt lat="45.72383" lon="3.06705">
        <ele>585</ele>
        <time>2013-02-08T12:42:05Z</time>
      </trkpt>
      <trkpt lat="45.72384" lon="3.06704">
        <ele>585</ele>
        <time>2013-02-08T12:42:05Z</time>
      </trkpt>
      <trkpt lat="45.72386" lon="3.06703">
        <ele>585</ele>
        <time>2013-02-08T12:42:05Z</time>
      </trkpt>
      <trkpt lat="45.72388" lon="3.06702">
        <ele>585</ele>
        <time>2013-02-08T12:42:05Z</time>
      </trkpt>
      <trkpt lat="45.7239" lon="3.06701">
        <ele>585</ele>
        <time>2013-02-08T12:42:05Z</time>
      </trkpt>
      <trkpt lat="45.72392" lon="3.06701">
        <ele>585</ele>
        <time>2013-02-08T12:42:05Z</time>
      </trkpt>
      <trkpt lat="45.72395" lon="3.067">
        <ele>585</ele>
        <time>2013-02-08T12:42:05Z</time>
      </trkpt>
      <trkpt lat="45.72398" lon="3.06698">
        <ele>585</ele>
        <time>2013-02-08T12:42:05Z</time>
      </trkpt>
      <trkpt lat="45.724" lon="3.06697">
        <ele>585</ele>
        <time>2013-02-08T12:42:05Z</time>
      </trkpt>
      <trkpt lat="45.72402" lon="3.06696">
        <ele>584</ele>
        <time>2013-02-08T12:42:05Z</time>
      </trkpt>
      <trkpt lat="45.72404" lon="3.06696">
        <ele>584</ele>
        <time>2013-02-08T12:42:05Z</time>
      </trkpt>
      <trkpt lat="45.72406" lon="3.06694">
        <ele>584</ele>
        <time>2013-02-08T12:42:05Z</time>
      </trkpt>
      <trkpt lat="45.72409" lon="3.06692">
        <ele>584</ele>
        <time>2013-02-08T12:42:05Z</time>
      </trkpt>
      <trkpt lat="45.72411" lon="3.06691">
        <ele>584</ele>
        <time>2013-02-08T12:42:05Z</time>
      </trkpt>
      <trkpt lat="45.72414" lon="3.06688">
        <ele>584</ele>
        <time>2013-02-08T12:42:05Z</time>
      </trkpt>
      <trkpt lat="45.72416" lon="3.06686">
        <ele>584</ele>
        <time>2013-02-08T12:42:05Z</time>
      </trkpt>
      <trkpt lat="45.72418" lon="3.06684">
        <ele>580</ele>
        <time>2013-02-08T12:42:05Z</time>
      </trkpt>
      <trkpt lat="45.7242" lon="3.06682">
        <ele>580</ele>
        <time>2013-02-08T12:42:05Z</time>
      </trkpt>
      <trkpt lat="45.72422" lon="3.06679">
        <ele>581</ele>
        <time>2013-02-08T12:42:05Z</time>
      </trkpt>
      <trkpt lat="45.72423" lon="3.06676">
        <ele>581</ele>
        <time>2013-02-08T12:42:05Z</time>
      </trkpt>
      <trkpt lat="45.72425" lon="3.06673">
        <ele>581</ele>
        <time>2013-02-08T12:42:05Z</time>
      </trkpt>
      <trkpt lat="45.72426" lon="3.06671">
        <ele>581</ele>
        <time>2013-02-08T12:42:05Z</time>
      </trkpt>
      <trkpt lat="45.72427" lon="3.06668">
        <ele>581</ele>
        <time>2013-02-08T12:42:05Z</time>
      </trkpt>
      <trkpt lat="45.72429" lon="3.06665">
        <ele>581</ele>
        <time>2013-02-08T12:42:05Z</time>
      </trkpt>
      <trkpt lat="45.7243" lon="3.06662">
        <ele>581</ele>
        <time>2013-02-08T12:42:05Z</time>
      </trkpt>
      <trkpt lat="45.72431" lon="3.06659">
        <ele>580</ele>
        <time>2013-02-08T12:42:05Z</time>
      </trkpt>
      <trkpt lat="45.72432" lon="3.06656">
        <ele>580</ele>
        <time>2013-02-08T12:42:05Z</time>
      </trkpt>
      <trkpt lat="45.72434" lon="3.06653">
        <ele>580</ele>
        <time>2013-02-08T12:42:05Z</time>
      </trkpt>
      <trkpt lat="45.72435" lon="3.06649">
        <ele>580</ele>
        <time>2013-02-08T12:42:05Z</time>
      </trkpt>
      <trkpt lat="45.72435" lon="3.06646">
        <ele>579</ele>
        <time>2013-02-08T12:42:05Z</time>
      </trkpt>
      <trkpt lat="45.72436" lon="3.06642">
        <ele>579</ele>
        <time>2013-02-08T12:42:05Z</time>
      </trkpt>
      <trkpt lat="45.72437" lon="3.06639">
        <ele>579</ele>
        <time>2013-02-08T12:42:05Z</time>
      </trkpt>
      <trkpt lat="45.72437" lon="3.06636">
        <ele>579</ele>
        <time>2013-02-08T12:42:05Z</time>
      </trkpt>
      <trkpt lat="45.72438" lon="3.06632">
        <ele>579</ele>
        <time>2013-02-08T12:42:05Z</time>
      </trkpt>
      <trkpt lat="45.72438" lon="3.06629">
        <ele>579</ele>
        <time>2013-02-08T12:42:05Z</time>
      </trkpt>
      <trkpt lat="45.72436" lon="3.06625">
        <ele>579</ele>
        <time>2013-02-08T12:42:05Z</time>
      </trkpt>
      <trkpt lat="45.72436" lon="3.06622">
        <ele>579</ele>
        <time>2013-02-08T12:42:05Z</time>
      </trkpt>
      <trkpt lat="45.72436" lon="3.06618">
        <ele>579</ele>
        <time>2013-02-08T12:42:05Z</time>
      </trkpt>
      <trkpt lat="45.72436" lon="3.06615">
        <ele>579</ele>
        <time>2013-02-08T12:42:05Z</time>
      </trkpt>
      <trkpt lat="45.72436" lon="3.06612">
        <ele>579</ele>
        <time>2013-02-08T12:42:05Z</time>
      </trkpt>
      <trkpt lat="45.72436" lon="3.06609">
        <ele>579</ele>
        <time>2013-02-08T12:42:05Z</time>
      </trkpt>
      <trkpt lat="45.72436" lon="3.06608">
        <ele>579</ele>
        <time>2013-02-08T12:42:05Z</time>
      </trkpt>
      <trkpt lat="45.72436" lon="3.06608">
        <ele>579</ele>
        <time>2013-02-08T12:42:05Z</time>
      </trkpt>
      <trkpt lat="45.72436" lon="3.06606">
        <ele>579</ele>
        <time>2013-02-08T12:42:05Z</time>
      </trkpt>
      <trkpt lat="45.72436" lon="3.06602">
        <ele>580</ele>
        <time>2013-02-08T12:42:05Z</time>
      </trkpt>
      <trkpt lat="45.72437" lon="3.06597">
        <ele>580</ele>
        <time>2013-02-08T12:42:05Z</time>
      </trkpt>
      <trkpt lat="45.72438" lon="3.06593">
        <ele>580</ele>
        <time>2013-02-08T12:42:05Z</time>
      </trkpt>
      <trkpt lat="45.72438" lon="3.06589">
        <ele>580</ele>
        <time>2013-02-08T12:42:05Z</time>
      </trkpt>
      <trkpt lat="45.72439" lon="3.06585">
        <ele>580</ele>
        <time>2013-02-08T12:42:05Z</time>
      </trkpt>
      <trkpt lat="45.72439" lon="3.06581">
        <ele>581</ele>
        <time>2013-02-08T12:42:05Z</time>
      </trkpt>
      <trkpt lat="45.72439" lon="3.06577">
        <ele>580</ele>
        <time>2013-02-08T12:42:05Z</time>
      </trkpt>
      <trkpt lat="45.7244" lon="3.06573">
        <ele>580</ele>
        <time>2013-02-08T12:42:05Z</time>
      </trkpt>
      <trkpt lat="45.7244" lon="3.06569">
        <ele>580</ele>
        <time>2013-02-08T12:42:05Z</time>
      </trkpt>
      <trkpt lat="45.72442" lon="3.06566">
        <ele>580</ele>
        <time>2013-02-08T12:42:05Z</time>
      </trkpt>
      <trkpt lat="45.72443" lon="3.06562">
        <ele>580</ele>
        <time>2013-02-08T12:42:05Z</time>
      </trkpt>
      <trkpt lat="45.72444" lon="3.06559">
        <ele>580</ele>
        <time>2013-02-08T12:42:05Z</time>
      </trkpt>
      <trkpt lat="45.72444" lon="3.06555">
        <ele>580</ele>
        <time>2013-02-08T12:42:05Z</time>
      </trkpt>
      <trkpt lat="45.72444" lon="3.06552">
        <ele>580</ele>
        <time>2013-02-08T12:42:05Z</time>
      </trkpt>
      <trkpt lat="45.72445" lon="3.06548">
        <ele>580</ele>
        <time>2013-02-08T12:42:05Z</time>
      </trkpt>
      <trkpt lat="45.72445" lon="3.06545">
        <ele>580</ele>
        <time>2013-02-08T12:42:05Z</time>
      </trkpt>
      <trkpt lat="45.72445" lon="3.06541">
        <ele>580</ele>
        <time>2013-02-08T12:42:05Z</time>
      </trkpt>
      <trkpt lat="45.72446" lon="3.06537">
        <ele>580</ele>
        <time>2013-02-08T12:42:05Z</time>
      </trkpt>
      <trkpt lat="45.72445" lon="3.06534">
        <ele>580</ele>
        <time>2013-02-08T12:42:05Z</time>
      </trkpt>
      <trkpt lat="45.72446" lon="3.06531">
        <ele>580</ele>
        <time>2013-02-08T12:42:05Z</time>
      </trkpt>
      <trkpt lat="45.72447" lon="3.06528">
        <ele>580</ele>
        <time>2013-02-08T12:42:05Z</time>
      </trkpt>
      <trkpt lat="45.72447" lon="3.06525">
        <ele>580</ele>
        <time>2013-02-08T12:42:05Z</time>
      </trkpt>
      <trkpt lat="45.72448" lon="3.06522">
        <ele>580</ele>
        <time>2013-02-08T12:42:05Z</time>
      </trkpt>
      <trkpt lat="45.72449" lon="3.06519">
        <ele>580</ele>
        <time>2013-02-08T12:42:05Z</time>
      </trkpt>
      <trkpt lat="45.7245" lon="3.06516">
        <ele>580</ele>
        <time>2013-02-08T12:42:05Z</time>
      </trkpt>
      <trkpt lat="45.72451" lon="3.06514">
        <ele>580</ele>
        <time>2013-02-08T12:42:05Z</time>
      </trkpt>
      <trkpt lat="45.72451" lon="3.0651">
        <ele>580</ele>
        <time>2013-02-08T12:42:05Z</time>
      </trkpt>
      <trkpt lat="45.72451" lon="3.06506">
        <ele>580</ele>
        <time>2013-02-08T12:42:05Z</time>
      </trkpt>
      <trkpt lat="45.72451" lon="3.06502">
        <ele>580</ele>
        <time>2013-02-08T12:42:05Z</time>
      </trkpt>
      <trkpt lat="45.7245" lon="3.06498">
        <ele>584</ele>
        <time>2013-02-08T12:42:05Z</time>
      </trkpt>
      <trkpt lat="45.7245" lon="3.06494">
        <ele>584</ele>
        <time>2013-02-08T12:42:05Z</time>
      </trkpt>
      <trkpt lat="45.7245" lon="3.0649">
        <ele>584</ele>
        <time>2013-02-08T12:42:05Z</time>
      </trkpt>
      <trkpt lat="45.72451" lon="3.06486">
        <ele>584</ele>
        <time>2013-02-08T12:42:05Z</time>
      </trkpt>
      <trkpt lat="45.72451" lon="3.06482">
        <ele>585</ele>
        <time>2013-02-08T12:42:05Z</time>
      </trkpt>
      <trkpt lat="45.72451" lon="3.0648">
        <ele>585</ele>
        <time>2013-02-08T12:42:05Z</time>
      </trkpt>
      <trkpt lat="45.72451" lon="3.06476">
        <ele>585</ele>
        <time>2013-02-08T12:42:05Z</time>
      </trkpt>
      <trkpt lat="45.72452" lon="3.06473">
        <ele>585</ele>
        <time>2013-02-08T12:42:05Z</time>
      </trkpt>
      <trkpt lat="45.72452" lon="3.0647">
        <ele>585</ele>
        <time>2013-02-08T12:42:05Z</time>
      </trkpt>
      <trkpt lat="45.72452" lon="3.06467">
        <ele>585</ele>
        <time>2013-02-08T12:42:05Z</time>
      </trkpt>
      <trkpt lat="45.72452" lon="3.06463">
        <ele>585</ele>
        <time>2013-02-08T12:42:05Z</time>
      </trkpt>
      <trkpt lat="45.72453" lon="3.0646">
        <ele>586</ele>
        <time>2013-02-08T12:42:05Z</time>
      </trkpt>
      <trkpt lat="45.72452" lon="3.06456">
        <ele>586</ele>
        <time>2013-02-08T12:42:05Z</time>
      </trkpt>
      <trkpt lat="45.72453" lon="3.06452">
        <ele>586</ele>
        <time>2013-02-08T12:42:05Z</time>
      </trkpt>
      <trkpt lat="45.72453" lon="3.06448">
        <ele>586</ele>
        <time>2013-02-08T12:42:05Z</time>
      </trkpt>
      <trkpt lat="45.72453" lon="3.06445">
        <ele>587</ele>
        <time>2013-02-08T12:42:05Z</time>
      </trkpt>
      <trkpt lat="45.72454" lon="3.06442">
        <ele>587</ele>
        <time>2013-02-08T12:42:05Z</time>
      </trkpt>
      <trkpt lat="45.72455" lon="3.06439">
        <ele>587</ele>
        <time>2013-02-08T12:42:05Z</time>
      </trkpt>
      <trkpt lat="45.72455" lon="3.06436">
        <ele>587</ele>
        <time>2013-02-08T12:42:05Z</time>
      </trkpt>
      <trkpt lat="45.72456" lon="3.06433">
        <ele>587</ele>
        <time>2013-02-08T12:42:05Z</time>
      </trkpt>
      <trkpt lat="45.72456" lon="3.06431">
        <ele>587</ele>
        <time>2013-02-08T12:42:05Z</time>
      </trkpt>
      <trkpt lat="45.72456" lon="3.06427">
        <ele>587</ele>
        <time>2013-02-08T12:42:05Z</time>
      </trkpt>
      <trkpt lat="45.72456" lon="3.06423">
        <ele>587</ele>
        <time>2013-02-08T12:42:05Z</time>
      </trkpt>
      <trkpt lat="45.72457" lon="3.0642">
        <ele>587</ele>
        <time>2013-02-08T12:42:05Z</time>
      </trkpt>
      <trkpt lat="45.72457" lon="3.06416">
        <ele>595</ele>
        <time>2013-02-08T12:42:05Z</time>
      </trkpt>
      <trkpt lat="45.72457" lon="3.06413">
        <ele>595</ele>
        <time>2013-02-08T12:42:05Z</time>
      </trkpt>
      <trkpt lat="45.72457" lon="3.0641">
        <ele>595</ele>
        <time>2013-02-08T12:42:05Z</time>
      </trkpt>
      <trkpt lat="45.72458" lon="3.06406">
        <ele>595</ele>
        <time>2013-02-08T12:42:05Z</time>
      </trkpt>
      <trkpt lat="45.72458" lon="3.06402">
        <ele>595</ele>
        <time>2013-02-08T12:42:05Z</time>
      </trkpt>
      <trkpt lat="45.72459" lon="3.06399">
        <ele>595</ele>
        <time>2013-02-08T12:42:05Z</time>
      </trkpt>
      <trkpt lat="45.72459" lon="3.06396">
        <ele>596</ele>
        <time>2013-02-08T12:42:05Z</time>
      </trkpt>
      <trkpt lat="45.7246" lon="3.06393">
        <ele>596</ele>
        <time>2013-02-08T12:42:05Z</time>
      </trkpt>
      <trkpt lat="45.72462" lon="3.0639">
        <ele>595</ele>
        <time>2013-02-08T12:42:05Z</time>
      </trkpt>
      <trkpt lat="45.72463" lon="3.06388">
        <ele>595</ele>
        <time>2013-02-08T12:42:05Z</time>
      </trkpt>
      <trkpt lat="45.72466" lon="3.06385">
        <ele>595</ele>
        <time>2013-02-08T12:42:05Z</time>
      </trkpt>
      <trkpt lat="45.72468" lon="3.06382">
        <ele>595</ele>
        <time>2013-02-08T12:42:05Z</time>
      </trkpt>
      <trkpt lat="45.72471" lon="3.0638">
        <ele>595</ele>
        <time>2013-02-08T12:42:05Z</time>
      </trkpt>
      <trkpt lat="45.72473" lon="3.06378">
        <ele>595</ele>
        <time>2013-02-08T12:42:05Z</time>
      </trkpt>
      <trkpt lat="45.72475" lon="3.06376">
        <ele>594</ele>
        <time>2013-02-08T12:42:05Z</time>
      </trkpt>
      <trkpt lat="45.72476" lon="3.06372">
        <ele>594</ele>
        <time>2013-02-08T12:42:05Z</time>
      </trkpt>
      <trkpt lat="45.72475" lon="3.06369">
        <ele>595</ele>
        <time>2013-02-08T12:42:05Z</time>
      </trkpt>
      <trkpt lat="45.72473" lon="3.06364">
        <ele>595</ele>
        <time>2013-02-08T12:42:05Z</time>
      </trkpt>
      <trkpt lat="45.72473" lon="3.0636">
        <ele>596</ele>
        <time>2013-02-08T12:42:05Z</time>
      </trkpt>
      <trkpt lat="45.72474" lon="3.06356">
        <ele>596</ele>
        <time>2013-02-08T12:42:05Z</time>
      </trkpt>
      <trkpt lat="45.72475" lon="3.06353">
        <ele>595</ele>
        <time>2013-02-08T12:42:05Z</time>
      </trkpt>
      <trkpt lat="45.72476" lon="3.06352">
        <ele>595</ele>
        <time>2013-02-08T12:42:05Z</time>
      </trkpt>
      <trkpt lat="45.72478" lon="3.06351">
        <ele>595</ele>
        <time>2013-02-08T12:42:05Z</time>
      </trkpt>
      <trkpt lat="45.72479" lon="3.06347">
        <ele>594</ele>
        <time>2013-02-08T12:42:05Z</time>
      </trkpt>
      <trkpt lat="45.7248" lon="3.06344">
        <ele>594</ele>
        <time>2013-02-08T12:42:05Z</time>
      </trkpt>
      <trkpt lat="45.72483" lon="3.06341">
        <ele>593</ele>
        <time>2013-02-08T12:42:05Z</time>
      </trkpt>
      <trkpt lat="45.72485" lon="3.06338">
        <ele>592</ele>
        <time>2013-02-08T12:42:05Z</time>
      </trkpt>
      <trkpt lat="45.72488" lon="3.06334">
        <ele>592</ele>
        <time>2013-02-08T12:42:05Z</time>
      </trkpt>
      <trkpt lat="45.72489" lon="3.06332">
        <ele>594</ele>
        <time>2013-02-08T12:42:05Z</time>
      </trkpt>
      <trkpt lat="45.7249" lon="3.06329">
        <ele>594</ele>
        <time>2013-02-08T12:42:05Z</time>
      </trkpt>
      <trkpt lat="45.72491" lon="3.06325">
        <ele>595</ele>
        <time>2013-02-08T12:42:05Z</time>
      </trkpt>
      <trkpt lat="45.72493" lon="3.06322">
        <ele>595</ele>
        <time>2013-02-08T12:42:05Z</time>
      </trkpt>
      <trkpt lat="45.72494" lon="3.06319">
        <ele>596</ele>
        <time>2013-02-08T12:42:05Z</time>
      </trkpt>
      <trkpt lat="45.72492" lon="3.06315">
        <ele>597</ele>
        <time>2013-02-08T12:42:05Z</time>
      </trkpt>
      <trkpt lat="45.72491" lon="3.06311">
        <ele>599</ele>
        <time>2013-02-08T12:42:05Z</time>
      </trkpt>
      <trkpt lat="45.72492" lon="3.06308">
        <ele>599</ele>
        <time>2013-02-08T12:42:05Z</time>
      </trkpt>
      <trkpt lat="45.72491" lon="3.06305">
        <ele>600</ele>
        <time>2013-02-08T12:42:05Z</time>
      </trkpt>
      <trkpt lat="45.7249" lon="3.063">
        <ele>600</ele>
        <time>2013-02-08T12:42:05Z</time>
      </trkpt>
      <trkpt lat="45.7249" lon="3.06298">
        <ele>601</ele>
        <time>2013-02-08T12:42:05Z</time>
      </trkpt>
      <trkpt lat="45.72494" lon="3.06297">
        <ele>600</ele>
        <time>2013-02-08T12:42:05Z</time>
      </trkpt>
    </trkseg>
  </trk>
</gpx>